<?xml version="1.0" encoding="UTF-8" standalone="no" ?>
<gpx xmlns="http://www.topografix.com/GPX/1/1" xmlns:xsi="http://www.w3.org/2001/XMLSchema-instance" xsi:schemaLocation="http://www.topografix.com/GPX/1/1 http://www.topografix.com/GPX/1/1/gpx.xsd" version="1.1" creator="VisuGPX - https://www.visugpx.com">
  <metadata>
    <name>Grand Tour des Monts du Lyonnais VTT - Modifié</name>
    <desc><![CDATA[
Parcours légèrement raccourci]]></desc>
  </metadata>
  <trk>
    <name><![CDATA[9869142-Grand Tour des Monts du Lyonnais VTT]]></name>
    <trkseg>
      <trkpt lat="45.67156" lon="4.75532">
        <ele>206</ele>
        <time>2019-04-25T14:18:15Z</time>
      </trkpt>
      <trkpt lat="45.67191" lon="4.75546">
        <ele>206</ele>
        <time>2019-04-25T14:19:15Z</time>
      </trkpt>
      <trkpt lat="45.67219" lon="4.75567">
        <ele>207</ele>
        <time>2019-04-25T14:20:15Z</time>
      </trkpt>
      <trkpt lat="45.67238" lon="4.75576">
        <ele>207</ele>
        <time>2019-04-25T14:21:15Z</time>
      </trkpt>
      <trkpt lat="45.67261" lon="4.75579">
        <ele>207</ele>
        <time>2019-04-25T14:22:15Z</time>
      </trkpt>
      <trkpt lat="45.67302" lon="4.75572">
        <ele>207</ele>
        <time>2019-04-25T14:23:15Z</time>
      </trkpt>
      <trkpt lat="45.67382" lon="4.75551">
        <ele>208</ele>
        <time>2019-04-25T14:24:15Z</time>
      </trkpt>
      <trkpt lat="45.67392" lon="4.75547">
        <ele>208</ele>
        <time>2019-04-25T14:25:15Z</time>
      </trkpt>
      <trkpt lat="45.67393" lon="4.75535">
        <ele>208</ele>
        <time>2019-04-25T14:26:15Z</time>
      </trkpt>
      <trkpt lat="45.67396" lon="4.75531">
        <ele>208</ele>
        <time>2019-04-25T14:27:15Z</time>
      </trkpt>
      <trkpt lat="45.67399" lon="4.75533">
        <ele>208</ele>
        <time>2019-04-25T14:28:15Z</time>
      </trkpt>
      <trkpt lat="45.67407" lon="4.75578">
        <ele>209</ele>
        <time>2019-04-25T14:29:15Z</time>
      </trkpt>
      <trkpt lat="45.67408" lon="4.7558">
        <ele>209</ele>
        <time>2019-04-25T14:30:15Z</time>
      </trkpt>
      <trkpt lat="45.67411" lon="4.75579">
        <ele>209</ele>
        <time>2019-04-25T14:31:15Z</time>
      </trkpt>
      <trkpt lat="45.67409" lon="4.75557">
        <ele>209</ele>
        <time>2019-04-25T14:32:15Z</time>
      </trkpt>
      <trkpt lat="45.67421" lon="4.75547">
        <ele>208</ele>
        <time>2019-04-25T14:33:15Z</time>
      </trkpt>
      <trkpt lat="45.67449" lon="4.75532">
        <ele>207</ele>
        <time>2019-04-25T14:34:15Z</time>
      </trkpt>
      <trkpt lat="45.67457" lon="4.75525">
        <ele>207</ele>
        <time>2019-04-25T14:35:15Z</time>
      </trkpt>
      <trkpt lat="45.67476" lon="4.75492">
        <ele>206</ele>
        <time>2019-04-25T14:36:15Z</time>
      </trkpt>
      <trkpt lat="45.6748" lon="4.75512">
        <ele>206</ele>
        <time>2019-04-25T14:37:15Z</time>
      </trkpt>
      <trkpt lat="45.6748" lon="4.75466">
        <ele>206</ele>
        <time>2019-04-25T14:38:15Z</time>
      </trkpt>
      <trkpt lat="45.67495" lon="4.75442">
        <ele>206</ele>
        <time>2019-04-25T14:39:15Z</time>
      </trkpt>
      <trkpt lat="45.67534" lon="4.75392">
        <ele>207</ele>
        <time>2019-04-25T14:40:15Z</time>
      </trkpt>
      <trkpt lat="45.67547" lon="4.75384">
        <ele>208</ele>
        <time>2019-04-25T14:41:15Z</time>
      </trkpt>
      <trkpt lat="45.67571" lon="4.75374">
        <ele>208</ele>
        <time>2019-04-25T14:42:15Z</time>
      </trkpt>
      <trkpt lat="45.67576" lon="4.75369">
        <ele>208</ele>
        <time>2019-04-25T14:43:15Z</time>
      </trkpt>
      <trkpt lat="45.67591" lon="4.75317">
        <ele>208</ele>
        <time>2019-04-25T14:44:15Z</time>
      </trkpt>
      <trkpt lat="45.67601" lon="4.75293">
        <ele>208</ele>
        <time>2019-04-25T14:45:15Z</time>
      </trkpt>
      <trkpt lat="45.67614" lon="4.75274">
        <ele>208</ele>
        <time>2019-04-25T14:46:15Z</time>
      </trkpt>
      <trkpt lat="45.67624" lon="4.75266">
        <ele>208</ele>
        <time>2019-04-25T14:47:15Z</time>
      </trkpt>
      <trkpt lat="45.6765" lon="4.75253">
        <ele>208</ele>
        <time>2019-04-25T14:48:15Z</time>
      </trkpt>
      <trkpt lat="45.6767" lon="4.75249">
        <ele>208</ele>
        <time>2019-04-25T14:49:15Z</time>
      </trkpt>
      <trkpt lat="45.677" lon="4.75248">
        <ele>208</ele>
        <time>2019-04-25T14:50:15Z</time>
      </trkpt>
      <trkpt lat="45.67717" lon="4.75245">
        <ele>209</ele>
        <time>2019-04-25T14:51:15Z</time>
      </trkpt>
      <trkpt lat="45.67736" lon="4.75238">
        <ele>209</ele>
        <time>2019-04-25T14:52:15Z</time>
      </trkpt>
      <trkpt lat="45.6775" lon="4.75231">
        <ele>209</ele>
        <time>2019-04-25T14:53:15Z</time>
      </trkpt>
      <trkpt lat="45.6779" lon="4.75199">
        <ele>208</ele>
        <time>2019-04-25T14:54:15Z</time>
      </trkpt>
      <trkpt lat="45.67791" lon="4.75195">
        <ele>208</ele>
        <time>2019-04-25T14:55:15Z</time>
      </trkpt>
      <trkpt lat="45.67788" lon="4.75187">
        <ele>208</ele>
        <time>2019-04-25T14:56:15Z</time>
      </trkpt>
      <trkpt lat="45.67733" lon="4.7506">
        <ele>212</ele>
        <time>2019-04-25T14:57:15Z</time>
      </trkpt>
      <trkpt lat="45.67733" lon="4.75042">
        <ele>214</ele>
        <time>2019-04-25T14:58:15Z</time>
      </trkpt>
      <trkpt lat="45.67738" lon="4.75025">
        <ele>216</ele>
        <time>2019-04-25T14:59:15Z</time>
      </trkpt>
      <trkpt lat="45.67743" lon="4.75018">
        <ele>217</ele>
        <time>2019-04-25T15:00:15Z</time>
      </trkpt>
      <trkpt lat="45.67756" lon="4.75009">
        <ele>217</ele>
        <time>2019-04-25T15:01:15Z</time>
      </trkpt>
      <trkpt lat="45.67848" lon="4.74969">
        <ele>215</ele>
        <time>2019-04-25T15:02:15Z</time>
      </trkpt>
      <trkpt lat="45.67886" lon="4.74931">
        <ele>217</ele>
        <time>2019-04-25T15:03:15Z</time>
      </trkpt>
      <trkpt lat="45.67901" lon="4.74898">
        <ele>219</ele>
        <time>2019-04-25T15:04:15Z</time>
      </trkpt>
      <trkpt lat="45.67909" lon="4.74866">
        <ele>222</ele>
        <time>2019-04-25T15:05:15Z</time>
      </trkpt>
      <trkpt lat="45.67919" lon="4.7484">
        <ele>223</ele>
        <time>2019-04-25T15:06:15Z</time>
      </trkpt>
      <trkpt lat="45.67934" lon="4.74825">
        <ele>224</ele>
        <time>2019-04-25T15:07:15Z</time>
      </trkpt>
      <trkpt lat="45.6797" lon="4.74799">
        <ele>225</ele>
        <time>2019-04-25T15:08:15Z</time>
      </trkpt>
      <trkpt lat="45.67988" lon="4.74783">
        <ele>226</ele>
        <time>2019-04-25T15:09:15Z</time>
      </trkpt>
      <trkpt lat="45.68005" lon="4.74775">
        <ele>225</ele>
        <time>2019-04-25T15:10:15Z</time>
      </trkpt>
      <trkpt lat="45.6801" lon="4.74775">
        <ele>225</ele>
        <time>2019-04-25T15:11:15Z</time>
      </trkpt>
      <trkpt lat="45.68073" lon="4.74795">
        <ele>220</ele>
        <time>2019-04-25T15:12:15Z</time>
      </trkpt>
      <trkpt lat="45.68097" lon="4.74789">
        <ele>221</ele>
        <time>2019-04-25T15:13:15Z</time>
      </trkpt>
      <trkpt lat="45.68145" lon="4.74748">
        <ele>224</ele>
        <time>2019-04-25T15:14:15Z</time>
      </trkpt>
      <trkpt lat="45.68177" lon="4.74711">
        <ele>226</ele>
        <time>2019-04-25T15:15:15Z</time>
      </trkpt>
      <trkpt lat="45.68183" lon="4.74707">
        <ele>226</ele>
        <time>2019-04-25T15:16:15Z</time>
      </trkpt>
      <trkpt lat="45.68215" lon="4.74702">
        <ele>223</ele>
        <time>2019-04-25T15:17:15Z</time>
      </trkpt>
      <trkpt lat="45.68224" lon="4.74697">
        <ele>223</ele>
        <time>2019-04-25T15:18:15Z</time>
      </trkpt>
      <trkpt lat="45.68239" lon="4.74685">
        <ele>223</ele>
        <time>2019-04-25T15:19:15Z</time>
      </trkpt>
      <trkpt lat="45.6827" lon="4.74653">
        <ele>225</ele>
        <time>2019-04-25T15:20:15Z</time>
      </trkpt>
      <trkpt lat="45.68323" lon="4.74616">
        <ele>225</ele>
        <time>2019-04-25T15:21:15Z</time>
      </trkpt>
      <trkpt lat="45.68375" lon="4.74599">
        <ele>221</ele>
        <time>2019-04-25T15:22:15Z</time>
      </trkpt>
      <trkpt lat="45.68395" lon="4.74582">
        <ele>220</ele>
        <time>2019-04-25T15:23:15Z</time>
      </trkpt>
      <trkpt lat="45.68408" lon="4.74565">
        <ele>220</ele>
        <time>2019-04-25T15:24:15Z</time>
      </trkpt>
      <trkpt lat="45.68419" lon="4.74556">
        <ele>220</ele>
        <time>2019-04-25T15:25:15Z</time>
      </trkpt>
      <trkpt lat="45.68422" lon="4.74546">
        <ele>221</ele>
        <time>2019-04-25T15:26:15Z</time>
      </trkpt>
      <trkpt lat="45.68421" lon="4.74533">
        <ele>222</ele>
        <time>2019-04-25T15:27:15Z</time>
      </trkpt>
      <trkpt lat="45.68427" lon="4.74463">
        <ele>233</ele>
        <time>2019-04-25T15:28:15Z</time>
      </trkpt>
      <trkpt lat="45.68423" lon="4.74446">
        <ele>236</ele>
        <time>2019-04-25T15:29:15Z</time>
      </trkpt>
      <trkpt lat="45.68396" lon="4.74427">
        <ele>239</ele>
        <time>2019-04-25T15:30:15Z</time>
      </trkpt>
      <trkpt lat="45.68395" lon="4.74419">
        <ele>240</ele>
        <time>2019-04-25T15:31:15Z</time>
      </trkpt>
      <trkpt lat="45.68409" lon="4.74421">
        <ele>240</ele>
        <time>2019-04-25T15:32:15Z</time>
      </trkpt>
      <trkpt lat="45.68404" lon="4.74415">
        <ele>241</ele>
        <time>2019-04-25T15:33:15Z</time>
      </trkpt>
      <trkpt lat="45.68368" lon="4.74397">
        <ele>243</ele>
        <time>2019-04-25T15:34:15Z</time>
      </trkpt>
      <trkpt lat="45.68337" lon="4.74372">
        <ele>246</ele>
        <time>2019-04-25T15:35:15Z</time>
      </trkpt>
      <trkpt lat="45.68297" lon="4.74314">
        <ele>255</ele>
        <time>2019-04-25T15:36:15Z</time>
      </trkpt>
      <trkpt lat="45.68245" lon="4.74225">
        <ele>258</ele>
        <time>2019-04-25T15:37:15Z</time>
      </trkpt>
      <trkpt lat="45.68227" lon="4.74174">
        <ele>263</ele>
        <time>2019-04-25T15:38:15Z</time>
      </trkpt>
      <trkpt lat="45.68207" lon="4.74087">
        <ele>272</ele>
        <time>2019-04-25T15:39:15Z</time>
      </trkpt>
      <trkpt lat="45.68176" lon="4.74004">
        <ele>276</ele>
        <time>2019-04-25T15:40:15Z</time>
      </trkpt>
      <trkpt lat="45.68135" lon="4.7392">
        <ele>283</ele>
        <time>2019-04-25T15:41:15Z</time>
      </trkpt>
      <trkpt lat="45.68127" lon="4.73909">
        <ele>284</ele>
        <time>2019-04-25T15:42:15Z</time>
      </trkpt>
      <trkpt lat="45.68114" lon="4.73899">
        <ele>284</ele>
        <time>2019-04-25T15:43:15Z</time>
      </trkpt>
      <trkpt lat="45.68086" lon="4.73858">
        <ele>284</ele>
        <time>2019-04-25T15:44:15Z</time>
      </trkpt>
      <trkpt lat="45.68078" lon="4.73834">
        <ele>284</ele>
        <time>2019-04-25T15:45:15Z</time>
      </trkpt>
      <trkpt lat="45.68065" lon="4.73778">
        <ele>287</ele>
        <time>2019-04-25T15:46:15Z</time>
      </trkpt>
      <trkpt lat="45.68058" lon="4.73765">
        <ele>288</ele>
        <time>2019-04-25T15:47:15Z</time>
      </trkpt>
      <trkpt lat="45.68062" lon="4.73759">
        <ele>288</ele>
        <time>2019-04-25T15:48:15Z</time>
      </trkpt>
      <trkpt lat="45.68106" lon="4.73746">
        <ele>288</ele>
        <time>2019-04-25T15:49:15Z</time>
      </trkpt>
      <trkpt lat="45.68142" lon="4.73729">
        <ele>288</ele>
        <time>2019-04-25T15:50:15Z</time>
      </trkpt>
      <trkpt lat="45.68183" lon="4.73694">
        <ele>287</ele>
        <time>2019-04-25T15:51:15Z</time>
      </trkpt>
      <trkpt lat="45.68235" lon="4.73687">
        <ele>286</ele>
        <time>2019-04-25T15:52:15Z</time>
      </trkpt>
      <trkpt lat="45.68246" lon="4.7369">
        <ele>285</ele>
        <time>2019-04-25T15:53:15Z</time>
      </trkpt>
      <trkpt lat="45.68287" lon="4.73678">
        <ele>283</ele>
        <time>2019-04-25T15:54:15Z</time>
      </trkpt>
      <trkpt lat="45.68339" lon="4.73669">
        <ele>280</ele>
        <time>2019-04-25T15:55:15Z</time>
      </trkpt>
      <trkpt lat="45.68347" lon="4.73658">
        <ele>280</ele>
        <time>2019-04-25T15:56:15Z</time>
      </trkpt>
      <trkpt lat="45.6838" lon="4.73633">
        <ele>279</ele>
        <time>2019-04-25T15:57:15Z</time>
      </trkpt>
      <trkpt lat="45.68396" lon="4.73624">
        <ele>278</ele>
        <time>2019-04-25T15:58:15Z</time>
      </trkpt>
      <trkpt lat="45.68453" lon="4.73615">
        <ele>276</ele>
        <time>2019-04-25T15:59:15Z</time>
      </trkpt>
      <trkpt lat="45.68464" lon="4.73607">
        <ele>275</ele>
        <time>2019-04-25T16:00:15Z</time>
      </trkpt>
      <trkpt lat="45.68472" lon="4.73595">
        <ele>274</ele>
        <time>2019-04-25T16:01:15Z</time>
      </trkpt>
      <trkpt lat="45.68486" lon="4.73581">
        <ele>272</ele>
        <time>2019-04-25T16:02:15Z</time>
      </trkpt>
      <trkpt lat="45.68496" lon="4.73564">
        <ele>271</ele>
        <time>2019-04-25T16:03:15Z</time>
      </trkpt>
      <trkpt lat="45.68504" lon="4.73559">
        <ele>270</ele>
        <time>2019-04-25T16:04:15Z</time>
      </trkpt>
      <trkpt lat="45.68509" lon="4.73537">
        <ele>269</ele>
        <time>2019-04-25T16:05:15Z</time>
      </trkpt>
      <trkpt lat="45.68513" lon="4.73531">
        <ele>268</ele>
        <time>2019-04-25T16:06:15Z</time>
      </trkpt>
      <trkpt lat="45.68519" lon="4.73529">
        <ele>268</ele>
        <time>2019-04-25T16:07:15Z</time>
      </trkpt>
      <trkpt lat="45.68529" lon="4.73529">
        <ele>267</ele>
        <time>2019-04-25T16:08:15Z</time>
      </trkpt>
      <trkpt lat="45.68534" lon="4.73535">
        <ele>267</ele>
        <time>2019-04-25T16:09:15Z</time>
      </trkpt>
      <trkpt lat="45.68563" lon="4.73527">
        <ele>264</ele>
        <time>2019-04-25T16:10:15Z</time>
      </trkpt>
      <trkpt lat="45.68587" lon="4.73511">
        <ele>261</ele>
        <time>2019-04-25T16:11:15Z</time>
      </trkpt>
      <trkpt lat="45.68595" lon="4.7351">
        <ele>260</ele>
        <time>2019-04-25T16:12:15Z</time>
      </trkpt>
      <trkpt lat="45.686" lon="4.73514">
        <ele>261</ele>
        <time>2019-04-25T16:13:15Z</time>
      </trkpt>
      <trkpt lat="45.68608" lon="4.7351">
        <ele>260</ele>
        <time>2019-04-25T16:14:15Z</time>
      </trkpt>
      <trkpt lat="45.68629" lon="4.73511">
        <ele>259</ele>
        <time>2019-04-25T16:15:15Z</time>
      </trkpt>
      <trkpt lat="45.6864" lon="4.73517">
        <ele>259</ele>
        <time>2019-04-25T16:16:15Z</time>
      </trkpt>
      <trkpt lat="45.68649" lon="4.73536">
        <ele>259</ele>
        <time>2019-04-25T16:17:15Z</time>
      </trkpt>
      <trkpt lat="45.68665" lon="4.73547">
        <ele>259</ele>
        <time>2019-04-25T16:18:15Z</time>
      </trkpt>
      <trkpt lat="45.68694" lon="4.73556">
        <ele>257</ele>
        <time>2019-04-25T16:19:15Z</time>
      </trkpt>
      <trkpt lat="45.68769" lon="4.73573">
        <ele>249</ele>
        <time>2019-04-25T16:20:15Z</time>
      </trkpt>
      <trkpt lat="45.68796" lon="4.73569">
        <ele>246</ele>
        <time>2019-04-25T16:21:15Z</time>
      </trkpt>
      <trkpt lat="45.68826" lon="4.73556">
        <ele>242</ele>
        <time>2019-04-25T16:22:15Z</time>
      </trkpt>
      <trkpt lat="45.6884" lon="4.73539">
        <ele>241</ele>
        <time>2019-04-25T16:23:15Z</time>
      </trkpt>
      <trkpt lat="45.68846" lon="4.73536">
        <ele>240</ele>
        <time>2019-04-25T16:24:15Z</time>
      </trkpt>
      <trkpt lat="45.68874" lon="4.73509">
        <ele>237</ele>
        <time>2019-04-25T16:25:15Z</time>
      </trkpt>
      <trkpt lat="45.68899" lon="4.735">
        <ele>233</ele>
        <time>2019-04-25T16:26:15Z</time>
      </trkpt>
      <trkpt lat="45.68928" lon="4.73498">
        <ele>230</ele>
        <time>2019-04-25T16:27:15Z</time>
      </trkpt>
      <trkpt lat="45.6895" lon="4.73508">
        <ele>228</ele>
        <time>2019-04-25T16:28:15Z</time>
      </trkpt>
      <trkpt lat="45.68956" lon="4.73524">
        <ele>228</ele>
        <time>2019-04-25T16:29:15Z</time>
      </trkpt>
      <trkpt lat="45.68956" lon="4.73577">
        <ele>230</ele>
        <time>2019-04-25T16:30:15Z</time>
      </trkpt>
      <trkpt lat="45.68962" lon="4.73628">
        <ele>229</ele>
        <time>2019-04-25T16:31:15Z</time>
      </trkpt>
      <trkpt lat="45.68958" lon="4.73764">
        <ele>229</ele>
        <time>2019-04-25T16:32:15Z</time>
      </trkpt>
      <trkpt lat="45.6898" lon="4.7379">
        <ele>225</ele>
        <time>2019-04-25T16:33:15Z</time>
      </trkpt>
      <trkpt lat="45.69006" lon="4.73836">
        <ele>224</ele>
        <time>2019-04-25T16:34:15Z</time>
      </trkpt>
      <trkpt lat="45.69031" lon="4.73857">
        <ele>231</ele>
        <time>2019-04-25T16:35:15Z</time>
      </trkpt>
      <trkpt lat="45.69035" lon="4.73865">
        <ele>232</ele>
        <time>2019-04-25T16:36:15Z</time>
      </trkpt>
      <trkpt lat="45.69037" lon="4.7388">
        <ele>234</ele>
        <time>2019-04-25T16:37:15Z</time>
      </trkpt>
      <trkpt lat="45.69036" lon="4.7391">
        <ele>235</ele>
        <time>2019-04-25T16:38:15Z</time>
      </trkpt>
      <trkpt lat="45.69038" lon="4.73912">
        <ele>236</ele>
        <time>2019-04-25T16:39:15Z</time>
      </trkpt>
      <trkpt lat="45.69043" lon="4.73904">
        <ele>237</ele>
        <time>2019-04-25T16:40:15Z</time>
      </trkpt>
      <trkpt lat="45.69058" lon="4.73832">
        <ele>236</ele>
        <time>2019-04-25T16:41:15Z</time>
      </trkpt>
      <trkpt lat="45.69057" lon="4.73732">
        <ele>235</ele>
        <time>2019-04-25T16:42:15Z</time>
      </trkpt>
      <trkpt lat="45.69059" lon="4.73715">
        <ele>234</ele>
        <time>2019-04-25T16:43:15Z</time>
      </trkpt>
      <trkpt lat="45.6907" lon="4.73686">
        <ele>233</ele>
        <time>2019-04-25T16:44:15Z</time>
      </trkpt>
      <trkpt lat="45.69093" lon="4.73644">
        <ele>233</ele>
        <time>2019-04-25T16:45:15Z</time>
      </trkpt>
      <trkpt lat="45.69099" lon="4.73628">
        <ele>233</ele>
        <time>2019-04-25T16:46:15Z</time>
      </trkpt>
      <trkpt lat="45.69109" lon="4.73568">
        <ele>230</ele>
        <time>2019-04-25T16:47:15Z</time>
      </trkpt>
      <trkpt lat="45.69118" lon="4.73542">
        <ele>230</ele>
        <time>2019-04-25T16:48:15Z</time>
      </trkpt>
      <trkpt lat="45.69125" lon="4.73533">
        <ele>230</ele>
        <time>2019-04-25T16:49:15Z</time>
      </trkpt>
      <trkpt lat="45.69145" lon="4.73492">
        <ele>229</ele>
        <time>2019-04-25T16:50:15Z</time>
      </trkpt>
      <trkpt lat="45.69188" lon="4.73436">
        <ele>228</ele>
        <time>2019-04-25T16:51:15Z</time>
      </trkpt>
      <trkpt lat="45.69194" lon="4.73411">
        <ele>227</ele>
        <time>2019-04-25T16:52:15Z</time>
      </trkpt>
      <trkpt lat="45.69199" lon="4.73366">
        <ele>227</ele>
        <time>2019-04-25T16:53:15Z</time>
      </trkpt>
      <trkpt lat="45.69209" lon="4.73327">
        <ele>228</ele>
        <time>2019-04-25T16:54:15Z</time>
      </trkpt>
      <trkpt lat="45.69225" lon="4.73289">
        <ele>232</ele>
        <time>2019-04-25T16:55:15Z</time>
      </trkpt>
      <trkpt lat="45.6923" lon="4.73264">
        <ele>235</ele>
        <time>2019-04-25T16:56:15Z</time>
      </trkpt>
      <trkpt lat="45.69228" lon="4.73241">
        <ele>237</ele>
        <time>2019-04-25T16:57:15Z</time>
      </trkpt>
      <trkpt lat="45.69216" lon="4.73214">
        <ele>237</ele>
        <time>2019-04-25T16:58:15Z</time>
      </trkpt>
      <trkpt lat="45.69213" lon="4.732">
        <ele>238</ele>
        <time>2019-04-25T16:59:15Z</time>
      </trkpt>
      <trkpt lat="45.69185" lon="4.73139">
        <ele>237</ele>
        <time>2019-04-25T17:00:15Z</time>
      </trkpt>
      <trkpt lat="45.6916" lon="4.73106">
        <ele>236</ele>
        <time>2019-04-25T17:01:15Z</time>
      </trkpt>
      <trkpt lat="45.69149" lon="4.73087">
        <ele>236</ele>
        <time>2019-04-25T17:02:15Z</time>
      </trkpt>
      <trkpt lat="45.69144" lon="4.73073">
        <ele>236</ele>
        <time>2019-04-25T17:03:15Z</time>
      </trkpt>
      <trkpt lat="45.69144" lon="4.73054">
        <ele>237</ele>
        <time>2019-04-25T17:04:15Z</time>
      </trkpt>
      <trkpt lat="45.69153" lon="4.73031">
        <ele>239</ele>
        <time>2019-04-25T17:05:15Z</time>
      </trkpt>
      <trkpt lat="45.69175" lon="4.72944">
        <ele>242</ele>
        <time>2019-04-25T17:06:15Z</time>
      </trkpt>
      <trkpt lat="45.69182" lon="4.72926">
        <ele>244</ele>
        <time>2019-04-25T17:07:15Z</time>
      </trkpt>
      <trkpt lat="45.69209" lon="4.72908">
        <ele>249</ele>
        <time>2019-04-25T17:08:15Z</time>
      </trkpt>
      <trkpt lat="45.6922" lon="4.72898">
        <ele>251</ele>
        <time>2019-04-25T17:09:15Z</time>
      </trkpt>
      <trkpt lat="45.69242" lon="4.72867">
        <ele>251</ele>
        <time>2019-04-25T17:10:15Z</time>
      </trkpt>
      <trkpt lat="45.69266" lon="4.72818">
        <ele>247</ele>
        <time>2019-04-25T17:11:15Z</time>
      </trkpt>
      <trkpt lat="45.69272" lon="4.72816">
        <ele>247</ele>
        <time>2019-04-25T17:12:15Z</time>
      </trkpt>
      <trkpt lat="45.69275" lon="4.72818">
        <ele>248</ele>
        <time>2019-04-25T17:13:15Z</time>
      </trkpt>
      <trkpt lat="45.69276" lon="4.72825">
        <ele>250</ele>
        <time>2019-04-25T17:14:15Z</time>
      </trkpt>
      <trkpt lat="45.69265" lon="4.72842">
        <ele>251</ele>
        <time>2019-04-25T17:15:15Z</time>
      </trkpt>
      <trkpt lat="45.69232" lon="4.72921">
        <ele>257</ele>
        <time>2019-04-25T17:16:15Z</time>
      </trkpt>
      <trkpt lat="45.69216" lon="4.72946">
        <ele>253</ele>
        <time>2019-04-25T17:17:15Z</time>
      </trkpt>
      <trkpt lat="45.69212" lon="4.72958">
        <ele>252</ele>
        <time>2019-04-25T17:18:15Z</time>
      </trkpt>
      <trkpt lat="45.69214" lon="4.72961">
        <ele>253</ele>
        <time>2019-04-25T17:19:15Z</time>
      </trkpt>
      <trkpt lat="45.6922" lon="4.72962">
        <ele>255</ele>
        <time>2019-04-25T17:20:15Z</time>
      </trkpt>
      <trkpt lat="45.69224" lon="4.72959">
        <ele>255</ele>
        <time>2019-04-25T17:21:15Z</time>
      </trkpt>
      <trkpt lat="45.6926" lon="4.72915">
        <ele>263</ele>
        <time>2019-04-25T17:22:15Z</time>
      </trkpt>
      <trkpt lat="45.6929" lon="4.72865">
        <ele>259</ele>
        <time>2019-04-25T17:23:15Z</time>
      </trkpt>
      <trkpt lat="45.69297" lon="4.72864">
        <ele>260</ele>
        <time>2019-04-25T17:24:15Z</time>
      </trkpt>
      <trkpt lat="45.69299" lon="4.72868">
        <ele>261</ele>
        <time>2019-04-25T17:25:15Z</time>
      </trkpt>
      <trkpt lat="45.69298" lon="4.72875">
        <ele>262</ele>
        <time>2019-04-25T17:26:15Z</time>
      </trkpt>
      <trkpt lat="45.69281" lon="4.729">
        <ele>264</ele>
        <time>2019-04-25T17:27:15Z</time>
      </trkpt>
      <trkpt lat="45.6928" lon="4.72907">
        <ele>265</ele>
        <time>2019-04-25T17:28:15Z</time>
      </trkpt>
      <trkpt lat="45.69283" lon="4.72916">
        <ele>267</ele>
        <time>2019-04-25T17:29:15Z</time>
      </trkpt>
      <trkpt lat="45.69288" lon="4.72916">
        <ele>268</ele>
        <time>2019-04-25T17:30:15Z</time>
      </trkpt>
      <trkpt lat="45.69307" lon="4.72908">
        <ele>269</ele>
        <time>2019-04-25T17:31:15Z</time>
      </trkpt>
      <trkpt lat="45.69324" lon="4.72911">
        <ele>273</ele>
        <time>2019-04-25T17:32:15Z</time>
      </trkpt>
      <trkpt lat="45.69349" lon="4.72923">
        <ele>276</ele>
        <time>2019-04-25T17:33:15Z</time>
      </trkpt>
      <trkpt lat="45.69449" lon="4.72945">
        <ele>285</ele>
        <time>2019-04-25T17:34:15Z</time>
      </trkpt>
      <trkpt lat="45.69628" lon="4.73062">
        <ele>293</ele>
        <time>2019-04-25T17:35:15Z</time>
      </trkpt>
      <trkpt lat="45.69665" lon="4.73082">
        <ele>293</ele>
        <time>2019-04-25T17:36:15Z</time>
      </trkpt>
      <trkpt lat="45.69723" lon="4.73105">
        <ele>295</ele>
        <time>2019-04-25T17:37:15Z</time>
      </trkpt>
      <trkpt lat="45.69756" lon="4.73112">
        <ele>296</ele>
        <time>2019-04-25T17:38:15Z</time>
      </trkpt>
      <trkpt lat="45.69802" lon="4.73118">
        <ele>299</ele>
        <time>2019-04-25T17:39:15Z</time>
      </trkpt>
      <trkpt lat="45.69861" lon="4.73158">
        <ele>301</ele>
        <time>2019-04-25T17:40:15Z</time>
      </trkpt>
      <trkpt lat="45.69936" lon="4.73187">
        <ele>303</ele>
        <time>2019-04-25T17:41:15Z</time>
      </trkpt>
      <trkpt lat="45.69959" lon="4.73199">
        <ele>303</ele>
        <time>2019-04-25T17:42:15Z</time>
      </trkpt>
      <trkpt lat="45.70001" lon="4.73237">
        <ele>304</ele>
        <time>2019-04-25T17:43:15Z</time>
      </trkpt>
      <trkpt lat="45.70066" lon="4.73308">
        <ele>303</ele>
        <time>2019-04-25T17:44:15Z</time>
      </trkpt>
      <trkpt lat="45.70089" lon="4.73343">
        <ele>303</ele>
        <time>2019-04-25T17:45:15Z</time>
      </trkpt>
      <trkpt lat="45.70206" lon="4.73493">
        <ele>306</ele>
      </trkpt>
      <trkpt lat="45.70266" lon="4.73553">
        <ele>306.8</ele>
      </trkpt>
      <trkpt lat="45.70293" lon="4.73476">
        <ele>305.5</ele>
      </trkpt>
      <trkpt lat="45.70287" lon="4.73355">
        <ele>305.8</ele>
      </trkpt>
      <trkpt lat="45.70297" lon="4.73207">
        <ele>306.8</ele>
      </trkpt>
      <trkpt lat="45.70327" lon="4.7306">
        <ele>307.4</ele>
      </trkpt>
      <trkpt lat="45.70337" lon="4.73038">
        <ele>307</ele>
        <time>2019-04-25T22:19:15Z</time>
      </trkpt>
      <trkpt lat="45.70391" lon="4.7291">
        <ele>306</ele>
        <time>2019-04-25T22:20:15Z</time>
      </trkpt>
      <trkpt lat="45.70419" lon="4.72858">
        <ele>307</ele>
        <time>2019-04-25T22:21:15Z</time>
      </trkpt>
      <trkpt lat="45.70435" lon="4.72816">
        <ele>307</ele>
        <time>2019-04-25T22:22:15Z</time>
      </trkpt>
      <trkpt lat="45.70439" lon="4.72799">
        <ele>307</ele>
        <time>2019-04-25T22:23:15Z</time>
      </trkpt>
      <trkpt lat="45.70444" lon="4.72793">
        <ele>307</ele>
        <time>2019-04-25T22:24:15Z</time>
      </trkpt>
      <trkpt lat="45.70465" lon="4.72779">
        <ele>307</ele>
        <time>2019-04-25T22:25:15Z</time>
      </trkpt>
      <trkpt lat="45.70518" lon="4.72754">
        <ele>307</ele>
        <time>2019-04-25T22:26:15Z</time>
      </trkpt>
      <trkpt lat="45.70531" lon="4.72744">
        <ele>307</ele>
        <time>2019-04-25T22:27:15Z</time>
      </trkpt>
      <trkpt lat="45.70596" lon="4.72629">
        <ele>310</ele>
        <time>2019-04-25T22:28:15Z</time>
      </trkpt>
      <trkpt lat="45.70664" lon="4.72488">
        <ele>311</ele>
        <time>2019-04-25T22:29:15Z</time>
      </trkpt>
      <trkpt lat="45.7075" lon="4.72335">
        <ele>311</ele>
        <time>2019-04-25T22:30:15Z</time>
      </trkpt>
      <trkpt lat="45.70762" lon="4.72303">
        <ele>311</ele>
        <time>2019-04-25T22:31:15Z</time>
      </trkpt>
      <trkpt lat="45.70797" lon="4.72147">
        <ele>312</ele>
        <time>2019-04-25T22:32:15Z</time>
      </trkpt>
      <trkpt lat="45.70831" lon="4.72066">
        <ele>312</ele>
        <time>2019-04-25T22:33:15Z</time>
      </trkpt>
      <trkpt lat="45.70864" lon="4.71996">
        <ele>313</ele>
        <time>2019-04-25T22:34:15Z</time>
      </trkpt>
      <trkpt lat="45.70846" lon="4.71961">
        <ele>313</ele>
        <time>2019-04-25T22:35:15Z</time>
      </trkpt>
      <trkpt lat="45.70762" lon="4.71834">
        <ele>315</ele>
        <time>2019-04-25T22:36:15Z</time>
      </trkpt>
      <trkpt lat="45.70739" lon="4.71792">
        <ele>316</ele>
        <time>2019-04-25T22:37:15Z</time>
      </trkpt>
      <trkpt lat="45.7072" lon="4.71742">
        <ele>315</ele>
        <time>2019-04-25T22:38:15Z</time>
      </trkpt>
      <trkpt lat="45.70715" lon="4.71666">
        <ele>314</ele>
        <time>2019-04-25T22:39:15Z</time>
      </trkpt>
      <trkpt lat="45.70705" lon="4.71618">
        <ele>312</ele>
        <time>2019-04-25T22:40:15Z</time>
      </trkpt>
      <trkpt lat="45.70693" lon="4.71536">
        <ele>312</ele>
        <time>2019-04-25T22:41:15Z</time>
      </trkpt>
      <trkpt lat="45.70668" lon="4.71437">
        <ele>311</ele>
        <time>2019-04-25T22:42:15Z</time>
      </trkpt>
      <trkpt lat="45.70655" lon="4.71375">
        <ele>311</ele>
        <time>2019-04-25T22:43:15Z</time>
      </trkpt>
      <trkpt lat="45.70638" lon="4.71332">
        <ele>311</ele>
        <time>2019-04-25T22:44:15Z</time>
      </trkpt>
      <trkpt lat="45.70551" lon="4.71145">
        <ele>306</ele>
        <time>2019-04-25T22:45:15Z</time>
      </trkpt>
      <trkpt lat="45.70539" lon="4.71044">
        <ele>305</ele>
        <time>2019-04-25T22:46:15Z</time>
      </trkpt>
      <trkpt lat="45.70552" lon="4.70912">
        <ele>307</ele>
        <time>2019-04-25T22:47:15Z</time>
      </trkpt>
      <trkpt lat="45.70545" lon="4.70863">
        <ele>306</ele>
        <time>2019-04-25T22:48:15Z</time>
      </trkpt>
      <trkpt lat="45.70537" lon="4.70726">
        <ele>308</ele>
        <time>2019-04-25T22:49:15Z</time>
      </trkpt>
      <trkpt lat="45.70534" lon="4.7072">
        <ele>308</ele>
        <time>2019-04-25T22:50:15Z</time>
      </trkpt>
      <trkpt lat="45.70456" lon="4.70724">
        <ele>304</ele>
        <time>2019-04-25T22:51:15Z</time>
      </trkpt>
      <trkpt lat="45.70401" lon="4.70743">
        <ele>300</ele>
        <time>2019-04-25T22:52:15Z</time>
      </trkpt>
      <trkpt lat="45.70394" lon="4.70748">
        <ele>300</ele>
        <time>2019-04-25T22:53:15Z</time>
      </trkpt>
      <trkpt lat="45.70382" lon="4.70765">
        <ele>299</ele>
        <time>2019-04-25T22:54:15Z</time>
      </trkpt>
      <trkpt lat="45.70325" lon="4.70778">
        <ele>296</ele>
        <time>2019-04-25T22:55:15Z</time>
      </trkpt>
      <trkpt lat="45.70284" lon="4.70803">
        <ele>290</ele>
        <time>2019-04-25T22:56:15Z</time>
      </trkpt>
      <trkpt lat="45.70253" lon="4.70848">
        <ele>285</ele>
        <time>2019-04-25T22:57:15Z</time>
      </trkpt>
      <trkpt lat="45.70244" lon="4.70853">
        <ele>283</ele>
        <time>2019-04-25T22:58:15Z</time>
      </trkpt>
      <trkpt lat="45.70209" lon="4.70861">
        <ele>277</ele>
        <time>2019-04-25T22:59:15Z</time>
      </trkpt>
      <trkpt lat="45.70142" lon="4.70869">
        <ele>266</ele>
        <time>2019-04-25T23:00:15Z</time>
      </trkpt>
      <trkpt lat="45.70105" lon="4.70876">
        <ele>262</ele>
        <time>2019-04-25T23:01:15Z</time>
      </trkpt>
      <trkpt lat="45.70099" lon="4.7088">
        <ele>261</ele>
        <time>2019-04-25T23:02:15Z</time>
      </trkpt>
      <trkpt lat="45.70091" lon="4.70922">
        <ele>260</ele>
        <time>2019-04-25T23:03:15Z</time>
      </trkpt>
      <trkpt lat="45.70073" lon="4.70919">
        <ele>258</ele>
        <time>2019-04-25T23:04:15Z</time>
      </trkpt>
      <trkpt lat="45.70046" lon="4.70909">
        <ele>256</ele>
        <time>2019-04-25T23:05:15Z</time>
      </trkpt>
      <trkpt lat="45.70022" lon="4.7091">
        <ele>254</ele>
        <time>2019-04-25T23:06:15Z</time>
      </trkpt>
      <trkpt lat="45.69996" lon="4.70907">
        <ele>253</ele>
        <time>2019-04-25T23:07:15Z</time>
      </trkpt>
      <trkpt lat="45.69955" lon="4.70879">
        <ele>258</ele>
        <time>2019-04-25T23:08:15Z</time>
      </trkpt>
      <trkpt lat="45.69952" lon="4.70862">
        <ele>259</ele>
        <time>2019-04-25T23:09:15Z</time>
      </trkpt>
      <trkpt lat="45.69938" lon="4.70853">
        <ele>262</ele>
        <time>2019-04-25T23:10:15Z</time>
      </trkpt>
      <trkpt lat="45.69936" lon="4.70848">
        <ele>263</ele>
        <time>2019-04-25T23:11:15Z</time>
      </trkpt>
      <trkpt lat="45.69955" lon="4.70813">
        <ele>263</ele>
        <time>2019-04-25T23:12:15Z</time>
      </trkpt>
      <trkpt lat="45.69962" lon="4.70789">
        <ele>264</ele>
        <time>2019-04-25T23:13:15Z</time>
      </trkpt>
      <trkpt lat="45.69967" lon="4.70754">
        <ele>265</ele>
        <time>2019-04-25T23:14:15Z</time>
      </trkpt>
      <trkpt lat="45.69966" lon="4.7074">
        <ele>266</ele>
        <time>2019-04-25T23:15:15Z</time>
      </trkpt>
      <trkpt lat="45.69957" lon="4.70751">
        <ele>268</ele>
        <time>2019-04-25T23:16:15Z</time>
      </trkpt>
      <trkpt lat="45.69947" lon="4.70798">
        <ele>266</ele>
        <time>2019-04-25T23:17:15Z</time>
      </trkpt>
      <trkpt lat="45.69939" lon="4.70813">
        <ele>266</ele>
        <time>2019-04-25T23:18:15Z</time>
      </trkpt>
      <trkpt lat="45.69919" lon="4.70835">
        <ele>266</ele>
        <time>2019-04-25T23:19:15Z</time>
      </trkpt>
      <trkpt lat="45.69903" lon="4.70858">
        <ele>266</ele>
        <time>2019-04-25T23:20:15Z</time>
      </trkpt>
      <trkpt lat="45.69886" lon="4.7087">
        <ele>267</ele>
        <time>2019-04-25T23:21:15Z</time>
      </trkpt>
      <trkpt lat="45.69846" lon="4.70881">
        <ele>272</ele>
        <time>2019-04-25T23:22:15Z</time>
      </trkpt>
      <trkpt lat="45.69842" lon="4.7087">
        <ele>274</ele>
        <time>2019-04-25T23:23:15Z</time>
      </trkpt>
      <trkpt lat="45.6986" lon="4.70856">
        <ele>272</ele>
        <time>2019-04-25T23:24:15Z</time>
      </trkpt>
      <trkpt lat="45.69865" lon="4.70846">
        <ele>273</ele>
        <time>2019-04-25T23:25:15Z</time>
      </trkpt>
      <trkpt lat="45.69871" lon="4.70831">
        <ele>273</ele>
        <time>2019-04-25T23:26:15Z</time>
      </trkpt>
      <trkpt lat="45.69878" lon="4.70789">
        <ele>277</ele>
        <time>2019-04-25T23:27:15Z</time>
      </trkpt>
      <trkpt lat="45.69872" lon="4.70756">
        <ele>281</ele>
        <time>2019-04-25T23:28:15Z</time>
      </trkpt>
      <trkpt lat="45.69875" lon="4.70745">
        <ele>282</ele>
        <time>2019-04-25T23:29:15Z</time>
      </trkpt>
      <trkpt lat="45.69872" lon="4.70734">
        <ele>282</ele>
        <time>2019-04-25T23:30:15Z</time>
      </trkpt>
      <trkpt lat="45.69865" lon="4.70724">
        <ele>283</ele>
        <time>2019-04-25T23:31:15Z</time>
      </trkpt>
      <trkpt lat="45.69852" lon="4.70719">
        <ele>285</ele>
        <time>2019-04-25T23:32:15Z</time>
      </trkpt>
      <trkpt lat="45.69728" lon="4.70694">
        <ele>296</ele>
        <time>2019-04-25T23:33:15Z</time>
      </trkpt>
      <trkpt lat="45.69626" lon="4.70641">
        <ele>296</ele>
        <time>2019-04-25T23:34:15Z</time>
      </trkpt>
      <trkpt lat="45.69474" lon="4.70506">
        <ele>297</ele>
        <time>2019-04-25T23:35:15Z</time>
      </trkpt>
      <trkpt lat="45.69366" lon="4.70392">
        <ele>301</ele>
        <time>2019-04-25T23:36:15Z</time>
      </trkpt>
      <trkpt lat="45.69362" lon="4.70385">
        <ele>302</ele>
        <time>2019-04-25T23:37:15Z</time>
      </trkpt>
      <trkpt lat="45.69364" lon="4.70372">
        <ele>302</ele>
        <time>2019-04-25T23:38:15Z</time>
      </trkpt>
      <trkpt lat="45.69378" lon="4.70333">
        <ele>302</ele>
        <time>2019-04-25T23:39:15Z</time>
      </trkpt>
      <trkpt lat="45.69395" lon="4.70267">
        <ele>301</ele>
        <time>2019-04-25T23:40:15Z</time>
      </trkpt>
      <trkpt lat="45.69399" lon="4.70234">
        <ele>301</ele>
        <time>2019-04-25T23:41:15Z</time>
      </trkpt>
      <trkpt lat="45.69399" lon="4.70164">
        <ele>300</ele>
        <time>2019-04-25T23:42:15Z</time>
      </trkpt>
      <trkpt lat="45.69395" lon="4.70132">
        <ele>299</ele>
        <time>2019-04-25T23:43:15Z</time>
      </trkpt>
      <trkpt lat="45.69387" lon="4.7009">
        <ele>298</ele>
        <time>2019-04-25T23:44:15Z</time>
      </trkpt>
      <trkpt lat="45.69372" lon="4.70044">
        <ele>298</ele>
        <time>2019-04-25T23:45:15Z</time>
      </trkpt>
      <trkpt lat="45.69361" lon="4.70016">
        <ele>297</ele>
        <time>2019-04-25T23:46:15Z</time>
      </trkpt>
      <trkpt lat="45.69348" lon="4.69999">
        <ele>297</ele>
        <time>2019-04-25T23:47:15Z</time>
      </trkpt>
      <trkpt lat="45.69311" lon="4.69917">
        <ele>295</ele>
        <time>2019-04-25T23:48:15Z</time>
      </trkpt>
      <trkpt lat="45.69291" lon="4.69829">
        <ele>291</ele>
        <time>2019-04-25T23:49:15Z</time>
      </trkpt>
      <trkpt lat="45.69287" lon="4.69787">
        <ele>290</ele>
        <time>2019-04-25T23:50:15Z</time>
      </trkpt>
      <trkpt lat="45.69288" lon="4.69738">
        <ele>289</ele>
        <time>2019-04-25T23:51:15Z</time>
      </trkpt>
      <trkpt lat="45.69293" lon="4.69683">
        <ele>288</ele>
        <time>2019-04-25T23:52:15Z</time>
      </trkpt>
      <trkpt lat="45.69299" lon="4.69644">
        <ele>288</ele>
        <time>2019-04-25T23:53:15Z</time>
      </trkpt>
      <trkpt lat="45.69306" lon="4.69618">
        <ele>288</ele>
        <time>2019-04-25T23:54:15Z</time>
      </trkpt>
      <trkpt lat="45.69318" lon="4.69586">
        <ele>289</ele>
        <time>2019-04-25T23:55:15Z</time>
      </trkpt>
      <trkpt lat="45.6934" lon="4.69541">
        <ele>288</ele>
        <time>2019-04-25T23:56:15Z</time>
      </trkpt>
      <trkpt lat="45.69367" lon="4.69504">
        <ele>287</ele>
        <time>2019-04-25T23:57:15Z</time>
      </trkpt>
      <trkpt lat="45.69383" lon="4.69487">
        <ele>286</ele>
        <time>2019-04-25T23:58:15Z</time>
      </trkpt>
      <trkpt lat="45.69414" lon="4.69462">
        <ele>287</ele>
        <time>2019-04-25T23:59:15Z</time>
      </trkpt>
      <trkpt lat="45.6944" lon="4.69451">
        <ele>290</ele>
        <time>2019-04-26T00:00:15Z</time>
      </trkpt>
      <trkpt lat="45.69453" lon="4.69449">
        <ele>292</ele>
        <time>2019-04-26T00:01:15Z</time>
      </trkpt>
      <trkpt lat="45.6946" lon="4.69451">
        <ele>292</ele>
        <time>2019-04-26T00:02:15Z</time>
      </trkpt>
      <trkpt lat="45.69531" lon="4.69478">
        <ele>295</ele>
        <time>2019-04-26T00:03:15Z</time>
      </trkpt>
      <trkpt lat="45.69543" lon="4.69476">
        <ele>296</ele>
        <time>2019-04-26T00:04:15Z</time>
      </trkpt>
      <trkpt lat="45.69551" lon="4.69466">
        <ele>296</ele>
        <time>2019-04-26T00:05:15Z</time>
      </trkpt>
      <trkpt lat="45.69547" lon="4.69363">
        <ele>304</ele>
        <time>2019-04-26T00:06:15Z</time>
      </trkpt>
      <trkpt lat="45.69554" lon="4.69318">
        <ele>307</ele>
        <time>2019-04-26T00:07:15Z</time>
      </trkpt>
      <trkpt lat="45.69546" lon="4.69301">
        <ele>308</ele>
        <time>2019-04-26T00:08:15Z</time>
      </trkpt>
      <trkpt lat="45.69527" lon="4.69284">
        <ele>309</ele>
        <time>2019-04-26T00:09:15Z</time>
      </trkpt>
      <trkpt lat="45.69519" lon="4.69237">
        <ele>312</ele>
        <time>2019-04-26T00:10:15Z</time>
      </trkpt>
      <trkpt lat="45.69515" lon="4.6918">
        <ele>317</ele>
        <time>2019-04-26T00:11:15Z</time>
      </trkpt>
      <trkpt lat="45.69511" lon="4.69156">
        <ele>319</ele>
        <time>2019-04-26T00:12:15Z</time>
      </trkpt>
      <trkpt lat="45.69512" lon="4.69149">
        <ele>319</ele>
        <time>2019-04-26T00:13:15Z</time>
      </trkpt>
      <trkpt lat="45.69527" lon="4.69133">
        <ele>320</ele>
        <time>2019-04-26T00:14:15Z</time>
      </trkpt>
      <trkpt lat="45.69542" lon="4.69081">
        <ele>322</ele>
        <time>2019-04-26T00:15:15Z</time>
      </trkpt>
      <trkpt lat="45.69638" lon="4.6885">
        <ele>315</ele>
        <time>2019-04-26T00:16:15Z</time>
      </trkpt>
      <trkpt lat="45.69661" lon="4.6877">
        <ele>316</ele>
        <time>2019-04-26T00:17:15Z</time>
      </trkpt>
      <trkpt lat="45.69672" lon="4.6874">
        <ele>317</ele>
        <time>2019-04-26T00:18:15Z</time>
      </trkpt>
      <trkpt lat="45.69699" lon="4.68705">
        <ele>317</ele>
        <time>2019-04-26T00:19:15Z</time>
      </trkpt>
      <trkpt lat="45.69718" lon="4.68672">
        <ele>318</ele>
        <time>2019-04-26T00:20:15Z</time>
      </trkpt>
      <trkpt lat="45.69733" lon="4.68651">
        <ele>318</ele>
        <time>2019-04-26T00:21:15Z</time>
      </trkpt>
      <trkpt lat="45.69737" lon="4.68649">
        <ele>318</ele>
        <time>2019-04-26T00:22:15Z</time>
      </trkpt>
      <trkpt lat="45.6974" lon="4.6865">
        <ele>318</ele>
        <time>2019-04-26T00:23:15Z</time>
      </trkpt>
      <trkpt lat="45.69744" lon="4.68657">
        <ele>318</ele>
        <time>2019-04-26T00:24:15Z</time>
      </trkpt>
      <trkpt lat="45.69741" lon="4.6868">
        <ele>318</ele>
        <time>2019-04-26T00:25:15Z</time>
      </trkpt>
      <trkpt lat="45.69729" lon="4.68726">
        <ele>317</ele>
        <time>2019-04-26T00:26:15Z</time>
      </trkpt>
      <trkpt lat="45.69725" lon="4.68757">
        <ele>317</ele>
        <time>2019-04-26T00:27:15Z</time>
      </trkpt>
      <trkpt lat="45.69729" lon="4.68776">
        <ele>316</ele>
        <time>2019-04-26T00:28:15Z</time>
      </trkpt>
      <trkpt lat="45.69757" lon="4.68826">
        <ele>315</ele>
        <time>2019-04-26T00:29:15Z</time>
      </trkpt>
      <trkpt lat="45.69857" lon="4.68975">
        <ele>310</ele>
        <time>2019-04-26T00:30:15Z</time>
      </trkpt>
      <trkpt lat="45.69886" lon="4.69036">
        <ele>309</ele>
        <time>2019-04-26T00:31:15Z</time>
      </trkpt>
      <trkpt lat="45.6989" lon="4.69039">
        <ele>309</ele>
        <time>2019-04-26T00:32:15Z</time>
      </trkpt>
      <trkpt lat="45.69893" lon="4.69035">
        <ele>309</ele>
        <time>2019-04-26T00:33:15Z</time>
      </trkpt>
      <trkpt lat="45.69909" lon="4.68766">
        <ele>316</ele>
        <time>2019-04-26T00:34:15Z</time>
      </trkpt>
      <trkpt lat="45.69912" lon="4.68749">
        <ele>317</ele>
        <time>2019-04-26T00:35:15Z</time>
      </trkpt>
      <trkpt lat="45.69924" lon="4.68733">
        <ele>317</ele>
        <time>2019-04-26T00:36:15Z</time>
      </trkpt>
      <trkpt lat="45.69937" lon="4.68695">
        <ele>318</ele>
        <time>2019-04-26T00:37:15Z</time>
      </trkpt>
      <trkpt lat="45.6995" lon="4.68686">
        <ele>318</ele>
        <time>2019-04-26T00:38:15Z</time>
      </trkpt>
      <trkpt lat="45.69984" lon="4.68514">
        <ele>321</ele>
        <time>2019-04-26T00:39:15Z</time>
      </trkpt>
      <trkpt lat="45.69984" lon="4.685">
        <ele>321</ele>
        <time>2019-04-26T00:40:15Z</time>
      </trkpt>
      <trkpt lat="45.69993" lon="4.6845">
        <ele>323</ele>
        <time>2019-04-26T00:41:15Z</time>
      </trkpt>
      <trkpt lat="45.69992" lon="4.68411">
        <ele>324</ele>
        <time>2019-04-26T00:42:15Z</time>
      </trkpt>
      <trkpt lat="45.6997" lon="4.68306">
        <ele>328</ele>
        <time>2019-04-26T00:43:15Z</time>
      </trkpt>
      <trkpt lat="45.69971" lon="4.68268">
        <ele>330</ele>
        <time>2019-04-26T00:44:15Z</time>
      </trkpt>
      <trkpt lat="45.69984" lon="4.68202">
        <ele>334</ele>
        <time>2019-04-26T00:45:15Z</time>
      </trkpt>
      <trkpt lat="45.70001" lon="4.6815">
        <ele>338</ele>
        <time>2019-04-26T00:46:15Z</time>
      </trkpt>
      <trkpt lat="45.70017" lon="4.68115">
        <ele>340</ele>
        <time>2019-04-26T00:47:15Z</time>
      </trkpt>
      <trkpt lat="45.70023" lon="4.68094">
        <ele>341</ele>
        <time>2019-04-26T00:48:15Z</time>
      </trkpt>
      <trkpt lat="45.70024" lon="4.68072">
        <ele>342</ele>
        <time>2019-04-26T00:49:15Z</time>
      </trkpt>
      <trkpt lat="45.70051" lon="4.67997">
        <ele>345</ele>
        <time>2019-04-26T00:50:15Z</time>
      </trkpt>
      <trkpt lat="45.70057" lon="4.67992">
        <ele>345</ele>
        <time>2019-04-26T00:51:15Z</time>
      </trkpt>
      <trkpt lat="45.70088" lon="4.68035">
        <ele>347</ele>
        <time>2019-04-26T00:52:15Z</time>
      </trkpt>
      <trkpt lat="45.70091" lon="4.68035">
        <ele>347</ele>
        <time>2019-04-26T00:53:15Z</time>
      </trkpt>
      <trkpt lat="45.70103" lon="4.68023">
        <ele>348</ele>
        <time>2019-04-26T00:54:15Z</time>
      </trkpt>
      <trkpt lat="45.7014" lon="4.6797">
        <ele>349</ele>
        <time>2019-04-26T00:55:15Z</time>
      </trkpt>
      <trkpt lat="45.70202" lon="4.67791">
        <ele>348</ele>
        <time>2019-04-26T00:56:15Z</time>
      </trkpt>
      <trkpt lat="45.7028" lon="4.67595">
        <ele>354</ele>
        <time>2019-04-26T00:57:15Z</time>
      </trkpt>
      <trkpt lat="45.70321" lon="4.67509">
        <ele>355</ele>
        <time>2019-04-26T00:58:15Z</time>
      </trkpt>
      <trkpt lat="45.70373" lon="4.6738">
        <ele>355</ele>
        <time>2019-04-26T00:59:15Z</time>
      </trkpt>
      <trkpt lat="45.70378" lon="4.67361">
        <ele>355</ele>
        <time>2019-04-26T01:00:15Z</time>
      </trkpt>
      <trkpt lat="45.70373" lon="4.67307">
        <ele>356</ele>
        <time>2019-04-26T01:01:15Z</time>
      </trkpt>
      <trkpt lat="45.70378" lon="4.67272">
        <ele>356</ele>
        <time>2019-04-26T01:02:15Z</time>
      </trkpt>
      <trkpt lat="45.70388" lon="4.67241">
        <ele>355</ele>
        <time>2019-04-26T01:03:15Z</time>
      </trkpt>
      <trkpt lat="45.70417" lon="4.67213">
        <ele>354</ele>
        <time>2019-04-26T01:04:15Z</time>
      </trkpt>
      <trkpt lat="45.70446" lon="4.67196">
        <ele>356</ele>
        <time>2019-04-26T01:05:15Z</time>
      </trkpt>
      <trkpt lat="45.70447" lon="4.67184">
        <ele>356</ele>
        <time>2019-04-26T01:06:15Z</time>
      </trkpt>
      <trkpt lat="45.70455" lon="4.67173">
        <ele>357</ele>
        <time>2019-04-26T01:07:15Z</time>
      </trkpt>
      <trkpt lat="45.70567" lon="4.67059">
        <ele>372</ele>
        <time>2019-04-26T01:08:15Z</time>
      </trkpt>
      <trkpt lat="45.70572" lon="4.67055">
        <ele>372</ele>
        <time>2019-04-26T01:09:15Z</time>
      </trkpt>
      <trkpt lat="45.70582" lon="4.67061">
        <ele>373</ele>
        <time>2019-04-26T01:10:15Z</time>
      </trkpt>
      <trkpt lat="45.70588" lon="4.67061">
        <ele>374</ele>
        <time>2019-04-26T01:11:15Z</time>
      </trkpt>
      <trkpt lat="45.7062" lon="4.67049">
        <ele>377</ele>
        <time>2019-04-26T01:12:15Z</time>
      </trkpt>
      <trkpt lat="45.7064" lon="4.67036">
        <ele>379</ele>
        <time>2019-04-26T01:13:15Z</time>
      </trkpt>
      <trkpt lat="45.7069" lon="4.66987">
        <ele>384</ele>
        <time>2019-04-26T01:14:15Z</time>
      </trkpt>
      <trkpt lat="45.70736" lon="4.66912">
        <ele>391</ele>
        <time>2019-04-26T01:15:15Z</time>
      </trkpt>
      <trkpt lat="45.70746" lon="4.669">
        <ele>392</ele>
        <time>2019-04-26T01:16:15Z</time>
      </trkpt>
      <trkpt lat="45.70793" lon="4.6682">
        <ele>397</ele>
        <time>2019-04-26T01:17:15Z</time>
      </trkpt>
      <trkpt lat="45.70809" lon="4.66799">
        <ele>399</ele>
        <time>2019-04-26T01:18:15Z</time>
      </trkpt>
      <trkpt lat="45.70882" lon="4.66741">
        <ele>404</ele>
        <time>2019-04-26T01:19:15Z</time>
      </trkpt>
      <trkpt lat="45.70993" lon="4.66663">
        <ele>407</ele>
        <time>2019-04-26T01:20:15Z</time>
      </trkpt>
      <trkpt lat="45.71001" lon="4.66662">
        <ele>407</ele>
        <time>2019-04-26T01:21:15Z</time>
      </trkpt>
      <trkpt lat="45.71013" lon="4.66667">
        <ele>407</ele>
        <time>2019-04-26T01:22:15Z</time>
      </trkpt>
      <trkpt lat="45.7102" lon="4.66664">
        <ele>407</ele>
        <time>2019-04-26T01:23:15Z</time>
      </trkpt>
      <trkpt lat="45.71037" lon="4.6665">
        <ele>410</ele>
        <time>2019-04-26T01:24:15Z</time>
      </trkpt>
      <trkpt lat="45.71047" lon="4.66646">
        <ele>411</ele>
        <time>2019-04-26T01:25:15Z</time>
      </trkpt>
      <trkpt lat="45.71066" lon="4.6665">
        <ele>411</ele>
        <time>2019-04-26T01:26:15Z</time>
      </trkpt>
      <trkpt lat="45.71118" lon="4.66652">
        <ele>413</ele>
        <time>2019-04-26T01:27:15Z</time>
      </trkpt>
      <trkpt lat="45.71136" lon="4.66648">
        <ele>414</ele>
        <time>2019-04-26T01:28:15Z</time>
      </trkpt>
      <trkpt lat="45.71185" lon="4.66629">
        <ele>416</ele>
        <time>2019-04-26T01:29:15Z</time>
      </trkpt>
      <trkpt lat="45.71241" lon="4.6659">
        <ele>418</ele>
        <time>2019-04-26T01:30:15Z</time>
      </trkpt>
      <trkpt lat="45.71265" lon="4.66582">
        <ele>419</ele>
        <time>2019-04-26T01:31:15Z</time>
      </trkpt>
      <trkpt lat="45.71377" lon="4.66556">
        <ele>422</ele>
        <time>2019-04-26T01:32:15Z</time>
      </trkpt>
      <trkpt lat="45.71443" lon="4.66513">
        <ele>423</ele>
        <time>2019-04-26T01:33:15Z</time>
      </trkpt>
      <trkpt lat="45.71481" lon="4.66494">
        <ele>423</ele>
        <time>2019-04-26T01:34:15Z</time>
      </trkpt>
      <trkpt lat="45.71527" lon="4.66454">
        <ele>426</ele>
        <time>2019-04-26T01:35:15Z</time>
      </trkpt>
      <trkpt lat="45.71557" lon="4.66423">
        <ele>427</ele>
        <time>2019-04-26T01:36:15Z</time>
      </trkpt>
      <trkpt lat="45.71577" lon="4.66393">
        <ele>430</ele>
        <time>2019-04-26T01:37:15Z</time>
      </trkpt>
      <trkpt lat="45.71646" lon="4.66251">
        <ele>438</ele>
        <time>2019-04-26T01:38:15Z</time>
      </trkpt>
      <trkpt lat="45.71655" lon="4.66204">
        <ele>438</ele>
        <time>2019-04-26T01:39:15Z</time>
      </trkpt>
      <trkpt lat="45.71652" lon="4.66193">
        <ele>439</ele>
        <time>2019-04-26T01:40:15Z</time>
      </trkpt>
      <trkpt lat="45.71587" lon="4.66086">
        <ele>447</ele>
        <time>2019-04-26T01:41:15Z</time>
      </trkpt>
      <trkpt lat="45.71572" lon="4.66065">
        <ele>450</ele>
        <time>2019-04-26T01:42:15Z</time>
      </trkpt>
      <trkpt lat="45.71456" lon="4.65957">
        <ele>469</ele>
        <time>2019-04-26T01:43:15Z</time>
      </trkpt>
      <trkpt lat="45.71375" lon="4.65894">
        <ele>484</ele>
        <time>2019-04-26T01:44:15Z</time>
      </trkpt>
      <trkpt lat="45.7134" lon="4.65857">
        <ele>492</ele>
        <time>2019-04-26T01:45:15Z</time>
      </trkpt>
      <trkpt lat="45.71295" lon="4.65798">
        <ele>502</ele>
        <time>2019-04-26T01:46:15Z</time>
      </trkpt>
      <trkpt lat="45.71256" lon="4.65779">
        <ele>510</ele>
        <time>2019-04-26T01:47:15Z</time>
      </trkpt>
      <trkpt lat="45.71234" lon="4.65751">
        <ele>513</ele>
        <time>2019-04-26T01:48:15Z</time>
      </trkpt>
      <trkpt lat="45.7121" lon="4.6569">
        <ele>517</ele>
        <time>2019-04-26T01:49:15Z</time>
      </trkpt>
      <trkpt lat="45.71183" lon="4.65631">
        <ele>518</ele>
        <time>2019-04-26T01:50:15Z</time>
      </trkpt>
      <trkpt lat="45.71159" lon="4.65587">
        <ele>518</ele>
        <time>2019-04-26T01:51:15Z</time>
      </trkpt>
      <trkpt lat="45.71079" lon="4.65462">
        <ele>527</ele>
        <time>2019-04-26T01:52:15Z</time>
      </trkpt>
      <trkpt lat="45.71067" lon="4.65439">
        <ele>530</ele>
        <time>2019-04-26T01:53:15Z</time>
      </trkpt>
      <trkpt lat="45.71058" lon="4.65415">
        <ele>533</ele>
        <time>2019-04-26T01:54:15Z</time>
      </trkpt>
      <trkpt lat="45.71042" lon="4.65422">
        <ele>530</ele>
        <time>2019-04-26T01:55:15Z</time>
      </trkpt>
      <trkpt lat="45.71015" lon="4.65415">
        <ele>529</ele>
        <time>2019-04-26T01:56:15Z</time>
      </trkpt>
      <trkpt lat="45.71023" lon="4.65361">
        <ele>534</ele>
        <time>2019-04-26T01:57:15Z</time>
      </trkpt>
      <trkpt lat="45.71039" lon="4.65307">
        <ele>542</ele>
        <time>2019-04-26T01:58:15Z</time>
      </trkpt>
      <trkpt lat="45.71046" lon="4.65293">
        <ele>545</ele>
        <time>2019-04-26T01:59:15Z</time>
      </trkpt>
      <trkpt lat="45.71055" lon="4.65287">
        <ele>546</ele>
        <time>2019-04-26T02:00:15Z</time>
      </trkpt>
      <trkpt lat="45.71051" lon="4.65278">
        <ele>547</ele>
        <time>2019-04-26T02:01:15Z</time>
      </trkpt>
      <trkpt lat="45.71058" lon="4.65234">
        <ele>552</ele>
        <time>2019-04-26T02:02:15Z</time>
      </trkpt>
      <trkpt lat="45.71057" lon="4.65217">
        <ele>554</ele>
        <time>2019-04-26T02:03:15Z</time>
      </trkpt>
      <trkpt lat="45.71053" lon="4.65211">
        <ele>555</ele>
        <time>2019-04-26T02:04:15Z</time>
      </trkpt>
      <trkpt lat="45.71058" lon="4.65185">
        <ele>558</ele>
        <time>2019-04-26T02:05:15Z</time>
      </trkpt>
      <trkpt lat="45.71054" lon="4.65166">
        <ele>560</ele>
        <time>2019-04-26T02:06:15Z</time>
      </trkpt>
      <trkpt lat="45.71064" lon="4.651">
        <ele>567</ele>
        <time>2019-04-26T02:07:15Z</time>
      </trkpt>
      <trkpt lat="45.71073" lon="4.65086">
        <ele>569</ele>
        <time>2019-04-26T02:08:15Z</time>
      </trkpt>
      <trkpt lat="45.71091" lon="4.65035">
        <ele>572</ele>
        <time>2019-04-26T02:09:15Z</time>
      </trkpt>
      <trkpt lat="45.71094" lon="4.64988">
        <ele>573</ele>
        <time>2019-04-26T02:10:15Z</time>
      </trkpt>
      <trkpt lat="45.71094" lon="4.64962">
        <ele>572</ele>
        <time>2019-04-26T02:11:15Z</time>
      </trkpt>
      <trkpt lat="45.7107" lon="4.64807">
        <ele>563</ele>
        <time>2019-04-26T02:12:15Z</time>
      </trkpt>
      <trkpt lat="45.7105" lon="4.64729">
        <ele>557</ele>
        <time>2019-04-26T02:13:15Z</time>
      </trkpt>
      <trkpt lat="45.71028" lon="4.64677">
        <ele>553</ele>
        <time>2019-04-26T02:14:15Z</time>
      </trkpt>
      <trkpt lat="45.71045" lon="4.64597">
        <ele>549</ele>
        <time>2019-04-26T02:15:15Z</time>
      </trkpt>
      <trkpt lat="45.71054" lon="4.64565">
        <ele>548</ele>
        <time>2019-04-26T02:16:15Z</time>
      </trkpt>
      <trkpt lat="45.71053" lon="4.64512">
        <ele>548</ele>
        <time>2019-04-26T02:17:15Z</time>
      </trkpt>
      <trkpt lat="45.71055" lon="4.64495">
        <ele>548</ele>
        <time>2019-04-26T02:18:15Z</time>
      </trkpt>
      <trkpt lat="45.71059" lon="4.64481">
        <ele>549</ele>
        <time>2019-04-26T02:19:15Z</time>
      </trkpt>
      <trkpt lat="45.71095" lon="4.64445">
        <ele>548</ele>
        <time>2019-04-26T02:20:15Z</time>
      </trkpt>
      <trkpt lat="45.71133" lon="4.64425">
        <ele>545</ele>
        <time>2019-04-26T02:21:15Z</time>
      </trkpt>
      <trkpt lat="45.71161" lon="4.64415">
        <ele>543</ele>
        <time>2019-04-26T02:22:15Z</time>
      </trkpt>
      <trkpt lat="45.71167" lon="4.64408">
        <ele>543</ele>
        <time>2019-04-26T02:23:15Z</time>
      </trkpt>
      <trkpt lat="45.71172" lon="4.64388">
        <ele>544</ele>
        <time>2019-04-26T02:24:15Z</time>
      </trkpt>
      <trkpt lat="45.71224" lon="4.64291">
        <ele>538</ele>
        <time>2019-04-26T02:25:15Z</time>
      </trkpt>
      <trkpt lat="45.7124" lon="4.64257">
        <ele>535</ele>
        <time>2019-04-26T02:26:15Z</time>
      </trkpt>
      <trkpt lat="45.71259" lon="4.64207">
        <ele>531</ele>
        <time>2019-04-26T02:27:15Z</time>
      </trkpt>
      <trkpt lat="45.71268" lon="4.64174">
        <ele>529</ele>
        <time>2019-04-26T02:28:15Z</time>
      </trkpt>
      <trkpt lat="45.71279" lon="4.6411">
        <ele>523</ele>
        <time>2019-04-26T02:29:15Z</time>
      </trkpt>
      <trkpt lat="45.7128" lon="4.64076">
        <ele>521</ele>
        <time>2019-04-26T02:30:15Z</time>
      </trkpt>
      <trkpt lat="45.71273" lon="4.63981">
        <ele>516</ele>
        <time>2019-04-26T02:31:15Z</time>
      </trkpt>
      <trkpt lat="45.71265" lon="4.63925">
        <ele>513</ele>
        <time>2019-04-26T02:32:15Z</time>
      </trkpt>
      <trkpt lat="45.71256" lon="4.63886">
        <ele>513</ele>
        <time>2019-04-26T02:33:15Z</time>
      </trkpt>
      <trkpt lat="45.71258" lon="4.63806">
        <ele>510</ele>
        <time>2019-04-26T02:34:15Z</time>
      </trkpt>
      <trkpt lat="45.71269" lon="4.63758">
        <ele>509</ele>
        <time>2019-04-26T02:35:15Z</time>
      </trkpt>
      <trkpt lat="45.71269" lon="4.63744">
        <ele>511</ele>
        <time>2019-04-26T02:36:15Z</time>
      </trkpt>
      <trkpt lat="45.71275" lon="4.63712">
        <ele>514</ele>
        <time>2019-04-26T02:37:15Z</time>
      </trkpt>
      <trkpt lat="45.7128" lon="4.63696">
        <ele>515</ele>
        <time>2019-04-26T02:38:15Z</time>
      </trkpt>
      <trkpt lat="45.71315" lon="4.63652">
        <ele>508</ele>
        <time>2019-04-26T02:39:15Z</time>
      </trkpt>
      <trkpt lat="45.71367" lon="4.63561">
        <ele>498</ele>
        <time>2019-04-26T02:40:15Z</time>
      </trkpt>
      <trkpt lat="45.71409" lon="4.63518">
        <ele>485</ele>
        <time>2019-04-26T02:41:15Z</time>
      </trkpt>
      <trkpt lat="45.71434" lon="4.63431">
        <ele>474</ele>
        <time>2019-04-26T02:42:15Z</time>
      </trkpt>
      <trkpt lat="45.71436" lon="4.63414">
        <ele>472</ele>
        <time>2019-04-26T02:43:15Z</time>
      </trkpt>
      <trkpt lat="45.71429" lon="4.63342">
        <ele>464</ele>
        <time>2019-04-26T02:44:15Z</time>
      </trkpt>
      <trkpt lat="45.71419" lon="4.63281">
        <ele>456</ele>
        <time>2019-04-26T02:45:15Z</time>
      </trkpt>
      <trkpt lat="45.71411" lon="4.63257">
        <ele>452</ele>
        <time>2019-04-26T02:46:15Z</time>
      </trkpt>
      <trkpt lat="45.71392" lon="4.63235">
        <ele>448</ele>
        <time>2019-04-26T02:47:15Z</time>
      </trkpt>
      <trkpt lat="45.71379" lon="4.63226">
        <ele>447</ele>
        <time>2019-04-26T02:48:15Z</time>
      </trkpt>
      <trkpt lat="45.71369" lon="4.63221">
        <ele>446</ele>
        <time>2019-04-26T02:49:15Z</time>
      </trkpt>
      <trkpt lat="45.71331" lon="4.63211">
        <ele>446</ele>
        <time>2019-04-26T02:50:15Z</time>
      </trkpt>
      <trkpt lat="45.71301" lon="4.63195">
        <ele>446</ele>
        <time>2019-04-26T02:51:15Z</time>
      </trkpt>
      <trkpt lat="45.71261" lon="4.63159">
        <ele>445</ele>
        <time>2019-04-26T02:52:15Z</time>
      </trkpt>
      <trkpt lat="45.71262" lon="4.63153">
        <ele>445</ele>
        <time>2019-04-26T02:53:15Z</time>
      </trkpt>
      <trkpt lat="45.71309" lon="4.63153">
        <ele>441</ele>
        <time>2019-04-26T02:54:15Z</time>
      </trkpt>
      <trkpt lat="45.71334" lon="4.63163">
        <ele>437</ele>
        <time>2019-04-26T02:55:15Z</time>
      </trkpt>
      <trkpt lat="45.71341" lon="4.63162">
        <ele>437</ele>
        <time>2019-04-26T02:56:15Z</time>
      </trkpt>
      <trkpt lat="45.71368" lon="4.63143">
        <ele>435</ele>
        <time>2019-04-26T02:57:15Z</time>
      </trkpt>
      <trkpt lat="45.71441" lon="4.63138">
        <ele>427</ele>
        <time>2019-04-26T02:58:15Z</time>
      </trkpt>
      <trkpt lat="45.71479" lon="4.63152">
        <ele>424</ele>
        <time>2019-04-26T02:59:15Z</time>
      </trkpt>
      <trkpt lat="45.71497" lon="4.63167">
        <ele>421</ele>
        <time>2019-04-26T03:00:15Z</time>
      </trkpt>
      <trkpt lat="45.71499" lon="4.63163">
        <ele>421</ele>
        <time>2019-04-26T03:01:15Z</time>
      </trkpt>
      <trkpt lat="45.71497" lon="4.63145">
        <ele>422</ele>
        <time>2019-04-26T03:02:15Z</time>
      </trkpt>
      <trkpt lat="45.71498" lon="4.63125">
        <ele>423</ele>
        <time>2019-04-26T03:03:15Z</time>
      </trkpt>
      <trkpt lat="45.71501" lon="4.6311">
        <ele>423</ele>
        <time>2019-04-26T03:04:15Z</time>
      </trkpt>
      <trkpt lat="45.71518" lon="4.63081">
        <ele>425</ele>
        <time>2019-04-26T03:05:15Z</time>
      </trkpt>
      <trkpt lat="45.71522" lon="4.63081">
        <ele>425</ele>
        <time>2019-04-26T03:06:15Z</time>
      </trkpt>
      <trkpt lat="45.7158" lon="4.63133">
        <ele>419</ele>
        <time>2019-04-26T03:07:15Z</time>
      </trkpt>
      <trkpt lat="45.71598" lon="4.63154">
        <ele>414</ele>
        <time>2019-04-26T03:08:15Z</time>
      </trkpt>
      <trkpt lat="45.71612" lon="4.63161">
        <ele>412</ele>
        <time>2019-04-26T03:09:15Z</time>
      </trkpt>
      <trkpt lat="45.71666" lon="4.63168">
        <ele>407</ele>
        <time>2019-04-26T03:10:15Z</time>
      </trkpt>
      <trkpt lat="45.71694" lon="4.63163">
        <ele>402</ele>
        <time>2019-04-26T03:11:15Z</time>
      </trkpt>
      <trkpt lat="45.71712" lon="4.63164">
        <ele>399</ele>
        <time>2019-04-26T03:12:15Z</time>
      </trkpt>
      <trkpt lat="45.7175" lon="4.63183">
        <ele>391</ele>
        <time>2019-04-26T03:13:15Z</time>
      </trkpt>
      <trkpt lat="45.71751" lon="4.63133">
        <ele>393</ele>
        <time>2019-04-26T03:14:15Z</time>
      </trkpt>
      <trkpt lat="45.71755" lon="4.63103">
        <ele>394</ele>
        <time>2019-04-26T03:15:15Z</time>
      </trkpt>
      <trkpt lat="45.7177" lon="4.63168">
        <ele>394</ele>
        <time>2019-04-26T03:16:15Z</time>
      </trkpt>
      <trkpt lat="45.71791" lon="4.63203">
        <ele>395</ele>
        <time>2019-04-26T03:17:15Z</time>
      </trkpt>
      <trkpt lat="45.71795" lon="4.63203">
        <ele>395</ele>
        <time>2019-04-26T03:18:15Z</time>
      </trkpt>
      <trkpt lat="45.71799" lon="4.63191">
        <ele>396</ele>
        <time>2019-04-26T03:19:15Z</time>
      </trkpt>
      <trkpt lat="45.71804" lon="4.63155">
        <ele>397</ele>
        <time>2019-04-26T03:20:15Z</time>
      </trkpt>
      <trkpt lat="45.71806" lon="4.63091">
        <ele>399</ele>
        <time>2019-04-26T03:21:15Z</time>
      </trkpt>
      <trkpt lat="45.71809" lon="4.63093">
        <ele>399</ele>
        <time>2019-04-26T03:22:15Z</time>
      </trkpt>
      <trkpt lat="45.71813" lon="4.63105">
        <ele>400</ele>
        <time>2019-04-26T03:23:15Z</time>
      </trkpt>
      <trkpt lat="45.71822" lon="4.63115">
        <ele>400</ele>
        <time>2019-04-26T03:24:15Z</time>
      </trkpt>
      <trkpt lat="45.71838" lon="4.63183">
        <ele>401</ele>
        <time>2019-04-26T03:25:15Z</time>
      </trkpt>
      <trkpt lat="45.71849" lon="4.63216">
        <ele>405</ele>
        <time>2019-04-26T03:26:15Z</time>
      </trkpt>
      <trkpt lat="45.71881" lon="4.63251">
        <ele>415</ele>
        <time>2019-04-26T03:27:15Z</time>
      </trkpt>
      <trkpt lat="45.71895" lon="4.63251">
        <ele>420</ele>
        <time>2019-04-26T03:28:15Z</time>
      </trkpt>
      <trkpt lat="45.71922" lon="4.63266">
        <ele>427</ele>
        <time>2019-04-26T03:29:15Z</time>
      </trkpt>
      <trkpt lat="45.71934" lon="4.6327">
        <ele>430</ele>
        <time>2019-04-26T03:30:15Z</time>
      </trkpt>
      <trkpt lat="45.71941" lon="4.63266">
        <ele>432</ele>
        <time>2019-04-26T03:31:15Z</time>
      </trkpt>
      <trkpt lat="45.72004" lon="4.63268">
        <ele>446</ele>
        <time>2019-04-26T03:32:15Z</time>
      </trkpt>
      <trkpt lat="45.72012" lon="4.63276">
        <ele>447</ele>
        <time>2019-04-26T03:33:15Z</time>
      </trkpt>
      <trkpt lat="45.72183" lon="4.63375">
        <ele>470</ele>
        <time>2019-04-26T03:34:15Z</time>
      </trkpt>
      <trkpt lat="45.72246" lon="4.63387">
        <ele>471</ele>
        <time>2019-04-26T03:35:15Z</time>
      </trkpt>
      <trkpt lat="45.72273" lon="4.63396">
        <ele>474</ele>
        <time>2019-04-26T03:36:15Z</time>
      </trkpt>
      <trkpt lat="45.72279" lon="4.63393">
        <ele>474</ele>
        <time>2019-04-26T03:37:15Z</time>
      </trkpt>
      <trkpt lat="45.72284" lon="4.63381">
        <ele>474</ele>
        <time>2019-04-26T03:38:15Z</time>
      </trkpt>
      <trkpt lat="45.72295" lon="4.63367">
        <ele>474</ele>
        <time>2019-04-26T03:39:15Z</time>
      </trkpt>
      <trkpt lat="45.72323" lon="4.63339">
        <ele>475</ele>
        <time>2019-04-26T03:40:15Z</time>
      </trkpt>
      <trkpt lat="45.72329" lon="4.63339">
        <ele>476</ele>
        <time>2019-04-26T03:41:15Z</time>
      </trkpt>
      <trkpt lat="45.72339" lon="4.63348">
        <ele>478</ele>
        <time>2019-04-26T03:42:15Z</time>
      </trkpt>
      <trkpt lat="45.72356" lon="4.63358">
        <ele>482</ele>
        <time>2019-04-26T03:43:15Z</time>
      </trkpt>
      <trkpt lat="45.72366" lon="4.63356">
        <ele>484</ele>
        <time>2019-04-26T03:44:15Z</time>
      </trkpt>
      <trkpt lat="45.72399" lon="4.63333">
        <ele>489</ele>
        <time>2019-04-26T03:45:15Z</time>
      </trkpt>
      <trkpt lat="45.72419" lon="4.63331">
        <ele>492</ele>
        <time>2019-04-26T03:46:15Z</time>
      </trkpt>
      <trkpt lat="45.72425" lon="4.63335">
        <ele>493</ele>
        <time>2019-04-26T03:47:15Z</time>
      </trkpt>
      <trkpt lat="45.72442" lon="4.63366">
        <ele>498</ele>
        <time>2019-04-26T03:48:15Z</time>
      </trkpt>
      <trkpt lat="45.72448" lon="4.63368">
        <ele>499</ele>
        <time>2019-04-26T03:49:15Z</time>
      </trkpt>
      <trkpt lat="45.72486" lon="4.63352">
        <ele>505</ele>
        <time>2019-04-26T03:50:15Z</time>
      </trkpt>
      <trkpt lat="45.72512" lon="4.6335">
        <ele>510</ele>
        <time>2019-04-26T03:51:15Z</time>
      </trkpt>
      <trkpt lat="45.72529" lon="4.63355">
        <ele>515</ele>
        <time>2019-04-26T03:52:15Z</time>
      </trkpt>
      <trkpt lat="45.72533" lon="4.63362">
        <ele>516</ele>
        <time>2019-04-26T03:53:15Z</time>
      </trkpt>
      <trkpt lat="45.72561" lon="4.63369">
        <ele>524</ele>
        <time>2019-04-26T03:54:15Z</time>
      </trkpt>
      <trkpt lat="45.72566" lon="4.63364">
        <ele>525</ele>
        <time>2019-04-26T03:55:15Z</time>
      </trkpt>
      <trkpt lat="45.72588" lon="4.63321">
        <ele>530</ele>
        <time>2019-04-26T03:56:15Z</time>
      </trkpt>
      <trkpt lat="45.72597" lon="4.63312">
        <ele>532</ele>
        <time>2019-04-26T03:57:15Z</time>
      </trkpt>
      <trkpt lat="45.72631" lon="4.63248">
        <ele>539</ele>
        <time>2019-04-26T03:58:15Z</time>
      </trkpt>
      <trkpt lat="45.72673" lon="4.63193">
        <ele>544</ele>
        <time>2019-04-26T03:59:15Z</time>
      </trkpt>
      <trkpt lat="45.72715" lon="4.63175">
        <ele>548</ele>
        <time>2019-04-26T04:00:15Z</time>
      </trkpt>
      <trkpt lat="45.72766" lon="4.63158">
        <ele>553</ele>
        <time>2019-04-26T04:01:15Z</time>
      </trkpt>
      <trkpt lat="45.72774" lon="4.63162">
        <ele>555</ele>
        <time>2019-04-26T04:02:15Z</time>
      </trkpt>
      <trkpt lat="45.72783" lon="4.63161">
        <ele>556</ele>
        <time>2019-04-26T04:03:15Z</time>
      </trkpt>
      <trkpt lat="45.7281" lon="4.6315">
        <ele>558</ele>
        <time>2019-04-26T04:04:15Z</time>
      </trkpt>
      <trkpt lat="45.72831" lon="4.63135">
        <ele>559</ele>
        <time>2019-04-26T04:05:15Z</time>
      </trkpt>
      <trkpt lat="45.72835" lon="4.63122">
        <ele>558</ele>
        <time>2019-04-26T04:06:15Z</time>
      </trkpt>
      <trkpt lat="45.72846" lon="4.63111">
        <ele>560</ele>
        <time>2019-04-26T04:07:15Z</time>
      </trkpt>
      <trkpt lat="45.72868" lon="4.63036">
        <ele>560</ele>
        <time>2019-04-26T04:08:15Z</time>
      </trkpt>
      <trkpt lat="45.72878" lon="4.63013">
        <ele>562</ele>
        <time>2019-04-26T04:09:15Z</time>
      </trkpt>
      <trkpt lat="45.72903" lon="4.62977">
        <ele>569</ele>
        <time>2019-04-26T04:10:15Z</time>
      </trkpt>
      <trkpt lat="45.72962" lon="4.62931">
        <ele>579</ele>
        <time>2019-04-26T04:11:15Z</time>
      </trkpt>
      <trkpt lat="45.72981" lon="4.6293">
        <ele>582</ele>
        <time>2019-04-26T04:12:15Z</time>
      </trkpt>
      <trkpt lat="45.72996" lon="4.62934">
        <ele>585</ele>
        <time>2019-04-26T04:13:15Z</time>
      </trkpt>
      <trkpt lat="45.73047" lon="4.62969">
        <ele>593</ele>
        <time>2019-04-26T04:14:15Z</time>
      </trkpt>
      <trkpt lat="45.73088" lon="4.62981">
        <ele>596</ele>
        <time>2019-04-26T04:15:15Z</time>
      </trkpt>
      <trkpt lat="45.73106" lon="4.62989">
        <ele>600</ele>
        <time>2019-04-26T04:16:15Z</time>
      </trkpt>
      <trkpt lat="45.73115" lon="4.62988">
        <ele>601</ele>
        <time>2019-04-26T04:17:15Z</time>
      </trkpt>
      <trkpt lat="45.73127" lon="4.62977">
        <ele>603</ele>
        <time>2019-04-26T04:18:15Z</time>
      </trkpt>
      <trkpt lat="45.73156" lon="4.62931">
        <ele>609</ele>
        <time>2019-04-26T04:19:15Z</time>
      </trkpt>
      <trkpt lat="45.73159" lon="4.62886">
        <ele>610</ele>
        <time>2019-04-26T04:20:15Z</time>
      </trkpt>
      <trkpt lat="45.73166" lon="4.62834">
        <ele>612</ele>
        <time>2019-04-26T04:21:15Z</time>
      </trkpt>
      <trkpt lat="45.73183" lon="4.62782">
        <ele>615</ele>
        <time>2019-04-26T04:22:15Z</time>
      </trkpt>
      <trkpt lat="45.73194" lon="4.62725">
        <ele>614</ele>
        <time>2019-04-26T04:23:15Z</time>
      </trkpt>
      <trkpt lat="45.732" lon="4.62706">
        <ele>613</ele>
        <time>2019-04-26T04:24:15Z</time>
      </trkpt>
      <trkpt lat="45.73267" lon="4.62574">
        <ele>608</ele>
        <time>2019-04-26T04:25:15Z</time>
      </trkpt>
      <trkpt lat="45.7329" lon="4.62534">
        <ele>611</ele>
        <time>2019-04-26T04:26:15Z</time>
      </trkpt>
      <trkpt lat="45.73306" lon="4.62581">
        <ele>617</ele>
        <time>2019-04-26T04:27:15Z</time>
      </trkpt>
      <trkpt lat="45.7335" lon="4.62749">
        <ele>649</ele>
        <time>2019-04-26T04:28:15Z</time>
      </trkpt>
      <trkpt lat="45.73354" lon="4.62754">
        <ele>649</ele>
        <time>2019-04-26T04:29:15Z</time>
      </trkpt>
      <trkpt lat="45.73358" lon="4.62754">
        <ele>650</ele>
        <time>2019-04-26T04:30:15Z</time>
      </trkpt>
      <trkpt lat="45.734" lon="4.62734">
        <ele>654</ele>
        <time>2019-04-26T04:31:15Z</time>
      </trkpt>
      <trkpt lat="45.73426" lon="4.62718">
        <ele>656</ele>
        <time>2019-04-26T04:32:15Z</time>
      </trkpt>
      <trkpt lat="45.73437" lon="4.62704">
        <ele>658</ele>
        <time>2019-04-26T04:33:15Z</time>
      </trkpt>
      <trkpt lat="45.73456" lon="4.62701">
        <ele>661</ele>
        <time>2019-04-26T04:34:15Z</time>
      </trkpt>
      <trkpt lat="45.73479" lon="4.6269">
        <ele>666</ele>
        <time>2019-04-26T04:35:15Z</time>
      </trkpt>
      <trkpt lat="45.73488" lon="4.62697">
        <ele>668</ele>
        <time>2019-04-26T04:36:15Z</time>
      </trkpt>
      <trkpt lat="45.7351" lon="4.627">
        <ele>671</ele>
        <time>2019-04-26T04:37:15Z</time>
      </trkpt>
      <trkpt lat="45.73541" lon="4.62676">
        <ele>677</ele>
        <time>2019-04-26T04:38:15Z</time>
      </trkpt>
      <trkpt lat="45.73552" lon="4.62649">
        <ele>682</ele>
        <time>2019-04-26T04:39:15Z</time>
      </trkpt>
      <trkpt lat="45.73564" lon="4.62627">
        <ele>688</ele>
        <time>2019-04-26T04:40:15Z</time>
      </trkpt>
      <trkpt lat="45.73575" lon="4.62596">
        <ele>695</ele>
        <time>2019-04-26T04:41:15Z</time>
      </trkpt>
      <trkpt lat="45.73573" lon="4.62563">
        <ele>699</ele>
        <time>2019-04-26T04:42:15Z</time>
      </trkpt>
      <trkpt lat="45.73565" lon="4.62524">
        <ele>700</ele>
        <time>2019-04-26T04:43:15Z</time>
      </trkpt>
      <trkpt lat="45.73563" lon="4.625">
        <ele>702</ele>
        <time>2019-04-26T04:44:15Z</time>
      </trkpt>
      <trkpt lat="45.73548" lon="4.62427">
        <ele>709</ele>
        <time>2019-04-26T04:45:15Z</time>
      </trkpt>
      <trkpt lat="45.73529" lon="4.62263">
        <ele>718</ele>
        <time>2019-04-26T04:46:15Z</time>
      </trkpt>
      <trkpt lat="45.73524" lon="4.62239">
        <ele>717</ele>
        <time>2019-04-26T04:47:15Z</time>
      </trkpt>
      <trkpt lat="45.73563" lon="4.61913">
        <ele>727</ele>
        <time>2019-04-26T04:48:15Z</time>
      </trkpt>
      <trkpt lat="45.73575" lon="4.61821">
        <ele>726</ele>
        <time>2019-04-26T04:49:15Z</time>
      </trkpt>
      <trkpt lat="45.73583" lon="4.61799">
        <ele>727</ele>
        <time>2019-04-26T04:50:15Z</time>
      </trkpt>
      <trkpt lat="45.73591" lon="4.61781">
        <ele>727</ele>
        <time>2019-04-26T04:51:15Z</time>
      </trkpt>
      <trkpt lat="45.73604" lon="4.61763">
        <ele>726</ele>
        <time>2019-04-26T04:52:15Z</time>
      </trkpt>
      <trkpt lat="45.73651" lon="4.61712">
        <ele>726</ele>
        <time>2019-04-26T04:53:15Z</time>
      </trkpt>
      <trkpt lat="45.73662" lon="4.6169">
        <ele>726</ele>
        <time>2019-04-26T04:54:15Z</time>
      </trkpt>
      <trkpt lat="45.73673" lon="4.61654">
        <ele>728</ele>
        <time>2019-04-26T04:55:15Z</time>
      </trkpt>
      <trkpt lat="45.73679" lon="4.61656">
        <ele>728</ele>
        <time>2019-04-26T04:56:15Z</time>
      </trkpt>
      <trkpt lat="45.73698" lon="4.61681">
        <ele>726</ele>
        <time>2019-04-26T04:57:15Z</time>
      </trkpt>
      <trkpt lat="45.73733" lon="4.61712">
        <ele>721</ele>
        <time>2019-04-26T04:58:15Z</time>
      </trkpt>
      <trkpt lat="45.73741" lon="4.61723">
        <ele>720</ele>
        <time>2019-04-26T04:59:15Z</time>
      </trkpt>
      <trkpt lat="45.73748" lon="4.61753">
        <ele>716</ele>
        <time>2019-04-26T05:00:15Z</time>
      </trkpt>
      <trkpt lat="45.73751" lon="4.61786">
        <ele>715</ele>
        <time>2019-04-26T05:01:15Z</time>
      </trkpt>
      <trkpt lat="45.73766" lon="4.61803">
        <ele>711</ele>
        <time>2019-04-26T05:02:15Z</time>
      </trkpt>
      <trkpt lat="45.7378" lon="4.61811">
        <ele>707</ele>
        <time>2019-04-26T05:03:15Z</time>
      </trkpt>
      <trkpt lat="45.73797" lon="4.61832">
        <ele>701</ele>
        <time>2019-04-26T05:04:15Z</time>
      </trkpt>
      <trkpt lat="45.73812" lon="4.61871">
        <ele>698</ele>
        <time>2019-04-26T05:05:15Z</time>
      </trkpt>
      <trkpt lat="45.73829" lon="4.61903">
        <ele>694</ele>
        <time>2019-04-26T05:06:15Z</time>
      </trkpt>
      <trkpt lat="45.73843" lon="4.61914">
        <ele>690</ele>
        <time>2019-04-26T05:07:15Z</time>
      </trkpt>
      <trkpt lat="45.73895" lon="4.61935">
        <ele>677</ele>
        <time>2019-04-26T05:08:15Z</time>
      </trkpt>
      <trkpt lat="45.73931" lon="4.61967">
        <ele>668</ele>
        <time>2019-04-26T05:09:15Z</time>
      </trkpt>
      <trkpt lat="45.73952" lon="4.61991">
        <ele>662</ele>
        <time>2019-04-26T05:10:15Z</time>
      </trkpt>
      <trkpt lat="45.73971" lon="4.62055">
        <ele>652</ele>
        <time>2019-04-26T05:11:15Z</time>
      </trkpt>
      <trkpt lat="45.73982" lon="4.62108">
        <ele>648</ele>
        <time>2019-04-26T05:12:15Z</time>
      </trkpt>
      <trkpt lat="45.73987" lon="4.62124">
        <ele>646</ele>
        <time>2019-04-26T05:13:15Z</time>
      </trkpt>
      <trkpt lat="45.74011" lon="4.62174">
        <ele>640</ele>
        <time>2019-04-26T05:14:15Z</time>
      </trkpt>
      <trkpt lat="45.74023" lon="4.62225">
        <ele>635</ele>
        <time>2019-04-26T05:15:15Z</time>
      </trkpt>
      <trkpt lat="45.74035" lon="4.62371">
        <ele>620</ele>
        <time>2019-04-26T05:16:15Z</time>
      </trkpt>
      <trkpt lat="45.74035" lon="4.62389">
        <ele>618</ele>
        <time>2019-04-26T05:17:15Z</time>
      </trkpt>
      <trkpt lat="45.74031" lon="4.62413">
        <ele>618</ele>
        <time>2019-04-26T05:18:15Z</time>
      </trkpt>
      <trkpt lat="45.74032" lon="4.62436">
        <ele>615</ele>
        <time>2019-04-26T05:19:15Z</time>
      </trkpt>
      <trkpt lat="45.74036" lon="4.62454">
        <ele>612</ele>
        <time>2019-04-26T05:20:15Z</time>
      </trkpt>
      <trkpt lat="45.74061" lon="4.62538">
        <ele>595</ele>
        <time>2019-04-26T05:21:15Z</time>
      </trkpt>
      <trkpt lat="45.74075" lon="4.62572">
        <ele>587</ele>
        <time>2019-04-26T05:22:15Z</time>
      </trkpt>
      <trkpt lat="45.74093" lon="4.62627">
        <ele>580</ele>
        <time>2019-04-26T05:23:15Z</time>
      </trkpt>
      <trkpt lat="45.74103" lon="4.62644">
        <ele>577</ele>
        <time>2019-04-26T05:24:15Z</time>
      </trkpt>
      <trkpt lat="45.74109" lon="4.62683">
        <ele>574</ele>
        <time>2019-04-26T05:25:15Z</time>
      </trkpt>
      <trkpt lat="45.74118" lon="4.62706">
        <ele>569</ele>
        <time>2019-04-26T05:26:15Z</time>
      </trkpt>
      <trkpt lat="45.74128" lon="4.62689">
        <ele>566</ele>
        <time>2019-04-26T05:27:15Z</time>
      </trkpt>
      <trkpt lat="45.74139" lon="4.62631">
        <ele>563</ele>
        <time>2019-04-26T05:28:15Z</time>
      </trkpt>
      <trkpt lat="45.74144" lon="4.62622">
        <ele>561</ele>
        <time>2019-04-26T05:29:15Z</time>
      </trkpt>
      <trkpt lat="45.74138" lon="4.62587">
        <ele>563</ele>
        <time>2019-04-26T05:30:15Z</time>
      </trkpt>
      <trkpt lat="45.74136" lon="4.62487">
        <ele>569</ele>
        <time>2019-04-26T05:31:15Z</time>
      </trkpt>
      <trkpt lat="45.74146" lon="4.62432">
        <ele>573</ele>
        <time>2019-04-26T05:32:15Z</time>
      </trkpt>
      <trkpt lat="45.74165" lon="4.62353">
        <ele>582</ele>
        <time>2019-04-26T05:33:15Z</time>
      </trkpt>
      <trkpt lat="45.74174" lon="4.62331">
        <ele>586</ele>
        <time>2019-04-26T05:34:15Z</time>
      </trkpt>
      <trkpt lat="45.74186" lon="4.62317">
        <ele>587</ele>
        <time>2019-04-26T05:35:15Z</time>
      </trkpt>
      <trkpt lat="45.74213" lon="4.62302">
        <ele>587</ele>
        <time>2019-04-26T05:36:15Z</time>
      </trkpt>
      <trkpt lat="45.74225" lon="4.62306">
        <ele>585</ele>
        <time>2019-04-26T05:37:15Z</time>
      </trkpt>
      <trkpt lat="45.7423" lon="4.62303">
        <ele>585</ele>
        <time>2019-04-26T05:38:15Z</time>
      </trkpt>
      <trkpt lat="45.74243" lon="4.62261">
        <ele>592</ele>
        <time>2019-04-26T05:39:15Z</time>
      </trkpt>
      <trkpt lat="45.74251" lon="4.62243">
        <ele>595</ele>
        <time>2019-04-26T05:40:15Z</time>
      </trkpt>
      <trkpt lat="45.74279" lon="4.62141">
        <ele>606</ele>
        <time>2019-04-26T05:41:15Z</time>
      </trkpt>
      <trkpt lat="45.74285" lon="4.62103">
        <ele>610</ele>
        <time>2019-04-26T05:42:15Z</time>
      </trkpt>
      <trkpt lat="45.74283" lon="4.62092">
        <ele>612</ele>
        <time>2019-04-26T05:43:15Z</time>
      </trkpt>
      <trkpt lat="45.74279" lon="4.62087">
        <ele>614</ele>
        <time>2019-04-26T05:44:15Z</time>
      </trkpt>
      <trkpt lat="45.74269" lon="4.62089">
        <ele>615</ele>
        <time>2019-04-26T05:45:15Z</time>
      </trkpt>
      <trkpt lat="45.7426" lon="4.62085">
        <ele>618</ele>
        <time>2019-04-26T05:46:15Z</time>
      </trkpt>
      <trkpt lat="45.74241" lon="4.6203">
        <ele>623</ele>
        <time>2019-04-26T05:47:15Z</time>
      </trkpt>
      <trkpt lat="45.74236" lon="4.61967">
        <ele>630</ele>
        <time>2019-04-26T05:48:15Z</time>
      </trkpt>
      <trkpt lat="45.74236" lon="4.61885">
        <ele>642</ele>
        <time>2019-04-26T05:49:15Z</time>
      </trkpt>
      <trkpt lat="45.7424" lon="4.61837">
        <ele>649</ele>
        <time>2019-04-26T05:50:15Z</time>
      </trkpt>
      <trkpt lat="45.74264" lon="4.61796">
        <ele>653</ele>
        <time>2019-04-26T05:51:15Z</time>
      </trkpt>
      <trkpt lat="45.74283" lon="4.61774">
        <ele>654</ele>
        <time>2019-04-26T05:52:15Z</time>
      </trkpt>
      <trkpt lat="45.74306" lon="4.61715">
        <ele>663</ele>
        <time>2019-04-26T05:53:15Z</time>
      </trkpt>
      <trkpt lat="45.74306" lon="4.61693">
        <ele>668</ele>
        <time>2019-04-26T05:54:15Z</time>
      </trkpt>
      <trkpt lat="45.74311" lon="4.61673">
        <ele>671</ele>
        <time>2019-04-26T05:55:15Z</time>
      </trkpt>
      <trkpt lat="45.74335" lon="4.61652">
        <ele>673</ele>
        <time>2019-04-26T05:56:15Z</time>
      </trkpt>
      <trkpt lat="45.74384" lon="4.61637">
        <ele>674</ele>
        <time>2019-04-26T05:57:15Z</time>
      </trkpt>
      <trkpt lat="45.74406" lon="4.61609">
        <ele>682</ele>
        <time>2019-04-26T05:58:15Z</time>
      </trkpt>
      <trkpt lat="45.74433" lon="4.61591">
        <ele>687</ele>
        <time>2019-04-26T05:59:15Z</time>
      </trkpt>
      <trkpt lat="45.74486" lon="4.61525">
        <ele>703</ele>
        <time>2019-04-26T06:00:15Z</time>
      </trkpt>
      <trkpt lat="45.74527" lon="4.6149">
        <ele>708</ele>
        <time>2019-04-26T06:01:15Z</time>
      </trkpt>
      <trkpt lat="45.74562" lon="4.61477">
        <ele>707</ele>
        <time>2019-04-26T06:02:15Z</time>
      </trkpt>
      <trkpt lat="45.74582" lon="4.61474">
        <ele>705</ele>
        <time>2019-04-26T06:03:15Z</time>
      </trkpt>
      <trkpt lat="45.74602" lon="4.61467">
        <ele>706</ele>
        <time>2019-04-26T06:04:15Z</time>
      </trkpt>
      <trkpt lat="45.74651" lon="4.61431">
        <ele>714</ele>
        <time>2019-04-26T06:05:15Z</time>
      </trkpt>
      <trkpt lat="45.74676" lon="4.61405">
        <ele>718</ele>
        <time>2019-04-26T06:06:15Z</time>
      </trkpt>
      <trkpt lat="45.74751" lon="4.61249">
        <ele>735</ele>
        <time>2019-04-26T06:07:15Z</time>
      </trkpt>
      <trkpt lat="45.74778" lon="4.61208">
        <ele>735</ele>
        <time>2019-04-26T06:08:15Z</time>
      </trkpt>
      <trkpt lat="45.74788" lon="4.61182">
        <ele>737</ele>
        <time>2019-04-26T06:09:15Z</time>
      </trkpt>
      <trkpt lat="45.74786" lon="4.61169">
        <ele>738</ele>
        <time>2019-04-26T06:10:15Z</time>
      </trkpt>
      <trkpt lat="45.7479" lon="4.61151">
        <ele>737</ele>
        <time>2019-04-26T06:11:15Z</time>
      </trkpt>
      <trkpt lat="45.74802" lon="4.61145">
        <ele>737</ele>
        <time>2019-04-26T06:12:15Z</time>
      </trkpt>
      <trkpt lat="45.7483" lon="4.61161">
        <ele>737</ele>
        <time>2019-04-26T06:13:15Z</time>
      </trkpt>
      <trkpt lat="45.74866" lon="4.61142">
        <ele>739</ele>
        <time>2019-04-26T06:14:15Z</time>
      </trkpt>
      <trkpt lat="45.74878" lon="4.61124">
        <ele>741</ele>
        <time>2019-04-26T06:15:15Z</time>
      </trkpt>
      <trkpt lat="45.7492" lon="4.61078">
        <ele>750</ele>
        <time>2019-04-26T06:16:15Z</time>
      </trkpt>
      <trkpt lat="45.74934" lon="4.61064">
        <ele>749</ele>
        <time>2019-04-26T06:17:15Z</time>
      </trkpt>
      <trkpt lat="45.74947" lon="4.61057">
        <ele>750</ele>
        <time>2019-04-26T06:18:15Z</time>
      </trkpt>
      <trkpt lat="45.74978" lon="4.61054">
        <ele>752</ele>
        <time>2019-04-26T06:19:15Z</time>
      </trkpt>
      <trkpt lat="45.7502" lon="4.61035">
        <ele>753</ele>
        <time>2019-04-26T06:20:15Z</time>
      </trkpt>
      <trkpt lat="45.751" lon="4.61023">
        <ele>752</ele>
        <time>2019-04-26T06:21:15Z</time>
      </trkpt>
      <trkpt lat="45.75131" lon="4.61032">
        <ele>752</ele>
        <time>2019-04-26T06:22:15Z</time>
      </trkpt>
      <trkpt lat="45.75139" lon="4.61038">
        <ele>753</ele>
        <time>2019-04-26T06:23:15Z</time>
      </trkpt>
      <trkpt lat="45.75155" lon="4.61084">
        <ele>757</ele>
        <time>2019-04-26T06:24:15Z</time>
      </trkpt>
      <trkpt lat="45.75186" lon="4.61134">
        <ele>756</ele>
        <time>2019-04-26T06:25:15Z</time>
      </trkpt>
      <trkpt lat="45.75235" lon="4.61191">
        <ele>760</ele>
        <time>2019-04-26T06:26:15Z</time>
      </trkpt>
      <trkpt lat="45.7524" lon="4.61205">
        <ele>762</ele>
        <time>2019-04-26T06:27:15Z</time>
      </trkpt>
      <trkpt lat="45.75263" lon="4.61307">
        <ele>771</ele>
        <time>2019-04-26T06:28:15Z</time>
      </trkpt>
      <trkpt lat="45.75273" lon="4.6138">
        <ele>776</ele>
        <time>2019-04-26T06:29:15Z</time>
      </trkpt>
      <trkpt lat="45.75275" lon="4.6149">
        <ele>781</ele>
        <time>2019-04-26T06:30:15Z</time>
      </trkpt>
      <trkpt lat="45.75287" lon="4.61539">
        <ele>781</ele>
        <time>2019-04-26T06:31:15Z</time>
      </trkpt>
      <trkpt lat="45.75298" lon="4.61572">
        <ele>780</ele>
        <time>2019-04-26T06:32:15Z</time>
      </trkpt>
      <trkpt lat="45.75313" lon="4.6158">
        <ele>781</ele>
        <time>2019-04-26T06:33:15Z</time>
      </trkpt>
      <trkpt lat="45.75329" lon="4.61581">
        <ele>782</ele>
        <time>2019-04-26T06:34:15Z</time>
      </trkpt>
      <trkpt lat="45.7536" lon="4.61593">
        <ele>781</ele>
        <time>2019-04-26T06:35:15Z</time>
      </trkpt>
      <trkpt lat="45.75429" lon="4.61635">
        <ele>775</ele>
        <time>2019-04-26T06:36:15Z</time>
      </trkpt>
      <trkpt lat="45.75471" lon="4.6165">
        <ele>771</ele>
        <time>2019-04-26T06:37:15Z</time>
      </trkpt>
      <trkpt lat="45.7549" lon="4.61662">
        <ele>770</ele>
        <time>2019-04-26T06:38:15Z</time>
      </trkpt>
      <trkpt lat="45.75521" lon="4.61689">
        <ele>765</ele>
        <time>2019-04-26T06:39:15Z</time>
      </trkpt>
      <trkpt lat="45.75535" lon="4.61705">
        <ele>763</ele>
        <time>2019-04-26T06:40:15Z</time>
      </trkpt>
      <trkpt lat="45.75586" lon="4.61783">
        <ele>758</ele>
        <time>2019-04-26T06:41:15Z</time>
      </trkpt>
      <trkpt lat="45.75594" lon="4.61792">
        <ele>757</ele>
        <time>2019-04-26T06:42:15Z</time>
      </trkpt>
      <trkpt lat="45.75599" lon="4.61793">
        <ele>757</ele>
        <time>2019-04-26T06:43:15Z</time>
      </trkpt>
      <trkpt lat="45.75608" lon="4.61789">
        <ele>757</ele>
        <time>2019-04-26T06:44:15Z</time>
      </trkpt>
      <trkpt lat="45.75621" lon="4.61774">
        <ele>756</ele>
        <time>2019-04-26T06:45:15Z</time>
      </trkpt>
      <trkpt lat="45.75624" lon="4.61772">
        <ele>756</ele>
        <time>2019-04-26T06:46:15Z</time>
      </trkpt>
      <trkpt lat="45.75628" lon="4.61773">
        <ele>756</ele>
        <time>2019-04-26T06:47:15Z</time>
      </trkpt>
      <trkpt lat="45.75639" lon="4.61804">
        <ele>755</ele>
        <time>2019-04-26T06:48:15Z</time>
      </trkpt>
      <trkpt lat="45.75726" lon="4.61982">
        <ele>758</ele>
        <time>2019-04-26T06:49:15Z</time>
      </trkpt>
      <trkpt lat="45.75752" lon="4.6204">
        <ele>756</ele>
        <time>2019-04-26T06:50:15Z</time>
      </trkpt>
      <trkpt lat="45.75789" lon="4.6211">
        <ele>755</ele>
        <time>2019-04-26T06:51:15Z</time>
      </trkpt>
      <trkpt lat="45.75819" lon="4.62155">
        <ele>757</ele>
        <time>2019-04-26T06:52:15Z</time>
      </trkpt>
      <trkpt lat="45.75857" lon="4.62201">
        <ele>761</ele>
        <time>2019-04-26T06:53:15Z</time>
      </trkpt>
      <trkpt lat="45.75862" lon="4.62219">
        <ele>763</ele>
        <time>2019-04-26T06:54:15Z</time>
      </trkpt>
      <trkpt lat="45.75907" lon="4.6227">
        <ele>766</ele>
        <time>2019-04-26T06:55:15Z</time>
      </trkpt>
      <trkpt lat="45.7593" lon="4.62303">
        <ele>766</ele>
        <time>2019-04-26T06:56:15Z</time>
      </trkpt>
      <trkpt lat="45.75936" lon="4.62321">
        <ele>767</ele>
        <time>2019-04-26T06:57:15Z</time>
      </trkpt>
      <trkpt lat="45.75939" lon="4.62355">
        <ele>769</ele>
        <time>2019-04-26T06:58:15Z</time>
      </trkpt>
      <trkpt lat="45.75938" lon="4.62369">
        <ele>770</ele>
        <time>2019-04-26T06:59:15Z</time>
      </trkpt>
      <trkpt lat="45.75949" lon="4.6242">
        <ele>770</ele>
        <time>2019-04-26T07:00:15Z</time>
      </trkpt>
      <trkpt lat="45.75964" lon="4.62471">
        <ele>769</ele>
        <time>2019-04-26T07:01:15Z</time>
      </trkpt>
      <trkpt lat="45.75982" lon="4.62521">
        <ele>767</ele>
        <time>2019-04-26T07:02:15Z</time>
      </trkpt>
      <trkpt lat="45.76011" lon="4.62586">
        <ele>761</ele>
        <time>2019-04-26T07:03:15Z</time>
      </trkpt>
      <trkpt lat="45.76023" lon="4.62585">
        <ele>760</ele>
        <time>2019-04-26T07:04:15Z</time>
      </trkpt>
      <trkpt lat="45.76096" lon="4.62622">
        <ele>753</ele>
        <time>2019-04-26T07:05:15Z</time>
      </trkpt>
      <trkpt lat="45.76144" lon="4.62655">
        <ele>747</ele>
        <time>2019-04-26T07:06:15Z</time>
      </trkpt>
      <trkpt lat="45.76182" lon="4.62687">
        <ele>742</ele>
        <time>2019-04-26T07:07:15Z</time>
      </trkpt>
      <trkpt lat="45.76241" lon="4.62759">
        <ele>738</ele>
        <time>2019-04-26T07:08:15Z</time>
      </trkpt>
      <trkpt lat="45.76247" lon="4.62771">
        <ele>736</ele>
        <time>2019-04-26T07:09:15Z</time>
      </trkpt>
      <trkpt lat="45.76263" lon="4.62812">
        <ele>730</ele>
        <time>2019-04-26T07:10:15Z</time>
      </trkpt>
      <trkpt lat="45.76271" lon="4.62855">
        <ele>726</ele>
        <time>2019-04-26T07:11:15Z</time>
      </trkpt>
      <trkpt lat="45.76272" lon="4.62874">
        <ele>725</ele>
        <time>2019-04-26T07:12:15Z</time>
      </trkpt>
      <trkpt lat="45.76295" lon="4.62928">
        <ele>722</ele>
        <time>2019-04-26T07:13:15Z</time>
      </trkpt>
      <trkpt lat="45.76376" lon="4.62997">
        <ele>729</ele>
        <time>2019-04-26T07:14:15Z</time>
      </trkpt>
      <trkpt lat="45.76423" lon="4.63047">
        <ele>732</ele>
        <time>2019-04-26T07:15:15Z</time>
      </trkpt>
      <trkpt lat="45.76439" lon="4.63061">
        <ele>732</ele>
        <time>2019-04-26T07:16:15Z</time>
      </trkpt>
      <trkpt lat="45.76455" lon="4.63066">
        <ele>731</ele>
        <time>2019-04-26T07:17:15Z</time>
      </trkpt>
      <trkpt lat="45.76526" lon="4.6307">
        <ele>728</ele>
        <time>2019-04-26T07:18:15Z</time>
      </trkpt>
      <trkpt lat="45.76543" lon="4.63069">
        <ele>728</ele>
        <time>2019-04-26T07:19:15Z</time>
      </trkpt>
      <trkpt lat="45.76576" lon="4.6306">
        <ele>727</ele>
        <time>2019-04-26T07:20:15Z</time>
      </trkpt>
      <trkpt lat="45.766" lon="4.63063">
        <ele>727</ele>
        <time>2019-04-26T07:21:15Z</time>
      </trkpt>
      <trkpt lat="45.76636" lon="4.6308">
        <ele>728</ele>
        <time>2019-04-26T07:22:15Z</time>
      </trkpt>
      <trkpt lat="45.76662" lon="4.63096">
        <ele>727</ele>
        <time>2019-04-26T07:23:15Z</time>
      </trkpt>
      <trkpt lat="45.76678" lon="4.63109">
        <ele>727</ele>
        <time>2019-04-26T07:24:15Z</time>
      </trkpt>
      <trkpt lat="45.76696" lon="4.63127">
        <ele>728</ele>
        <time>2019-04-26T07:25:15Z</time>
      </trkpt>
      <trkpt lat="45.76715" lon="4.63156">
        <ele>728</ele>
        <time>2019-04-26T07:26:15Z</time>
      </trkpt>
      <trkpt lat="45.7677" lon="4.63252">
        <ele>723</ele>
        <time>2019-04-26T07:27:15Z</time>
      </trkpt>
      <trkpt lat="45.76822" lon="4.6333">
        <ele>722</ele>
        <time>2019-04-26T07:28:15Z</time>
      </trkpt>
      <trkpt lat="45.76847" lon="4.6339">
        <ele>719</ele>
        <time>2019-04-26T07:29:15Z</time>
      </trkpt>
      <trkpt lat="45.76858" lon="4.63439">
        <ele>717</ele>
        <time>2019-04-26T07:30:15Z</time>
      </trkpt>
      <trkpt lat="45.76876" lon="4.63495">
        <ele>717</ele>
        <time>2019-04-26T07:31:15Z</time>
      </trkpt>
      <trkpt lat="45.76901" lon="4.63562">
        <ele>717</ele>
        <time>2019-04-26T07:32:15Z</time>
      </trkpt>
      <trkpt lat="45.7691" lon="4.63576">
        <ele>717</ele>
        <time>2019-04-26T07:33:15Z</time>
      </trkpt>
      <trkpt lat="45.76904" lon="4.63598">
        <ele>715</ele>
        <time>2019-04-26T07:34:15Z</time>
      </trkpt>
      <trkpt lat="45.76898" lon="4.6361">
        <ele>713</ele>
        <time>2019-04-26T07:35:15Z</time>
      </trkpt>
      <trkpt lat="45.76881" lon="4.63625">
        <ele>709</ele>
        <time>2019-04-26T07:36:15Z</time>
      </trkpt>
      <trkpt lat="45.76865" lon="4.63696">
        <ele>700</ele>
        <time>2019-04-26T07:37:15Z</time>
      </trkpt>
      <trkpt lat="45.76847" lon="4.63733">
        <ele>694</ele>
        <time>2019-04-26T07:38:15Z</time>
      </trkpt>
      <trkpt lat="45.76834" lon="4.63768">
        <ele>688</ele>
        <time>2019-04-26T07:39:15Z</time>
      </trkpt>
      <trkpt lat="45.76835" lon="4.63783">
        <ele>686</ele>
        <time>2019-04-26T07:40:15Z</time>
      </trkpt>
      <trkpt lat="45.76839" lon="4.63793">
        <ele>686</ele>
        <time>2019-04-26T07:41:15Z</time>
      </trkpt>
      <trkpt lat="45.76844" lon="4.63842">
        <ele>679</ele>
        <time>2019-04-26T07:42:15Z</time>
      </trkpt>
      <trkpt lat="45.76857" lon="4.63902">
        <ele>672</ele>
        <time>2019-04-26T07:43:15Z</time>
      </trkpt>
      <trkpt lat="45.76866" lon="4.63925">
        <ele>670</ele>
        <time>2019-04-26T07:44:15Z</time>
      </trkpt>
      <trkpt lat="45.76867" lon="4.63936">
        <ele>668</ele>
        <time>2019-04-26T07:45:15Z</time>
      </trkpt>
      <trkpt lat="45.76862" lon="4.63959">
        <ele>663</ele>
        <time>2019-04-26T07:46:15Z</time>
      </trkpt>
      <trkpt lat="45.76859" lon="4.64012">
        <ele>652</ele>
        <time>2019-04-26T07:47:15Z</time>
      </trkpt>
      <trkpt lat="45.7686" lon="4.64079">
        <ele>641</ele>
        <time>2019-04-26T07:48:15Z</time>
      </trkpt>
      <trkpt lat="45.76864" lon="4.64129">
        <ele>634</ele>
        <time>2019-04-26T07:49:15Z</time>
      </trkpt>
      <trkpt lat="45.76863" lon="4.64187">
        <ele>625</ele>
        <time>2019-04-26T07:50:15Z</time>
      </trkpt>
      <trkpt lat="45.76856" lon="4.64205">
        <ele>621</ele>
        <time>2019-04-26T07:51:15Z</time>
      </trkpt>
      <trkpt lat="45.76834" lon="4.64225">
        <ele>617</ele>
        <time>2019-04-26T07:52:15Z</time>
      </trkpt>
      <trkpt lat="45.7683" lon="4.64232">
        <ele>615</ele>
        <time>2019-04-26T07:53:15Z</time>
      </trkpt>
      <trkpt lat="45.76827" lon="4.64253">
        <ele>611</ele>
        <time>2019-04-26T07:54:15Z</time>
      </trkpt>
      <trkpt lat="45.76818" lon="4.64278">
        <ele>606</ele>
        <time>2019-04-26T07:55:15Z</time>
      </trkpt>
      <trkpt lat="45.76807" lon="4.6429">
        <ele>603</ele>
        <time>2019-04-26T07:56:15Z</time>
      </trkpt>
      <trkpt lat="45.76801" lon="4.64329">
        <ele>596</ele>
        <time>2019-04-26T07:57:15Z</time>
      </trkpt>
      <trkpt lat="45.76792" lon="4.64357">
        <ele>591</ele>
        <time>2019-04-26T07:58:15Z</time>
      </trkpt>
      <trkpt lat="45.76786" lon="4.64406">
        <ele>582</ele>
        <time>2019-04-26T07:59:15Z</time>
      </trkpt>
      <trkpt lat="45.76764" lon="4.64413">
        <ele>579</ele>
        <time>2019-04-26T08:00:15Z</time>
      </trkpt>
      <trkpt lat="45.76738" lon="4.64433">
        <ele>570</ele>
        <time>2019-04-26T08:01:15Z</time>
      </trkpt>
      <trkpt lat="45.76691" lon="4.6444">
        <ele>557</ele>
        <time>2019-04-26T08:02:15Z</time>
      </trkpt>
      <trkpt lat="45.76652" lon="4.64434">
        <ele>551</ele>
        <time>2019-04-26T08:03:15Z</time>
      </trkpt>
      <trkpt lat="45.76639" lon="4.64436">
        <ele>550</ele>
        <time>2019-04-26T08:04:15Z</time>
      </trkpt>
      <trkpt lat="45.76639" lon="4.64451">
        <ele>548</ele>
        <time>2019-04-26T08:05:15Z</time>
      </trkpt>
      <trkpt lat="45.76629" lon="4.64464">
        <ele>545</ele>
        <time>2019-04-26T08:06:15Z</time>
      </trkpt>
      <trkpt lat="45.76619" lon="4.64463">
        <ele>545</ele>
        <time>2019-04-26T08:07:15Z</time>
      </trkpt>
      <trkpt lat="45.76611" lon="4.64467">
        <ele>543</ele>
        <time>2019-04-26T08:08:15Z</time>
      </trkpt>
      <trkpt lat="45.76609" lon="4.64478">
        <ele>542</ele>
        <time>2019-04-26T08:09:15Z</time>
      </trkpt>
      <trkpt lat="45.76613" lon="4.64504">
        <ele>539</ele>
        <time>2019-04-26T08:10:15Z</time>
      </trkpt>
      <trkpt lat="45.76634" lon="4.64571">
        <ele>533</ele>
        <time>2019-04-26T08:11:15Z</time>
      </trkpt>
      <trkpt lat="45.76644" lon="4.64593">
        <ele>532</ele>
        <time>2019-04-26T08:12:15Z</time>
      </trkpt>
      <trkpt lat="45.7665" lon="4.64626">
        <ele>529</ele>
        <time>2019-04-26T08:13:15Z</time>
      </trkpt>
      <trkpt lat="45.76652" lon="4.64667">
        <ele>526</ele>
        <time>2019-04-26T08:14:15Z</time>
      </trkpt>
      <trkpt lat="45.76656" lon="4.64691">
        <ele>524</ele>
        <time>2019-04-26T08:15:15Z</time>
      </trkpt>
      <trkpt lat="45.76654" lon="4.64702">
        <ele>523</ele>
        <time>2019-04-26T08:16:15Z</time>
      </trkpt>
      <trkpt lat="45.7663" lon="4.64734">
        <ele>517</ele>
        <time>2019-04-26T08:17:15Z</time>
      </trkpt>
      <trkpt lat="45.76629" lon="4.6474">
        <ele>517</ele>
        <time>2019-04-26T08:18:15Z</time>
      </trkpt>
      <trkpt lat="45.76639" lon="4.64786">
        <ele>513</ele>
        <time>2019-04-26T08:19:15Z</time>
      </trkpt>
      <trkpt lat="45.76645" lon="4.64904">
        <ele>499</ele>
        <time>2019-04-26T08:20:15Z</time>
      </trkpt>
      <trkpt lat="45.76649" lon="4.64929">
        <ele>497</ele>
        <time>2019-04-26T08:21:15Z</time>
      </trkpt>
      <trkpt lat="45.7665" lon="4.64961">
        <ele>493</ele>
        <time>2019-04-26T08:22:15Z</time>
      </trkpt>
      <trkpt lat="45.76648" lon="4.6498">
        <ele>490</ele>
        <time>2019-04-26T08:23:15Z</time>
      </trkpt>
      <trkpt lat="45.76659" lon="4.6505">
        <ele>485</ele>
        <time>2019-04-26T08:24:15Z</time>
      </trkpt>
      <trkpt lat="45.76661" lon="4.65108">
        <ele>482</ele>
        <time>2019-04-26T08:25:15Z</time>
      </trkpt>
      <trkpt lat="45.76669" lon="4.65173">
        <ele>480</ele>
        <time>2019-04-26T08:26:15Z</time>
      </trkpt>
      <trkpt lat="45.76676" lon="4.65164">
        <ele>480</ele>
        <time>2019-04-26T08:27:15Z</time>
      </trkpt>
      <trkpt lat="45.76693" lon="4.65119">
        <ele>482</ele>
        <time>2019-04-26T08:28:15Z</time>
      </trkpt>
      <trkpt lat="45.76698" lon="4.65113">
        <ele>482</ele>
        <time>2019-04-26T08:29:15Z</time>
      </trkpt>
      <trkpt lat="45.7671" lon="4.65072">
        <ele>484</ele>
        <time>2019-04-26T08:30:15Z</time>
      </trkpt>
      <trkpt lat="45.76712" lon="4.65053">
        <ele>485</ele>
        <time>2019-04-26T08:31:15Z</time>
      </trkpt>
      <trkpt lat="45.76716" lon="4.65042">
        <ele>486</ele>
        <time>2019-04-26T08:32:15Z</time>
      </trkpt>
      <trkpt lat="45.7673" lon="4.65039">
        <ele>486</ele>
        <time>2019-04-26T08:33:15Z</time>
      </trkpt>
      <trkpt lat="45.76735" lon="4.65043">
        <ele>486</ele>
        <time>2019-04-26T08:34:15Z</time>
      </trkpt>
      <trkpt lat="45.76767" lon="4.65046">
        <ele>485</ele>
        <time>2019-04-26T08:35:15Z</time>
      </trkpt>
      <trkpt lat="45.76781" lon="4.65053">
        <ele>485</ele>
        <time>2019-04-26T08:36:15Z</time>
      </trkpt>
      <trkpt lat="45.76802" lon="4.65056">
        <ele>484</ele>
        <time>2019-04-26T08:37:15Z</time>
      </trkpt>
      <trkpt lat="45.76812" lon="4.65053">
        <ele>484</ele>
        <time>2019-04-26T08:38:15Z</time>
      </trkpt>
      <trkpt lat="45.76831" lon="4.65043">
        <ele>486</ele>
        <time>2019-04-26T08:39:15Z</time>
      </trkpt>
      <trkpt lat="45.76874" lon="4.64997">
        <ele>498</ele>
        <time>2019-04-26T08:40:15Z</time>
      </trkpt>
      <trkpt lat="45.76874" lon="4.64989">
        <ele>499</ele>
        <time>2019-04-26T08:41:15Z</time>
      </trkpt>
      <trkpt lat="45.76892" lon="4.64974">
        <ele>503</ele>
        <time>2019-04-26T08:42:15Z</time>
      </trkpt>
      <trkpt lat="45.76907" lon="4.64965">
        <ele>506</ele>
        <time>2019-04-26T08:43:15Z</time>
      </trkpt>
      <trkpt lat="45.76922" lon="4.64969">
        <ele>506</ele>
        <time>2019-04-26T08:44:15Z</time>
      </trkpt>
      <trkpt lat="45.76949" lon="4.64983">
        <ele>506</ele>
        <time>2019-04-26T08:45:15Z</time>
      </trkpt>
      <trkpt lat="45.76968" lon="4.64996">
        <ele>506</ele>
        <time>2019-04-26T08:46:15Z</time>
      </trkpt>
      <trkpt lat="45.76996" lon="4.64997">
        <ele>508</ele>
        <time>2019-04-26T08:47:15Z</time>
      </trkpt>
      <trkpt lat="45.77005" lon="4.64988">
        <ele>509</ele>
        <time>2019-04-26T08:48:15Z</time>
      </trkpt>
      <trkpt lat="45.76986" lon="4.64944">
        <ele>513</ele>
        <time>2019-04-26T08:49:15Z</time>
      </trkpt>
      <trkpt lat="45.76961" lon="4.64823">
        <ele>525</ele>
        <time>2019-04-26T08:50:15Z</time>
      </trkpt>
      <trkpt lat="45.76946" lon="4.64794">
        <ele>529</ele>
        <time>2019-04-26T08:51:15Z</time>
      </trkpt>
      <trkpt lat="45.7694" lon="4.64777">
        <ele>531</ele>
        <time>2019-04-26T08:52:15Z</time>
      </trkpt>
      <trkpt lat="45.76938" lon="4.64761">
        <ele>533</ele>
        <time>2019-04-26T08:53:15Z</time>
      </trkpt>
      <trkpt lat="45.76963" lon="4.64714">
        <ele>540</ele>
        <time>2019-04-26T08:54:15Z</time>
      </trkpt>
      <trkpt lat="45.76987" lon="4.64654">
        <ele>550</ele>
        <time>2019-04-26T08:55:15Z</time>
      </trkpt>
      <trkpt lat="45.77051" lon="4.64542">
        <ele>567</ele>
        <time>2019-04-26T08:56:15Z</time>
      </trkpt>
      <trkpt lat="45.77081" lon="4.64497">
        <ele>574</ele>
        <time>2019-04-26T08:57:15Z</time>
      </trkpt>
      <trkpt lat="45.77091" lon="4.64475">
        <ele>575</ele>
        <time>2019-04-26T08:58:15Z</time>
      </trkpt>
      <trkpt lat="45.77101" lon="4.64394">
        <ele>584</ele>
        <time>2019-04-26T08:59:15Z</time>
      </trkpt>
      <trkpt lat="45.77095" lon="4.64231">
        <ele>609</ele>
        <time>2019-04-26T09:00:15Z</time>
      </trkpt>
      <trkpt lat="45.771" lon="4.64209">
        <ele>610</ele>
        <time>2019-04-26T09:01:15Z</time>
      </trkpt>
      <trkpt lat="45.77105" lon="4.64202">
        <ele>610</ele>
        <time>2019-04-26T09:02:15Z</time>
      </trkpt>
      <trkpt lat="45.7711" lon="4.64141">
        <ele>618</ele>
        <time>2019-04-26T09:03:15Z</time>
      </trkpt>
      <trkpt lat="45.77113" lon="4.6414">
        <ele>618</ele>
        <time>2019-04-26T09:04:15Z</time>
      </trkpt>
      <trkpt lat="45.77148" lon="4.64156">
        <ele>612</ele>
        <time>2019-04-26T09:05:15Z</time>
      </trkpt>
      <trkpt lat="45.77173" lon="4.64174">
        <ele>607</ele>
        <time>2019-04-26T09:06:15Z</time>
      </trkpt>
      <trkpt lat="45.77249" lon="4.64186">
        <ele>612</ele>
        <time>2019-04-26T09:07:15Z</time>
      </trkpt>
      <trkpt lat="45.77286" lon="4.64205">
        <ele>605</ele>
        <time>2019-04-26T09:08:15Z</time>
      </trkpt>
      <trkpt lat="45.77298" lon="4.64206">
        <ele>604</ele>
        <time>2019-04-26T09:09:15Z</time>
      </trkpt>
      <trkpt lat="45.77317" lon="4.64197">
        <ele>604</ele>
        <time>2019-04-26T09:10:15Z</time>
      </trkpt>
      <trkpt lat="45.77335" lon="4.64182">
        <ele>607</ele>
        <time>2019-04-26T09:11:15Z</time>
      </trkpt>
      <trkpt lat="45.77358" lon="4.64144">
        <ele>609</ele>
        <time>2019-04-26T09:12:15Z</time>
      </trkpt>
      <trkpt lat="45.77391" lon="4.64069">
        <ele>614</ele>
        <time>2019-04-26T09:13:15Z</time>
      </trkpt>
      <trkpt lat="45.77436" lon="4.63985">
        <ele>618</ele>
        <time>2019-04-26T09:14:15Z</time>
      </trkpt>
      <trkpt lat="45.7745" lon="4.63974">
        <ele>617</ele>
        <time>2019-04-26T09:15:15Z</time>
      </trkpt>
      <trkpt lat="45.77493" lon="4.63963">
        <ele>609</ele>
        <time>2019-04-26T09:16:15Z</time>
      </trkpt>
      <trkpt lat="45.77517" lon="4.63951">
        <ele>608</ele>
        <time>2019-04-26T09:17:15Z</time>
      </trkpt>
      <trkpt lat="45.77549" lon="4.63924">
        <ele>611</ele>
        <time>2019-04-26T09:18:15Z</time>
      </trkpt>
      <trkpt lat="45.77569" lon="4.63899">
        <ele>610</ele>
        <time>2019-04-26T09:19:15Z</time>
      </trkpt>
      <trkpt lat="45.77578" lon="4.63881">
        <ele>609</ele>
        <time>2019-04-26T09:20:15Z</time>
      </trkpt>
      <trkpt lat="45.77585" lon="4.6386">
        <ele>609</ele>
        <time>2019-04-26T09:21:15Z</time>
      </trkpt>
      <trkpt lat="45.77584" lon="4.63842">
        <ele>610</ele>
        <time>2019-04-26T09:22:15Z</time>
      </trkpt>
      <trkpt lat="45.77599" lon="4.63858">
        <ele>608</ele>
        <time>2019-04-26T09:23:15Z</time>
      </trkpt>
      <trkpt lat="45.77612" lon="4.63868">
        <ele>607</ele>
        <time>2019-04-26T09:24:15Z</time>
      </trkpt>
      <trkpt lat="45.77631" lon="4.63882">
        <ele>605</ele>
        <time>2019-04-26T09:25:15Z</time>
      </trkpt>
      <trkpt lat="45.77678" lon="4.6391">
        <ele>605</ele>
        <time>2019-04-26T09:26:15Z</time>
      </trkpt>
      <trkpt lat="45.77693" lon="4.63923">
        <ele>604</ele>
        <time>2019-04-26T09:27:15Z</time>
      </trkpt>
      <trkpt lat="45.77707" lon="4.6393">
        <ele>604</ele>
        <time>2019-04-26T09:28:15Z</time>
      </trkpt>
      <trkpt lat="45.77733" lon="4.63929">
        <ele>604</ele>
        <time>2019-04-26T09:29:15Z</time>
      </trkpt>
      <trkpt lat="45.77754" lon="4.63945">
        <ele>603</ele>
        <time>2019-04-26T09:30:15Z</time>
      </trkpt>
      <trkpt lat="45.77785" lon="4.63977">
        <ele>603</ele>
        <time>2019-04-26T09:31:15Z</time>
      </trkpt>
      <trkpt lat="45.77824" lon="4.64036">
        <ele>604</ele>
        <time>2019-04-26T09:32:15Z</time>
      </trkpt>
      <trkpt lat="45.77854" lon="4.64121">
        <ele>610</ele>
        <time>2019-04-26T09:33:15Z</time>
      </trkpt>
      <trkpt lat="45.77939" lon="4.64296">
        <ele>631</ele>
        <time>2019-04-26T09:34:15Z</time>
      </trkpt>
      <trkpt lat="45.77952" lon="4.64317">
        <ele>634</ele>
        <time>2019-04-26T09:35:15Z</time>
      </trkpt>
      <trkpt lat="45.77987" lon="4.64394">
        <ele>639</ele>
        <time>2019-04-26T09:36:15Z</time>
      </trkpt>
      <trkpt lat="45.77998" lon="4.64407">
        <ele>640</ele>
        <time>2019-04-26T09:37:15Z</time>
      </trkpt>
      <trkpt lat="45.78023" lon="4.64449">
        <ele>643</ele>
        <time>2019-04-26T09:38:15Z</time>
      </trkpt>
      <trkpt lat="45.78038" lon="4.64464">
        <ele>643</ele>
        <time>2019-04-26T09:39:15Z</time>
      </trkpt>
      <trkpt lat="45.78059" lon="4.64497">
        <ele>642</ele>
        <time>2019-04-26T09:40:15Z</time>
      </trkpt>
      <trkpt lat="45.7808" lon="4.64509">
        <ele>641</ele>
        <time>2019-04-26T09:41:15Z</time>
      </trkpt>
      <trkpt lat="45.78107" lon="4.6452">
        <ele>639</ele>
        <time>2019-04-26T09:42:15Z</time>
      </trkpt>
      <trkpt lat="45.78143" lon="4.64543">
        <ele>633</ele>
        <time>2019-04-26T09:43:15Z</time>
      </trkpt>
      <trkpt lat="45.78146" lon="4.64541">
        <ele>633</ele>
        <time>2019-04-26T09:44:15Z</time>
      </trkpt>
      <trkpt lat="45.7815" lon="4.64543">
        <ele>632</ele>
        <time>2019-04-26T09:45:15Z</time>
      </trkpt>
      <trkpt lat="45.78182" lon="4.6457">
        <ele>627</ele>
        <time>2019-04-26T09:46:15Z</time>
      </trkpt>
      <trkpt lat="45.78199" lon="4.64591">
        <ele>625</ele>
        <time>2019-04-26T09:47:15Z</time>
      </trkpt>
      <trkpt lat="45.78239" lon="4.64623">
        <ele>621</ele>
        <time>2019-04-26T09:48:15Z</time>
      </trkpt>
      <trkpt lat="45.78298" lon="4.64688">
        <ele>616</ele>
        <time>2019-04-26T09:49:15Z</time>
      </trkpt>
      <trkpt lat="45.78312" lon="4.64708">
        <ele>614</ele>
        <time>2019-04-26T09:50:15Z</time>
      </trkpt>
      <trkpt lat="45.78347" lon="4.64748">
        <ele>611</ele>
        <time>2019-04-26T09:51:15Z</time>
      </trkpt>
      <trkpt lat="45.7837" lon="4.64795">
        <ele>611</ele>
        <time>2019-04-26T09:52:15Z</time>
      </trkpt>
      <trkpt lat="45.78376" lon="4.64814">
        <ele>610</ele>
        <time>2019-04-26T09:53:15Z</time>
      </trkpt>
      <trkpt lat="45.78378" lon="4.64841">
        <ele>608</ele>
        <time>2019-04-26T09:54:15Z</time>
      </trkpt>
      <trkpt lat="45.78376" lon="4.64873">
        <ele>605</ele>
        <time>2019-04-26T09:55:15Z</time>
      </trkpt>
      <trkpt lat="45.78383" lon="4.64915">
        <ele>603</ele>
        <time>2019-04-26T09:56:15Z</time>
      </trkpt>
      <trkpt lat="45.78383" lon="4.64942">
        <ele>600</ele>
        <time>2019-04-26T09:57:15Z</time>
      </trkpt>
      <trkpt lat="45.78387" lon="4.64956">
        <ele>599</ele>
        <time>2019-04-26T09:58:15Z</time>
      </trkpt>
      <trkpt lat="45.78402" lon="4.6498">
        <ele>597</ele>
        <time>2019-04-26T09:59:15Z</time>
      </trkpt>
      <trkpt lat="45.78409" lon="4.64985">
        <ele>597</ele>
        <time>2019-04-26T10:00:15Z</time>
      </trkpt>
      <trkpt lat="45.78437" lon="4.64991">
        <ele>594</ele>
        <time>2019-04-26T10:01:15Z</time>
      </trkpt>
      <trkpt lat="45.78495" lon="4.64992">
        <ele>587</ele>
        <time>2019-04-26T10:02:15Z</time>
      </trkpt>
      <trkpt lat="45.78539" lon="4.6497">
        <ele>591</ele>
        <time>2019-04-26T10:03:15Z</time>
      </trkpt>
      <trkpt lat="45.78552" lon="4.64969">
        <ele>591</ele>
        <time>2019-04-26T10:04:15Z</time>
      </trkpt>
      <trkpt lat="45.78564" lon="4.64973">
        <ele>589</ele>
        <time>2019-04-26T10:05:15Z</time>
      </trkpt>
      <trkpt lat="45.78588" lon="4.6499">
        <ele>583</ele>
        <time>2019-04-26T10:06:15Z</time>
      </trkpt>
      <trkpt lat="45.78608" lon="4.65009">
        <ele>579</ele>
        <time>2019-04-26T10:07:15Z</time>
      </trkpt>
      <trkpt lat="45.78624" lon="4.65018">
        <ele>577</ele>
        <time>2019-04-26T10:08:15Z</time>
      </trkpt>
      <trkpt lat="45.7867" lon="4.65023">
        <ele>578</ele>
        <time>2019-04-26T10:09:15Z</time>
      </trkpt>
      <trkpt lat="45.78691" lon="4.65029">
        <ele>575</ele>
        <time>2019-04-26T10:10:15Z</time>
      </trkpt>
      <trkpt lat="45.78721" lon="4.65021">
        <ele>576</ele>
        <time>2019-04-26T10:11:15Z</time>
      </trkpt>
      <trkpt lat="45.78732" lon="4.65024">
        <ele>574</ele>
        <time>2019-04-26T10:12:15Z</time>
      </trkpt>
      <trkpt lat="45.78756" lon="4.6504">
        <ele>569</ele>
        <time>2019-04-26T10:13:15Z</time>
      </trkpt>
      <trkpt lat="45.78769" lon="4.65055">
        <ele>566</ele>
        <time>2019-04-26T10:14:15Z</time>
      </trkpt>
      <trkpt lat="45.78806" lon="4.65128">
        <ele>550</ele>
        <time>2019-04-26T10:15:15Z</time>
      </trkpt>
      <trkpt lat="45.78828" lon="4.65153">
        <ele>546</ele>
        <time>2019-04-26T10:16:15Z</time>
      </trkpt>
      <trkpt lat="45.78893" lon="4.65203">
        <ele>536</ele>
        <time>2019-04-26T10:17:15Z</time>
      </trkpt>
      <trkpt lat="45.78917" lon="4.65239">
        <ele>531</ele>
        <time>2019-04-26T10:18:15Z</time>
      </trkpt>
      <trkpt lat="45.78965" lon="4.65351">
        <ele>523</ele>
        <time>2019-04-26T10:19:15Z</time>
      </trkpt>
      <trkpt lat="45.78977" lon="4.654">
        <ele>522</ele>
        <time>2019-04-26T10:20:15Z</time>
      </trkpt>
      <trkpt lat="45.78984" lon="4.65401">
        <ele>523</ele>
        <time>2019-04-26T10:21:15Z</time>
      </trkpt>
      <trkpt lat="45.78984" lon="4.65444">
        <ele>520</ele>
        <time>2019-04-26T10:22:15Z</time>
      </trkpt>
      <trkpt lat="45.78991" lon="4.65502">
        <ele>515</ele>
        <time>2019-04-26T10:23:15Z</time>
      </trkpt>
      <trkpt lat="45.79011" lon="4.65607">
        <ele>508</ele>
        <time>2019-04-26T10:24:15Z</time>
      </trkpt>
      <trkpt lat="45.79041" lon="4.65659">
        <ele>505</ele>
        <time>2019-04-26T10:25:15Z</time>
      </trkpt>
      <trkpt lat="45.79097" lon="4.65712">
        <ele>506</ele>
        <time>2019-04-26T10:26:15Z</time>
      </trkpt>
      <trkpt lat="45.79111" lon="4.65728">
        <ele>505</ele>
        <time>2019-04-26T10:27:15Z</time>
      </trkpt>
      <trkpt lat="45.7912" lon="4.65728">
        <ele>505</ele>
        <time>2019-04-26T10:28:15Z</time>
      </trkpt>
      <trkpt lat="45.79244" lon="4.65755">
        <ele>493</ele>
        <time>2019-04-26T10:29:15Z</time>
      </trkpt>
      <trkpt lat="45.79266" lon="4.65755">
        <ele>490</ele>
        <time>2019-04-26T10:30:15Z</time>
      </trkpt>
      <trkpt lat="45.79321" lon="4.65748">
        <ele>482</ele>
        <time>2019-04-26T10:31:15Z</time>
      </trkpt>
      <trkpt lat="45.7935" lon="4.65747">
        <ele>477</ele>
        <time>2019-04-26T10:32:15Z</time>
      </trkpt>
      <trkpt lat="45.79375" lon="4.65748">
        <ele>473</ele>
        <time>2019-04-26T10:33:15Z</time>
      </trkpt>
      <trkpt lat="45.79417" lon="4.65758">
        <ele>467</ele>
        <time>2019-04-26T10:34:15Z</time>
      </trkpt>
      <trkpt lat="45.79448" lon="4.65762">
        <ele>463</ele>
        <time>2019-04-26T10:35:15Z</time>
      </trkpt>
      <trkpt lat="45.79474" lon="4.65769">
        <ele>460</ele>
        <time>2019-04-26T10:36:15Z</time>
      </trkpt>
      <trkpt lat="45.79495" lon="4.65779">
        <ele>458</ele>
        <time>2019-04-26T10:37:15Z</time>
      </trkpt>
      <trkpt lat="45.79549" lon="4.65816">
        <ele>454</ele>
        <time>2019-04-26T10:38:15Z</time>
      </trkpt>
      <trkpt lat="45.79585" lon="4.65835">
        <ele>449</ele>
        <time>2019-04-26T10:39:15Z</time>
      </trkpt>
      <trkpt lat="45.79652" lon="4.65822">
        <ele>444</ele>
        <time>2019-04-26T10:40:15Z</time>
      </trkpt>
      <trkpt lat="45.79707" lon="4.65795">
        <ele>440</ele>
        <time>2019-04-26T10:41:15Z</time>
      </trkpt>
      <trkpt lat="45.79752" lon="4.65769">
        <ele>439</ele>
        <time>2019-04-26T10:42:15Z</time>
      </trkpt>
      <trkpt lat="45.79777" lon="4.65759">
        <ele>439</ele>
        <time>2019-04-26T10:43:15Z</time>
      </trkpt>
      <trkpt lat="45.79835" lon="4.65758">
        <ele>441</ele>
        <time>2019-04-26T10:44:15Z</time>
      </trkpt>
      <trkpt lat="45.79926" lon="4.65747">
        <ele>441</ele>
        <time>2019-04-26T10:45:15Z</time>
      </trkpt>
      <trkpt lat="45.79969" lon="4.65752">
        <ele>440</ele>
        <time>2019-04-26T10:46:15Z</time>
      </trkpt>
      <trkpt lat="45.79974" lon="4.6575">
        <ele>440</ele>
        <time>2019-04-26T10:47:15Z</time>
      </trkpt>
      <trkpt lat="45.79984" lon="4.65712">
        <ele>438</ele>
        <time>2019-04-26T10:48:15Z</time>
      </trkpt>
      <trkpt lat="45.80022" lon="4.65626">
        <ele>434</ele>
        <time>2019-04-26T10:49:15Z</time>
      </trkpt>
      <trkpt lat="45.8005" lon="4.65533">
        <ele>430</ele>
        <time>2019-04-26T10:50:15Z</time>
      </trkpt>
      <trkpt lat="45.80127" lon="4.65374">
        <ele>432</ele>
        <time>2019-04-26T10:51:15Z</time>
      </trkpt>
      <trkpt lat="45.80171" lon="4.65277">
        <ele>431</ele>
        <time>2019-04-26T10:52:15Z</time>
      </trkpt>
      <trkpt lat="45.80194" lon="4.65241">
        <ele>430</ele>
        <time>2019-04-26T10:53:15Z</time>
      </trkpt>
      <trkpt lat="45.80214" lon="4.65199">
        <ele>429</ele>
        <time>2019-04-26T10:54:15Z</time>
      </trkpt>
      <trkpt lat="45.8027" lon="4.65113">
        <ele>425</ele>
        <time>2019-04-26T10:55:15Z</time>
      </trkpt>
      <trkpt lat="45.80279" lon="4.65092">
        <ele>424</ele>
        <time>2019-04-26T10:56:15Z</time>
      </trkpt>
      <trkpt lat="45.80319" lon="4.64949">
        <ele>424</ele>
        <time>2019-04-26T10:57:15Z</time>
      </trkpt>
      <trkpt lat="45.80356" lon="4.64884">
        <ele>423</ele>
        <time>2019-04-26T10:58:15Z</time>
      </trkpt>
      <trkpt lat="45.8038" lon="4.64829">
        <ele>422</ele>
        <time>2019-04-26T10:59:15Z</time>
      </trkpt>
      <trkpt lat="45.80444" lon="4.64765">
        <ele>415</ele>
        <time>2019-04-26T11:00:15Z</time>
      </trkpt>
      <trkpt lat="45.80454" lon="4.647">
        <ele>415</ele>
        <time>2019-04-26T11:01:15Z</time>
      </trkpt>
      <trkpt lat="45.80465" lon="4.6466">
        <ele>413</ele>
        <time>2019-04-26T11:02:15Z</time>
      </trkpt>
      <trkpt lat="45.80482" lon="4.64612">
        <ele>408</ele>
        <time>2019-04-26T11:03:15Z</time>
      </trkpt>
      <trkpt lat="45.80508" lon="4.6456">
        <ele>403</ele>
        <time>2019-04-26T11:04:15Z</time>
      </trkpt>
      <trkpt lat="45.80518" lon="4.64572">
        <ele>401</ele>
        <time>2019-04-26T11:05:15Z</time>
      </trkpt>
      <trkpt lat="45.80519" lon="4.6458">
        <ele>400</ele>
        <time>2019-04-26T11:06:15Z</time>
      </trkpt>
      <trkpt lat="45.80587" lon="4.64616">
        <ele>387</ele>
        <time>2019-04-26T11:07:15Z</time>
      </trkpt>
      <trkpt lat="45.80609" lon="4.6463">
        <ele>383</ele>
        <time>2019-04-26T11:08:15Z</time>
      </trkpt>
      <trkpt lat="45.80649" lon="4.6467">
        <ele>378</ele>
        <time>2019-04-26T11:09:15Z</time>
      </trkpt>
      <trkpt lat="45.80656" lon="4.64666">
        <ele>377</ele>
        <time>2019-04-26T11:10:15Z</time>
      </trkpt>
      <trkpt lat="45.80697" lon="4.64616">
        <ele>372</ele>
        <time>2019-04-26T11:11:15Z</time>
      </trkpt>
      <trkpt lat="45.80728" lon="4.64587">
        <ele>369</ele>
        <time>2019-04-26T11:12:15Z</time>
      </trkpt>
      <trkpt lat="45.80741" lon="4.64581">
        <ele>368</ele>
        <time>2019-04-26T11:13:15Z</time>
      </trkpt>
      <trkpt lat="45.80793" lon="4.64574">
        <ele>363</ele>
        <time>2019-04-26T11:14:15Z</time>
      </trkpt>
      <trkpt lat="45.80812" lon="4.64567">
        <ele>361</ele>
        <time>2019-04-26T11:15:15Z</time>
      </trkpt>
      <trkpt lat="45.80845" lon="4.64547">
        <ele>359</ele>
        <time>2019-04-26T11:16:15Z</time>
      </trkpt>
      <trkpt lat="45.80908" lon="4.6449">
        <ele>358</ele>
        <time>2019-04-26T11:17:15Z</time>
      </trkpt>
      <trkpt lat="45.8091" lon="4.64501">
        <ele>357</ele>
        <time>2019-04-26T11:18:15Z</time>
      </trkpt>
      <trkpt lat="45.80938" lon="4.64555">
        <ele>354</ele>
        <time>2019-04-26T11:19:15Z</time>
      </trkpt>
      <trkpt lat="45.80974" lon="4.6459">
        <ele>350</ele>
        <time>2019-04-26T11:20:15Z</time>
      </trkpt>
      <trkpt lat="45.81063" lon="4.64721">
        <ele>340</ele>
        <time>2019-04-26T11:21:15Z</time>
      </trkpt>
      <trkpt lat="45.81102" lon="4.64784">
        <ele>336</ele>
        <time>2019-04-26T11:22:15Z</time>
      </trkpt>
      <trkpt lat="45.81116" lon="4.6482">
        <ele>334</ele>
        <time>2019-04-26T11:23:15Z</time>
      </trkpt>
      <trkpt lat="45.81145" lon="4.64938">
        <ele>328</ele>
        <time>2019-04-26T11:24:15Z</time>
      </trkpt>
      <trkpt lat="45.81155" lon="4.64955">
        <ele>327</ele>
        <time>2019-04-26T11:25:15Z</time>
      </trkpt>
      <trkpt lat="45.81157" lon="4.64988">
        <ele>326</ele>
        <time>2019-04-26T11:26:15Z</time>
      </trkpt>
      <trkpt lat="45.8116" lon="4.64998">
        <ele>325</ele>
        <time>2019-04-26T11:27:15Z</time>
      </trkpt>
      <trkpt lat="45.81166" lon="4.65014">
        <ele>326</ele>
        <time>2019-04-26T11:28:15Z</time>
      </trkpt>
      <trkpt lat="45.81176" lon="4.65031">
        <ele>326</ele>
        <time>2019-04-26T11:29:15Z</time>
      </trkpt>
      <trkpt lat="45.81181" lon="4.65047">
        <ele>327</ele>
        <time>2019-04-26T11:30:15Z</time>
      </trkpt>
      <trkpt lat="45.81234" lon="4.6512">
        <ele>325</ele>
        <time>2019-04-26T11:31:15Z</time>
      </trkpt>
      <trkpt lat="45.81322" lon="4.65254">
        <ele>319</ele>
        <time>2019-04-26T11:32:15Z</time>
      </trkpt>
      <trkpt lat="45.81346" lon="4.65279">
        <ele>317</ele>
        <time>2019-04-26T11:33:15Z</time>
      </trkpt>
      <trkpt lat="45.81424" lon="4.65326">
        <ele>311</ele>
        <time>2019-04-26T11:34:15Z</time>
      </trkpt>
      <trkpt lat="45.81478" lon="4.65366">
        <ele>309</ele>
        <time>2019-04-26T11:35:15Z</time>
      </trkpt>
      <trkpt lat="45.81496" lon="4.65382">
        <ele>308</ele>
        <time>2019-04-26T11:36:15Z</time>
      </trkpt>
      <trkpt lat="45.81542" lon="4.65439">
        <ele>305</ele>
        <time>2019-04-26T11:37:15Z</time>
      </trkpt>
      <trkpt lat="45.8155" lon="4.65386">
        <ele>305</ele>
        <time>2019-04-26T11:38:15Z</time>
      </trkpt>
      <trkpt lat="45.81557" lon="4.65358">
        <ele>305</ele>
        <time>2019-04-26T11:39:15Z</time>
      </trkpt>
      <trkpt lat="45.81591" lon="4.65312">
        <ele>306</ele>
        <time>2019-04-26T11:40:15Z</time>
      </trkpt>
      <trkpt lat="45.81623" lon="4.6526">
        <ele>312</ele>
        <time>2019-04-26T11:41:15Z</time>
      </trkpt>
      <trkpt lat="45.81648" lon="4.65204">
        <ele>316</ele>
        <time>2019-04-26T11:42:15Z</time>
      </trkpt>
      <trkpt lat="45.81683" lon="4.65161">
        <ele>320</ele>
        <time>2019-04-26T11:43:15Z</time>
      </trkpt>
      <trkpt lat="45.81712" lon="4.65139">
        <ele>324</ele>
        <time>2019-04-26T11:44:15Z</time>
      </trkpt>
      <trkpt lat="45.81735" lon="4.6509">
        <ele>329</ele>
        <time>2019-04-26T11:45:15Z</time>
      </trkpt>
      <trkpt lat="45.81737" lon="4.65077">
        <ele>330</ele>
        <time>2019-04-26T11:46:15Z</time>
      </trkpt>
      <trkpt lat="45.81738" lon="4.64971">
        <ele>340</ele>
        <time>2019-04-26T11:47:15Z</time>
      </trkpt>
      <trkpt lat="45.81744" lon="4.64953">
        <ele>342</ele>
        <time>2019-04-26T11:48:15Z</time>
      </trkpt>
      <trkpt lat="45.81791" lon="4.64865">
        <ele>348</ele>
        <time>2019-04-26T11:49:15Z</time>
      </trkpt>
      <trkpt lat="45.8184" lon="4.64762">
        <ele>356</ele>
        <time>2019-04-26T11:50:15Z</time>
      </trkpt>
      <trkpt lat="45.81864" lon="4.6472">
        <ele>359</ele>
        <time>2019-04-26T11:51:15Z</time>
      </trkpt>
      <trkpt lat="45.81906" lon="4.64624">
        <ele>365</ele>
        <time>2019-04-26T11:52:15Z</time>
      </trkpt>
      <trkpt lat="45.81915" lon="4.64578">
        <ele>367</ele>
        <time>2019-04-26T11:53:15Z</time>
      </trkpt>
      <trkpt lat="45.81926" lon="4.64481">
        <ele>373</ele>
        <time>2019-04-26T11:54:15Z</time>
      </trkpt>
      <trkpt lat="45.81946" lon="4.6435">
        <ele>380</ele>
        <time>2019-04-26T11:55:15Z</time>
      </trkpt>
      <trkpt lat="45.81947" lon="4.64331">
        <ele>381</ele>
        <time>2019-04-26T11:56:15Z</time>
      </trkpt>
      <trkpt lat="45.81939" lon="4.64257">
        <ele>389</ele>
        <time>2019-04-26T11:57:15Z</time>
      </trkpt>
      <trkpt lat="45.81932" lon="4.64238">
        <ele>392</ele>
        <time>2019-04-26T11:58:15Z</time>
      </trkpt>
      <trkpt lat="45.81931" lon="4.64223">
        <ele>394</ele>
        <time>2019-04-26T11:59:15Z</time>
      </trkpt>
      <trkpt lat="45.81938" lon="4.64173">
        <ele>397</ele>
        <time>2019-04-26T12:00:15Z</time>
      </trkpt>
      <trkpt lat="45.81937" lon="4.64166">
        <ele>398</ele>
        <time>2019-04-26T12:01:15Z</time>
      </trkpt>
      <trkpt lat="45.81942" lon="4.64143">
        <ele>400</ele>
        <time>2019-04-26T12:02:15Z</time>
      </trkpt>
      <trkpt lat="45.81953" lon="4.64121">
        <ele>400</ele>
        <time>2019-04-26T12:03:15Z</time>
      </trkpt>
      <trkpt lat="45.81955" lon="4.64111">
        <ele>401</ele>
        <time>2019-04-26T12:04:15Z</time>
      </trkpt>
      <trkpt lat="45.81957" lon="4.63992">
        <ele>410</ele>
        <time>2019-04-26T12:05:15Z</time>
      </trkpt>
      <trkpt lat="45.81953" lon="4.63952">
        <ele>411</ele>
        <time>2019-04-26T12:06:15Z</time>
      </trkpt>
      <trkpt lat="45.81941" lon="4.63898">
        <ele>413</ele>
        <time>2019-04-26T12:07:15Z</time>
      </trkpt>
      <trkpt lat="45.8192" lon="4.63851">
        <ele>416</ele>
        <time>2019-04-26T12:08:15Z</time>
      </trkpt>
      <trkpt lat="45.81878" lon="4.63777">
        <ele>418</ele>
        <time>2019-04-26T12:09:15Z</time>
      </trkpt>
      <trkpt lat="45.81813" lon="4.63625">
        <ele>416</ele>
        <time>2019-04-26T12:10:15Z</time>
      </trkpt>
      <trkpt lat="45.81805" lon="4.63598">
        <ele>416</ele>
        <time>2019-04-26T12:11:15Z</time>
      </trkpt>
      <trkpt lat="45.81757" lon="4.63469">
        <ele>417</ele>
        <time>2019-04-26T12:12:15Z</time>
      </trkpt>
      <trkpt lat="45.81731" lon="4.63403">
        <ele>417</ele>
        <time>2019-04-26T12:13:15Z</time>
      </trkpt>
      <trkpt lat="45.81708" lon="4.63356">
        <ele>418</ele>
        <time>2019-04-26T12:14:15Z</time>
      </trkpt>
      <trkpt lat="45.81698" lon="4.63329">
        <ele>418</ele>
        <time>2019-04-26T12:15:15Z</time>
      </trkpt>
      <trkpt lat="45.81675" lon="4.63241">
        <ele>416</ele>
        <time>2019-04-26T12:16:15Z</time>
      </trkpt>
      <trkpt lat="45.81653" lon="4.63172">
        <ele>418</ele>
        <time>2019-04-26T12:17:15Z</time>
      </trkpt>
      <trkpt lat="45.81626" lon="4.63057">
        <ele>416</ele>
        <time>2019-04-26T12:18:15Z</time>
      </trkpt>
      <trkpt lat="45.81618" lon="4.62955">
        <ele>412</ele>
        <time>2019-04-26T12:19:15Z</time>
      </trkpt>
      <trkpt lat="45.81615" lon="4.62951">
        <ele>411</ele>
        <time>2019-04-26T12:20:15Z</time>
      </trkpt>
      <trkpt lat="45.81583" lon="4.6294">
        <ele>409</ele>
        <time>2019-04-26T12:21:15Z</time>
      </trkpt>
      <trkpt lat="45.81494" lon="4.62849">
        <ele>402</ele>
        <time>2019-04-26T12:22:15Z</time>
      </trkpt>
      <trkpt lat="45.81431" lon="4.62809">
        <ele>403</ele>
        <time>2019-04-26T12:23:15Z</time>
      </trkpt>
      <trkpt lat="45.81425" lon="4.62803">
        <ele>403</ele>
        <time>2019-04-26T12:24:15Z</time>
      </trkpt>
      <trkpt lat="45.81419" lon="4.62795">
        <ele>402</ele>
        <time>2019-04-26T12:25:15Z</time>
      </trkpt>
      <trkpt lat="45.81408" lon="4.62771">
        <ele>401</ele>
        <time>2019-04-26T12:26:15Z</time>
      </trkpt>
      <trkpt lat="45.81388" lon="4.6275">
        <ele>402</ele>
        <time>2019-04-26T12:27:15Z</time>
      </trkpt>
      <trkpt lat="45.81371" lon="4.62727">
        <ele>402</ele>
        <time>2019-04-26T12:28:15Z</time>
      </trkpt>
      <trkpt lat="45.81363" lon="4.6271">
        <ele>401</ele>
        <time>2019-04-26T12:29:15Z</time>
      </trkpt>
      <trkpt lat="45.81324" lon="4.62652">
        <ele>398</ele>
        <time>2019-04-26T12:30:15Z</time>
      </trkpt>
      <trkpt lat="45.81277" lon="4.62551">
        <ele>396</ele>
        <time>2019-04-26T12:31:15Z</time>
      </trkpt>
      <trkpt lat="45.81247" lon="4.6251">
        <ele>398</ele>
        <time>2019-04-26T12:32:15Z</time>
      </trkpt>
      <trkpt lat="45.81196" lon="4.62465">
        <ele>400</ele>
        <time>2019-04-26T12:33:15Z</time>
      </trkpt>
      <trkpt lat="45.81179" lon="4.62454">
        <ele>401</ele>
        <time>2019-04-26T12:34:15Z</time>
      </trkpt>
      <trkpt lat="45.81147" lon="4.62443">
        <ele>402</ele>
        <time>2019-04-26T12:35:15Z</time>
      </trkpt>
      <trkpt lat="45.81106" lon="4.62436">
        <ele>403</ele>
        <time>2019-04-26T12:36:15Z</time>
      </trkpt>
      <trkpt lat="45.81063" lon="4.62449">
        <ele>404</ele>
        <time>2019-04-26T12:37:15Z</time>
      </trkpt>
      <trkpt lat="45.8102" lon="4.62441">
        <ele>401</ele>
        <time>2019-04-26T12:38:15Z</time>
      </trkpt>
      <trkpt lat="45.80938" lon="4.6239">
        <ele>395</ele>
        <time>2019-04-26T12:39:15Z</time>
      </trkpt>
      <trkpt lat="45.80888" lon="4.62351">
        <ele>393</ele>
        <time>2019-04-26T12:40:15Z</time>
      </trkpt>
      <trkpt lat="45.80869" lon="4.62342">
        <ele>393</ele>
        <time>2019-04-26T12:41:15Z</time>
      </trkpt>
      <trkpt lat="45.80858" lon="4.62342">
        <ele>393</ele>
        <time>2019-04-26T12:42:15Z</time>
      </trkpt>
      <trkpt lat="45.80827" lon="4.62353">
        <ele>396</ele>
        <time>2019-04-26T12:43:15Z</time>
      </trkpt>
      <trkpt lat="45.80818" lon="4.62351">
        <ele>396</ele>
        <time>2019-04-26T12:44:15Z</time>
      </trkpt>
      <trkpt lat="45.80812" lon="4.62338">
        <ele>395</ele>
        <time>2019-04-26T12:45:15Z</time>
      </trkpt>
      <trkpt lat="45.80811" lon="4.62307">
        <ele>392</ele>
        <time>2019-04-26T12:46:15Z</time>
      </trkpt>
      <trkpt lat="45.80808" lon="4.62294">
        <ele>391</ele>
        <time>2019-04-26T12:47:15Z</time>
      </trkpt>
      <trkpt lat="45.80795" lon="4.62257">
        <ele>388</ele>
        <time>2019-04-26T12:48:15Z</time>
      </trkpt>
      <trkpt lat="45.8074" lon="4.62235">
        <ele>390</ele>
        <time>2019-04-26T12:49:15Z</time>
      </trkpt>
      <trkpt lat="45.80722" lon="4.62234">
        <ele>390</ele>
        <time>2019-04-26T12:50:15Z</time>
      </trkpt>
      <trkpt lat="45.80711" lon="4.62238">
        <ele>391</ele>
        <time>2019-04-26T12:51:15Z</time>
      </trkpt>
      <trkpt lat="45.80709" lon="4.62235">
        <ele>391</ele>
        <time>2019-04-26T12:52:15Z</time>
      </trkpt>
      <trkpt lat="45.80709" lon="4.6219">
        <ele>388</ele>
        <time>2019-04-26T12:53:15Z</time>
      </trkpt>
      <trkpt lat="45.80706" lon="4.62154">
        <ele>386</ele>
        <time>2019-04-26T12:54:15Z</time>
      </trkpt>
      <trkpt lat="45.80716" lon="4.61989">
        <ele>378</ele>
        <time>2019-04-26T12:55:15Z</time>
      </trkpt>
      <trkpt lat="45.80749" lon="4.6185">
        <ele>369</ele>
        <time>2019-04-26T12:56:15Z</time>
      </trkpt>
      <trkpt lat="45.80778" lon="4.61767">
        <ele>362</ele>
        <time>2019-04-26T12:57:15Z</time>
      </trkpt>
      <trkpt lat="45.80791" lon="4.6172">
        <ele>359</ele>
        <time>2019-04-26T12:58:15Z</time>
      </trkpt>
      <trkpt lat="45.80797" lon="4.61713">
        <ele>358</ele>
        <time>2019-04-26T12:59:15Z</time>
      </trkpt>
      <trkpt lat="45.80887" lon="4.61738">
        <ele>355</ele>
        <time>2019-04-26T13:00:15Z</time>
      </trkpt>
      <trkpt lat="45.80923" lon="4.61733">
        <ele>353</ele>
        <time>2019-04-26T13:01:15Z</time>
      </trkpt>
      <trkpt lat="45.81003" lon="4.61727">
        <ele>347</ele>
        <time>2019-04-26T13:02:15Z</time>
      </trkpt>
      <trkpt lat="45.81024" lon="4.61723">
        <ele>346</ele>
        <time>2019-04-26T13:03:15Z</time>
      </trkpt>
      <trkpt lat="45.81032" lon="4.61726">
        <ele>346</ele>
        <time>2019-04-26T13:04:15Z</time>
      </trkpt>
      <trkpt lat="45.81043" lon="4.61738">
        <ele>346</ele>
        <time>2019-04-26T13:05:15Z</time>
      </trkpt>
      <trkpt lat="45.81059" lon="4.61762">
        <ele>347</ele>
        <time>2019-04-26T13:06:15Z</time>
      </trkpt>
      <trkpt lat="45.81073" lon="4.61764">
        <ele>346</ele>
        <time>2019-04-26T13:07:15Z</time>
      </trkpt>
      <trkpt lat="45.81093" lon="4.61785">
        <ele>347</ele>
        <time>2019-04-26T13:08:15Z</time>
      </trkpt>
      <trkpt lat="45.81109" lon="4.61796">
        <ele>350</ele>
        <time>2019-04-26T13:09:15Z</time>
      </trkpt>
      <trkpt lat="45.81122" lon="4.61783">
        <ele>351</ele>
        <time>2019-04-26T13:10:15Z</time>
      </trkpt>
      <trkpt lat="45.81127" lon="4.61754">
        <ele>350</ele>
        <time>2019-04-26T13:11:15Z</time>
      </trkpt>
      <trkpt lat="45.8114" lon="4.61741">
        <ele>352</ele>
        <time>2019-04-26T13:12:15Z</time>
      </trkpt>
      <trkpt lat="45.81171" lon="4.61725">
        <ele>355</ele>
        <time>2019-04-26T13:13:15Z</time>
      </trkpt>
      <trkpt lat="45.81191" lon="4.6172">
        <ele>357</ele>
        <time>2019-04-26T13:14:15Z</time>
      </trkpt>
      <trkpt lat="45.81236" lon="4.61702">
        <ele>361</ele>
        <time>2019-04-26T13:15:15Z</time>
      </trkpt>
      <trkpt lat="45.81255" lon="4.61687">
        <ele>362</ele>
        <time>2019-04-26T13:16:15Z</time>
      </trkpt>
      <trkpt lat="45.81275" lon="4.61678">
        <ele>361</ele>
        <time>2019-04-26T13:17:15Z</time>
      </trkpt>
      <trkpt lat="45.81382" lon="4.61667">
        <ele>356</ele>
        <time>2019-04-26T13:18:15Z</time>
      </trkpt>
      <trkpt lat="45.81416" lon="4.61661">
        <ele>354</ele>
        <time>2019-04-26T13:19:15Z</time>
      </trkpt>
      <trkpt lat="45.81439" lon="4.6166">
        <ele>352</ele>
        <time>2019-04-26T13:20:15Z</time>
      </trkpt>
      <trkpt lat="45.81449" lon="4.61649">
        <ele>350</ele>
        <time>2019-04-26T13:21:15Z</time>
      </trkpt>
      <trkpt lat="45.81473" lon="4.61612">
        <ele>346</ele>
        <time>2019-04-26T13:22:15Z</time>
      </trkpt>
      <trkpt lat="45.81505" lon="4.61547">
        <ele>338</ele>
        <time>2019-04-26T13:23:15Z</time>
      </trkpt>
      <trkpt lat="45.81532" lon="4.61507">
        <ele>333</ele>
        <time>2019-04-26T13:24:15Z</time>
      </trkpt>
      <trkpt lat="45.81546" lon="4.61499">
        <ele>331</ele>
        <time>2019-04-26T13:25:15Z</time>
      </trkpt>
      <trkpt lat="45.81555" lon="4.61497">
        <ele>330</ele>
        <time>2019-04-26T13:26:15Z</time>
      </trkpt>
      <trkpt lat="45.81589" lon="4.61534">
        <ele>332</ele>
        <time>2019-04-26T13:27:15Z</time>
      </trkpt>
      <trkpt lat="45.81596" lon="4.61539">
        <ele>333</ele>
        <time>2019-04-26T13:28:15Z</time>
      </trkpt>
      <trkpt lat="45.81603" lon="4.61539">
        <ele>335</ele>
        <time>2019-04-26T13:29:15Z</time>
      </trkpt>
      <trkpt lat="45.81627" lon="4.61527">
        <ele>338</ele>
        <time>2019-04-26T13:30:15Z</time>
      </trkpt>
      <trkpt lat="45.81637" lon="4.61519">
        <ele>338</ele>
        <time>2019-04-26T13:31:15Z</time>
      </trkpt>
      <trkpt lat="45.81764" lon="4.61341">
        <ele>328</ele>
        <time>2019-04-26T13:32:15Z</time>
      </trkpt>
      <trkpt lat="45.81789" lon="4.61321">
        <ele>326</ele>
        <time>2019-04-26T13:33:15Z</time>
      </trkpt>
      <trkpt lat="45.81847" lon="4.61299">
        <ele>323</ele>
        <time>2019-04-26T13:34:15Z</time>
      </trkpt>
      <trkpt lat="45.81983" lon="4.61284">
        <ele>309</ele>
        <time>2019-04-26T13:35:15Z</time>
      </trkpt>
      <trkpt lat="45.82132" lon="4.61312">
        <ele>296</ele>
        <time>2019-04-26T13:36:15Z</time>
      </trkpt>
      <trkpt lat="45.82238" lon="4.61326">
        <ele>279</ele>
        <time>2019-04-26T13:37:15Z</time>
      </trkpt>
      <trkpt lat="45.82219" lon="4.61305">
        <ele>280</ele>
        <time>2019-04-26T13:38:15Z</time>
      </trkpt>
      <trkpt lat="45.82186" lon="4.61257">
        <ele>282</ele>
        <time>2019-04-26T13:39:15Z</time>
      </trkpt>
      <trkpt lat="45.82108" lon="4.6113">
        <ele>281</ele>
        <time>2019-04-26T13:40:15Z</time>
      </trkpt>
      <trkpt lat="45.8209" lon="4.61109">
        <ele>280</ele>
        <time>2019-04-26T13:41:15Z</time>
      </trkpt>
      <trkpt lat="45.82059" lon="4.61086">
        <ele>279</ele>
        <time>2019-04-26T13:42:15Z</time>
      </trkpt>
      <trkpt lat="45.82021" lon="4.61079">
        <ele>279</ele>
        <time>2019-04-26T13:43:15Z</time>
      </trkpt>
      <trkpt lat="45.82014" lon="4.61074">
        <ele>278</ele>
        <time>2019-04-26T13:44:15Z</time>
      </trkpt>
      <trkpt lat="45.81993" lon="4.61051">
        <ele>275</ele>
        <time>2019-04-26T13:45:15Z</time>
      </trkpt>
      <trkpt lat="45.81986" lon="4.61036">
        <ele>273</ele>
        <time>2019-04-26T13:46:15Z</time>
      </trkpt>
      <trkpt lat="45.81971" lon="4.61014">
        <ele>271</ele>
        <time>2019-04-26T13:47:15Z</time>
      </trkpt>
      <trkpt lat="45.81929" lon="4.60961">
        <ele>260</ele>
        <time>2019-04-26T13:48:15Z</time>
      </trkpt>
      <trkpt lat="45.81914" lon="4.60949">
        <ele>257</ele>
        <time>2019-04-26T13:49:15Z</time>
      </trkpt>
      <trkpt lat="45.81896" lon="4.6094">
        <ele>257</ele>
        <time>2019-04-26T13:50:15Z</time>
      </trkpt>
      <trkpt lat="45.81869" lon="4.60917">
        <ele>253</ele>
        <time>2019-04-26T13:51:15Z</time>
      </trkpt>
      <trkpt lat="45.81821" lon="4.60864">
        <ele>247</ele>
        <time>2019-04-26T13:52:15Z</time>
      </trkpt>
      <trkpt lat="45.81805" lon="4.60826">
        <ele>241</ele>
        <time>2019-04-26T13:53:15Z</time>
      </trkpt>
      <trkpt lat="45.81772" lon="4.60774">
        <ele>238</ele>
        <time>2019-04-26T13:54:15Z</time>
      </trkpt>
      <trkpt lat="45.81727" lon="4.60735">
        <ele>240</ele>
        <time>2019-04-26T13:55:15Z</time>
      </trkpt>
      <trkpt lat="45.81709" lon="4.60714">
        <ele>241</ele>
        <time>2019-04-26T13:56:15Z</time>
      </trkpt>
      <trkpt lat="45.8169" lon="4.60699">
        <ele>242</ele>
        <time>2019-04-26T13:57:15Z</time>
      </trkpt>
      <trkpt lat="45.81668" lon="4.60661">
        <ele>240</ele>
        <time>2019-04-26T13:58:15Z</time>
      </trkpt>
      <trkpt lat="45.81628" lon="4.60629">
        <ele>244</ele>
        <time>2019-04-26T13:59:15Z</time>
      </trkpt>
      <trkpt lat="45.81625" lon="4.60616">
        <ele>244</ele>
        <time>2019-04-26T14:00:15Z</time>
      </trkpt>
      <trkpt lat="45.81613" lon="4.60598">
        <ele>244</ele>
        <time>2019-04-26T14:01:15Z</time>
      </trkpt>
      <trkpt lat="45.81603" lon="4.6057">
        <ele>243</ele>
        <time>2019-04-26T14:02:15Z</time>
      </trkpt>
      <trkpt lat="45.81589" lon="4.60547">
        <ele>243</ele>
        <time>2019-04-26T14:03:15Z</time>
      </trkpt>
      <trkpt lat="45.81517" lon="4.60515">
        <ele>245</ele>
        <time>2019-04-26T14:04:15Z</time>
      </trkpt>
      <trkpt lat="45.81483" lon="4.60488">
        <ele>244</ele>
        <time>2019-04-26T14:05:15Z</time>
      </trkpt>
      <trkpt lat="45.8143" lon="4.60454">
        <ele>243</ele>
        <time>2019-04-26T14:06:15Z</time>
      </trkpt>
      <trkpt lat="45.81407" lon="4.60411">
        <ele>240</ele>
        <time>2019-04-26T14:07:15Z</time>
      </trkpt>
      <trkpt lat="45.81391" lon="4.6037">
        <ele>240</ele>
        <time>2019-04-26T14:08:15Z</time>
      </trkpt>
      <trkpt lat="45.81379" lon="4.60347">
        <ele>240</ele>
        <time>2019-04-26T14:09:15Z</time>
      </trkpt>
      <trkpt lat="45.81323" lon="4.60264">
        <ele>241</ele>
        <time>2019-04-26T14:10:15Z</time>
      </trkpt>
      <trkpt lat="45.81287" lon="4.60218">
        <ele>242</ele>
        <time>2019-04-26T14:11:15Z</time>
      </trkpt>
      <trkpt lat="45.81263" lon="4.60194">
        <ele>242</ele>
        <time>2019-04-26T14:12:15Z</time>
      </trkpt>
      <trkpt lat="45.81247" lon="4.6017">
        <ele>241</ele>
        <time>2019-04-26T14:13:15Z</time>
      </trkpt>
      <trkpt lat="45.81211" lon="4.60104">
        <ele>242</ele>
        <time>2019-04-26T14:14:15Z</time>
      </trkpt>
      <trkpt lat="45.81163" lon="4.60047">
        <ele>242</ele>
        <time>2019-04-26T14:15:15Z</time>
      </trkpt>
      <trkpt lat="45.81139" lon="4.60026">
        <ele>242</ele>
        <time>2019-04-26T14:16:15Z</time>
      </trkpt>
      <trkpt lat="45.81123" lon="4.6002">
        <ele>242</ele>
        <time>2019-04-26T14:17:15Z</time>
      </trkpt>
      <trkpt lat="45.81121" lon="4.60017">
        <ele>242</ele>
        <time>2019-04-26T14:18:15Z</time>
      </trkpt>
      <trkpt lat="45.8112" lon="4.59974">
        <ele>245</ele>
        <time>2019-04-26T14:19:15Z</time>
      </trkpt>
      <trkpt lat="45.81113" lon="4.59969">
        <ele>245</ele>
        <time>2019-04-26T14:20:15Z</time>
      </trkpt>
      <trkpt lat="45.81103" lon="4.59967">
        <ele>244</ele>
        <time>2019-04-26T14:21:15Z</time>
      </trkpt>
      <trkpt lat="45.81084" lon="4.59919">
        <ele>244</ele>
        <time>2019-04-26T14:22:15Z</time>
      </trkpt>
      <trkpt lat="45.81053" lon="4.59864">
        <ele>246</ele>
        <time>2019-04-26T14:23:15Z</time>
      </trkpt>
      <trkpt lat="45.81047" lon="4.59849">
        <ele>247</ele>
        <time>2019-04-26T14:24:15Z</time>
      </trkpt>
      <trkpt lat="45.81045" lon="4.59822">
        <ele>248</ele>
        <time>2019-04-26T14:25:15Z</time>
      </trkpt>
      <trkpt lat="45.81038" lon="4.59809">
        <ele>247</ele>
        <time>2019-04-26T14:26:15Z</time>
      </trkpt>
      <trkpt lat="45.81047" lon="4.59766">
        <ele>248</ele>
        <time>2019-04-26T14:27:15Z</time>
      </trkpt>
      <trkpt lat="45.80982" lon="4.59729">
        <ele>249</ele>
        <time>2019-04-26T14:28:15Z</time>
      </trkpt>
      <trkpt lat="45.80971" lon="4.59716">
        <ele>251</ele>
        <time>2019-04-26T14:29:15Z</time>
      </trkpt>
      <trkpt lat="45.80946" lon="4.59668">
        <ele>255</ele>
        <time>2019-04-26T14:30:15Z</time>
      </trkpt>
      <trkpt lat="45.80914" lon="4.59591">
        <ele>264</ele>
        <time>2019-04-26T14:31:15Z</time>
      </trkpt>
      <trkpt lat="45.809" lon="4.59575">
        <ele>265</ele>
        <time>2019-04-26T14:32:15Z</time>
      </trkpt>
      <trkpt lat="45.80893" lon="4.59538">
        <ele>267</ele>
        <time>2019-04-26T14:33:15Z</time>
      </trkpt>
      <trkpt lat="45.80895" lon="4.59478">
        <ele>270</ele>
        <time>2019-04-26T14:34:15Z</time>
      </trkpt>
      <trkpt lat="45.80882" lon="4.59371">
        <ele>275</ele>
        <time>2019-04-26T14:35:15Z</time>
      </trkpt>
      <trkpt lat="45.80851" lon="4.59246">
        <ele>275</ele>
        <time>2019-04-26T14:36:15Z</time>
      </trkpt>
      <trkpt lat="45.80828" lon="4.59122">
        <ele>280</ele>
        <time>2019-04-26T14:37:15Z</time>
      </trkpt>
      <trkpt lat="45.8082" lon="4.59102">
        <ele>281</ele>
        <time>2019-04-26T14:38:15Z</time>
      </trkpt>
      <trkpt lat="45.80806" lon="4.59081">
        <ele>283</ele>
        <time>2019-04-26T14:39:15Z</time>
      </trkpt>
      <trkpt lat="45.80757" lon="4.5902">
        <ele>288</ele>
        <time>2019-04-26T14:40:15Z</time>
      </trkpt>
      <trkpt lat="45.80739" lon="4.58987">
        <ele>290</ele>
        <time>2019-04-26T14:41:15Z</time>
      </trkpt>
      <trkpt lat="45.80722" lon="4.58941">
        <ele>294</ele>
        <time>2019-04-26T14:42:15Z</time>
      </trkpt>
      <trkpt lat="45.80714" lon="4.58912">
        <ele>295</ele>
        <time>2019-04-26T14:43:15Z</time>
      </trkpt>
      <trkpt lat="45.807" lon="4.58716">
        <ele>309</ele>
        <time>2019-04-26T14:44:15Z</time>
      </trkpt>
      <trkpt lat="45.80709" lon="4.58656">
        <ele>313</ele>
        <time>2019-04-26T14:45:15Z</time>
      </trkpt>
      <trkpt lat="45.80704" lon="4.58636">
        <ele>314</ele>
        <time>2019-04-26T14:46:15Z</time>
      </trkpt>
      <trkpt lat="45.80701" lon="4.58495">
        <ele>320</ele>
        <time>2019-04-26T14:47:15Z</time>
      </trkpt>
      <trkpt lat="45.80673" lon="4.58388">
        <ele>324</ele>
        <time>2019-04-26T14:48:15Z</time>
      </trkpt>
      <trkpt lat="45.80662" lon="4.58358">
        <ele>323</ele>
        <time>2019-04-26T14:49:15Z</time>
      </trkpt>
      <trkpt lat="45.80642" lon="4.58323">
        <ele>324</ele>
        <time>2019-04-26T14:50:15Z</time>
      </trkpt>
      <trkpt lat="45.80622" lon="4.58275">
        <ele>324</ele>
        <time>2019-04-26T14:51:15Z</time>
      </trkpt>
      <trkpt lat="45.80608" lon="4.5825">
        <ele>325</ele>
        <time>2019-04-26T14:52:15Z</time>
      </trkpt>
      <trkpt lat="45.80484" lon="4.58075">
        <ele>330</ele>
        <time>2019-04-26T14:53:15Z</time>
      </trkpt>
      <trkpt lat="45.80438" lon="4.57997">
        <ele>331</ele>
        <time>2019-04-26T14:54:15Z</time>
      </trkpt>
      <trkpt lat="45.80421" lon="4.57964">
        <ele>332</ele>
        <time>2019-04-26T14:55:15Z</time>
      </trkpt>
      <trkpt lat="45.80411" lon="4.57912">
        <ele>332</ele>
        <time>2019-04-26T14:56:15Z</time>
      </trkpt>
      <trkpt lat="45.80405" lon="4.57762">
        <ele>336</ele>
        <time>2019-04-26T14:57:15Z</time>
      </trkpt>
      <trkpt lat="45.80413" lon="4.57646">
        <ele>341</ele>
        <time>2019-04-26T14:58:15Z</time>
      </trkpt>
      <trkpt lat="45.80437" lon="4.57522">
        <ele>348</ele>
        <time>2019-04-26T14:59:15Z</time>
      </trkpt>
      <trkpt lat="45.80438" lon="4.57485">
        <ele>350</ele>
        <time>2019-04-26T15:00:15Z</time>
      </trkpt>
      <trkpt lat="45.80436" lon="4.57469">
        <ele>351</ele>
        <time>2019-04-26T15:01:15Z</time>
      </trkpt>
      <trkpt lat="45.80439" lon="4.57401">
        <ele>355</ele>
        <time>2019-04-26T15:02:15Z</time>
      </trkpt>
      <trkpt lat="45.80502" lon="4.57199">
        <ele>368</ele>
        <time>2019-04-26T15:03:15Z</time>
      </trkpt>
      <trkpt lat="45.80552" lon="4.57084">
        <ele>379</ele>
        <time>2019-04-26T15:04:15Z</time>
      </trkpt>
      <trkpt lat="45.8056" lon="4.57043">
        <ele>382</ele>
        <time>2019-04-26T15:05:15Z</time>
      </trkpt>
      <trkpt lat="45.80563" lon="4.56974">
        <ele>389</ele>
        <time>2019-04-26T15:06:15Z</time>
      </trkpt>
      <trkpt lat="45.80554" lon="4.56935">
        <ele>391</ele>
        <time>2019-04-26T15:07:15Z</time>
      </trkpt>
      <trkpt lat="45.80535" lon="4.56877">
        <ele>394</ele>
        <time>2019-04-26T15:08:15Z</time>
      </trkpt>
      <trkpt lat="45.8053" lon="4.5681">
        <ele>399</ele>
        <time>2019-04-26T15:09:15Z</time>
      </trkpt>
      <trkpt lat="45.8053" lon="4.56698">
        <ele>402</ele>
        <time>2019-04-26T15:10:15Z</time>
      </trkpt>
      <trkpt lat="45.80534" lon="4.56624">
        <ele>402</ele>
        <time>2019-04-26T15:11:15Z</time>
      </trkpt>
      <trkpt lat="45.80533" lon="4.56539">
        <ele>399</ele>
        <time>2019-04-26T15:12:15Z</time>
      </trkpt>
      <trkpt lat="45.80535" lon="4.56532">
        <ele>399</ele>
        <time>2019-04-26T15:13:15Z</time>
      </trkpt>
      <trkpt lat="45.8048" lon="4.56373">
        <ele>393</ele>
        <time>2019-04-26T15:14:15Z</time>
      </trkpt>
      <trkpt lat="45.80472" lon="4.56329">
        <ele>391</ele>
        <time>2019-04-26T15:15:15Z</time>
      </trkpt>
      <trkpt lat="45.80469" lon="4.56289">
        <ele>393</ele>
        <time>2019-04-26T15:16:15Z</time>
      </trkpt>
      <trkpt lat="45.80471" lon="4.56225">
        <ele>395</ele>
        <time>2019-04-26T15:17:15Z</time>
      </trkpt>
      <trkpt lat="45.80476" lon="4.56184">
        <ele>398</ele>
        <time>2019-04-26T15:18:15Z</time>
      </trkpt>
      <trkpt lat="45.80501" lon="4.56098">
        <ele>402</ele>
        <time>2019-04-26T15:19:15Z</time>
      </trkpt>
      <trkpt lat="45.80503" lon="4.56054">
        <ele>403</ele>
        <time>2019-04-26T15:20:15Z</time>
      </trkpt>
      <trkpt lat="45.80512" lon="4.55982">
        <ele>403</ele>
        <time>2019-04-26T15:21:15Z</time>
      </trkpt>
      <trkpt lat="45.80516" lon="4.55907">
        <ele>407</ele>
        <time>2019-04-26T15:22:15Z</time>
      </trkpt>
      <trkpt lat="45.80534" lon="4.55861">
        <ele>409</ele>
        <time>2019-04-26T15:23:15Z</time>
      </trkpt>
      <trkpt lat="45.80561" lon="4.55771">
        <ele>411</ele>
        <time>2019-04-26T15:24:15Z</time>
      </trkpt>
      <trkpt lat="45.80586" lon="4.55668">
        <ele>412</ele>
        <time>2019-04-26T15:25:15Z</time>
      </trkpt>
      <trkpt lat="45.80612" lon="4.5553">
        <ele>416</ele>
        <time>2019-04-26T15:26:15Z</time>
      </trkpt>
      <trkpt lat="45.80613" lon="4.55495">
        <ele>417</ele>
        <time>2019-04-26T15:27:15Z</time>
      </trkpt>
      <trkpt lat="45.8063" lon="4.55429">
        <ele>421</ele>
        <time>2019-04-26T15:28:15Z</time>
      </trkpt>
      <trkpt lat="45.80647" lon="4.55386">
        <ele>426</ele>
        <time>2019-04-26T15:29:15Z</time>
      </trkpt>
      <trkpt lat="45.8068" lon="4.55317">
        <ele>437</ele>
        <time>2019-04-26T15:30:15Z</time>
      </trkpt>
      <trkpt lat="45.80695" lon="4.55292">
        <ele>440</ele>
        <time>2019-04-26T15:31:15Z</time>
      </trkpt>
      <trkpt lat="45.80709" lon="4.55258">
        <ele>445</ele>
        <time>2019-04-26T15:32:15Z</time>
      </trkpt>
      <trkpt lat="45.80753" lon="4.55198">
        <ele>451</ele>
        <time>2019-04-26T15:33:15Z</time>
      </trkpt>
      <trkpt lat="45.8078" lon="4.55139">
        <ele>453</ele>
        <time>2019-04-26T15:34:15Z</time>
      </trkpt>
      <trkpt lat="45.80801" lon="4.55112">
        <ele>452</ele>
        <time>2019-04-26T15:35:15Z</time>
      </trkpt>
      <trkpt lat="45.80833" lon="4.55034">
        <ele>452</ele>
        <time>2019-04-26T15:36:15Z</time>
      </trkpt>
      <trkpt lat="45.80861" lon="4.54974">
        <ele>449</ele>
        <time>2019-04-26T15:37:15Z</time>
      </trkpt>
      <trkpt lat="45.80891" lon="4.54926">
        <ele>449</ele>
        <time>2019-04-26T15:38:15Z</time>
      </trkpt>
      <trkpt lat="45.80915" lon="4.54893">
        <ele>451</ele>
        <time>2019-04-26T15:39:15Z</time>
      </trkpt>
      <trkpt lat="45.80937" lon="4.54873">
        <ele>454</ele>
        <time>2019-04-26T15:40:15Z</time>
      </trkpt>
      <trkpt lat="45.80953" lon="4.54863">
        <ele>456</ele>
        <time>2019-04-26T15:41:15Z</time>
      </trkpt>
      <trkpt lat="45.80974" lon="4.54859">
        <ele>459</ele>
        <time>2019-04-26T15:42:15Z</time>
      </trkpt>
      <trkpt lat="45.81004" lon="4.54847">
        <ele>464</ele>
        <time>2019-04-26T15:43:15Z</time>
      </trkpt>
      <trkpt lat="45.81014" lon="4.54847">
        <ele>464</ele>
        <time>2019-04-26T15:44:15Z</time>
      </trkpt>
      <trkpt lat="45.81038" lon="4.54829">
        <ele>468</ele>
        <time>2019-04-26T15:45:15Z</time>
      </trkpt>
      <trkpt lat="45.81053" lon="4.54809">
        <ele>472</ele>
        <time>2019-04-26T15:46:15Z</time>
      </trkpt>
      <trkpt lat="45.81077" lon="4.54789">
        <ele>477</ele>
        <time>2019-04-26T15:47:15Z</time>
      </trkpt>
      <trkpt lat="45.81081" lon="4.54782">
        <ele>478</ele>
        <time>2019-04-26T15:48:15Z</time>
      </trkpt>
      <trkpt lat="45.8109" lon="4.54757">
        <ele>482</ele>
        <time>2019-04-26T15:49:15Z</time>
      </trkpt>
      <trkpt lat="45.81092" lon="4.54741">
        <ele>484</ele>
        <time>2019-04-26T15:50:15Z</time>
      </trkpt>
      <trkpt lat="45.81089" lon="4.54731">
        <ele>487</ele>
        <time>2019-04-26T15:51:15Z</time>
      </trkpt>
      <trkpt lat="45.8105" lon="4.54712">
        <ele>489</ele>
        <time>2019-04-26T15:52:15Z</time>
      </trkpt>
      <trkpt lat="45.81047" lon="4.54705">
        <ele>490</ele>
        <time>2019-04-26T15:53:15Z</time>
      </trkpt>
      <trkpt lat="45.8105" lon="4.54665">
        <ele>496</ele>
        <time>2019-04-26T15:54:15Z</time>
      </trkpt>
      <trkpt lat="45.81057" lon="4.54623">
        <ele>499</ele>
        <time>2019-04-26T15:55:15Z</time>
      </trkpt>
      <trkpt lat="45.81074" lon="4.54567">
        <ele>504</ele>
        <time>2019-04-26T15:56:15Z</time>
      </trkpt>
      <trkpt lat="45.81095" lon="4.54468">
        <ele>508</ele>
        <time>2019-04-26T15:57:15Z</time>
      </trkpt>
      <trkpt lat="45.81102" lon="4.54409">
        <ele>510</ele>
        <time>2019-04-26T15:58:15Z</time>
      </trkpt>
      <trkpt lat="45.81129" lon="4.54312">
        <ele>513</ele>
        <time>2019-04-26T15:59:15Z</time>
      </trkpt>
      <trkpt lat="45.81171" lon="4.54247">
        <ele>519</ele>
        <time>2019-04-26T16:00:15Z</time>
      </trkpt>
      <trkpt lat="45.81201" lon="4.5421">
        <ele>519</ele>
        <time>2019-04-26T16:01:15Z</time>
      </trkpt>
      <trkpt lat="45.81213" lon="4.542">
        <ele>520</ele>
        <time>2019-04-26T16:02:15Z</time>
      </trkpt>
      <trkpt lat="45.81219" lon="4.54184">
        <ele>521</ele>
        <time>2019-04-26T16:03:15Z</time>
      </trkpt>
      <trkpt lat="45.81209" lon="4.54181">
        <ele>520</ele>
        <time>2019-04-26T16:04:15Z</time>
      </trkpt>
      <trkpt lat="45.8119" lon="4.5418">
        <ele>519</ele>
        <time>2019-04-26T16:05:15Z</time>
      </trkpt>
      <trkpt lat="45.81165" lon="4.54185">
        <ele>517</ele>
        <time>2019-04-26T16:06:15Z</time>
      </trkpt>
      <trkpt lat="45.81142" lon="4.54185">
        <ele>512</ele>
        <time>2019-04-26T16:07:15Z</time>
      </trkpt>
      <trkpt lat="45.8106" lon="4.54195">
        <ele>498</ele>
        <time>2019-04-26T16:08:15Z</time>
      </trkpt>
      <trkpt lat="45.8105" lon="4.54194">
        <ele>497</ele>
        <time>2019-04-26T16:09:15Z</time>
      </trkpt>
      <trkpt lat="45.81008" lon="4.54179">
        <ele>489</ele>
        <time>2019-04-26T16:10:15Z</time>
      </trkpt>
      <trkpt lat="45.80971" lon="4.54178">
        <ele>482</ele>
        <time>2019-04-26T16:11:15Z</time>
      </trkpt>
      <trkpt lat="45.80932" lon="4.54184">
        <ele>475</ele>
        <time>2019-04-26T16:12:15Z</time>
      </trkpt>
      <trkpt lat="45.80889" lon="4.54197">
        <ele>467</ele>
        <time>2019-04-26T16:13:15Z</time>
      </trkpt>
      <trkpt lat="45.80875" lon="4.54204">
        <ele>464</ele>
        <time>2019-04-26T16:14:15Z</time>
      </trkpt>
      <trkpt lat="45.80859" lon="4.54225">
        <ele>463</ele>
        <time>2019-04-26T16:15:15Z</time>
      </trkpt>
      <trkpt lat="45.8083" lon="4.5424">
        <ele>456</ele>
        <time>2019-04-26T16:16:15Z</time>
      </trkpt>
      <trkpt lat="45.80818" lon="4.54242">
        <ele>454</ele>
        <time>2019-04-26T16:17:15Z</time>
      </trkpt>
      <trkpt lat="45.80802" lon="4.54238">
        <ele>451</ele>
        <time>2019-04-26T16:18:15Z</time>
      </trkpt>
      <trkpt lat="45.80798" lon="4.54211">
        <ele>450</ele>
        <time>2019-04-26T16:19:15Z</time>
      </trkpt>
      <trkpt lat="45.80799" lon="4.54177">
        <ele>449</ele>
        <time>2019-04-26T16:20:15Z</time>
      </trkpt>
      <trkpt lat="45.80791" lon="4.54156">
        <ele>448</ele>
        <time>2019-04-26T16:21:15Z</time>
      </trkpt>
      <trkpt lat="45.80785" lon="4.54119">
        <ele>450</ele>
        <time>2019-04-26T16:22:15Z</time>
      </trkpt>
      <trkpt lat="45.80784" lon="4.54079">
        <ele>452</ele>
        <time>2019-04-26T16:23:15Z</time>
      </trkpt>
      <trkpt lat="45.80786" lon="4.54072">
        <ele>452</ele>
        <time>2019-04-26T16:24:15Z</time>
      </trkpt>
      <trkpt lat="45.80791" lon="4.54066">
        <ele>453</ele>
        <time>2019-04-26T16:25:15Z</time>
      </trkpt>
      <trkpt lat="45.8081" lon="4.54074">
        <ele>452</ele>
        <time>2019-04-26T16:26:15Z</time>
      </trkpt>
      <trkpt lat="45.80824" lon="4.54077">
        <ele>451</ele>
        <time>2019-04-26T16:27:15Z</time>
      </trkpt>
      <trkpt lat="45.8083" lon="4.54076">
        <ele>451</ele>
        <time>2019-04-26T16:28:15Z</time>
      </trkpt>
      <trkpt lat="45.80833" lon="4.54073">
        <ele>451</ele>
        <time>2019-04-26T16:29:15Z</time>
      </trkpt>
      <trkpt lat="45.80834" lon="4.5406">
        <ele>453</ele>
        <time>2019-04-26T16:30:15Z</time>
      </trkpt>
      <trkpt lat="45.8083" lon="4.54031">
        <ele>456</ele>
        <time>2019-04-26T16:31:15Z</time>
      </trkpt>
      <trkpt lat="45.80819" lon="4.53977">
        <ele>462</ele>
        <time>2019-04-26T16:32:15Z</time>
      </trkpt>
      <trkpt lat="45.80811" lon="4.53959">
        <ele>463</ele>
        <time>2019-04-26T16:33:15Z</time>
      </trkpt>
      <trkpt lat="45.80796" lon="4.5394">
        <ele>464</ele>
        <time>2019-04-26T16:34:15Z</time>
      </trkpt>
      <trkpt lat="45.80782" lon="4.53927">
        <ele>465</ele>
        <time>2019-04-26T16:35:15Z</time>
      </trkpt>
      <trkpt lat="45.80775" lon="4.53927">
        <ele>464</ele>
        <time>2019-04-26T16:36:15Z</time>
      </trkpt>
      <trkpt lat="45.80766" lon="4.5392">
        <ele>465</ele>
        <time>2019-04-26T16:37:15Z</time>
      </trkpt>
      <trkpt lat="45.80759" lon="4.53909">
        <ele>465</ele>
        <time>2019-04-26T16:38:15Z</time>
      </trkpt>
      <trkpt lat="45.80749" lon="4.53885">
        <ele>466</ele>
        <time>2019-04-26T16:39:15Z</time>
      </trkpt>
      <trkpt lat="45.80735" lon="4.53817">
        <ele>473</ele>
        <time>2019-04-26T16:40:15Z</time>
      </trkpt>
      <trkpt lat="45.80714" lon="4.53763">
        <ele>480</ele>
        <time>2019-04-26T16:41:15Z</time>
      </trkpt>
      <trkpt lat="45.80683" lon="4.53661">
        <ele>487</ele>
        <time>2019-04-26T16:42:15Z</time>
      </trkpt>
      <trkpt lat="45.80663" lon="4.5364">
        <ele>489</ele>
        <time>2019-04-26T16:43:15Z</time>
      </trkpt>
      <trkpt lat="45.80629" lon="4.53624">
        <ele>497</ele>
        <time>2019-04-26T16:44:15Z</time>
      </trkpt>
      <trkpt lat="45.80628" lon="4.53662">
        <ele>498</ele>
        <time>2019-04-26T16:45:15Z</time>
      </trkpt>
      <trkpt lat="45.80619" lon="4.53683">
        <ele>500</ele>
        <time>2019-04-26T16:46:15Z</time>
      </trkpt>
      <trkpt lat="45.80612" lon="4.53691">
        <ele>501</ele>
        <time>2019-04-26T16:47:15Z</time>
      </trkpt>
      <trkpt lat="45.8058" lon="4.53762">
        <ele>503</ele>
        <time>2019-04-26T16:48:15Z</time>
      </trkpt>
      <trkpt lat="45.80525" lon="4.53959">
        <ele>505</ele>
        <time>2019-04-26T16:49:15Z</time>
      </trkpt>
      <trkpt lat="45.80519" lon="4.53976">
        <ele>505</ele>
        <time>2019-04-26T16:50:15Z</time>
      </trkpt>
      <trkpt lat="45.80499" lon="4.54011">
        <ele>506</ele>
        <time>2019-04-26T16:51:15Z</time>
      </trkpt>
      <trkpt lat="45.80483" lon="4.54024">
        <ele>507</ele>
        <time>2019-04-26T16:52:15Z</time>
      </trkpt>
      <trkpt lat="45.8039" lon="4.5408">
        <ele>506</ele>
        <time>2019-04-26T16:53:15Z</time>
      </trkpt>
      <trkpt lat="45.80349" lon="4.5412">
        <ele>503</ele>
        <time>2019-04-26T16:54:15Z</time>
      </trkpt>
      <trkpt lat="45.80308" lon="4.54167">
        <ele>497</ele>
        <time>2019-04-26T16:55:15Z</time>
      </trkpt>
      <trkpt lat="45.80212" lon="4.54238">
        <ele>488</ele>
        <time>2019-04-26T16:56:15Z</time>
      </trkpt>
      <trkpt lat="45.802" lon="4.54245">
        <ele>487</ele>
        <time>2019-04-26T16:57:15Z</time>
      </trkpt>
      <trkpt lat="45.80197" lon="4.54243">
        <ele>488</ele>
        <time>2019-04-26T16:58:15Z</time>
      </trkpt>
      <trkpt lat="45.80195" lon="4.54238">
        <ele>488</ele>
        <time>2019-04-26T16:59:15Z</time>
      </trkpt>
      <trkpt lat="45.80212" lon="4.54162">
        <ele>498</ele>
        <time>2019-04-26T17:00:15Z</time>
      </trkpt>
      <trkpt lat="45.80228" lon="4.54131">
        <ele>503</ele>
        <time>2019-04-26T17:01:15Z</time>
      </trkpt>
      <trkpt lat="45.80236" lon="4.54091">
        <ele>510</ele>
        <time>2019-04-26T17:02:15Z</time>
      </trkpt>
      <trkpt lat="45.80241" lon="4.54046">
        <ele>519</ele>
        <time>2019-04-26T17:03:15Z</time>
      </trkpt>
      <trkpt lat="45.80237" lon="4.53961">
        <ele>534</ele>
        <time>2019-04-26T17:04:15Z</time>
      </trkpt>
      <trkpt lat="45.80245" lon="4.53826">
        <ele>549</ele>
        <time>2019-04-26T17:05:15Z</time>
      </trkpt>
      <trkpt lat="45.80273" lon="4.53741">
        <ele>555</ele>
        <time>2019-04-26T17:06:15Z</time>
      </trkpt>
      <trkpt lat="45.80287" lon="4.5369">
        <ele>558</ele>
        <time>2019-04-26T17:07:15Z</time>
      </trkpt>
      <trkpt lat="45.80291" lon="4.53669">
        <ele>558</ele>
        <time>2019-04-26T17:08:15Z</time>
      </trkpt>
      <trkpt lat="45.80299" lon="4.53563">
        <ele>559</ele>
        <time>2019-04-26T17:09:15Z</time>
      </trkpt>
      <trkpt lat="45.80297" lon="4.5356">
        <ele>559</ele>
        <time>2019-04-26T17:10:15Z</time>
      </trkpt>
      <trkpt lat="45.80285" lon="4.5358">
        <ele>559</ele>
        <time>2019-04-26T17:11:15Z</time>
      </trkpt>
      <trkpt lat="45.8025" lon="4.53621">
        <ele>563</ele>
        <time>2019-04-26T17:12:15Z</time>
      </trkpt>
      <trkpt lat="45.8019" lon="4.53666">
        <ele>568</ele>
        <time>2019-04-26T17:13:15Z</time>
      </trkpt>
      <trkpt lat="45.80158" lon="4.53696">
        <ele>567</ele>
        <time>2019-04-26T17:14:15Z</time>
      </trkpt>
      <trkpt lat="45.80144" lon="4.53715">
        <ele>566</ele>
        <time>2019-04-26T17:15:15Z</time>
      </trkpt>
      <trkpt lat="45.80111" lon="4.53734">
        <ele>565</ele>
        <time>2019-04-26T17:16:15Z</time>
      </trkpt>
      <trkpt lat="45.80089" lon="4.53743">
        <ele>566</ele>
        <time>2019-04-26T17:17:15Z</time>
      </trkpt>
      <trkpt lat="45.80064" lon="4.53746">
        <ele>566</ele>
        <time>2019-04-26T17:18:15Z</time>
      </trkpt>
      <trkpt lat="45.79997" lon="4.53769">
        <ele>562</ele>
        <time>2019-04-26T17:19:15Z</time>
      </trkpt>
      <trkpt lat="45.7994" lon="4.53796">
        <ele>567</ele>
        <time>2019-04-26T17:20:15Z</time>
      </trkpt>
      <trkpt lat="45.79931" lon="4.53806">
        <ele>567</ele>
        <time>2019-04-26T17:21:15Z</time>
      </trkpt>
      <trkpt lat="45.799" lon="4.53879">
        <ele>559</ele>
        <time>2019-04-26T17:22:15Z</time>
      </trkpt>
      <trkpt lat="45.79876" lon="4.5395">
        <ele>549</ele>
        <time>2019-04-26T17:23:15Z</time>
      </trkpt>
      <trkpt lat="45.79863" lon="4.5401">
        <ele>539</ele>
        <time>2019-04-26T17:24:15Z</time>
      </trkpt>
      <trkpt lat="45.79858" lon="4.54019">
        <ele>538</ele>
        <time>2019-04-26T17:25:15Z</time>
      </trkpt>
      <trkpt lat="45.79849" lon="4.54027">
        <ele>537</ele>
        <time>2019-04-26T17:26:15Z</time>
      </trkpt>
      <trkpt lat="45.79831" lon="4.54025">
        <ele>538</ele>
        <time>2019-04-26T17:27:15Z</time>
      </trkpt>
      <trkpt lat="45.79793" lon="4.5401">
        <ele>536</ele>
        <time>2019-04-26T17:28:15Z</time>
      </trkpt>
      <trkpt lat="45.79751" lon="4.53984">
        <ele>536</ele>
        <time>2019-04-26T17:29:15Z</time>
      </trkpt>
      <trkpt lat="45.79714" lon="4.53965">
        <ele>534</ele>
        <time>2019-04-26T17:30:15Z</time>
      </trkpt>
      <trkpt lat="45.79704" lon="4.53962">
        <ele>533</ele>
        <time>2019-04-26T17:31:15Z</time>
      </trkpt>
      <trkpt lat="45.79602" lon="4.53957">
        <ele>523</ele>
        <time>2019-04-26T17:32:15Z</time>
      </trkpt>
      <trkpt lat="45.7955" lon="4.53945">
        <ele>519</ele>
        <time>2019-04-26T17:33:15Z</time>
      </trkpt>
      <trkpt lat="45.79484" lon="4.5395">
        <ele>509</ele>
        <time>2019-04-26T17:34:15Z</time>
      </trkpt>
      <trkpt lat="45.79492" lon="4.53986">
        <ele>506</ele>
        <time>2019-04-26T17:35:15Z</time>
      </trkpt>
      <trkpt lat="45.79489" lon="4.54041">
        <ele>496</ele>
        <time>2019-04-26T17:36:15Z</time>
      </trkpt>
      <trkpt lat="45.7944" lon="4.54159">
        <ele>473</ele>
        <time>2019-04-26T17:37:15Z</time>
      </trkpt>
      <trkpt lat="45.79397" lon="4.54213">
        <ele>467</ele>
        <time>2019-04-26T17:38:15Z</time>
      </trkpt>
      <trkpt lat="45.79349" lon="4.54323">
        <ele>463</ele>
        <time>2019-04-26T17:39:15Z</time>
      </trkpt>
      <trkpt lat="45.79326" lon="4.54348">
        <ele>462</ele>
        <time>2019-04-26T17:40:15Z</time>
      </trkpt>
      <trkpt lat="45.79314" lon="4.54372">
        <ele>460</ele>
        <time>2019-04-26T17:41:15Z</time>
      </trkpt>
      <trkpt lat="45.79304" lon="4.54386">
        <ele>459</ele>
        <time>2019-04-26T17:42:15Z</time>
      </trkpt>
      <trkpt lat="45.79288" lon="4.54427">
        <ele>455</ele>
        <time>2019-04-26T17:43:15Z</time>
      </trkpt>
      <trkpt lat="45.79284" lon="4.54444">
        <ele>453</ele>
        <time>2019-04-26T17:44:15Z</time>
      </trkpt>
      <trkpt lat="45.79285" lon="4.54462">
        <ele>451</ele>
        <time>2019-04-26T17:45:15Z</time>
      </trkpt>
      <trkpt lat="45.79294" lon="4.54502">
        <ele>445</ele>
        <time>2019-04-26T17:46:15Z</time>
      </trkpt>
      <trkpt lat="45.79296" lon="4.54521">
        <ele>444</ele>
        <time>2019-04-26T17:47:15Z</time>
      </trkpt>
      <trkpt lat="45.79286" lon="4.54581">
        <ele>440</ele>
        <time>2019-04-26T17:48:15Z</time>
      </trkpt>
      <trkpt lat="45.79275" lon="4.54609">
        <ele>439</ele>
        <time>2019-04-26T17:49:15Z</time>
      </trkpt>
      <trkpt lat="45.79266" lon="4.54625">
        <ele>439</ele>
        <time>2019-04-26T17:50:15Z</time>
      </trkpt>
      <trkpt lat="45.79244" lon="4.54645">
        <ele>438</ele>
        <time>2019-04-26T17:51:15Z</time>
      </trkpt>
      <trkpt lat="45.79234" lon="4.54643">
        <ele>438</ele>
        <time>2019-04-26T17:52:15Z</time>
      </trkpt>
      <trkpt lat="45.79224" lon="4.54635">
        <ele>437</ele>
        <time>2019-04-26T17:53:15Z</time>
      </trkpt>
      <trkpt lat="45.79217" lon="4.54625">
        <ele>437</ele>
        <time>2019-04-26T17:54:15Z</time>
      </trkpt>
      <trkpt lat="45.79184" lon="4.5452">
        <ele>439</ele>
        <time>2019-04-26T17:55:15Z</time>
      </trkpt>
      <trkpt lat="45.79177" lon="4.54505">
        <ele>439</ele>
        <time>2019-04-26T17:56:15Z</time>
      </trkpt>
      <trkpt lat="45.79162" lon="4.54489">
        <ele>439</ele>
        <time>2019-04-26T17:57:15Z</time>
      </trkpt>
      <trkpt lat="45.79115" lon="4.54454">
        <ele>435</ele>
        <time>2019-04-26T17:58:15Z</time>
      </trkpt>
      <trkpt lat="45.79083" lon="4.54417">
        <ele>434</ele>
        <time>2019-04-26T17:59:15Z</time>
      </trkpt>
      <trkpt lat="45.79059" lon="4.5438">
        <ele>431</ele>
        <time>2019-04-26T18:00:15Z</time>
      </trkpt>
      <trkpt lat="45.79037" lon="4.54329">
        <ele>429</ele>
        <time>2019-04-26T18:01:15Z</time>
      </trkpt>
      <trkpt lat="45.79025" lon="4.54253">
        <ele>423</ele>
        <time>2019-04-26T18:02:15Z</time>
      </trkpt>
      <trkpt lat="45.79022" lon="4.54189">
        <ele>415</ele>
        <time>2019-04-26T18:03:15Z</time>
      </trkpt>
      <trkpt lat="45.79024" lon="4.54156">
        <ele>412</ele>
        <time>2019-04-26T18:04:15Z</time>
      </trkpt>
      <trkpt lat="45.7902" lon="4.54126">
        <ele>407</ele>
        <time>2019-04-26T18:05:15Z</time>
      </trkpt>
      <trkpt lat="45.79022" lon="4.54109">
        <ele>406</ele>
        <time>2019-04-26T18:06:15Z</time>
      </trkpt>
      <trkpt lat="45.79055" lon="4.54036">
        <ele>408</ele>
        <time>2019-04-26T18:07:15Z</time>
      </trkpt>
      <trkpt lat="45.79055" lon="4.5403">
        <ele>408</ele>
        <time>2019-04-26T18:08:15Z</time>
      </trkpt>
      <trkpt lat="45.79053" lon="4.54022">
        <ele>408</ele>
        <time>2019-04-26T18:09:15Z</time>
      </trkpt>
      <trkpt lat="45.79047" lon="4.54015">
        <ele>406</ele>
        <time>2019-04-26T18:10:15Z</time>
      </trkpt>
      <trkpt lat="45.78983" lon="4.53982">
        <ele>390</ele>
        <time>2019-04-26T18:11:15Z</time>
      </trkpt>
      <trkpt lat="45.78977" lon="4.53969">
        <ele>389</ele>
        <time>2019-04-26T18:12:15Z</time>
      </trkpt>
      <trkpt lat="45.7897" lon="4.53918">
        <ele>388</ele>
        <time>2019-04-26T18:13:15Z</time>
      </trkpt>
      <trkpt lat="45.78974" lon="4.53849">
        <ele>390</ele>
        <time>2019-04-26T18:14:15Z</time>
      </trkpt>
      <trkpt lat="45.78941" lon="4.53771">
        <ele>383</ele>
        <time>2019-04-26T18:15:15Z</time>
      </trkpt>
      <trkpt lat="45.78935" lon="4.53754">
        <ele>382</ele>
        <time>2019-04-26T18:16:15Z</time>
      </trkpt>
      <trkpt lat="45.7893" lon="4.53726">
        <ele>384</ele>
        <time>2019-04-26T18:17:15Z</time>
      </trkpt>
      <trkpt lat="45.7892" lon="4.53729">
        <ele>382</ele>
        <time>2019-04-26T18:18:15Z</time>
      </trkpt>
      <trkpt lat="45.78902" lon="4.5375">
        <ele>381</ele>
        <time>2019-04-26T18:19:15Z</time>
      </trkpt>
      <trkpt lat="45.78887" lon="4.53753">
        <ele>384</ele>
        <time>2019-04-26T18:20:15Z</time>
      </trkpt>
      <trkpt lat="45.78863" lon="4.53785">
        <ele>386</ele>
        <time>2019-04-26T18:21:15Z</time>
      </trkpt>
      <trkpt lat="45.78856" lon="4.53791">
        <ele>387</ele>
        <time>2019-04-26T18:22:15Z</time>
      </trkpt>
      <trkpt lat="45.78842" lon="4.53818">
        <ele>388</ele>
        <time>2019-04-26T18:23:15Z</time>
      </trkpt>
      <trkpt lat="45.78823" lon="4.53846">
        <ele>390</ele>
        <time>2019-04-26T18:24:15Z</time>
      </trkpt>
      <trkpt lat="45.78784" lon="4.53854">
        <ele>397</ele>
        <time>2019-04-26T18:25:15Z</time>
      </trkpt>
      <trkpt lat="45.7878" lon="4.53857">
        <ele>398</ele>
        <time>2019-04-26T18:26:15Z</time>
      </trkpt>
      <trkpt lat="45.78779" lon="4.53862">
        <ele>398</ele>
        <time>2019-04-26T18:27:15Z</time>
      </trkpt>
      <trkpt lat="45.78782" lon="4.5387">
        <ele>397</ele>
        <time>2019-04-26T18:28:15Z</time>
      </trkpt>
      <trkpt lat="45.78792" lon="4.53887">
        <ele>394</ele>
        <time>2019-04-26T18:29:15Z</time>
      </trkpt>
      <trkpt lat="45.78792" lon="4.53898">
        <ele>393</ele>
        <time>2019-04-26T18:30:15Z</time>
      </trkpt>
      <trkpt lat="45.78776" lon="4.54044">
        <ele>390</ele>
        <time>2019-04-26T18:31:15Z</time>
      </trkpt>
      <trkpt lat="45.78767" lon="4.54088">
        <ele>390</ele>
        <time>2019-04-26T18:32:15Z</time>
      </trkpt>
      <trkpt lat="45.78743" lon="4.54166">
        <ele>390</ele>
        <time>2019-04-26T18:33:15Z</time>
      </trkpt>
      <trkpt lat="45.78704" lon="4.54256">
        <ele>389</ele>
        <time>2019-04-26T18:34:15Z</time>
      </trkpt>
      <trkpt lat="45.78688" lon="4.54307">
        <ele>391</ele>
        <time>2019-04-26T18:35:15Z</time>
      </trkpt>
      <trkpt lat="45.78649" lon="4.54394">
        <ele>399</ele>
        <time>2019-04-26T18:36:15Z</time>
      </trkpt>
      <trkpt lat="45.78629" lon="4.54474">
        <ele>399</ele>
        <time>2019-04-26T18:37:15Z</time>
      </trkpt>
      <trkpt lat="45.78601" lon="4.54555">
        <ele>397</ele>
        <time>2019-04-26T18:38:15Z</time>
      </trkpt>
      <trkpt lat="45.78586" lon="4.5459">
        <ele>396</ele>
        <time>2019-04-26T18:39:15Z</time>
      </trkpt>
      <trkpt lat="45.78576" lon="4.54602">
        <ele>396</ele>
        <time>2019-04-26T18:40:15Z</time>
      </trkpt>
      <trkpt lat="45.7856" lon="4.54615">
        <ele>395</ele>
        <time>2019-04-26T18:41:15Z</time>
      </trkpt>
      <trkpt lat="45.78534" lon="4.54632">
        <ele>396</ele>
        <time>2019-04-26T18:42:15Z</time>
      </trkpt>
      <trkpt lat="45.78519" lon="4.5466">
        <ele>395</ele>
        <time>2019-04-26T18:43:15Z</time>
      </trkpt>
      <trkpt lat="45.78507" lon="4.5469">
        <ele>396</ele>
        <time>2019-04-26T18:44:15Z</time>
      </trkpt>
      <trkpt lat="45.78436" lon="4.54815">
        <ele>404</ele>
        <time>2019-04-26T18:45:15Z</time>
      </trkpt>
      <trkpt lat="45.78433" lon="4.54819">
        <ele>404</ele>
        <time>2019-04-26T18:46:15Z</time>
      </trkpt>
      <trkpt lat="45.7843" lon="4.54817">
        <ele>405</ele>
        <time>2019-04-26T18:47:15Z</time>
      </trkpt>
      <trkpt lat="45.78413" lon="4.54756">
        <ele>407</ele>
        <time>2019-04-26T18:48:15Z</time>
      </trkpt>
      <trkpt lat="45.7839" lon="4.54697">
        <ele>411</ele>
        <time>2019-04-26T18:49:15Z</time>
      </trkpt>
      <trkpt lat="45.78369" lon="4.54627">
        <ele>418</ele>
        <time>2019-04-26T18:50:15Z</time>
      </trkpt>
      <trkpt lat="45.78348" lon="4.54573">
        <ele>426</ele>
        <time>2019-04-26T18:51:15Z</time>
      </trkpt>
      <trkpt lat="45.78346" lon="4.54544">
        <ele>430</ele>
        <time>2019-04-26T18:52:15Z</time>
      </trkpt>
      <trkpt lat="45.78324" lon="4.54444">
        <ele>440</ele>
        <time>2019-04-26T18:53:15Z</time>
      </trkpt>
      <trkpt lat="45.78319" lon="4.54433">
        <ele>440</ele>
        <time>2019-04-26T18:54:15Z</time>
      </trkpt>
      <trkpt lat="45.7831" lon="4.54393">
        <ele>443</ele>
        <time>2019-04-26T18:55:15Z</time>
      </trkpt>
      <trkpt lat="45.78272" lon="4.54195">
        <ele>461</ele>
        <time>2019-04-26T18:56:15Z</time>
      </trkpt>
      <trkpt lat="45.78281" lon="4.54101">
        <ele>470</ele>
        <time>2019-04-26T18:57:15Z</time>
      </trkpt>
      <trkpt lat="45.78292" lon="4.54053">
        <ele>474</ele>
        <time>2019-04-26T18:58:15Z</time>
      </trkpt>
      <trkpt lat="45.78298" lon="4.5399">
        <ele>479</ele>
        <time>2019-04-26T18:59:15Z</time>
      </trkpt>
      <trkpt lat="45.78298" lon="4.53908">
        <ele>487</ele>
        <time>2019-04-26T19:00:15Z</time>
      </trkpt>
      <trkpt lat="45.78314" lon="4.53786">
        <ele>495</ele>
        <time>2019-04-26T19:01:15Z</time>
      </trkpt>
      <trkpt lat="45.78317" lon="4.53732">
        <ele>499</ele>
        <time>2019-04-26T19:02:15Z</time>
      </trkpt>
      <trkpt lat="45.78317" lon="4.53719">
        <ele>500</ele>
        <time>2019-04-26T19:03:15Z</time>
      </trkpt>
      <trkpt lat="45.78306" lon="4.53647">
        <ele>505</ele>
        <time>2019-04-26T19:04:15Z</time>
      </trkpt>
      <trkpt lat="45.78303" lon="4.53554">
        <ele>506</ele>
        <time>2019-04-26T19:05:15Z</time>
      </trkpt>
      <trkpt lat="45.78306" lon="4.53539">
        <ele>506</ele>
        <time>2019-04-26T19:06:15Z</time>
      </trkpt>
      <trkpt lat="45.78322" lon="4.53509">
        <ele>510</ele>
        <time>2019-04-26T19:07:15Z</time>
      </trkpt>
      <trkpt lat="45.78341" lon="4.53483">
        <ele>514</ele>
        <time>2019-04-26T19:08:15Z</time>
      </trkpt>
      <trkpt lat="45.78353" lon="4.53462">
        <ele>516</ele>
        <time>2019-04-26T19:09:15Z</time>
      </trkpt>
      <trkpt lat="45.78374" lon="4.53416">
        <ele>520</ele>
        <time>2019-04-26T19:10:15Z</time>
      </trkpt>
      <trkpt lat="45.78459" lon="4.5318">
        <ele>533</ele>
        <time>2019-04-26T19:11:15Z</time>
      </trkpt>
      <trkpt lat="45.78475" lon="4.53123">
        <ele>534</ele>
        <time>2019-04-26T19:12:15Z</time>
      </trkpt>
      <trkpt lat="45.78525" lon="4.53027">
        <ele>532</ele>
        <time>2019-04-26T19:13:15Z</time>
      </trkpt>
      <trkpt lat="45.78532" lon="4.53007">
        <ele>530</ele>
        <time>2019-04-26T19:14:15Z</time>
      </trkpt>
      <trkpt lat="45.78546" lon="4.52933">
        <ele>525</ele>
        <time>2019-04-26T19:15:15Z</time>
      </trkpt>
      <trkpt lat="45.7855" lon="4.52878">
        <ele>521</ele>
        <time>2019-04-26T19:16:15Z</time>
      </trkpt>
      <trkpt lat="45.78574" lon="4.52772">
        <ele>515</ele>
        <time>2019-04-26T19:17:15Z</time>
      </trkpt>
      <trkpt lat="45.78598" lon="4.52705">
        <ele>513</ele>
        <time>2019-04-26T19:18:15Z</time>
      </trkpt>
      <trkpt lat="45.78594" lon="4.52691">
        <ele>513</ele>
        <time>2019-04-26T19:19:15Z</time>
      </trkpt>
      <trkpt lat="45.78574" lon="4.5268">
        <ele>513</ele>
        <time>2019-04-26T19:20:15Z</time>
      </trkpt>
      <trkpt lat="45.78574" lon="4.52618">
        <ele>513</ele>
        <time>2019-04-26T19:21:15Z</time>
      </trkpt>
      <trkpt lat="45.78568" lon="4.52561">
        <ele>515</ele>
        <time>2019-04-26T19:22:15Z</time>
      </trkpt>
      <trkpt lat="45.7857" lon="4.52534">
        <ele>516</ele>
        <time>2019-04-26T19:23:15Z</time>
      </trkpt>
      <trkpt lat="45.78568" lon="4.52505">
        <ele>518</ele>
        <time>2019-04-26T19:24:15Z</time>
      </trkpt>
      <trkpt lat="45.78553" lon="4.52424">
        <ele>525</ele>
        <time>2019-04-26T19:25:15Z</time>
      </trkpt>
      <trkpt lat="45.7857" lon="4.5238">
        <ele>530</ele>
        <time>2019-04-26T19:26:15Z</time>
      </trkpt>
      <trkpt lat="45.78581" lon="4.52361">
        <ele>532</ele>
        <time>2019-04-26T19:27:15Z</time>
      </trkpt>
      <trkpt lat="45.7859" lon="4.52335">
        <ele>533</ele>
        <time>2019-04-26T19:28:15Z</time>
      </trkpt>
      <trkpt lat="45.78611" lon="4.52268">
        <ele>541</ele>
        <time>2019-04-26T19:29:15Z</time>
      </trkpt>
      <trkpt lat="45.78634" lon="4.52168">
        <ele>553</ele>
        <time>2019-04-26T19:30:15Z</time>
      </trkpt>
      <trkpt lat="45.78637" lon="4.52138">
        <ele>554</ele>
        <time>2019-04-26T19:31:15Z</time>
      </trkpt>
      <trkpt lat="45.78629" lon="4.52059">
        <ele>560</ele>
        <time>2019-04-26T19:32:15Z</time>
      </trkpt>
      <trkpt lat="45.78617" lon="4.51989">
        <ele>564</ele>
        <time>2019-04-26T19:33:15Z</time>
      </trkpt>
      <trkpt lat="45.78616" lon="4.51956">
        <ele>564</ele>
        <time>2019-04-26T19:34:15Z</time>
      </trkpt>
      <trkpt lat="45.78634" lon="4.5184">
        <ele>560</ele>
        <time>2019-04-26T19:35:15Z</time>
      </trkpt>
      <trkpt lat="45.78633" lon="4.51781">
        <ele>559</ele>
        <time>2019-04-26T19:36:15Z</time>
      </trkpt>
      <trkpt lat="45.7863" lon="4.51762">
        <ele>560</ele>
        <time>2019-04-26T19:37:15Z</time>
      </trkpt>
      <trkpt lat="45.78617" lon="4.51718">
        <ele>563</ele>
        <time>2019-04-26T19:38:15Z</time>
      </trkpt>
      <trkpt lat="45.78586" lon="4.51659">
        <ele>568</ele>
        <time>2019-04-26T19:39:15Z</time>
      </trkpt>
      <trkpt lat="45.78561" lon="4.51601">
        <ele>569</ele>
        <time>2019-04-26T19:40:15Z</time>
      </trkpt>
      <trkpt lat="45.78543" lon="4.51543">
        <ele>570</ele>
        <time>2019-04-26T19:41:15Z</time>
      </trkpt>
      <trkpt lat="45.78533" lon="4.51526">
        <ele>572</ele>
        <time>2019-04-26T19:42:15Z</time>
      </trkpt>
      <trkpt lat="45.78491" lon="4.51519">
        <ele>585</ele>
        <time>2019-04-26T19:43:15Z</time>
      </trkpt>
      <trkpt lat="45.78478" lon="4.51508">
        <ele>588</ele>
        <time>2019-04-26T19:44:15Z</time>
      </trkpt>
      <trkpt lat="45.78457" lon="4.51483">
        <ele>589</ele>
        <time>2019-04-26T19:45:15Z</time>
      </trkpt>
      <trkpt lat="45.78437" lon="4.51444">
        <ele>586</ele>
        <time>2019-04-26T19:46:15Z</time>
      </trkpt>
      <trkpt lat="45.78427" lon="4.51415">
        <ele>582</ele>
        <time>2019-04-26T19:47:15Z</time>
      </trkpt>
      <trkpt lat="45.7842" lon="4.51405">
        <ele>582</ele>
        <time>2019-04-26T19:48:15Z</time>
      </trkpt>
      <trkpt lat="45.78412" lon="4.514">
        <ele>583</ele>
        <time>2019-04-26T19:49:15Z</time>
      </trkpt>
      <trkpt lat="45.78288" lon="4.51376">
        <ele>598</ele>
        <time>2019-04-26T19:50:15Z</time>
      </trkpt>
      <trkpt lat="45.78226" lon="4.51376">
        <ele>604</ele>
        <time>2019-04-26T19:51:15Z</time>
      </trkpt>
      <trkpt lat="45.78187" lon="4.51387">
        <ele>610</ele>
        <time>2019-04-26T19:52:15Z</time>
      </trkpt>
      <trkpt lat="45.78176" lon="4.51386">
        <ele>611</ele>
        <time>2019-04-26T19:53:15Z</time>
      </trkpt>
      <trkpt lat="45.7815" lon="4.51375">
        <ele>612</ele>
        <time>2019-04-26T19:54:15Z</time>
      </trkpt>
      <trkpt lat="45.78134" lon="4.51364">
        <ele>614</ele>
        <time>2019-04-26T19:55:15Z</time>
      </trkpt>
      <trkpt lat="45.78052" lon="4.51282">
        <ele>617</ele>
        <time>2019-04-26T19:56:15Z</time>
      </trkpt>
      <trkpt lat="45.78044" lon="4.51282">
        <ele>619</ele>
        <time>2019-04-26T19:57:15Z</time>
      </trkpt>
      <trkpt lat="45.77996" lon="4.51261">
        <ele>626</ele>
        <time>2019-04-26T19:58:15Z</time>
      </trkpt>
      <trkpt lat="45.77966" lon="4.51242">
        <ele>629</ele>
        <time>2019-04-26T19:59:15Z</time>
      </trkpt>
      <trkpt lat="45.77884" lon="4.51206">
        <ele>637</ele>
        <time>2019-04-26T20:00:15Z</time>
      </trkpt>
      <trkpt lat="45.77875" lon="4.51201">
        <ele>638</ele>
        <time>2019-04-26T20:01:15Z</time>
      </trkpt>
      <trkpt lat="45.77863" lon="4.51186">
        <ele>637</ele>
        <time>2019-04-26T20:02:15Z</time>
      </trkpt>
      <trkpt lat="45.77845" lon="4.51175">
        <ele>639</ele>
        <time>2019-04-26T20:03:15Z</time>
      </trkpt>
      <trkpt lat="45.7783" lon="4.5117">
        <ele>640</ele>
        <time>2019-04-26T20:04:15Z</time>
      </trkpt>
      <trkpt lat="45.77815" lon="4.51173">
        <ele>641</ele>
        <time>2019-04-26T20:05:15Z</time>
      </trkpt>
      <trkpt lat="45.77771" lon="4.51188">
        <ele>643</ele>
        <time>2019-04-26T20:06:15Z</time>
      </trkpt>
      <trkpt lat="45.77743" lon="4.51158">
        <ele>644</ele>
        <time>2019-04-26T20:07:15Z</time>
      </trkpt>
      <trkpt lat="45.77731" lon="4.51151">
        <ele>645</ele>
        <time>2019-04-26T20:08:15Z</time>
      </trkpt>
      <trkpt lat="45.77723" lon="4.51143">
        <ele>646</ele>
        <time>2019-04-26T20:09:15Z</time>
      </trkpt>
      <trkpt lat="45.77712" lon="4.51138">
        <ele>646</ele>
        <time>2019-04-26T20:10:15Z</time>
      </trkpt>
      <trkpt lat="45.77692" lon="4.51141">
        <ele>645</ele>
        <time>2019-04-26T20:11:15Z</time>
      </trkpt>
      <trkpt lat="45.77674" lon="4.51138">
        <ele>646</ele>
        <time>2019-04-26T20:12:15Z</time>
      </trkpt>
      <trkpt lat="45.77632" lon="4.51122">
        <ele>647</ele>
        <time>2019-04-26T20:13:15Z</time>
      </trkpt>
      <trkpt lat="45.77609" lon="4.51107">
        <ele>650</ele>
        <time>2019-04-26T20:14:15Z</time>
      </trkpt>
      <trkpt lat="45.77586" lon="4.51098">
        <ele>652</ele>
        <time>2019-04-26T20:15:15Z</time>
      </trkpt>
      <trkpt lat="45.77554" lon="4.51063">
        <ele>657</ele>
        <time>2019-04-26T20:16:15Z</time>
      </trkpt>
      <trkpt lat="45.77469" lon="4.50961">
        <ele>654</ele>
        <time>2019-04-26T20:17:15Z</time>
      </trkpt>
      <trkpt lat="45.77397" lon="4.5081">
        <ele>650</ele>
        <time>2019-04-26T20:18:15Z</time>
      </trkpt>
      <trkpt lat="45.77375" lon="4.50775">
        <ele>650</ele>
        <time>2019-04-26T20:19:15Z</time>
      </trkpt>
      <trkpt lat="45.77349" lon="4.50742">
        <ele>650</ele>
        <time>2019-04-26T20:20:15Z</time>
      </trkpt>
      <trkpt lat="45.77336" lon="4.50731">
        <ele>649</ele>
        <time>2019-04-26T20:21:15Z</time>
      </trkpt>
      <trkpt lat="45.77324" lon="4.50726">
        <ele>648</ele>
        <time>2019-04-26T20:22:15Z</time>
      </trkpt>
      <trkpt lat="45.77279" lon="4.5072">
        <ele>643</ele>
        <time>2019-04-26T20:23:15Z</time>
      </trkpt>
      <trkpt lat="45.77273" lon="4.50717">
        <ele>642</ele>
        <time>2019-04-26T20:24:15Z</time>
      </trkpt>
      <trkpt lat="45.77265" lon="4.5071">
        <ele>642</ele>
        <time>2019-04-26T20:25:15Z</time>
      </trkpt>
      <trkpt lat="45.77253" lon="4.50693">
        <ele>642</ele>
        <time>2019-04-26T20:26:15Z</time>
      </trkpt>
      <trkpt lat="45.77253" lon="4.50646">
        <ele>644</ele>
        <time>2019-04-26T20:27:15Z</time>
      </trkpt>
      <trkpt lat="45.77257" lon="4.50617">
        <ele>645</ele>
        <time>2019-04-26T20:28:15Z</time>
      </trkpt>
      <trkpt lat="45.77266" lon="4.50584">
        <ele>648</ele>
        <time>2019-04-26T20:29:15Z</time>
      </trkpt>
      <trkpt lat="45.77277" lon="4.50556">
        <ele>651</ele>
        <time>2019-04-26T20:30:15Z</time>
      </trkpt>
      <trkpt lat="45.77299" lon="4.5052">
        <ele>656</ele>
        <time>2019-04-26T20:31:15Z</time>
      </trkpt>
      <trkpt lat="45.7735" lon="4.50426">
        <ele>664</ele>
        <time>2019-04-26T20:32:15Z</time>
      </trkpt>
      <trkpt lat="45.77422" lon="4.50287">
        <ele>671</ele>
        <time>2019-04-26T20:33:15Z</time>
      </trkpt>
      <trkpt lat="45.77434" lon="4.50256">
        <ele>671</ele>
        <time>2019-04-26T20:34:15Z</time>
      </trkpt>
      <trkpt lat="45.7745" lon="4.50228">
        <ele>674</ele>
        <time>2019-04-26T20:35:15Z</time>
      </trkpt>
      <trkpt lat="45.77468" lon="4.50187">
        <ele>678</ele>
        <time>2019-04-26T20:36:15Z</time>
      </trkpt>
      <trkpt lat="45.7748" lon="4.50152">
        <ele>680</ele>
        <time>2019-04-26T20:37:15Z</time>
      </trkpt>
      <trkpt lat="45.77515" lon="4.50079">
        <ele>685</ele>
        <time>2019-04-26T20:38:15Z</time>
      </trkpt>
      <trkpt lat="45.77525" lon="4.5007">
        <ele>686</ele>
        <time>2019-04-26T20:39:15Z</time>
      </trkpt>
      <trkpt lat="45.77538" lon="4.50027">
        <ele>688</ele>
        <time>2019-04-26T20:40:15Z</time>
      </trkpt>
      <trkpt lat="45.77551" lon="4.50001">
        <ele>689</ele>
        <time>2019-04-26T20:41:15Z</time>
      </trkpt>
      <trkpt lat="45.77559" lon="4.49967">
        <ele>691</ele>
        <time>2019-04-26T20:42:15Z</time>
      </trkpt>
      <trkpt lat="45.77577" lon="4.49932">
        <ele>693</ele>
        <time>2019-04-26T20:43:15Z</time>
      </trkpt>
      <trkpt lat="45.77585" lon="4.49925">
        <ele>693</ele>
        <time>2019-04-26T20:44:15Z</time>
      </trkpt>
      <trkpt lat="45.77601" lon="4.49902">
        <ele>691</ele>
        <time>2019-04-26T20:45:15Z</time>
      </trkpt>
      <trkpt lat="45.77618" lon="4.49857">
        <ele>689</ele>
        <time>2019-04-26T20:46:15Z</time>
      </trkpt>
      <trkpt lat="45.77647" lon="4.49763">
        <ele>687</ele>
        <time>2019-04-26T20:47:15Z</time>
      </trkpt>
      <trkpt lat="45.77683" lon="4.49675">
        <ele>688</ele>
        <time>2019-04-26T20:48:15Z</time>
      </trkpt>
      <trkpt lat="45.77691" lon="4.49635">
        <ele>687</ele>
        <time>2019-04-26T20:49:15Z</time>
      </trkpt>
      <trkpt lat="45.7773" lon="4.49543">
        <ele>676</ele>
        <time>2019-04-26T20:50:15Z</time>
      </trkpt>
      <trkpt lat="45.77802" lon="4.49361">
        <ele>653</ele>
        <time>2019-04-26T20:51:15Z</time>
      </trkpt>
      <trkpt lat="45.77815" lon="4.4934">
        <ele>649</ele>
        <time>2019-04-26T20:52:15Z</time>
      </trkpt>
      <trkpt lat="45.77822" lon="4.49337">
        <ele>647</ele>
        <time>2019-04-26T20:53:15Z</time>
      </trkpt>
      <trkpt lat="45.77846" lon="4.49381">
        <ele>640</ele>
        <time>2019-04-26T20:54:15Z</time>
      </trkpt>
      <trkpt lat="45.77857" lon="4.49411">
        <ele>636</ele>
        <time>2019-04-26T20:55:15Z</time>
      </trkpt>
      <trkpt lat="45.77905" lon="4.49586">
        <ele>628</ele>
        <time>2019-04-26T20:56:15Z</time>
      </trkpt>
      <trkpt lat="45.77914" lon="4.49602">
        <ele>626</ele>
        <time>2019-04-26T20:57:15Z</time>
      </trkpt>
      <trkpt lat="45.77935" lon="4.49619">
        <ele>622</ele>
        <time>2019-04-26T20:58:15Z</time>
      </trkpt>
      <trkpt lat="45.77954" lon="4.49642">
        <ele>620</ele>
        <time>2019-04-26T20:59:15Z</time>
      </trkpt>
      <trkpt lat="45.77963" lon="4.49649">
        <ele>619</ele>
        <time>2019-04-26T21:00:15Z</time>
      </trkpt>
      <trkpt lat="45.77973" lon="4.49654">
        <ele>618</ele>
        <time>2019-04-26T21:01:15Z</time>
      </trkpt>
      <trkpt lat="45.77986" lon="4.49653">
        <ele>615</ele>
        <time>2019-04-26T21:02:15Z</time>
      </trkpt>
      <trkpt lat="45.77998" lon="4.49662">
        <ele>614</ele>
        <time>2019-04-26T21:03:15Z</time>
      </trkpt>
      <trkpt lat="45.78004" lon="4.49673">
        <ele>614</ele>
        <time>2019-04-26T21:04:15Z</time>
      </trkpt>
      <trkpt lat="45.7802" lon="4.49683">
        <ele>613</ele>
        <time>2019-04-26T21:05:15Z</time>
      </trkpt>
      <trkpt lat="45.78041" lon="4.4965">
        <ele>606</ele>
        <time>2019-04-26T21:06:15Z</time>
      </trkpt>
      <trkpt lat="45.78067" lon="4.4962">
        <ele>599</ele>
        <time>2019-04-26T21:07:15Z</time>
      </trkpt>
      <trkpt lat="45.78084" lon="4.49595">
        <ele>594</ele>
        <time>2019-04-26T21:08:15Z</time>
      </trkpt>
      <trkpt lat="45.781" lon="4.49578">
        <ele>590</ele>
        <time>2019-04-26T21:09:15Z</time>
      </trkpt>
      <trkpt lat="45.78132" lon="4.49557">
        <ele>584</ele>
        <time>2019-04-26T21:10:15Z</time>
      </trkpt>
      <trkpt lat="45.78132" lon="4.49548">
        <ele>584</ele>
        <time>2019-04-26T21:11:15Z</time>
      </trkpt>
      <trkpt lat="45.78125" lon="4.49518">
        <ele>584</ele>
        <time>2019-04-26T21:12:15Z</time>
      </trkpt>
      <trkpt lat="45.78124" lon="4.49496">
        <ele>583</ele>
        <time>2019-04-26T21:13:15Z</time>
      </trkpt>
      <trkpt lat="45.78138" lon="4.49407">
        <ele>583</ele>
        <time>2019-04-26T21:14:15Z</time>
      </trkpt>
      <trkpt lat="45.78144" lon="4.49263">
        <ele>591</ele>
        <time>2019-04-26T21:15:15Z</time>
      </trkpt>
      <trkpt lat="45.78142" lon="4.49232">
        <ele>595</ele>
        <time>2019-04-26T21:16:15Z</time>
      </trkpt>
      <trkpt lat="45.78132" lon="4.49196">
        <ele>602</ele>
        <time>2019-04-26T21:17:15Z</time>
      </trkpt>
      <trkpt lat="45.78121" lon="4.49167">
        <ele>606</ele>
        <time>2019-04-26T21:18:15Z</time>
      </trkpt>
      <trkpt lat="45.78121" lon="4.49143">
        <ele>611</ele>
        <time>2019-04-26T21:19:15Z</time>
      </trkpt>
      <trkpt lat="45.78126" lon="4.49138">
        <ele>612</ele>
        <time>2019-04-26T21:20:15Z</time>
      </trkpt>
      <trkpt lat="45.78133" lon="4.49138">
        <ele>612</ele>
        <time>2019-04-26T21:21:15Z</time>
      </trkpt>
      <trkpt lat="45.78144" lon="4.49148">
        <ele>610</ele>
        <time>2019-04-26T21:22:15Z</time>
      </trkpt>
      <trkpt lat="45.78172" lon="4.49184">
        <ele>603</ele>
        <time>2019-04-26T21:23:15Z</time>
      </trkpt>
      <trkpt lat="45.78195" lon="4.492">
        <ele>603</ele>
        <time>2019-04-26T21:24:15Z</time>
      </trkpt>
      <trkpt lat="45.78244" lon="4.49224">
        <ele>601</ele>
        <time>2019-04-26T21:25:15Z</time>
      </trkpt>
      <trkpt lat="45.78316" lon="4.49244">
        <ele>594</ele>
        <time>2019-04-26T21:26:15Z</time>
      </trkpt>
      <trkpt lat="45.78353" lon="4.49236">
        <ele>591</ele>
        <time>2019-04-26T21:27:15Z</time>
      </trkpt>
      <trkpt lat="45.78397" lon="4.49119">
        <ele>595</ele>
        <time>2019-04-26T21:28:15Z</time>
      </trkpt>
      <trkpt lat="45.78401" lon="4.49072">
        <ele>596</ele>
        <time>2019-04-26T21:29:15Z</time>
      </trkpt>
      <trkpt lat="45.784" lon="4.48995">
        <ele>597</ele>
        <time>2019-04-26T21:30:15Z</time>
      </trkpt>
      <trkpt lat="45.78397" lon="4.48984">
        <ele>598</ele>
        <time>2019-04-26T21:31:15Z</time>
      </trkpt>
      <trkpt lat="45.78403" lon="4.48977">
        <ele>596</ele>
        <time>2019-04-26T21:32:15Z</time>
      </trkpt>
      <trkpt lat="45.78415" lon="4.48978">
        <ele>592</ele>
        <time>2019-04-26T21:33:15Z</time>
      </trkpt>
      <trkpt lat="45.78444" lon="4.48964">
        <ele>585</ele>
        <time>2019-04-26T21:34:15Z</time>
      </trkpt>
      <trkpt lat="45.78458" lon="4.4896">
        <ele>582</ele>
        <time>2019-04-26T21:35:15Z</time>
      </trkpt>
      <trkpt lat="45.78456" lon="4.48938">
        <ele>582</ele>
        <time>2019-04-26T21:36:15Z</time>
      </trkpt>
      <trkpt lat="45.78463" lon="4.48927">
        <ele>581</ele>
        <time>2019-04-26T21:37:15Z</time>
      </trkpt>
      <trkpt lat="45.78464" lon="4.48916">
        <ele>581</ele>
        <time>2019-04-26T21:38:15Z</time>
      </trkpt>
      <trkpt lat="45.7845" lon="4.48789">
        <ele>579</ele>
        <time>2019-04-26T21:39:15Z</time>
      </trkpt>
      <trkpt lat="45.78454" lon="4.48748">
        <ele>580</ele>
        <time>2019-04-26T21:40:15Z</time>
      </trkpt>
      <trkpt lat="45.78466" lon="4.48721">
        <ele>581</ele>
        <time>2019-04-26T21:41:15Z</time>
      </trkpt>
      <trkpt lat="45.78488" lon="4.48688">
        <ele>580</ele>
        <time>2019-04-26T21:42:15Z</time>
      </trkpt>
      <trkpt lat="45.78525" lon="4.48529">
        <ele>586</ele>
        <time>2019-04-26T21:43:15Z</time>
      </trkpt>
      <trkpt lat="45.78555" lon="4.48517">
        <ele>583</ele>
        <time>2019-04-26T21:44:15Z</time>
      </trkpt>
      <trkpt lat="45.78613" lon="4.48529">
        <ele>583</ele>
        <time>2019-04-26T21:45:15Z</time>
      </trkpt>
      <trkpt lat="45.78664" lon="4.48628">
        <ele>576</ele>
        <time>2019-04-26T21:46:15Z</time>
      </trkpt>
      <trkpt lat="45.78692" lon="4.48672">
        <ele>571</ele>
        <time>2019-04-26T21:47:15Z</time>
      </trkpt>
      <trkpt lat="45.787" lon="4.48679">
        <ele>570</ele>
        <time>2019-04-26T21:48:15Z</time>
      </trkpt>
      <trkpt lat="45.78714" lon="4.48675">
        <ele>571</ele>
        <time>2019-04-26T21:49:15Z</time>
      </trkpt>
      <trkpt lat="45.78715" lon="4.48655">
        <ele>574</ele>
        <time>2019-04-26T21:50:15Z</time>
      </trkpt>
      <trkpt lat="45.7872" lon="4.48635">
        <ele>577</ele>
        <time>2019-04-26T21:51:15Z</time>
      </trkpt>
      <trkpt lat="45.78741" lon="4.48578">
        <ele>586</ele>
        <time>2019-04-26T21:52:15Z</time>
      </trkpt>
      <trkpt lat="45.78736" lon="4.48517">
        <ele>595</ele>
        <time>2019-04-26T21:53:15Z</time>
      </trkpt>
      <trkpt lat="45.78761" lon="4.48264">
        <ele>613</ele>
        <time>2019-04-26T21:54:15Z</time>
      </trkpt>
      <trkpt lat="45.78762" lon="4.48169">
        <ele>613</ele>
        <time>2019-04-26T21:55:15Z</time>
      </trkpt>
      <trkpt lat="45.78739" lon="4.48084">
        <ele>612</ele>
        <time>2019-04-26T21:56:15Z</time>
      </trkpt>
      <trkpt lat="45.78727" lon="4.48072">
        <ele>612</ele>
        <time>2019-04-26T21:57:15Z</time>
      </trkpt>
      <trkpt lat="45.787" lon="4.48025">
        <ele>613</ele>
        <time>2019-04-26T21:58:15Z</time>
      </trkpt>
      <trkpt lat="45.7866" lon="4.47942">
        <ele>619</ele>
        <time>2019-04-26T21:59:15Z</time>
      </trkpt>
      <trkpt lat="45.78656" lon="4.47925">
        <ele>620</ele>
        <time>2019-04-26T22:00:15Z</time>
      </trkpt>
      <trkpt lat="45.78677" lon="4.47862">
        <ele>620</ele>
        <time>2019-04-26T22:01:15Z</time>
      </trkpt>
      <trkpt lat="45.787" lon="4.47774">
        <ele>623</ele>
        <time>2019-04-26T22:02:15Z</time>
      </trkpt>
      <trkpt lat="45.78702" lon="4.47742">
        <ele>624</ele>
        <time>2019-04-26T22:03:15Z</time>
      </trkpt>
      <trkpt lat="45.787" lon="4.47709">
        <ele>624</ele>
        <time>2019-04-26T22:04:15Z</time>
      </trkpt>
      <trkpt lat="45.78688" lon="4.47667">
        <ele>627</ele>
        <time>2019-04-26T22:05:15Z</time>
      </trkpt>
      <trkpt lat="45.78671" lon="4.47644">
        <ele>631</ele>
        <time>2019-04-26T22:06:15Z</time>
      </trkpt>
      <trkpt lat="45.78643" lon="4.4757">
        <ele>630</ele>
        <time>2019-04-26T22:07:15Z</time>
      </trkpt>
      <trkpt lat="45.78631" lon="4.47487">
        <ele>628</ele>
        <time>2019-04-26T22:08:15Z</time>
      </trkpt>
      <trkpt lat="45.78623" lon="4.4746">
        <ele>630</ele>
        <time>2019-04-26T22:09:15Z</time>
      </trkpt>
      <trkpt lat="45.78623" lon="4.47373">
        <ele>628</ele>
        <time>2019-04-26T22:10:15Z</time>
      </trkpt>
      <trkpt lat="45.78614" lon="4.47219">
        <ele>628</ele>
        <time>2019-04-26T22:11:15Z</time>
      </trkpt>
      <trkpt lat="45.78609" lon="4.47168">
        <ele>629</ele>
        <time>2019-04-26T22:12:15Z</time>
      </trkpt>
      <trkpt lat="45.78605" lon="4.47071">
        <ele>630</ele>
        <time>2019-04-26T22:13:15Z</time>
      </trkpt>
      <trkpt lat="45.78605" lon="4.47029">
        <ele>631</ele>
        <time>2019-04-26T22:14:15Z</time>
      </trkpt>
      <trkpt lat="45.78613" lon="4.46969">
        <ele>634</ele>
        <time>2019-04-26T22:15:15Z</time>
      </trkpt>
      <trkpt lat="45.78616" lon="4.46916">
        <ele>635</ele>
        <time>2019-04-26T22:16:15Z</time>
      </trkpt>
      <trkpt lat="45.78627" lon="4.46884">
        <ele>633</ele>
        <time>2019-04-26T22:17:15Z</time>
      </trkpt>
      <trkpt lat="45.78634" lon="4.46879">
        <ele>633</ele>
        <time>2019-04-26T22:18:15Z</time>
      </trkpt>
      <trkpt lat="45.78644" lon="4.46876">
        <ele>633</ele>
        <time>2019-04-26T22:19:15Z</time>
      </trkpt>
      <trkpt lat="45.78675" lon="4.46878">
        <ele>635</ele>
        <time>2019-04-26T22:20:15Z</time>
      </trkpt>
      <trkpt lat="45.7871" lon="4.46896">
        <ele>637</ele>
        <time>2019-04-26T22:21:15Z</time>
      </trkpt>
      <trkpt lat="45.78726" lon="4.469">
        <ele>638</ele>
        <time>2019-04-26T22:22:15Z</time>
      </trkpt>
      <trkpt lat="45.78744" lon="4.46916">
        <ele>641</ele>
        <time>2019-04-26T22:23:15Z</time>
      </trkpt>
      <trkpt lat="45.78772" lon="4.46933">
        <ele>643</ele>
        <time>2019-04-26T22:24:15Z</time>
      </trkpt>
      <trkpt lat="45.78791" lon="4.4694">
        <ele>644</ele>
        <time>2019-04-26T22:25:15Z</time>
      </trkpt>
      <trkpt lat="45.78847" lon="4.46942">
        <ele>645</ele>
        <time>2019-04-26T22:26:15Z</time>
      </trkpt>
      <trkpt lat="45.78867" lon="4.46946">
        <ele>646</ele>
        <time>2019-04-26T22:27:15Z</time>
      </trkpt>
      <trkpt lat="45.78877" lon="4.46962">
        <ele>646</ele>
        <time>2019-04-26T22:28:15Z</time>
      </trkpt>
      <trkpt lat="45.78885" lon="4.46981">
        <ele>647</ele>
        <time>2019-04-26T22:29:15Z</time>
      </trkpt>
      <trkpt lat="45.78888" lon="4.46982">
        <ele>647</ele>
        <time>2019-04-26T22:30:15Z</time>
      </trkpt>
      <trkpt lat="45.7898" lon="4.46853">
        <ele>651</ele>
        <time>2019-04-26T22:31:15Z</time>
      </trkpt>
      <trkpt lat="45.79006" lon="4.46812">
        <ele>657</ele>
        <time>2019-04-26T22:32:15Z</time>
      </trkpt>
      <trkpt lat="45.7901" lon="4.46798">
        <ele>659</ele>
        <time>2019-04-26T22:33:15Z</time>
      </trkpt>
      <trkpt lat="45.79009" lon="4.46777">
        <ele>662</ele>
        <time>2019-04-26T22:34:15Z</time>
      </trkpt>
      <trkpt lat="45.78991" lon="4.46714">
        <ele>664</ele>
        <time>2019-04-26T22:35:15Z</time>
      </trkpt>
      <trkpt lat="45.78992" lon="4.46674">
        <ele>666</ele>
        <time>2019-04-26T22:36:15Z</time>
      </trkpt>
      <trkpt lat="45.78998" lon="4.46655">
        <ele>667</ele>
        <time>2019-04-26T22:37:15Z</time>
      </trkpt>
      <trkpt lat="45.78983" lon="4.46632">
        <ele>664</ele>
        <time>2019-04-26T22:38:15Z</time>
      </trkpt>
      <trkpt lat="45.78966" lon="4.46618">
        <ele>661</ele>
        <time>2019-04-26T22:39:15Z</time>
      </trkpt>
      <trkpt lat="45.78918" lon="4.46611">
        <ele>653</ele>
        <time>2019-04-26T22:40:15Z</time>
      </trkpt>
      <trkpt lat="45.78831" lon="4.46589">
        <ele>630</ele>
        <time>2019-04-26T22:41:15Z</time>
      </trkpt>
      <trkpt lat="45.78801" lon="4.46591">
        <ele>624</ele>
        <time>2019-04-26T22:42:15Z</time>
      </trkpt>
      <trkpt lat="45.78757" lon="4.46583">
        <ele>615</ele>
        <time>2019-04-26T22:43:15Z</time>
      </trkpt>
      <trkpt lat="45.78712" lon="4.46568">
        <ele>606</ele>
        <time>2019-04-26T22:44:15Z</time>
      </trkpt>
      <trkpt lat="45.78685" lon="4.46533">
        <ele>599</ele>
        <time>2019-04-26T22:45:15Z</time>
      </trkpt>
      <trkpt lat="45.78622" lon="4.4648">
        <ele>584</ele>
        <time>2019-04-26T22:46:15Z</time>
      </trkpt>
      <trkpt lat="45.7859" lon="4.4645">
        <ele>577</ele>
        <time>2019-04-26T22:47:15Z</time>
      </trkpt>
      <trkpt lat="45.78524" lon="4.46423">
        <ele>575</ele>
        <time>2019-04-26T22:48:15Z</time>
      </trkpt>
      <trkpt lat="45.78447" lon="4.46417">
        <ele>574</ele>
        <time>2019-04-26T22:49:15Z</time>
      </trkpt>
      <trkpt lat="45.78417" lon="4.46387">
        <ele>580</ele>
        <time>2019-04-26T22:50:15Z</time>
      </trkpt>
      <trkpt lat="45.78397" lon="4.46343">
        <ele>586</ele>
        <time>2019-04-26T22:51:15Z</time>
      </trkpt>
      <trkpt lat="45.78365" lon="4.46351">
        <ele>581</ele>
        <time>2019-04-26T22:52:15Z</time>
      </trkpt>
      <trkpt lat="45.78351" lon="4.46373">
        <ele>576</ele>
        <time>2019-04-26T22:53:15Z</time>
      </trkpt>
      <trkpt lat="45.78336" lon="4.46386">
        <ele>573</ele>
        <time>2019-04-26T22:54:15Z</time>
      </trkpt>
      <trkpt lat="45.78281" lon="4.46417">
        <ele>566</ele>
        <time>2019-04-26T22:55:15Z</time>
      </trkpt>
      <trkpt lat="45.78241" lon="4.46432">
        <ele>562</ele>
        <time>2019-04-26T22:56:15Z</time>
      </trkpt>
      <trkpt lat="45.78201" lon="4.46451">
        <ele>556</ele>
        <time>2019-04-26T22:57:15Z</time>
      </trkpt>
      <trkpt lat="45.78186" lon="4.46454">
        <ele>555</ele>
        <time>2019-04-26T22:58:15Z</time>
      </trkpt>
      <trkpt lat="45.78141" lon="4.46388">
        <ele>553</ele>
        <time>2019-04-26T22:59:15Z</time>
      </trkpt>
      <trkpt lat="45.78133" lon="4.46384">
        <ele>553</ele>
        <time>2019-04-26T23:00:15Z</time>
      </trkpt>
      <trkpt lat="45.78081" lon="4.46389">
        <ele>554</ele>
        <time>2019-04-26T23:01:15Z</time>
      </trkpt>
      <trkpt lat="45.7802" lon="4.46383">
        <ele>560</ele>
        <time>2019-04-26T23:02:15Z</time>
      </trkpt>
      <trkpt lat="45.78006" lon="4.46379">
        <ele>562</ele>
        <time>2019-04-26T23:03:15Z</time>
      </trkpt>
      <trkpt lat="45.77971" lon="4.46353">
        <ele>562</ele>
        <time>2019-04-26T23:04:15Z</time>
      </trkpt>
      <trkpt lat="45.77959" lon="4.46333">
        <ele>562</ele>
        <time>2019-04-26T23:05:15Z</time>
      </trkpt>
      <trkpt lat="45.77954" lon="4.46314">
        <ele>562</ele>
        <time>2019-04-26T23:06:15Z</time>
      </trkpt>
      <trkpt lat="45.77949" lon="4.46313">
        <ele>562</ele>
        <time>2019-04-26T23:07:15Z</time>
      </trkpt>
      <trkpt lat="45.77911" lon="4.46207">
        <ele>562</ele>
        <time>2019-04-26T23:08:15Z</time>
      </trkpt>
      <trkpt lat="45.77898" lon="4.46193">
        <ele>563</ele>
        <time>2019-04-26T23:09:15Z</time>
      </trkpt>
      <trkpt lat="45.77873" lon="4.46182">
        <ele>564</ele>
        <time>2019-04-26T23:10:15Z</time>
      </trkpt>
      <trkpt lat="45.77853" lon="4.46188">
        <ele>564</ele>
        <time>2019-04-26T23:11:15Z</time>
      </trkpt>
      <trkpt lat="45.77803" lon="4.4619">
        <ele>562</ele>
        <time>2019-04-26T23:12:15Z</time>
      </trkpt>
      <trkpt lat="45.7776" lon="4.4615">
        <ele>566</ele>
        <time>2019-04-26T23:13:15Z</time>
      </trkpt>
      <trkpt lat="45.7773" lon="4.46108">
        <ele>572</ele>
        <time>2019-04-26T23:14:15Z</time>
      </trkpt>
      <trkpt lat="45.77723" lon="4.46102">
        <ele>573</ele>
        <time>2019-04-26T23:15:15Z</time>
      </trkpt>
      <trkpt lat="45.77708" lon="4.46099">
        <ele>573</ele>
        <time>2019-04-26T23:16:15Z</time>
      </trkpt>
      <trkpt lat="45.77677" lon="4.46104">
        <ele>572</ele>
        <time>2019-04-26T23:17:15Z</time>
      </trkpt>
      <trkpt lat="45.77612" lon="4.46144">
        <ele>573</ele>
        <time>2019-04-26T23:18:15Z</time>
      </trkpt>
      <trkpt lat="45.77548" lon="4.46189">
        <ele>575</ele>
        <time>2019-04-26T23:19:15Z</time>
      </trkpt>
      <trkpt lat="45.77524" lon="4.46202">
        <ele>576</ele>
        <time>2019-04-26T23:20:15Z</time>
      </trkpt>
      <trkpt lat="45.77478" lon="4.46217">
        <ele>577</ele>
        <time>2019-04-26T23:21:15Z</time>
      </trkpt>
      <trkpt lat="45.77429" lon="4.46216">
        <ele>577</ele>
        <time>2019-04-26T23:22:15Z</time>
      </trkpt>
      <trkpt lat="45.77409" lon="4.46204">
        <ele>581</ele>
        <time>2019-04-26T23:23:15Z</time>
      </trkpt>
      <trkpt lat="45.77359" lon="4.46188">
        <ele>586</ele>
        <time>2019-04-26T23:24:15Z</time>
      </trkpt>
      <trkpt lat="45.77334" lon="4.46187">
        <ele>586</ele>
        <time>2019-04-26T23:25:15Z</time>
      </trkpt>
      <trkpt lat="45.77311" lon="4.46191">
        <ele>591</ele>
        <time>2019-04-26T23:26:15Z</time>
      </trkpt>
      <trkpt lat="45.77272" lon="4.46222">
        <ele>594</ele>
        <time>2019-04-26T23:27:15Z</time>
      </trkpt>
      <trkpt lat="45.77245" lon="4.46249">
        <ele>596</ele>
        <time>2019-04-26T23:28:15Z</time>
      </trkpt>
      <trkpt lat="45.77183" lon="4.46335">
        <ele>591</ele>
        <time>2019-04-26T23:29:15Z</time>
      </trkpt>
      <trkpt lat="45.77161" lon="4.46341">
        <ele>595</ele>
        <time>2019-04-26T23:30:15Z</time>
      </trkpt>
      <trkpt lat="45.77141" lon="4.46343">
        <ele>597</ele>
        <time>2019-04-26T23:31:15Z</time>
      </trkpt>
      <trkpt lat="45.77132" lon="4.46343">
        <ele>598</ele>
        <time>2019-04-26T23:32:15Z</time>
      </trkpt>
      <trkpt lat="45.77108" lon="4.46336">
        <ele>603</ele>
        <time>2019-04-26T23:33:15Z</time>
      </trkpt>
      <trkpt lat="45.77063" lon="4.46336">
        <ele>604</ele>
        <time>2019-04-26T23:34:15Z</time>
      </trkpt>
      <trkpt lat="45.77052" lon="4.46331">
        <ele>605</ele>
        <time>2019-04-26T23:35:15Z</time>
      </trkpt>
      <trkpt lat="45.77038" lon="4.46318">
        <ele>605</ele>
        <time>2019-04-26T23:36:15Z</time>
      </trkpt>
      <trkpt lat="45.77018" lon="4.46287">
        <ele>606</ele>
        <time>2019-04-26T23:37:15Z</time>
      </trkpt>
      <trkpt lat="45.77011" lon="4.46268">
        <ele>606</ele>
        <time>2019-04-26T23:38:15Z</time>
      </trkpt>
      <trkpt lat="45.76982" lon="4.46114">
        <ele>602</ele>
        <time>2019-04-26T23:39:15Z</time>
      </trkpt>
      <trkpt lat="45.76979" lon="4.46109">
        <ele>602</ele>
        <time>2019-04-26T23:40:15Z</time>
      </trkpt>
      <trkpt lat="45.7697" lon="4.46108">
        <ele>599</ele>
        <time>2019-04-26T23:41:15Z</time>
      </trkpt>
      <trkpt lat="45.76947" lon="4.46002">
        <ele>591</ele>
        <time>2019-04-26T23:42:15Z</time>
      </trkpt>
      <trkpt lat="45.76949" lon="4.45942">
        <ele>585</ele>
        <time>2019-04-26T23:43:15Z</time>
      </trkpt>
      <trkpt lat="45.76959" lon="4.45883">
        <ele>583</ele>
        <time>2019-04-26T23:44:15Z</time>
      </trkpt>
      <trkpt lat="45.76945" lon="4.45827">
        <ele>580</ele>
        <time>2019-04-26T23:45:15Z</time>
      </trkpt>
      <trkpt lat="45.76938" lon="4.45816">
        <ele>580</ele>
        <time>2019-04-26T23:46:15Z</time>
      </trkpt>
      <trkpt lat="45.76924" lon="4.45806">
        <ele>580</ele>
        <time>2019-04-26T23:47:15Z</time>
      </trkpt>
      <trkpt lat="45.7691" lon="4.45809">
        <ele>579</ele>
        <time>2019-04-26T23:48:15Z</time>
      </trkpt>
      <trkpt lat="45.76898" lon="4.45807">
        <ele>579</ele>
        <time>2019-04-26T23:49:15Z</time>
      </trkpt>
      <trkpt lat="45.76888" lon="4.45802">
        <ele>578</ele>
        <time>2019-04-26T23:50:15Z</time>
      </trkpt>
      <trkpt lat="45.76884" lon="4.45797">
        <ele>578</ele>
        <time>2019-04-26T23:51:15Z</time>
      </trkpt>
      <trkpt lat="45.76874" lon="4.45772">
        <ele>580</ele>
        <time>2019-04-26T23:52:15Z</time>
      </trkpt>
      <trkpt lat="45.76874" lon="4.45697">
        <ele>589</ele>
        <time>2019-04-26T23:53:15Z</time>
      </trkpt>
      <trkpt lat="45.76871" lon="4.45689">
        <ele>589</ele>
        <time>2019-04-26T23:54:15Z</time>
      </trkpt>
      <trkpt lat="45.76854" lon="4.45672">
        <ele>591</ele>
        <time>2019-04-26T23:55:15Z</time>
      </trkpt>
      <trkpt lat="45.76845" lon="4.4567">
        <ele>591</ele>
        <time>2019-04-26T23:56:15Z</time>
      </trkpt>
      <trkpt lat="45.76818" lon="4.45676">
        <ele>590</ele>
        <time>2019-04-26T23:57:15Z</time>
      </trkpt>
      <trkpt lat="45.76795" lon="4.45704">
        <ele>587</ele>
        <time>2019-04-26T23:58:15Z</time>
      </trkpt>
      <trkpt lat="45.76777" lon="4.45733">
        <ele>584</ele>
        <time>2019-04-26T23:59:15Z</time>
      </trkpt>
      <trkpt lat="45.76751" lon="4.45767">
        <ele>581</ele>
        <time>2019-04-27T00:00:15Z</time>
      </trkpt>
      <trkpt lat="45.76721" lon="4.45796">
        <ele>578</ele>
        <time>2019-04-27T00:01:15Z</time>
      </trkpt>
      <trkpt lat="45.76711" lon="4.45818">
        <ele>575</ele>
        <time>2019-04-27T00:02:15Z</time>
      </trkpt>
      <trkpt lat="45.76703" lon="4.4583">
        <ele>574</ele>
        <time>2019-04-27T00:03:15Z</time>
      </trkpt>
      <trkpt lat="45.76695" lon="4.45837">
        <ele>573</ele>
        <time>2019-04-27T00:04:15Z</time>
      </trkpt>
      <trkpt lat="45.76684" lon="4.45836">
        <ele>573</ele>
        <time>2019-04-27T00:05:15Z</time>
      </trkpt>
      <trkpt lat="45.7666" lon="4.45825">
        <ele>572</ele>
        <time>2019-04-27T00:06:15Z</time>
      </trkpt>
      <trkpt lat="45.76604" lon="4.45777">
        <ele>565</ele>
        <time>2019-04-27T00:07:15Z</time>
      </trkpt>
      <trkpt lat="45.76598" lon="4.45769">
        <ele>564</ele>
        <time>2019-04-27T00:08:15Z</time>
      </trkpt>
      <trkpt lat="45.76583" lon="4.45717">
        <ele>565</ele>
        <time>2019-04-27T00:09:15Z</time>
      </trkpt>
      <trkpt lat="45.76575" lon="4.45698">
        <ele>566</ele>
        <time>2019-04-27T00:10:15Z</time>
      </trkpt>
      <trkpt lat="45.76558" lon="4.45675">
        <ele>567</ele>
        <time>2019-04-27T00:11:15Z</time>
      </trkpt>
      <trkpt lat="45.76491" lon="4.45604">
        <ele>570</ele>
        <time>2019-04-27T00:12:15Z</time>
      </trkpt>
      <trkpt lat="45.76481" lon="4.45598">
        <ele>572</ele>
        <time>2019-04-27T00:13:15Z</time>
      </trkpt>
      <trkpt lat="45.76471" lon="4.45595">
        <ele>574</ele>
        <time>2019-04-27T00:14:15Z</time>
      </trkpt>
      <trkpt lat="45.76459" lon="4.45596">
        <ele>576</ele>
        <time>2019-04-27T00:15:15Z</time>
      </trkpt>
      <trkpt lat="45.76449" lon="4.45602">
        <ele>578</ele>
        <time>2019-04-27T00:16:15Z</time>
      </trkpt>
      <trkpt lat="45.76438" lon="4.45695">
        <ele>578</ele>
        <time>2019-04-27T00:17:15Z</time>
      </trkpt>
      <trkpt lat="45.76433" lon="4.45714">
        <ele>578</ele>
        <time>2019-04-27T00:18:15Z</time>
      </trkpt>
      <trkpt lat="45.76425" lon="4.45723">
        <ele>580</ele>
        <time>2019-04-27T00:19:15Z</time>
      </trkpt>
      <trkpt lat="45.76396" lon="4.4573">
        <ele>585</ele>
        <time>2019-04-27T00:20:15Z</time>
      </trkpt>
      <trkpt lat="45.76375" lon="4.45731">
        <ele>588</ele>
        <time>2019-04-27T00:21:15Z</time>
      </trkpt>
      <trkpt lat="45.76346" lon="4.45702">
        <ele>594</ele>
        <time>2019-04-27T00:22:15Z</time>
      </trkpt>
      <trkpt lat="45.76329" lon="4.45692">
        <ele>597</ele>
        <time>2019-04-27T00:23:15Z</time>
      </trkpt>
      <trkpt lat="45.76298" lon="4.45688">
        <ele>600</ele>
        <time>2019-04-27T00:24:15Z</time>
      </trkpt>
      <trkpt lat="45.76285" lon="4.45681">
        <ele>601</ele>
        <time>2019-04-27T00:25:15Z</time>
      </trkpt>
      <trkpt lat="45.76266" lon="4.45675">
        <ele>602</ele>
        <time>2019-04-27T00:26:15Z</time>
      </trkpt>
      <trkpt lat="45.76224" lon="4.45647">
        <ele>601</ele>
        <time>2019-04-27T00:27:15Z</time>
      </trkpt>
      <trkpt lat="45.76242" lon="4.45593">
        <ele>607</ele>
        <time>2019-04-27T00:28:15Z</time>
      </trkpt>
      <trkpt lat="45.76254" lon="4.45567">
        <ele>610</ele>
        <time>2019-04-27T00:29:15Z</time>
      </trkpt>
      <trkpt lat="45.76274" lon="4.45502">
        <ele>617</ele>
        <time>2019-04-27T00:30:15Z</time>
      </trkpt>
      <trkpt lat="45.76274" lon="4.45486">
        <ele>618</ele>
        <time>2019-04-27T00:31:15Z</time>
      </trkpt>
      <trkpt lat="45.76279" lon="4.45459">
        <ele>621</ele>
        <time>2019-04-27T00:32:15Z</time>
      </trkpt>
      <trkpt lat="45.76284" lon="4.45447">
        <ele>622</ele>
        <time>2019-04-27T00:33:15Z</time>
      </trkpt>
      <trkpt lat="45.76294" lon="4.454">
        <ele>627</ele>
        <time>2019-04-27T00:34:15Z</time>
      </trkpt>
      <trkpt lat="45.76306" lon="4.45371">
        <ele>630</ele>
        <time>2019-04-27T00:35:15Z</time>
      </trkpt>
      <trkpt lat="45.76358" lon="4.45303">
        <ele>636</ele>
        <time>2019-04-27T00:36:15Z</time>
      </trkpt>
      <trkpt lat="45.76405" lon="4.45197">
        <ele>639</ele>
        <time>2019-04-27T00:37:15Z</time>
      </trkpt>
      <trkpt lat="45.7641" lon="4.45092">
        <ele>646</ele>
        <time>2019-04-27T00:38:15Z</time>
      </trkpt>
      <trkpt lat="45.76407" lon="4.45071">
        <ele>650</ele>
        <time>2019-04-27T00:39:15Z</time>
      </trkpt>
      <trkpt lat="45.76389" lon="4.45038">
        <ele>658</ele>
        <time>2019-04-27T00:40:15Z</time>
      </trkpt>
      <trkpt lat="45.76365" lon="4.45014">
        <ele>664</ele>
        <time>2019-04-27T00:41:15Z</time>
      </trkpt>
      <trkpt lat="45.76311" lon="4.44995">
        <ele>665</ele>
        <time>2019-04-27T00:42:15Z</time>
      </trkpt>
      <trkpt lat="45.76244" lon="4.44963">
        <ele>668</ele>
        <time>2019-04-27T00:43:15Z</time>
      </trkpt>
      <trkpt lat="45.76218" lon="4.44919">
        <ele>677</ele>
        <time>2019-04-27T00:44:15Z</time>
      </trkpt>
      <trkpt lat="45.7619" lon="4.44842">
        <ele>686</ele>
        <time>2019-04-27T00:45:15Z</time>
      </trkpt>
      <trkpt lat="45.76175" lon="4.44788">
        <ele>688</ele>
        <time>2019-04-27T00:46:15Z</time>
      </trkpt>
      <trkpt lat="45.76163" lon="4.44763">
        <ele>688</ele>
        <time>2019-04-27T00:47:15Z</time>
      </trkpt>
      <trkpt lat="45.76041" lon="4.44554">
        <ele>679</ele>
        <time>2019-04-27T00:48:15Z</time>
      </trkpt>
      <trkpt lat="45.76063" lon="4.44487">
        <ele>679</ele>
        <time>2019-04-27T00:49:15Z</time>
      </trkpt>
      <trkpt lat="45.7605" lon="4.44462">
        <ele>677</ele>
        <time>2019-04-27T00:50:15Z</time>
      </trkpt>
      <trkpt lat="45.76042" lon="4.44455">
        <ele>676</ele>
        <time>2019-04-27T00:51:15Z</time>
      </trkpt>
      <trkpt lat="45.76042" lon="4.44446">
        <ele>675</ele>
        <time>2019-04-27T00:52:15Z</time>
      </trkpt>
      <trkpt lat="45.76051" lon="4.44419">
        <ele>675</ele>
        <time>2019-04-27T00:53:15Z</time>
      </trkpt>
      <trkpt lat="45.76066" lon="4.4439">
        <ele>675</ele>
        <time>2019-04-27T00:54:15Z</time>
      </trkpt>
      <trkpt lat="45.76073" lon="4.44369">
        <ele>675</ele>
        <time>2019-04-27T00:55:15Z</time>
      </trkpt>
      <trkpt lat="45.76081" lon="4.44309">
        <ele>675</ele>
        <time>2019-04-27T00:56:15Z</time>
      </trkpt>
      <trkpt lat="45.76084" lon="4.44234">
        <ele>675</ele>
        <time>2019-04-27T00:57:15Z</time>
      </trkpt>
      <trkpt lat="45.76027" lon="4.44182">
        <ele>671</ele>
        <time>2019-04-27T00:58:15Z</time>
      </trkpt>
      <trkpt lat="45.75976" lon="4.44097">
        <ele>668</ele>
        <time>2019-04-27T00:59:15Z</time>
      </trkpt>
      <trkpt lat="45.75962" lon="4.44069">
        <ele>667</ele>
        <time>2019-04-27T01:00:15Z</time>
      </trkpt>
      <trkpt lat="45.75855" lon="4.43822">
        <ele>659</ele>
        <time>2019-04-27T01:01:15Z</time>
      </trkpt>
      <trkpt lat="45.75848" lon="4.4382">
        <ele>658</ele>
        <time>2019-04-27T01:02:15Z</time>
      </trkpt>
      <trkpt lat="45.75796" lon="4.43876">
        <ele>658</ele>
        <time>2019-04-27T01:03:15Z</time>
      </trkpt>
      <trkpt lat="45.75787" lon="4.43939">
        <ele>659</ele>
        <time>2019-04-27T01:04:15Z</time>
      </trkpt>
      <trkpt lat="45.75735" lon="4.44043">
        <ele>656</ele>
        <time>2019-04-27T01:05:15Z</time>
      </trkpt>
      <trkpt lat="45.75655" lon="4.44039">
        <ele>652</ele>
        <time>2019-04-27T01:06:15Z</time>
      </trkpt>
      <trkpt lat="45.75642" lon="4.44045">
        <ele>654</ele>
        <time>2019-04-27T01:07:15Z</time>
      </trkpt>
      <trkpt lat="45.7563" lon="4.44044">
        <ele>655</ele>
        <time>2019-04-27T01:08:15Z</time>
      </trkpt>
      <trkpt lat="45.75618" lon="4.44035">
        <ele>656</ele>
        <time>2019-04-27T01:09:15Z</time>
      </trkpt>
      <trkpt lat="45.75607" lon="4.4402">
        <ele>657</ele>
        <time>2019-04-27T01:10:15Z</time>
      </trkpt>
      <trkpt lat="45.75582" lon="4.43996">
        <ele>658</ele>
        <time>2019-04-27T01:11:15Z</time>
      </trkpt>
      <trkpt lat="45.75556" lon="4.43976">
        <ele>657</ele>
        <time>2019-04-27T01:12:15Z</time>
      </trkpt>
      <trkpt lat="45.7553" lon="4.43964">
        <ele>657</ele>
        <time>2019-04-27T01:13:15Z</time>
      </trkpt>
      <trkpt lat="45.75511" lon="4.43967">
        <ele>659</ele>
        <time>2019-04-27T01:14:15Z</time>
      </trkpt>
      <trkpt lat="45.75462" lon="4.44053">
        <ele>661</ele>
        <time>2019-04-27T01:15:15Z</time>
      </trkpt>
      <trkpt lat="45.7544" lon="4.44082">
        <ele>661</ele>
        <time>2019-04-27T01:16:15Z</time>
      </trkpt>
      <trkpt lat="45.75432" lon="4.44097">
        <ele>661</ele>
        <time>2019-04-27T01:17:15Z</time>
      </trkpt>
      <trkpt lat="45.75416" lon="4.44135">
        <ele>660</ele>
        <time>2019-04-27T01:18:15Z</time>
      </trkpt>
      <trkpt lat="45.75402" lon="4.44182">
        <ele>658</ele>
        <time>2019-04-27T01:19:15Z</time>
      </trkpt>
      <trkpt lat="45.75378" lon="4.44246">
        <ele>656</ele>
        <time>2019-04-27T01:20:15Z</time>
      </trkpt>
      <trkpt lat="45.75372" lon="4.44253">
        <ele>656</ele>
        <time>2019-04-27T01:21:15Z</time>
      </trkpt>
      <trkpt lat="45.75368" lon="4.44357">
        <ele>660</ele>
        <time>2019-04-27T01:22:15Z</time>
      </trkpt>
      <trkpt lat="45.7535" lon="4.44574">
        <ele>668</ele>
        <time>2019-04-27T01:23:15Z</time>
      </trkpt>
      <trkpt lat="45.75354" lon="4.44608">
        <ele>668</ele>
        <time>2019-04-27T01:24:15Z</time>
      </trkpt>
      <trkpt lat="45.7535" lon="4.44619">
        <ele>668</ele>
        <time>2019-04-27T01:25:15Z</time>
      </trkpt>
      <trkpt lat="45.75328" lon="4.4465">
        <ele>667</ele>
        <time>2019-04-27T01:26:15Z</time>
      </trkpt>
      <trkpt lat="45.75298" lon="4.44719">
        <ele>665</ele>
        <time>2019-04-27T01:27:15Z</time>
      </trkpt>
      <trkpt lat="45.75295" lon="4.44722">
        <ele>665</ele>
        <time>2019-04-27T01:28:15Z</time>
      </trkpt>
      <trkpt lat="45.75287" lon="4.44721">
        <ele>665</ele>
        <time>2019-04-27T01:29:15Z</time>
      </trkpt>
      <trkpt lat="45.7526" lon="4.44698">
        <ele>666</ele>
        <time>2019-04-27T01:30:15Z</time>
      </trkpt>
      <trkpt lat="45.75229" lon="4.44698">
        <ele>665</ele>
        <time>2019-04-27T01:31:15Z</time>
      </trkpt>
      <trkpt lat="45.7519" lon="4.44691">
        <ele>662</ele>
        <time>2019-04-27T01:32:15Z</time>
      </trkpt>
      <trkpt lat="45.75167" lon="4.44691">
        <ele>661</ele>
        <time>2019-04-27T01:33:15Z</time>
      </trkpt>
      <trkpt lat="45.75121" lon="4.44709">
        <ele>660</ele>
        <time>2019-04-27T01:34:15Z</time>
      </trkpt>
      <trkpt lat="45.75112" lon="4.44708">
        <ele>660</ele>
        <time>2019-04-27T01:35:15Z</time>
      </trkpt>
      <trkpt lat="45.75095" lon="4.44696">
        <ele>659</ele>
        <time>2019-04-27T01:36:15Z</time>
      </trkpt>
      <trkpt lat="45.75077" lon="4.44674">
        <ele>658</ele>
        <time>2019-04-27T01:37:15Z</time>
      </trkpt>
      <trkpt lat="45.75034" lon="4.44632">
        <ele>658</ele>
        <time>2019-04-27T01:38:15Z</time>
      </trkpt>
      <trkpt lat="45.74999" lon="4.44607">
        <ele>659</ele>
        <time>2019-04-27T01:39:15Z</time>
      </trkpt>
      <trkpt lat="45.74984" lon="4.44599">
        <ele>658</ele>
        <time>2019-04-27T01:40:15Z</time>
      </trkpt>
      <trkpt lat="45.74945" lon="4.44585">
        <ele>659</ele>
        <time>2019-04-27T01:41:15Z</time>
      </trkpt>
      <trkpt lat="45.74927" lon="4.4453">
        <ele>659</ele>
        <time>2019-04-27T01:42:15Z</time>
      </trkpt>
      <trkpt lat="45.74905" lon="4.44479">
        <ele>658</ele>
        <time>2019-04-27T01:43:15Z</time>
      </trkpt>
      <trkpt lat="45.7486" lon="4.44401">
        <ele>657</ele>
        <time>2019-04-27T01:44:15Z</time>
      </trkpt>
      <trkpt lat="45.74851" lon="4.4439">
        <ele>656</ele>
        <time>2019-04-27T01:45:15Z</time>
      </trkpt>
      <trkpt lat="45.74835" lon="4.44381">
        <ele>656</ele>
        <time>2019-04-27T01:46:15Z</time>
      </trkpt>
      <trkpt lat="45.74785" lon="4.44382">
        <ele>655</ele>
        <time>2019-04-27T01:47:15Z</time>
      </trkpt>
      <trkpt lat="45.74763" lon="4.44379">
        <ele>655</ele>
        <time>2019-04-27T01:48:15Z</time>
      </trkpt>
      <trkpt lat="45.74734" lon="4.4437">
        <ele>654</ele>
        <time>2019-04-27T01:49:15Z</time>
      </trkpt>
      <trkpt lat="45.74728" lon="4.44363">
        <ele>654</ele>
        <time>2019-04-27T01:50:15Z</time>
      </trkpt>
      <trkpt lat="45.74682" lon="4.44244">
        <ele>655</ele>
        <time>2019-04-27T01:51:15Z</time>
      </trkpt>
      <trkpt lat="45.74651" lon="4.44173">
        <ele>655</ele>
        <time>2019-04-27T01:52:15Z</time>
      </trkpt>
      <trkpt lat="45.74603" lon="4.44101">
        <ele>654</ele>
        <time>2019-04-27T01:53:15Z</time>
      </trkpt>
      <trkpt lat="45.74571" lon="4.44028">
        <ele>653</ele>
        <time>2019-04-27T01:54:15Z</time>
      </trkpt>
      <trkpt lat="45.74533" lon="4.43997">
        <ele>654</ele>
        <time>2019-04-27T01:55:15Z</time>
      </trkpt>
      <trkpt lat="45.74512" lon="4.43984">
        <ele>653</ele>
        <time>2019-04-27T01:56:15Z</time>
      </trkpt>
      <trkpt lat="45.7447" lon="4.43968">
        <ele>652</ele>
        <time>2019-04-27T01:57:15Z</time>
      </trkpt>
      <trkpt lat="45.74416" lon="4.43953">
        <ele>651</ele>
        <time>2019-04-27T01:58:15Z</time>
      </trkpt>
      <trkpt lat="45.74371" lon="4.43929">
        <ele>651</ele>
        <time>2019-04-27T01:59:15Z</time>
      </trkpt>
      <trkpt lat="45.74356" lon="4.43918">
        <ele>651</ele>
        <time>2019-04-27T02:00:15Z</time>
      </trkpt>
      <trkpt lat="45.74337" lon="4.43898">
        <ele>650</ele>
        <time>2019-04-27T02:01:15Z</time>
      </trkpt>
      <trkpt lat="45.74307" lon="4.43859">
        <ele>649</ele>
        <time>2019-04-27T02:02:15Z</time>
      </trkpt>
      <trkpt lat="45.74225" lon="4.43778">
        <ele>649</ele>
        <time>2019-04-27T02:03:15Z</time>
      </trkpt>
      <trkpt lat="45.7419" lon="4.43733">
        <ele>650</ele>
        <time>2019-04-27T02:04:15Z</time>
      </trkpt>
      <trkpt lat="45.74176" lon="4.43701">
        <ele>648</ele>
        <time>2019-04-27T02:05:15Z</time>
      </trkpt>
      <trkpt lat="45.74128" lon="4.4364">
        <ele>645</ele>
        <time>2019-04-27T02:06:15Z</time>
      </trkpt>
      <trkpt lat="45.74109" lon="4.43589">
        <ele>643</ele>
        <time>2019-04-27T02:07:15Z</time>
      </trkpt>
      <trkpt lat="45.74062" lon="4.43535">
        <ele>641</ele>
        <time>2019-04-27T02:08:15Z</time>
      </trkpt>
      <trkpt lat="45.74048" lon="4.43514">
        <ele>641</ele>
        <time>2019-04-27T02:09:15Z</time>
      </trkpt>
      <trkpt lat="45.74041" lon="4.43512">
        <ele>641</ele>
        <time>2019-04-27T02:10:15Z</time>
      </trkpt>
      <trkpt lat="45.73956" lon="4.43414">
        <ele>641</ele>
        <time>2019-04-27T02:11:15Z</time>
      </trkpt>
      <trkpt lat="45.73911" lon="4.43376">
        <ele>646</ele>
        <time>2019-04-27T02:12:15Z</time>
      </trkpt>
      <trkpt lat="45.73864" lon="4.43353">
        <ele>644</ele>
        <time>2019-04-27T02:13:15Z</time>
      </trkpt>
      <trkpt lat="45.73809" lon="4.43318">
        <ele>642</ele>
        <time>2019-04-27T02:14:15Z</time>
      </trkpt>
      <trkpt lat="45.73716" lon="4.43279">
        <ele>631</ele>
        <time>2019-04-27T02:15:15Z</time>
      </trkpt>
      <trkpt lat="45.73674" lon="4.43248">
        <ele>626</ele>
        <time>2019-04-27T02:16:15Z</time>
      </trkpt>
      <trkpt lat="45.73653" lon="4.43226">
        <ele>623</ele>
        <time>2019-04-27T02:17:15Z</time>
      </trkpt>
      <trkpt lat="45.7364" lon="4.43224">
        <ele>622</ele>
        <time>2019-04-27T02:18:15Z</time>
      </trkpt>
      <trkpt lat="45.73632" lon="4.43232">
        <ele>621</ele>
        <time>2019-04-27T02:19:15Z</time>
      </trkpt>
      <trkpt lat="45.7362" lon="4.43236">
        <ele>619</ele>
        <time>2019-04-27T02:20:15Z</time>
      </trkpt>
      <trkpt lat="45.73581" lon="4.43239">
        <ele>615</ele>
        <time>2019-04-27T02:21:15Z</time>
      </trkpt>
      <trkpt lat="45.73514" lon="4.43238">
        <ele>609</ele>
        <time>2019-04-27T02:22:15Z</time>
      </trkpt>
      <trkpt lat="45.73483" lon="4.43259">
        <ele>607</ele>
        <time>2019-04-27T02:23:15Z</time>
      </trkpt>
      <trkpt lat="45.73471" lon="4.43263">
        <ele>606</ele>
        <time>2019-04-27T02:24:15Z</time>
      </trkpt>
      <trkpt lat="45.73421" lon="4.43302">
        <ele>604</ele>
        <time>2019-04-27T02:25:15Z</time>
      </trkpt>
      <trkpt lat="45.73402" lon="4.43297">
        <ele>605</ele>
        <time>2019-04-27T02:26:15Z</time>
      </trkpt>
      <trkpt lat="45.73374" lon="4.43278">
        <ele>606</ele>
        <time>2019-04-27T02:27:15Z</time>
      </trkpt>
      <trkpt lat="45.73352" lon="4.43258">
        <ele>607</ele>
        <time>2019-04-27T02:28:15Z</time>
      </trkpt>
      <trkpt lat="45.73292" lon="4.43136">
        <ele>610</ele>
        <time>2019-04-27T02:29:15Z</time>
      </trkpt>
      <trkpt lat="45.73271" lon="4.43109">
        <ele>610</ele>
        <time>2019-04-27T02:30:15Z</time>
      </trkpt>
      <trkpt lat="45.73198" lon="4.4306">
        <ele>606</ele>
        <time>2019-04-27T02:31:15Z</time>
      </trkpt>
      <trkpt lat="45.73157" lon="4.43058">
        <ele>606</ele>
        <time>2019-04-27T02:32:15Z</time>
      </trkpt>
      <trkpt lat="45.73155" lon="4.43031">
        <ele>604</ele>
        <time>2019-04-27T02:33:15Z</time>
      </trkpt>
      <trkpt lat="45.7316" lon="4.4298">
        <ele>601</ele>
        <time>2019-04-27T02:34:15Z</time>
      </trkpt>
      <trkpt lat="45.7318" lon="4.42955">
        <ele>599</ele>
        <time>2019-04-27T02:35:15Z</time>
      </trkpt>
      <trkpt lat="45.73214" lon="4.42929">
        <ele>597</ele>
        <time>2019-04-27T02:36:15Z</time>
      </trkpt>
      <trkpt lat="45.73232" lon="4.429">
        <ele>596</ele>
        <time>2019-04-27T02:37:15Z</time>
      </trkpt>
      <trkpt lat="45.73228" lon="4.42856">
        <ele>595</ele>
        <time>2019-04-27T02:38:15Z</time>
      </trkpt>
      <trkpt lat="45.73203" lon="4.42793">
        <ele>595</ele>
        <time>2019-04-27T02:39:15Z</time>
      </trkpt>
      <trkpt lat="45.7319" lon="4.42772">
        <ele>595</ele>
        <time>2019-04-27T02:40:15Z</time>
      </trkpt>
      <trkpt lat="45.73164" lon="4.42749">
        <ele>593</ele>
        <time>2019-04-27T02:41:15Z</time>
      </trkpt>
      <trkpt lat="45.73139" lon="4.42721">
        <ele>594</ele>
        <time>2019-04-27T02:42:15Z</time>
      </trkpt>
      <trkpt lat="45.73119" lon="4.42679">
        <ele>594</ele>
        <time>2019-04-27T02:43:15Z</time>
      </trkpt>
      <trkpt lat="45.73102" lon="4.42631">
        <ele>594</ele>
        <time>2019-04-27T02:44:15Z</time>
      </trkpt>
      <trkpt lat="45.731" lon="4.42659">
        <ele>593</ele>
        <time>2019-04-27T02:45:15Z</time>
      </trkpt>
      <trkpt lat="45.73083" lon="4.42675">
        <ele>592</ele>
        <time>2019-04-27T02:46:15Z</time>
      </trkpt>
      <trkpt lat="45.73043" lon="4.42692">
        <ele>592</ele>
        <time>2019-04-27T02:47:15Z</time>
      </trkpt>
      <trkpt lat="45.73023" lon="4.42713">
        <ele>592</ele>
        <time>2019-04-27T02:48:15Z</time>
      </trkpt>
      <trkpt lat="45.72995" lon="4.42767">
        <ele>595</ele>
        <time>2019-04-27T02:49:15Z</time>
      </trkpt>
      <trkpt lat="45.72967" lon="4.42798">
        <ele>599</ele>
        <time>2019-04-27T02:50:15Z</time>
      </trkpt>
      <trkpt lat="45.7294" lon="4.42813">
        <ele>601</ele>
        <time>2019-04-27T02:51:15Z</time>
      </trkpt>
      <trkpt lat="45.72921" lon="4.42817">
        <ele>601</ele>
        <time>2019-04-27T02:52:15Z</time>
      </trkpt>
      <trkpt lat="45.729" lon="4.42808">
        <ele>603</ele>
        <time>2019-04-27T02:53:15Z</time>
      </trkpt>
      <trkpt lat="45.72875" lon="4.42808">
        <ele>606</ele>
        <time>2019-04-27T02:54:15Z</time>
      </trkpt>
      <trkpt lat="45.72811" lon="4.4282">
        <ele>613</ele>
        <time>2019-04-27T02:55:15Z</time>
      </trkpt>
      <trkpt lat="45.72795" lon="4.42788">
        <ele>614</ele>
        <time>2019-04-27T02:56:15Z</time>
      </trkpt>
      <trkpt lat="45.72754" lon="4.42815">
        <ele>620</ele>
        <time>2019-04-27T02:57:15Z</time>
      </trkpt>
      <trkpt lat="45.72748" lon="4.42789">
        <ele>619</ele>
        <time>2019-04-27T02:58:15Z</time>
      </trkpt>
      <trkpt lat="45.72716" lon="4.42734">
        <ele>620</ele>
        <time>2019-04-27T02:59:15Z</time>
      </trkpt>
      <trkpt lat="45.72713" lon="4.42711">
        <ele>618</ele>
        <time>2019-04-27T03:00:15Z</time>
      </trkpt>
      <trkpt lat="45.72724" lon="4.42678">
        <ele>613</ele>
        <time>2019-04-27T03:01:15Z</time>
      </trkpt>
      <trkpt lat="45.72728" lon="4.42638">
        <ele>609</ele>
        <time>2019-04-27T03:02:15Z</time>
      </trkpt>
      <trkpt lat="45.72716" lon="4.42601">
        <ele>608</ele>
        <time>2019-04-27T03:03:15Z</time>
      </trkpt>
      <trkpt lat="45.72698" lon="4.42566">
        <ele>608</ele>
        <time>2019-04-27T03:04:15Z</time>
      </trkpt>
      <trkpt lat="45.72698" lon="4.42553">
        <ele>607</ele>
        <time>2019-04-27T03:05:15Z</time>
      </trkpt>
      <trkpt lat="45.72708" lon="4.42538">
        <ele>605</ele>
        <time>2019-04-27T03:06:15Z</time>
      </trkpt>
      <trkpt lat="45.72729" lon="4.4249">
        <ele>603</ele>
        <time>2019-04-27T03:07:15Z</time>
      </trkpt>
      <trkpt lat="45.72756" lon="4.4247">
        <ele>604</ele>
        <time>2019-04-27T03:08:15Z</time>
      </trkpt>
      <trkpt lat="45.7277" lon="4.42415">
        <ele>606</ele>
        <time>2019-04-27T03:09:15Z</time>
      </trkpt>
      <trkpt lat="45.72783" lon="4.42339">
        <ele>610</ele>
        <time>2019-04-27T03:10:15Z</time>
      </trkpt>
      <trkpt lat="45.72781" lon="4.42265">
        <ele>614</ele>
        <time>2019-04-27T03:11:15Z</time>
      </trkpt>
      <trkpt lat="45.72759" lon="4.42186">
        <ele>618</ele>
        <time>2019-04-27T03:12:15Z</time>
      </trkpt>
      <trkpt lat="45.72742" lon="4.42152">
        <ele>621</ele>
        <time>2019-04-27T03:13:15Z</time>
      </trkpt>
      <trkpt lat="45.72724" lon="4.42137">
        <ele>623</ele>
        <time>2019-04-27T03:14:15Z</time>
      </trkpt>
      <trkpt lat="45.7269" lon="4.42125">
        <ele>626</ele>
        <time>2019-04-27T03:15:15Z</time>
      </trkpt>
      <trkpt lat="45.72608" lon="4.42157">
        <ele>635</ele>
        <time>2019-04-27T03:16:15Z</time>
      </trkpt>
      <trkpt lat="45.72564" lon="4.42185">
        <ele>638</ele>
        <time>2019-04-27T03:17:15Z</time>
      </trkpt>
      <trkpt lat="45.72505" lon="4.42237">
        <ele>636</ele>
        <time>2019-04-27T03:18:15Z</time>
      </trkpt>
      <trkpt lat="45.72467" lon="4.42276">
        <ele>636</ele>
        <time>2019-04-27T03:19:15Z</time>
      </trkpt>
      <trkpt lat="45.72405" lon="4.42325">
        <ele>633</ele>
        <time>2019-04-27T03:20:15Z</time>
      </trkpt>
      <trkpt lat="45.72392" lon="4.42276">
        <ele>631</ele>
        <time>2019-04-27T03:21:15Z</time>
      </trkpt>
      <trkpt lat="45.72352" lon="4.42148">
        <ele>626</ele>
        <time>2019-04-27T03:22:15Z</time>
      </trkpt>
      <trkpt lat="45.72346" lon="4.42111">
        <ele>626</ele>
        <time>2019-04-27T03:23:15Z</time>
      </trkpt>
      <trkpt lat="45.72338" lon="4.42102">
        <ele>626</ele>
        <time>2019-04-27T03:24:15Z</time>
      </trkpt>
      <trkpt lat="45.72322" lon="4.42026">
        <ele>627</ele>
        <time>2019-04-27T03:25:15Z</time>
      </trkpt>
      <trkpt lat="45.7233" lon="4.4198">
        <ele>627</ele>
        <time>2019-04-27T03:26:15Z</time>
      </trkpt>
      <trkpt lat="45.72317" lon="4.41966">
        <ele>631</ele>
        <time>2019-04-27T03:27:15Z</time>
      </trkpt>
      <trkpt lat="45.72312" lon="4.41893">
        <ele>638</ele>
        <time>2019-04-27T03:28:15Z</time>
      </trkpt>
      <trkpt lat="45.72313" lon="4.41877">
        <ele>640</ele>
        <time>2019-04-27T03:29:15Z</time>
      </trkpt>
      <trkpt lat="45.72341" lon="4.41833">
        <ele>639</ele>
        <time>2019-04-27T03:30:15Z</time>
      </trkpt>
      <trkpt lat="45.72345" lon="4.41799">
        <ele>638</ele>
        <time>2019-04-27T03:31:15Z</time>
      </trkpt>
      <trkpt lat="45.72337" lon="4.41764">
        <ele>640</ele>
        <time>2019-04-27T03:32:15Z</time>
      </trkpt>
      <trkpt lat="45.72324" lon="4.41742">
        <ele>640</ele>
        <time>2019-04-27T03:33:15Z</time>
      </trkpt>
      <trkpt lat="45.72314" lon="4.41736">
        <ele>640</ele>
        <time>2019-04-27T03:34:15Z</time>
      </trkpt>
      <trkpt lat="45.72306" lon="4.4174">
        <ele>641</ele>
        <time>2019-04-27T03:35:15Z</time>
      </trkpt>
      <trkpt lat="45.72285" lon="4.41758">
        <ele>644</ele>
        <time>2019-04-27T03:36:15Z</time>
      </trkpt>
      <trkpt lat="45.7228" lon="4.41758">
        <ele>645</ele>
        <time>2019-04-27T03:37:15Z</time>
      </trkpt>
      <trkpt lat="45.72254" lon="4.41715">
        <ele>643</ele>
        <time>2019-04-27T03:38:15Z</time>
      </trkpt>
      <trkpt lat="45.72201" lon="4.41653">
        <ele>640</ele>
        <time>2019-04-27T03:39:15Z</time>
      </trkpt>
      <trkpt lat="45.72195" lon="4.41638">
        <ele>640</ele>
        <time>2019-04-27T03:40:15Z</time>
      </trkpt>
      <trkpt lat="45.72184" lon="4.41623">
        <ele>640</ele>
        <time>2019-04-27T03:41:15Z</time>
      </trkpt>
      <trkpt lat="45.72162" lon="4.41572">
        <ele>638</ele>
        <time>2019-04-27T03:42:15Z</time>
      </trkpt>
      <trkpt lat="45.72139" lon="4.41539">
        <ele>635</ele>
        <time>2019-04-27T03:43:15Z</time>
      </trkpt>
      <trkpt lat="45.72123" lon="4.41523">
        <ele>633</ele>
        <time>2019-04-27T03:44:15Z</time>
      </trkpt>
      <trkpt lat="45.72079" lon="4.41465">
        <ele>626</ele>
        <time>2019-04-27T03:45:15Z</time>
      </trkpt>
      <trkpt lat="45.72075" lon="4.4123">
        <ele>614</ele>
        <time>2019-04-27T03:46:15Z</time>
      </trkpt>
      <trkpt lat="45.72069" lon="4.4112">
        <ele>609</ele>
        <time>2019-04-27T03:47:15Z</time>
      </trkpt>
      <trkpt lat="45.72058" lon="4.41049">
        <ele>606</ele>
        <time>2019-04-27T03:48:15Z</time>
      </trkpt>
      <trkpt lat="45.72048" lon="4.40847">
        <ele>598</ele>
        <time>2019-04-27T03:49:15Z</time>
      </trkpt>
      <trkpt lat="45.72034" lon="4.40785">
        <ele>594</ele>
        <time>2019-04-27T03:50:15Z</time>
      </trkpt>
      <trkpt lat="45.72038" lon="4.40769">
        <ele>593</ele>
        <time>2019-04-27T03:51:15Z</time>
      </trkpt>
      <trkpt lat="45.72035" lon="4.40707">
        <ele>589</ele>
        <time>2019-04-27T03:52:15Z</time>
      </trkpt>
      <trkpt lat="45.72022" lon="4.40647">
        <ele>584</ele>
        <time>2019-04-27T03:53:15Z</time>
      </trkpt>
      <trkpt lat="45.72021" lon="4.40633">
        <ele>583</ele>
        <time>2019-04-27T03:54:15Z</time>
      </trkpt>
      <trkpt lat="45.72024" lon="4.40607">
        <ele>581</ele>
        <time>2019-04-27T03:55:15Z</time>
      </trkpt>
      <trkpt lat="45.72042" lon="4.40527">
        <ele>574</ele>
        <time>2019-04-27T03:56:15Z</time>
      </trkpt>
      <trkpt lat="45.72043" lon="4.40486">
        <ele>572</ele>
        <time>2019-04-27T03:57:15Z</time>
      </trkpt>
      <trkpt lat="45.72024" lon="4.40396">
        <ele>567</ele>
        <time>2019-04-27T03:58:15Z</time>
      </trkpt>
      <trkpt lat="45.71973" lon="4.40306">
        <ele>565</ele>
        <time>2019-04-27T03:59:15Z</time>
      </trkpt>
      <trkpt lat="45.71962" lon="4.40276">
        <ele>565</ele>
        <time>2019-04-27T04:00:15Z</time>
      </trkpt>
      <trkpt lat="45.71944" lon="4.40242">
        <ele>564</ele>
        <time>2019-04-27T04:01:15Z</time>
      </trkpt>
      <trkpt lat="45.71927" lon="4.40233">
        <ele>564</ele>
        <time>2019-04-27T04:02:15Z</time>
      </trkpt>
      <trkpt lat="45.71889" lon="4.40205">
        <ele>563</ele>
        <time>2019-04-27T04:03:15Z</time>
      </trkpt>
      <trkpt lat="45.71894" lon="4.40174">
        <ele>564</ele>
        <time>2019-04-27T04:04:15Z</time>
      </trkpt>
      <trkpt lat="45.71891" lon="4.40166">
        <ele>564</ele>
        <time>2019-04-27T04:05:15Z</time>
      </trkpt>
      <trkpt lat="45.71886" lon="4.40161">
        <ele>564</ele>
        <time>2019-04-27T04:06:15Z</time>
      </trkpt>
      <trkpt lat="45.71838" lon="4.40144">
        <ele>565</ele>
        <time>2019-04-27T04:07:15Z</time>
      </trkpt>
      <trkpt lat="45.71817" lon="4.4014">
        <ele>564</ele>
        <time>2019-04-27T04:08:15Z</time>
      </trkpt>
      <trkpt lat="45.71795" lon="4.40144">
        <ele>564</ele>
        <time>2019-04-27T04:09:15Z</time>
      </trkpt>
      <trkpt lat="45.71765" lon="4.40142">
        <ele>563</ele>
        <time>2019-04-27T04:10:15Z</time>
      </trkpt>
      <trkpt lat="45.71717" lon="4.40107">
        <ele>565</ele>
        <time>2019-04-27T04:11:15Z</time>
      </trkpt>
      <trkpt lat="45.71701" lon="4.40089">
        <ele>567</ele>
        <time>2019-04-27T04:12:15Z</time>
      </trkpt>
      <trkpt lat="45.71688" lon="4.40062">
        <ele>568</ele>
        <time>2019-04-27T04:13:15Z</time>
      </trkpt>
      <trkpt lat="45.71641" lon="4.39945">
        <ele>577</ele>
        <time>2019-04-27T04:14:15Z</time>
      </trkpt>
      <trkpt lat="45.71628" lon="4.39899">
        <ele>579</ele>
        <time>2019-04-27T04:15:15Z</time>
      </trkpt>
      <trkpt lat="45.71572" lon="4.39781">
        <ele>590</ele>
        <time>2019-04-27T04:16:15Z</time>
      </trkpt>
      <trkpt lat="45.71569" lon="4.39773">
        <ele>590</ele>
        <time>2019-04-27T04:17:15Z</time>
      </trkpt>
      <trkpt lat="45.71572" lon="4.39748">
        <ele>592</ele>
        <time>2019-04-27T04:18:15Z</time>
      </trkpt>
      <trkpt lat="45.71568" lon="4.39735">
        <ele>592</ele>
        <time>2019-04-27T04:19:15Z</time>
      </trkpt>
      <trkpt lat="45.71563" lon="4.39727">
        <ele>593</ele>
        <time>2019-04-27T04:20:15Z</time>
      </trkpt>
      <trkpt lat="45.71556" lon="4.39725">
        <ele>593</ele>
        <time>2019-04-27T04:21:15Z</time>
      </trkpt>
      <trkpt lat="45.71523" lon="4.39725">
        <ele>594</ele>
        <time>2019-04-27T04:22:15Z</time>
      </trkpt>
      <trkpt lat="45.71516" lon="4.39718">
        <ele>594</ele>
        <time>2019-04-27T04:23:15Z</time>
      </trkpt>
      <trkpt lat="45.71511" lon="4.39703">
        <ele>594</ele>
        <time>2019-04-27T04:24:15Z</time>
      </trkpt>
      <trkpt lat="45.71507" lon="4.39701">
        <ele>595</ele>
        <time>2019-04-27T04:25:15Z</time>
      </trkpt>
      <trkpt lat="45.71502" lon="4.39703">
        <ele>595</ele>
        <time>2019-04-27T04:26:15Z</time>
      </trkpt>
      <trkpt lat="45.71465" lon="4.3974">
        <ele>593</ele>
        <time>2019-04-27T04:27:15Z</time>
      </trkpt>
      <trkpt lat="45.71418" lon="4.39778">
        <ele>589</ele>
        <time>2019-04-27T04:28:15Z</time>
      </trkpt>
      <trkpt lat="45.7138" lon="4.39821">
        <ele>583</ele>
        <time>2019-04-27T04:29:15Z</time>
      </trkpt>
      <trkpt lat="45.71369" lon="4.39842">
        <ele>580</ele>
        <time>2019-04-27T04:30:15Z</time>
      </trkpt>
      <trkpt lat="45.71347" lon="4.39873">
        <ele>577</ele>
        <time>2019-04-27T04:31:15Z</time>
      </trkpt>
      <trkpt lat="45.71284" lon="4.39945">
        <ele>570</ele>
        <time>2019-04-27T04:32:15Z</time>
      </trkpt>
      <trkpt lat="45.71247" lon="4.40007">
        <ele>567</ele>
        <time>2019-04-27T04:33:15Z</time>
      </trkpt>
      <trkpt lat="45.71186" lon="4.40121">
        <ele>560</ele>
        <time>2019-04-27T04:34:15Z</time>
      </trkpt>
      <trkpt lat="45.71169" lon="4.40139">
        <ele>559</ele>
        <time>2019-04-27T04:35:15Z</time>
      </trkpt>
      <trkpt lat="45.71131" lon="4.40171">
        <ele>559</ele>
        <time>2019-04-27T04:36:15Z</time>
      </trkpt>
      <trkpt lat="45.71084" lon="4.40236">
        <ele>559</ele>
        <time>2019-04-27T04:37:15Z</time>
      </trkpt>
      <trkpt lat="45.71074" lon="4.40244">
        <ele>559</ele>
        <time>2019-04-27T04:38:15Z</time>
      </trkpt>
      <trkpt lat="45.71066" lon="4.40288">
        <ele>559</ele>
        <time>2019-04-27T04:39:15Z</time>
      </trkpt>
      <trkpt lat="45.71051" lon="4.4033">
        <ele>558</ele>
        <time>2019-04-27T04:40:15Z</time>
      </trkpt>
      <trkpt lat="45.71033" lon="4.40367">
        <ele>558</ele>
        <time>2019-04-27T04:41:15Z</time>
      </trkpt>
      <trkpt lat="45.71023" lon="4.40378">
        <ele>557</ele>
        <time>2019-04-27T04:42:15Z</time>
      </trkpt>
      <trkpt lat="45.70991" lon="4.40391">
        <ele>556</ele>
        <time>2019-04-27T04:43:15Z</time>
      </trkpt>
      <trkpt lat="45.70983" lon="4.40408">
        <ele>556</ele>
        <time>2019-04-27T04:44:15Z</time>
      </trkpt>
      <trkpt lat="45.70975" lon="4.40411">
        <ele>555</ele>
        <time>2019-04-27T04:45:15Z</time>
      </trkpt>
      <trkpt lat="45.70959" lon="4.40402">
        <ele>555</ele>
        <time>2019-04-27T04:46:15Z</time>
      </trkpt>
      <trkpt lat="45.70945" lon="4.40399">
        <ele>555</ele>
        <time>2019-04-27T04:47:15Z</time>
      </trkpt>
      <trkpt lat="45.70932" lon="4.404">
        <ele>555</ele>
        <time>2019-04-27T04:48:15Z</time>
      </trkpt>
      <trkpt lat="45.70908" lon="4.40413">
        <ele>554</ele>
        <time>2019-04-27T04:49:15Z</time>
      </trkpt>
      <trkpt lat="45.70897" lon="4.40435">
        <ele>555</ele>
        <time>2019-04-27T04:50:15Z</time>
      </trkpt>
      <trkpt lat="45.70909" lon="4.40442">
        <ele>556</ele>
        <time>2019-04-27T04:51:15Z</time>
      </trkpt>
      <trkpt lat="45.70915" lon="4.40458">
        <ele>557</ele>
        <time>2019-04-27T04:52:15Z</time>
      </trkpt>
      <trkpt lat="45.70923" lon="4.40499">
        <ele>561</ele>
        <time>2019-04-27T04:53:15Z</time>
      </trkpt>
      <trkpt lat="45.70856" lon="4.40561">
        <ele>567</ele>
        <time>2019-04-27T04:54:15Z</time>
      </trkpt>
      <trkpt lat="45.70823" lon="4.40601">
        <ele>570</ele>
        <time>2019-04-27T04:55:15Z</time>
      </trkpt>
      <trkpt lat="45.70722" lon="4.40751">
        <ele>581</ele>
        <time>2019-04-27T04:56:15Z</time>
      </trkpt>
      <trkpt lat="45.70678" lon="4.40801">
        <ele>582</ele>
        <time>2019-04-27T04:57:15Z</time>
      </trkpt>
      <trkpt lat="45.70635" lon="4.40838">
        <ele>582</ele>
        <time>2019-04-27T04:58:15Z</time>
      </trkpt>
      <trkpt lat="45.70583" lon="4.40873">
        <ele>579</ele>
        <time>2019-04-27T04:59:15Z</time>
      </trkpt>
      <trkpt lat="45.70513" lon="4.40901">
        <ele>575</ele>
        <time>2019-04-27T05:00:15Z</time>
      </trkpt>
      <trkpt lat="45.70497" lon="4.40899">
        <ele>574</ele>
        <time>2019-04-27T05:01:15Z</time>
      </trkpt>
      <trkpt lat="45.70437" lon="4.4086">
        <ele>571</ele>
        <time>2019-04-27T05:02:15Z</time>
      </trkpt>
      <trkpt lat="45.70388" lon="4.40841">
        <ele>572</ele>
        <time>2019-04-27T05:03:15Z</time>
      </trkpt>
      <trkpt lat="45.70383" lon="4.40844">
        <ele>572</ele>
        <time>2019-04-27T05:04:15Z</time>
      </trkpt>
      <trkpt lat="45.70316" lon="4.40934">
        <ele>570</ele>
        <time>2019-04-27T05:05:15Z</time>
      </trkpt>
      <trkpt lat="45.70253" lon="4.41063">
        <ele>566</ele>
        <time>2019-04-27T05:06:15Z</time>
      </trkpt>
      <trkpt lat="45.70237" lon="4.41083">
        <ele>565</ele>
        <time>2019-04-27T05:07:15Z</time>
      </trkpt>
      <trkpt lat="45.70212" lon="4.41093">
        <ele>568</ele>
        <time>2019-04-27T05:08:15Z</time>
      </trkpt>
      <trkpt lat="45.7019" lon="4.41121">
        <ele>567</ele>
        <time>2019-04-27T05:09:15Z</time>
      </trkpt>
      <trkpt lat="45.70127" lon="4.41304">
        <ele>541</ele>
        <time>2019-04-27T05:10:15Z</time>
      </trkpt>
      <trkpt lat="45.70078" lon="4.41411">
        <ele>524</ele>
        <time>2019-04-27T05:11:15Z</time>
      </trkpt>
      <trkpt lat="45.7005" lon="4.41437">
        <ele>521</ele>
        <time>2019-04-27T05:12:15Z</time>
      </trkpt>
      <trkpt lat="45.70027" lon="4.41439">
        <ele>523</ele>
        <time>2019-04-27T05:13:15Z</time>
      </trkpt>
      <trkpt lat="45.70022" lon="4.41446">
        <ele>522</ele>
        <time>2019-04-27T05:14:15Z</time>
      </trkpt>
      <trkpt lat="45.70015" lon="4.41466">
        <ele>517</ele>
        <time>2019-04-27T05:15:15Z</time>
      </trkpt>
      <trkpt lat="45.69984" lon="4.41508">
        <ele>508</ele>
        <time>2019-04-27T05:16:15Z</time>
      </trkpt>
      <trkpt lat="45.69974" lon="4.41517">
        <ele>507</ele>
        <time>2019-04-27T05:17:15Z</time>
      </trkpt>
      <trkpt lat="45.69945" lon="4.41566">
        <ele>503</ele>
        <time>2019-04-27T05:18:15Z</time>
      </trkpt>
      <trkpt lat="45.69933" lon="4.41596">
        <ele>501</ele>
        <time>2019-04-27T05:19:15Z</time>
      </trkpt>
      <trkpt lat="45.69933" lon="4.41604">
        <ele>501</ele>
        <time>2019-04-27T05:20:15Z</time>
      </trkpt>
      <trkpt lat="45.69939" lon="4.41614">
        <ele>501</ele>
        <time>2019-04-27T05:21:15Z</time>
      </trkpt>
      <trkpt lat="45.69937" lon="4.41619">
        <ele>501</ele>
        <time>2019-04-27T05:22:15Z</time>
      </trkpt>
      <trkpt lat="45.69839" lon="4.41695">
        <ele>496</ele>
        <time>2019-04-27T05:23:15Z</time>
      </trkpt>
      <trkpt lat="45.69817" lon="4.41718">
        <ele>497</ele>
        <time>2019-04-27T05:24:15Z</time>
      </trkpt>
      <trkpt lat="45.69793" lon="4.4175">
        <ele>498</ele>
        <time>2019-04-27T05:25:15Z</time>
      </trkpt>
      <trkpt lat="45.69778" lon="4.41785">
        <ele>500</ele>
        <time>2019-04-27T05:26:15Z</time>
      </trkpt>
      <trkpt lat="45.69755" lon="4.41817">
        <ele>499</ele>
        <time>2019-04-27T05:27:15Z</time>
      </trkpt>
      <trkpt lat="45.69733" lon="4.41855">
        <ele>499</ele>
        <time>2019-04-27T05:28:15Z</time>
      </trkpt>
      <trkpt lat="45.69665" lon="4.41909">
        <ele>494</ele>
        <time>2019-04-27T05:29:15Z</time>
      </trkpt>
      <trkpt lat="45.69648" lon="4.4193">
        <ele>492</ele>
        <time>2019-04-27T05:30:15Z</time>
      </trkpt>
      <trkpt lat="45.69626" lon="4.41923">
        <ele>489</ele>
        <time>2019-04-27T05:31:15Z</time>
      </trkpt>
      <trkpt lat="45.69599" lon="4.41938">
        <ele>485</ele>
        <time>2019-04-27T05:32:15Z</time>
      </trkpt>
      <trkpt lat="45.69576" lon="4.41956">
        <ele>483</ele>
        <time>2019-04-27T05:33:15Z</time>
      </trkpt>
      <trkpt lat="45.69567" lon="4.41964">
        <ele>483</ele>
        <time>2019-04-27T05:34:15Z</time>
      </trkpt>
      <trkpt lat="45.69549" lon="4.42002">
        <ele>482</ele>
        <time>2019-04-27T05:35:15Z</time>
      </trkpt>
      <trkpt lat="45.69546" lon="4.42019">
        <ele>481</ele>
        <time>2019-04-27T05:36:15Z</time>
      </trkpt>
      <trkpt lat="45.69541" lon="4.42022">
        <ele>481</ele>
        <time>2019-04-27T05:37:15Z</time>
      </trkpt>
      <trkpt lat="45.69533" lon="4.4202">
        <ele>481</ele>
        <time>2019-04-27T05:38:15Z</time>
      </trkpt>
      <trkpt lat="45.69504" lon="4.42031">
        <ele>479</ele>
        <time>2019-04-27T05:39:15Z</time>
      </trkpt>
      <trkpt lat="45.69485" lon="4.42058">
        <ele>478</ele>
        <time>2019-04-27T05:40:15Z</time>
      </trkpt>
      <trkpt lat="45.69431" lon="4.42057">
        <ele>483</ele>
        <time>2019-04-27T05:41:15Z</time>
      </trkpt>
      <trkpt lat="45.69365" lon="4.42067">
        <ele>487</ele>
        <time>2019-04-27T05:42:15Z</time>
      </trkpt>
      <trkpt lat="45.69322" lon="4.42062">
        <ele>490</ele>
        <time>2019-04-27T05:43:15Z</time>
      </trkpt>
      <trkpt lat="45.69303" lon="4.42054">
        <ele>490</ele>
        <time>2019-04-27T05:44:15Z</time>
      </trkpt>
      <trkpt lat="45.69252" lon="4.4204">
        <ele>492</ele>
        <time>2019-04-27T05:45:15Z</time>
      </trkpt>
      <trkpt lat="45.69221" lon="4.42039">
        <ele>490</ele>
        <time>2019-04-27T05:46:15Z</time>
      </trkpt>
      <trkpt lat="45.69227" lon="4.42113">
        <ele>487</ele>
        <time>2019-04-27T05:47:15Z</time>
      </trkpt>
      <trkpt lat="45.69227" lon="4.42139">
        <ele>486</ele>
        <time>2019-04-27T05:48:15Z</time>
      </trkpt>
      <trkpt lat="45.69226" lon="4.42157">
        <ele>485</ele>
        <time>2019-04-27T05:49:15Z</time>
      </trkpt>
      <trkpt lat="45.6922" lon="4.4218">
        <ele>484</ele>
        <time>2019-04-27T05:50:15Z</time>
      </trkpt>
      <trkpt lat="45.69215" lon="4.42183">
        <ele>484</ele>
        <time>2019-04-27T05:51:15Z</time>
      </trkpt>
      <trkpt lat="45.69182" lon="4.42184">
        <ele>483</ele>
        <time>2019-04-27T05:52:15Z</time>
      </trkpt>
      <trkpt lat="45.69174" lon="4.42187">
        <ele>483</ele>
        <time>2019-04-27T05:53:15Z</time>
      </trkpt>
      <trkpt lat="45.69155" lon="4.42199">
        <ele>481</ele>
        <time>2019-04-27T05:54:15Z</time>
      </trkpt>
      <trkpt lat="45.69142" lon="4.42214">
        <ele>480</ele>
        <time>2019-04-27T05:55:15Z</time>
      </trkpt>
      <trkpt lat="45.69106" lon="4.42292">
        <ele>477</ele>
        <time>2019-04-27T05:56:15Z</time>
      </trkpt>
      <trkpt lat="45.69041" lon="4.42412">
        <ele>476</ele>
        <time>2019-04-27T05:57:15Z</time>
      </trkpt>
      <trkpt lat="45.69019" lon="4.42441">
        <ele>475</ele>
        <time>2019-04-27T05:58:15Z</time>
      </trkpt>
      <trkpt lat="45.68918" lon="4.42554">
        <ele>463</ele>
        <time>2019-04-27T05:59:15Z</time>
      </trkpt>
      <trkpt lat="45.68899" lon="4.42587">
        <ele>461</ele>
        <time>2019-04-27T06:00:15Z</time>
      </trkpt>
      <trkpt lat="45.68899" lon="4.42603">
        <ele>461</ele>
        <time>2019-04-27T06:01:15Z</time>
      </trkpt>
      <trkpt lat="45.68896" lon="4.42614">
        <ele>461</ele>
        <time>2019-04-27T06:02:15Z</time>
      </trkpt>
      <trkpt lat="45.68858" lon="4.42637">
        <ele>460</ele>
        <time>2019-04-27T06:03:15Z</time>
      </trkpt>
      <trkpt lat="45.68848" lon="4.42646">
        <ele>461</ele>
        <time>2019-04-27T06:04:15Z</time>
      </trkpt>
      <trkpt lat="45.68648" lon="4.42875">
        <ele>456</ele>
        <time>2019-04-27T06:05:15Z</time>
      </trkpt>
      <trkpt lat="45.6861" lon="4.42914">
        <ele>455</ele>
        <time>2019-04-27T06:06:15Z</time>
      </trkpt>
      <trkpt lat="45.68603" lon="4.42925">
        <ele>454</ele>
        <time>2019-04-27T06:07:15Z</time>
      </trkpt>
      <trkpt lat="45.68602" lon="4.42946">
        <ele>454</ele>
        <time>2019-04-27T06:08:15Z</time>
      </trkpt>
      <trkpt lat="45.68608" lon="4.42974">
        <ele>453</ele>
        <time>2019-04-27T06:09:15Z</time>
      </trkpt>
      <trkpt lat="45.68611" lon="4.4301">
        <ele>452</ele>
        <time>2019-04-27T06:10:15Z</time>
      </trkpt>
      <trkpt lat="45.68599" lon="4.43087">
        <ele>450</ele>
        <time>2019-04-27T06:11:15Z</time>
      </trkpt>
      <trkpt lat="45.68596" lon="4.43131">
        <ele>448</ele>
        <time>2019-04-27T06:12:15Z</time>
      </trkpt>
      <trkpt lat="45.68589" lon="4.43173">
        <ele>447</ele>
        <time>2019-04-27T06:13:15Z</time>
      </trkpt>
      <trkpt lat="45.6859" lon="4.43186">
        <ele>447</ele>
        <time>2019-04-27T06:14:15Z</time>
      </trkpt>
      <trkpt lat="45.68594" lon="4.43197">
        <ele>447</ele>
        <time>2019-04-27T06:15:15Z</time>
      </trkpt>
      <trkpt lat="45.68607" lon="4.43215">
        <ele>448</ele>
        <time>2019-04-27T06:16:15Z</time>
      </trkpt>
      <trkpt lat="45.68605" lon="4.43219">
        <ele>447</ele>
        <time>2019-04-27T06:17:15Z</time>
      </trkpt>
      <trkpt lat="45.68587" lon="4.43218">
        <ele>447</ele>
        <time>2019-04-27T06:18:15Z</time>
      </trkpt>
      <trkpt lat="45.68547" lon="4.43226">
        <ele>445</ele>
        <time>2019-04-27T06:19:15Z</time>
      </trkpt>
      <trkpt lat="45.68514" lon="4.4323">
        <ele>444</ele>
        <time>2019-04-27T06:20:15Z</time>
      </trkpt>
      <trkpt lat="45.68502" lon="4.43229">
        <ele>443</ele>
        <time>2019-04-27T06:21:15Z</time>
      </trkpt>
      <trkpt lat="45.68492" lon="4.43232">
        <ele>443</ele>
        <time>2019-04-27T06:22:15Z</time>
      </trkpt>
      <trkpt lat="45.68462" lon="4.43256">
        <ele>443</ele>
        <time>2019-04-27T06:23:15Z</time>
      </trkpt>
      <trkpt lat="45.68416" lon="4.43276">
        <ele>443</ele>
        <time>2019-04-27T06:24:15Z</time>
      </trkpt>
      <trkpt lat="45.68387" lon="4.43293">
        <ele>444</ele>
        <time>2019-04-27T06:25:15Z</time>
      </trkpt>
      <trkpt lat="45.68362" lon="4.43317">
        <ele>445</ele>
        <time>2019-04-27T06:26:15Z</time>
      </trkpt>
      <trkpt lat="45.68323" lon="4.43365">
        <ele>446</ele>
        <time>2019-04-27T06:27:15Z</time>
      </trkpt>
      <trkpt lat="45.68275" lon="4.43394">
        <ele>448</ele>
        <time>2019-04-27T06:28:15Z</time>
      </trkpt>
      <trkpt lat="45.6825" lon="4.43413">
        <ele>450</ele>
        <time>2019-04-27T06:29:15Z</time>
      </trkpt>
      <trkpt lat="45.68247" lon="4.43424">
        <ele>450</ele>
        <time>2019-04-27T06:30:15Z</time>
      </trkpt>
      <trkpt lat="45.68248" lon="4.43442">
        <ele>450</ele>
        <time>2019-04-27T06:31:15Z</time>
      </trkpt>
      <trkpt lat="45.68241" lon="4.43483">
        <ele>451</ele>
        <time>2019-04-27T06:32:15Z</time>
      </trkpt>
      <trkpt lat="45.68196" lon="4.43642">
        <ele>457</ele>
        <time>2019-04-27T06:33:15Z</time>
      </trkpt>
      <trkpt lat="45.68193" lon="4.4366">
        <ele>458</ele>
        <time>2019-04-27T06:34:15Z</time>
      </trkpt>
      <trkpt lat="45.68224" lon="4.43772">
        <ele>455</ele>
        <time>2019-04-27T06:35:15Z</time>
      </trkpt>
      <trkpt lat="45.68227" lon="4.43807">
        <ele>455</ele>
        <time>2019-04-27T06:36:15Z</time>
      </trkpt>
      <trkpt lat="45.6822" lon="4.43853">
        <ele>455</ele>
        <time>2019-04-27T06:37:15Z</time>
      </trkpt>
      <trkpt lat="45.68198" lon="4.43883">
        <ele>455</ele>
        <time>2019-04-27T06:38:15Z</time>
      </trkpt>
      <trkpt lat="45.6819" lon="4.43904">
        <ele>455</ele>
        <time>2019-04-27T06:39:15Z</time>
      </trkpt>
      <trkpt lat="45.68191" lon="4.43943">
        <ele>455</ele>
        <time>2019-04-27T06:40:15Z</time>
      </trkpt>
      <trkpt lat="45.68201" lon="4.44042">
        <ele>458</ele>
        <time>2019-04-27T06:41:15Z</time>
      </trkpt>
      <trkpt lat="45.68226" lon="4.44101">
        <ele>459</ele>
        <time>2019-04-27T06:42:15Z</time>
      </trkpt>
      <trkpt lat="45.68231" lon="4.44151">
        <ele>462</ele>
        <time>2019-04-27T06:43:15Z</time>
      </trkpt>
      <trkpt lat="45.68248" lon="4.44194">
        <ele>462</ele>
        <time>2019-04-27T06:44:15Z</time>
      </trkpt>
      <trkpt lat="45.68247" lon="4.44207">
        <ele>463</ele>
        <time>2019-04-27T06:45:15Z</time>
      </trkpt>
      <trkpt lat="45.6825" lon="4.44223">
        <ele>463</ele>
        <time>2019-04-27T06:46:15Z</time>
      </trkpt>
      <trkpt lat="45.68246" lon="4.44246">
        <ele>466</ele>
        <time>2019-04-27T06:47:15Z</time>
      </trkpt>
      <trkpt lat="45.68241" lon="4.44309">
        <ele>477</ele>
        <time>2019-04-27T06:48:15Z</time>
      </trkpt>
      <trkpt lat="45.68243" lon="4.44322">
        <ele>479</ele>
        <time>2019-04-27T06:49:15Z</time>
      </trkpt>
      <trkpt lat="45.68246" lon="4.44334">
        <ele>479</ele>
        <time>2019-04-27T06:50:15Z</time>
      </trkpt>
      <trkpt lat="45.68256" lon="4.44352">
        <ele>481</ele>
        <time>2019-04-27T06:51:15Z</time>
      </trkpt>
      <trkpt lat="45.68275" lon="4.44374">
        <ele>481</ele>
        <time>2019-04-27T06:52:15Z</time>
      </trkpt>
      <trkpt lat="45.68299" lon="4.44409">
        <ele>482</ele>
        <time>2019-04-27T06:53:15Z</time>
      </trkpt>
      <trkpt lat="45.68329" lon="4.44468">
        <ele>484</ele>
        <time>2019-04-27T06:54:15Z</time>
      </trkpt>
      <trkpt lat="45.68354" lon="4.44538">
        <ele>489</ele>
        <time>2019-04-27T06:55:15Z</time>
      </trkpt>
      <trkpt lat="45.68404" lon="4.44608">
        <ele>486</ele>
        <time>2019-04-27T06:56:15Z</time>
      </trkpt>
      <trkpt lat="45.68451" lon="4.44653">
        <ele>479</ele>
        <time>2019-04-27T06:57:15Z</time>
      </trkpt>
      <trkpt lat="45.68463" lon="4.44677">
        <ele>480</ele>
        <time>2019-04-27T06:58:15Z</time>
      </trkpt>
      <trkpt lat="45.68487" lon="4.44741">
        <ele>482</ele>
        <time>2019-04-27T06:59:15Z</time>
      </trkpt>
      <trkpt lat="45.6853" lon="4.44887">
        <ele>486</ele>
        <time>2019-04-27T07:00:15Z</time>
      </trkpt>
      <trkpt lat="45.68551" lon="4.44919">
        <ele>486</ele>
        <time>2019-04-27T07:01:15Z</time>
      </trkpt>
      <trkpt lat="45.68556" lon="4.44932">
        <ele>486</ele>
        <time>2019-04-27T07:02:15Z</time>
      </trkpt>
      <trkpt lat="45.68558" lon="4.44951">
        <ele>487</ele>
        <time>2019-04-27T07:03:15Z</time>
      </trkpt>
      <trkpt lat="45.6855" lon="4.44938">
        <ele>487</ele>
        <time>2019-04-27T07:04:15Z</time>
      </trkpt>
      <trkpt lat="45.68544" lon="4.44933">
        <ele>488</ele>
        <time>2019-04-27T07:05:15Z</time>
      </trkpt>
      <trkpt lat="45.68537" lon="4.44937">
        <ele>489</ele>
        <time>2019-04-27T07:06:15Z</time>
      </trkpt>
      <trkpt lat="45.68535" lon="4.44931">
        <ele>489</ele>
        <time>2019-04-27T07:07:15Z</time>
      </trkpt>
      <trkpt lat="45.68506" lon="4.44916">
        <ele>494</ele>
        <time>2019-04-27T07:08:15Z</time>
      </trkpt>
      <trkpt lat="45.6849" lon="4.44897">
        <ele>496</ele>
        <time>2019-04-27T07:09:15Z</time>
      </trkpt>
      <trkpt lat="45.68467" lon="4.44886">
        <ele>502</ele>
        <time>2019-04-27T07:10:15Z</time>
      </trkpt>
      <trkpt lat="45.68459" lon="4.44874">
        <ele>504</ele>
        <time>2019-04-27T07:11:15Z</time>
      </trkpt>
      <trkpt lat="45.68415" lon="4.44829">
        <ele>518</ele>
        <time>2019-04-27T07:12:15Z</time>
      </trkpt>
      <trkpt lat="45.68388" lon="4.44809">
        <ele>522</ele>
        <time>2019-04-27T07:13:15Z</time>
      </trkpt>
      <trkpt lat="45.68377" lon="4.44804">
        <ele>524</ele>
        <time>2019-04-27T07:14:15Z</time>
      </trkpt>
      <trkpt lat="45.68375" lon="4.44792">
        <ele>524</ele>
        <time>2019-04-27T07:15:15Z</time>
      </trkpt>
      <trkpt lat="45.68347" lon="4.4474">
        <ele>526</ele>
        <time>2019-04-27T07:16:15Z</time>
      </trkpt>
      <trkpt lat="45.68281" lon="4.44665">
        <ele>531</ele>
        <time>2019-04-27T07:17:15Z</time>
      </trkpt>
      <trkpt lat="45.68266" lon="4.44662">
        <ele>533</ele>
        <time>2019-04-27T07:18:15Z</time>
      </trkpt>
      <trkpt lat="45.68232" lon="4.44618">
        <ele>535</ele>
        <time>2019-04-27T07:19:15Z</time>
      </trkpt>
      <trkpt lat="45.68215" lon="4.44569">
        <ele>531</ele>
        <time>2019-04-27T07:20:15Z</time>
      </trkpt>
      <trkpt lat="45.68192" lon="4.44537">
        <ele>532</ele>
        <time>2019-04-27T07:21:15Z</time>
      </trkpt>
      <trkpt lat="45.68182" lon="4.44532">
        <ele>534</ele>
        <time>2019-04-27T07:22:15Z</time>
      </trkpt>
      <trkpt lat="45.68137" lon="4.44491">
        <ele>537</ele>
        <time>2019-04-27T07:23:15Z</time>
      </trkpt>
      <trkpt lat="45.68105" lon="4.44468">
        <ele>540</ele>
        <time>2019-04-27T07:24:15Z</time>
      </trkpt>
      <trkpt lat="45.6808" lon="4.44439">
        <ele>540</ele>
        <time>2019-04-27T07:25:15Z</time>
      </trkpt>
      <trkpt lat="45.68059" lon="4.44419">
        <ele>540</ele>
        <time>2019-04-27T07:26:15Z</time>
      </trkpt>
      <trkpt lat="45.68024" lon="4.44395">
        <ele>543</ele>
        <time>2019-04-27T07:27:15Z</time>
      </trkpt>
      <trkpt lat="45.67992" lon="4.44361">
        <ele>542</ele>
        <time>2019-04-27T07:28:15Z</time>
      </trkpt>
      <trkpt lat="45.67981" lon="4.4436">
        <ele>542</ele>
        <time>2019-04-27T07:29:15Z</time>
      </trkpt>
      <trkpt lat="45.68026" lon="4.44436">
        <ele>546</ele>
        <time>2019-04-27T07:30:15Z</time>
      </trkpt>
      <trkpt lat="45.6806" lon="4.44528">
        <ele>555</ele>
        <time>2019-04-27T07:31:15Z</time>
      </trkpt>
      <trkpt lat="45.68075" lon="4.44606">
        <ele>564</ele>
        <time>2019-04-27T07:32:15Z</time>
      </trkpt>
      <trkpt lat="45.68067" lon="4.44691">
        <ele>573</ele>
        <time>2019-04-27T07:33:15Z</time>
      </trkpt>
      <trkpt lat="45.68023" lon="4.44856">
        <ele>584</ele>
        <time>2019-04-27T07:34:15Z</time>
      </trkpt>
      <trkpt lat="45.68011" lon="4.4488">
        <ele>588</ele>
        <time>2019-04-27T07:35:15Z</time>
      </trkpt>
      <trkpt lat="45.67996" lon="4.4488">
        <ele>591</ele>
        <time>2019-04-27T07:36:15Z</time>
      </trkpt>
      <trkpt lat="45.67964" lon="4.44875">
        <ele>596</ele>
        <time>2019-04-27T07:37:15Z</time>
      </trkpt>
      <trkpt lat="45.67934" lon="4.44864">
        <ele>599</ele>
        <time>2019-04-27T07:38:15Z</time>
      </trkpt>
      <trkpt lat="45.67897" lon="4.44862">
        <ele>604</ele>
        <time>2019-04-27T07:39:15Z</time>
      </trkpt>
      <trkpt lat="45.67885" lon="4.44858">
        <ele>605</ele>
        <time>2019-04-27T07:40:15Z</time>
      </trkpt>
      <trkpt lat="45.67868" lon="4.44857">
        <ele>607</ele>
        <time>2019-04-27T07:41:15Z</time>
      </trkpt>
      <trkpt lat="45.67845" lon="4.44859">
        <ele>611</ele>
        <time>2019-04-27T07:42:15Z</time>
      </trkpt>
      <trkpt lat="45.67835" lon="4.44864">
        <ele>613</ele>
        <time>2019-04-27T07:43:15Z</time>
      </trkpt>
      <trkpt lat="45.67824" lon="4.44877">
        <ele>618</ele>
        <time>2019-04-27T07:44:15Z</time>
      </trkpt>
      <trkpt lat="45.67781" lon="4.44901">
        <ele>631</ele>
        <time>2019-04-27T07:45:15Z</time>
      </trkpt>
      <trkpt lat="45.67766" lon="4.44901">
        <ele>633</ele>
        <time>2019-04-27T07:46:15Z</time>
      </trkpt>
      <trkpt lat="45.67741" lon="4.44893">
        <ele>637</ele>
        <time>2019-04-27T07:47:15Z</time>
      </trkpt>
      <trkpt lat="45.67699" lon="4.44862">
        <ele>640</ele>
        <time>2019-04-27T07:48:15Z</time>
      </trkpt>
      <trkpt lat="45.67678" lon="4.44857">
        <ele>644</ele>
        <time>2019-04-27T07:49:15Z</time>
      </trkpt>
      <trkpt lat="45.67666" lon="4.44857">
        <ele>646</ele>
        <time>2019-04-27T07:50:15Z</time>
      </trkpt>
      <trkpt lat="45.6764" lon="4.44866">
        <ele>649</ele>
        <time>2019-04-27T07:51:15Z</time>
      </trkpt>
      <trkpt lat="45.6762" lon="4.44884">
        <ele>653</ele>
        <time>2019-04-27T07:52:15Z</time>
      </trkpt>
      <trkpt lat="45.67614" lon="4.44894">
        <ele>655</ele>
        <time>2019-04-27T07:53:15Z</time>
      </trkpt>
      <trkpt lat="45.67608" lon="4.44941">
        <ele>664</ele>
        <time>2019-04-27T07:54:15Z</time>
      </trkpt>
      <trkpt lat="45.67567" lon="4.45061">
        <ele>687</ele>
        <time>2019-04-27T07:55:15Z</time>
      </trkpt>
      <trkpt lat="45.67562" lon="4.45071">
        <ele>689</ele>
        <time>2019-04-27T07:56:15Z</time>
      </trkpt>
      <trkpt lat="45.67554" lon="4.4508">
        <ele>691</ele>
        <time>2019-04-27T07:57:15Z</time>
      </trkpt>
      <trkpt lat="45.67543" lon="4.45083">
        <ele>692</ele>
        <time>2019-04-27T07:58:15Z</time>
      </trkpt>
      <trkpt lat="45.67524" lon="4.45078">
        <ele>693</ele>
        <time>2019-04-27T07:59:15Z</time>
      </trkpt>
      <trkpt lat="45.67482" lon="4.45044">
        <ele>696</ele>
        <time>2019-04-27T08:00:15Z</time>
      </trkpt>
      <trkpt lat="45.67468" lon="4.45039">
        <ele>699</ele>
        <time>2019-04-27T08:01:15Z</time>
      </trkpt>
      <trkpt lat="45.67438" lon="4.45035">
        <ele>704</ele>
        <time>2019-04-27T08:02:15Z</time>
      </trkpt>
      <trkpt lat="45.67399" lon="4.45026">
        <ele>709</ele>
        <time>2019-04-27T08:03:15Z</time>
      </trkpt>
      <trkpt lat="45.67344" lon="4.45007">
        <ele>712</ele>
        <time>2019-04-27T08:04:15Z</time>
      </trkpt>
      <trkpt lat="45.67329" lon="4.45005">
        <ele>713</ele>
        <time>2019-04-27T08:05:15Z</time>
      </trkpt>
      <trkpt lat="45.67318" lon="4.45007">
        <ele>713</ele>
        <time>2019-04-27T08:06:15Z</time>
      </trkpt>
      <trkpt lat="45.67305" lon="4.45017">
        <ele>714</ele>
        <time>2019-04-27T08:07:15Z</time>
      </trkpt>
      <trkpt lat="45.67269" lon="4.4503">
        <ele>715</ele>
        <time>2019-04-27T08:08:15Z</time>
      </trkpt>
      <trkpt lat="45.67242" lon="4.45057">
        <ele>716</ele>
        <time>2019-04-27T08:09:15Z</time>
      </trkpt>
      <trkpt lat="45.67225" lon="4.45082">
        <ele>715</ele>
        <time>2019-04-27T08:10:15Z</time>
      </trkpt>
      <trkpt lat="45.6722" lon="4.45111">
        <ele>716</ele>
        <time>2019-04-27T08:11:15Z</time>
      </trkpt>
      <trkpt lat="45.67219" lon="4.45167">
        <ele>719</ele>
        <time>2019-04-27T08:12:15Z</time>
      </trkpt>
      <trkpt lat="45.67238" lon="4.45246">
        <ele>725</ele>
        <time>2019-04-27T08:13:15Z</time>
      </trkpt>
      <trkpt lat="45.67237" lon="4.45252">
        <ele>725</ele>
        <time>2019-04-27T08:14:15Z</time>
      </trkpt>
      <trkpt lat="45.6722" lon="4.45286">
        <ele>723</ele>
        <time>2019-04-27T08:15:15Z</time>
      </trkpt>
      <trkpt lat="45.67212" lon="4.45292">
        <ele>722</ele>
        <time>2019-04-27T08:16:15Z</time>
      </trkpt>
      <trkpt lat="45.67179" lon="4.45302">
        <ele>718</ele>
        <time>2019-04-27T08:17:15Z</time>
      </trkpt>
      <trkpt lat="45.67155" lon="4.45322">
        <ele>718</ele>
        <time>2019-04-27T08:18:15Z</time>
      </trkpt>
      <trkpt lat="45.67141" lon="4.45322">
        <ele>719</ele>
        <time>2019-04-27T08:19:15Z</time>
      </trkpt>
      <trkpt lat="45.67134" lon="4.45315">
        <ele>718</ele>
        <time>2019-04-27T08:20:15Z</time>
      </trkpt>
      <trkpt lat="45.67127" lon="4.45302">
        <ele>718</ele>
        <time>2019-04-27T08:21:15Z</time>
      </trkpt>
      <trkpt lat="45.67119" lon="4.45278">
        <ele>716</ele>
        <time>2019-04-27T08:22:15Z</time>
      </trkpt>
      <trkpt lat="45.67112" lon="4.45271">
        <ele>716</ele>
        <time>2019-04-27T08:23:15Z</time>
      </trkpt>
      <trkpt lat="45.67081" lon="4.45258">
        <ele>717</ele>
        <time>2019-04-27T08:24:15Z</time>
      </trkpt>
      <trkpt lat="45.67062" lon="4.45255">
        <ele>718</ele>
        <time>2019-04-27T08:25:15Z</time>
      </trkpt>
      <trkpt lat="45.67013" lon="4.4526">
        <ele>722</ele>
        <time>2019-04-27T08:26:15Z</time>
      </trkpt>
      <trkpt lat="45.66983" lon="4.45273">
        <ele>724</ele>
        <time>2019-04-27T08:27:15Z</time>
      </trkpt>
      <trkpt lat="45.66939" lon="4.45302">
        <ele>727</ele>
        <time>2019-04-27T08:28:15Z</time>
      </trkpt>
      <trkpt lat="45.66908" lon="4.45331">
        <ele>728</ele>
        <time>2019-04-27T08:29:15Z</time>
      </trkpt>
      <trkpt lat="45.66878" lon="4.45364">
        <ele>727</ele>
        <time>2019-04-27T08:30:15Z</time>
      </trkpt>
      <trkpt lat="45.66831" lon="4.45407">
        <ele>726</ele>
        <time>2019-04-27T08:31:15Z</time>
      </trkpt>
      <trkpt lat="45.66823" lon="4.45419">
        <ele>724</ele>
        <time>2019-04-27T08:32:15Z</time>
      </trkpt>
      <trkpt lat="45.66812" lon="4.45465">
        <ele>722</ele>
        <time>2019-04-27T08:33:15Z</time>
      </trkpt>
      <trkpt lat="45.66811" lon="4.45491">
        <ele>722</ele>
        <time>2019-04-27T08:34:15Z</time>
      </trkpt>
      <trkpt lat="45.66808" lon="4.45506">
        <ele>721</ele>
        <time>2019-04-27T08:35:15Z</time>
      </trkpt>
      <trkpt lat="45.66773" lon="4.45576">
        <ele>715</ele>
        <time>2019-04-27T08:36:15Z</time>
      </trkpt>
      <trkpt lat="45.66757" lon="4.45603">
        <ele>711</ele>
        <time>2019-04-27T08:37:15Z</time>
      </trkpt>
      <trkpt lat="45.66737" lon="4.4567">
        <ele>707</ele>
        <time>2019-04-27T08:38:15Z</time>
      </trkpt>
      <trkpt lat="45.66716" lon="4.45723">
        <ele>700</ele>
        <time>2019-04-27T08:39:15Z</time>
      </trkpt>
      <trkpt lat="45.66707" lon="4.45742">
        <ele>698</ele>
        <time>2019-04-27T08:40:15Z</time>
      </trkpt>
      <trkpt lat="45.66699" lon="4.45752">
        <ele>697</ele>
        <time>2019-04-27T08:41:15Z</time>
      </trkpt>
      <trkpt lat="45.66668" lon="4.45772">
        <ele>692</ele>
        <time>2019-04-27T08:42:15Z</time>
      </trkpt>
      <trkpt lat="45.66656" lon="4.45777">
        <ele>692</ele>
        <time>2019-04-27T08:43:15Z</time>
      </trkpt>
      <trkpt lat="45.66642" lon="4.45777">
        <ele>692</ele>
        <time>2019-04-27T08:44:15Z</time>
      </trkpt>
      <trkpt lat="45.66625" lon="4.4577">
        <ele>691</ele>
        <time>2019-04-27T08:45:15Z</time>
      </trkpt>
      <trkpt lat="45.66588" lon="4.45741">
        <ele>691</ele>
        <time>2019-04-27T08:46:15Z</time>
      </trkpt>
      <trkpt lat="45.66585" lon="4.4573">
        <ele>691</ele>
        <time>2019-04-27T08:47:15Z</time>
      </trkpt>
      <trkpt lat="45.66583" lon="4.45707">
        <ele>692</ele>
        <time>2019-04-27T08:48:15Z</time>
      </trkpt>
      <trkpt lat="45.66585" lon="4.45567">
        <ele>694</ele>
        <time>2019-04-27T08:49:15Z</time>
      </trkpt>
      <trkpt lat="45.66613" lon="4.4552">
        <ele>693</ele>
        <time>2019-04-27T08:50:15Z</time>
      </trkpt>
      <trkpt lat="45.66624" lon="4.45481">
        <ele>691</ele>
        <time>2019-04-27T08:51:15Z</time>
      </trkpt>
      <trkpt lat="45.66626" lon="4.45472">
        <ele>690</ele>
        <time>2019-04-27T08:52:15Z</time>
      </trkpt>
      <trkpt lat="45.66623" lon="4.45431">
        <ele>688</ele>
        <time>2019-04-27T08:53:15Z</time>
      </trkpt>
      <trkpt lat="45.66599" lon="4.45392">
        <ele>686</ele>
        <time>2019-04-27T08:54:15Z</time>
      </trkpt>
      <trkpt lat="45.66594" lon="4.4538">
        <ele>685</ele>
        <time>2019-04-27T08:55:15Z</time>
      </trkpt>
      <trkpt lat="45.6659" lon="4.45358">
        <ele>683</ele>
        <time>2019-04-27T08:56:15Z</time>
      </trkpt>
      <trkpt lat="45.66578" lon="4.4532">
        <ele>679</ele>
        <time>2019-04-27T08:57:15Z</time>
      </trkpt>
      <trkpt lat="45.66568" lon="4.4531">
        <ele>679</ele>
        <time>2019-04-27T08:58:15Z</time>
      </trkpt>
      <trkpt lat="45.66543" lon="4.45296">
        <ele>679</ele>
        <time>2019-04-27T08:59:15Z</time>
      </trkpt>
      <trkpt lat="45.66537" lon="4.45289">
        <ele>679</ele>
        <time>2019-04-27T09:00:15Z</time>
      </trkpt>
      <trkpt lat="45.66538" lon="4.45283">
        <ele>679</ele>
        <time>2019-04-27T09:01:15Z</time>
      </trkpt>
      <trkpt lat="45.66556" lon="4.45247">
        <ele>677</ele>
        <time>2019-04-27T09:02:15Z</time>
      </trkpt>
      <trkpt lat="45.66543" lon="4.45186">
        <ele>678</ele>
        <time>2019-04-27T09:03:15Z</time>
      </trkpt>
      <trkpt lat="45.66533" lon="4.45111">
        <ele>678</ele>
        <time>2019-04-27T09:04:15Z</time>
      </trkpt>
      <trkpt lat="45.66517" lon="4.45072">
        <ele>676</ele>
        <time>2019-04-27T09:05:15Z</time>
      </trkpt>
      <trkpt lat="45.6652" lon="4.44984">
        <ele>671</ele>
        <time>2019-04-27T09:06:15Z</time>
      </trkpt>
      <trkpt lat="45.66518" lon="4.4496">
        <ele>670</ele>
        <time>2019-04-27T09:07:15Z</time>
      </trkpt>
      <trkpt lat="45.66514" lon="4.44945">
        <ele>668</ele>
        <time>2019-04-27T09:08:15Z</time>
      </trkpt>
      <trkpt lat="45.6651" lon="4.44935">
        <ele>667</ele>
        <time>2019-04-27T09:09:15Z</time>
      </trkpt>
      <trkpt lat="45.66496" lon="4.44914">
        <ele>664</ele>
        <time>2019-04-27T09:10:15Z</time>
      </trkpt>
      <trkpt lat="45.66456" lon="4.44861">
        <ele>667</ele>
        <time>2019-04-27T09:11:15Z</time>
      </trkpt>
      <trkpt lat="45.66434" lon="4.44813">
        <ele>667</ele>
        <time>2019-04-27T09:12:15Z</time>
      </trkpt>
      <trkpt lat="45.66427" lon="4.44777">
        <ele>667</ele>
        <time>2019-04-27T09:13:15Z</time>
      </trkpt>
      <trkpt lat="45.6642" lon="4.44755">
        <ele>666</ele>
        <time>2019-04-27T09:14:15Z</time>
      </trkpt>
      <trkpt lat="45.66415" lon="4.44754">
        <ele>666</ele>
        <time>2019-04-27T09:15:15Z</time>
      </trkpt>
      <trkpt lat="45.66411" lon="4.44758">
        <ele>667</ele>
        <time>2019-04-27T09:16:15Z</time>
      </trkpt>
      <trkpt lat="45.66397" lon="4.44786">
        <ele>669</ele>
        <time>2019-04-27T09:17:15Z</time>
      </trkpt>
      <trkpt lat="45.6639" lon="4.44789">
        <ele>670</ele>
        <time>2019-04-27T09:18:15Z</time>
      </trkpt>
      <trkpt lat="45.6638" lon="4.44783">
        <ele>671</ele>
        <time>2019-04-27T09:19:15Z</time>
      </trkpt>
      <trkpt lat="45.66368" lon="4.44753">
        <ele>674</ele>
        <time>2019-04-27T09:20:15Z</time>
      </trkpt>
      <trkpt lat="45.66362" lon="4.44723">
        <ele>675</ele>
        <time>2019-04-27T09:21:15Z</time>
      </trkpt>
      <trkpt lat="45.66327" lon="4.44622">
        <ele>676</ele>
        <time>2019-04-27T09:22:15Z</time>
      </trkpt>
      <trkpt lat="45.66309" lon="4.44585">
        <ele>674</ele>
        <time>2019-04-27T09:23:15Z</time>
      </trkpt>
      <trkpt lat="45.66295" lon="4.44565">
        <ele>673</ele>
        <time>2019-04-27T09:24:15Z</time>
      </trkpt>
      <trkpt lat="45.66253" lon="4.4454">
        <ele>671</ele>
        <time>2019-04-27T09:25:15Z</time>
      </trkpt>
      <trkpt lat="45.66197" lon="4.44514">
        <ele>670</ele>
        <time>2019-04-27T09:26:15Z</time>
      </trkpt>
      <trkpt lat="45.66185" lon="4.44501">
        <ele>670</ele>
        <time>2019-04-27T09:27:15Z</time>
      </trkpt>
      <trkpt lat="45.66177" lon="4.44491">
        <ele>669</ele>
        <time>2019-04-27T09:28:15Z</time>
      </trkpt>
      <trkpt lat="45.66158" lon="4.44453">
        <ele>670</ele>
        <time>2019-04-27T09:29:15Z</time>
      </trkpt>
      <trkpt lat="45.66144" lon="4.44397">
        <ele>669</ele>
        <time>2019-04-27T09:30:15Z</time>
      </trkpt>
      <trkpt lat="45.6607" lon="4.44308">
        <ele>663</ele>
        <time>2019-04-27T09:31:15Z</time>
      </trkpt>
      <trkpt lat="45.6603" lon="4.44285">
        <ele>663</ele>
        <time>2019-04-27T09:32:15Z</time>
      </trkpt>
      <trkpt lat="45.66022" lon="4.4429">
        <ele>665</ele>
        <time>2019-04-27T09:33:15Z</time>
      </trkpt>
      <trkpt lat="45.65963" lon="4.44283">
        <ele>670</ele>
        <time>2019-04-27T09:34:15Z</time>
      </trkpt>
      <trkpt lat="45.65883" lon="4.44261">
        <ele>683</ele>
        <time>2019-04-27T09:35:15Z</time>
      </trkpt>
      <trkpt lat="45.65877" lon="4.44257">
        <ele>684</ele>
        <time>2019-04-27T09:36:15Z</time>
      </trkpt>
      <trkpt lat="45.65836" lon="4.44183">
        <ele>684</ele>
        <time>2019-04-27T09:37:15Z</time>
      </trkpt>
      <trkpt lat="45.65818" lon="4.44173">
        <ele>686</ele>
        <time>2019-04-27T09:38:15Z</time>
      </trkpt>
      <trkpt lat="45.6579" lon="4.44164">
        <ele>690</ele>
        <time>2019-04-27T09:39:15Z</time>
      </trkpt>
      <trkpt lat="45.65777" lon="4.44166">
        <ele>693</ele>
        <time>2019-04-27T09:40:15Z</time>
      </trkpt>
      <trkpt lat="45.65748" lon="4.44158">
        <ele>698</ele>
        <time>2019-04-27T09:41:15Z</time>
      </trkpt>
      <trkpt lat="45.65698" lon="4.44174">
        <ele>711</ele>
        <time>2019-04-27T09:42:15Z</time>
      </trkpt>
      <trkpt lat="45.65675" lon="4.44164">
        <ele>714</ele>
        <time>2019-04-27T09:43:15Z</time>
      </trkpt>
      <trkpt lat="45.65665" lon="4.44151">
        <ele>714</ele>
        <time>2019-04-27T09:44:15Z</time>
      </trkpt>
      <trkpt lat="45.65656" lon="4.44133">
        <ele>714</ele>
        <time>2019-04-27T09:45:15Z</time>
      </trkpt>
      <trkpt lat="45.65639" lon="4.44079">
        <ele>710</ele>
        <time>2019-04-27T09:46:15Z</time>
      </trkpt>
      <trkpt lat="45.65633" lon="4.44077">
        <ele>710</ele>
        <time>2019-04-27T09:47:15Z</time>
      </trkpt>
      <trkpt lat="45.65621" lon="4.44079">
        <ele>712</ele>
        <time>2019-04-27T09:48:15Z</time>
      </trkpt>
      <trkpt lat="45.65607" lon="4.44073">
        <ele>714</ele>
        <time>2019-04-27T09:49:15Z</time>
      </trkpt>
      <trkpt lat="45.65573" lon="4.4404">
        <ele>715</ele>
        <time>2019-04-27T09:50:15Z</time>
      </trkpt>
      <trkpt lat="45.65542" lon="4.43996">
        <ele>717</ele>
        <time>2019-04-27T09:51:15Z</time>
      </trkpt>
      <trkpt lat="45.65521" lon="4.43944">
        <ele>717</ele>
        <time>2019-04-27T09:52:15Z</time>
      </trkpt>
      <trkpt lat="45.65511" lon="4.4391">
        <ele>716</ele>
        <time>2019-04-27T09:53:15Z</time>
      </trkpt>
      <trkpt lat="45.65498" lon="4.43893">
        <ele>718</ele>
        <time>2019-04-27T09:54:15Z</time>
      </trkpt>
      <trkpt lat="45.65436" lon="4.43838">
        <ele>723</ele>
        <time>2019-04-27T09:55:15Z</time>
      </trkpt>
      <trkpt lat="45.65314" lon="4.43737">
        <ele>724</ele>
        <time>2019-04-27T09:56:15Z</time>
      </trkpt>
      <trkpt lat="45.65274" lon="4.43707">
        <ele>725</ele>
        <time>2019-04-27T09:57:15Z</time>
      </trkpt>
      <trkpt lat="45.65236" lon="4.43689">
        <ele>727</ele>
        <time>2019-04-27T09:58:15Z</time>
      </trkpt>
      <trkpt lat="45.65176" lon="4.43682">
        <ele>729</ele>
        <time>2019-04-27T09:59:15Z</time>
      </trkpt>
      <trkpt lat="45.65169" lon="4.43685">
        <ele>729</ele>
        <time>2019-04-27T10:00:15Z</time>
      </trkpt>
      <trkpt lat="45.65139" lon="4.43711">
        <ele>727</ele>
        <time>2019-04-27T10:01:15Z</time>
      </trkpt>
      <trkpt lat="45.65136" lon="4.43711">
        <ele>726</ele>
        <time>2019-04-27T10:02:15Z</time>
      </trkpt>
      <trkpt lat="45.65126" lon="4.43667">
        <ele>726</ele>
        <time>2019-04-27T10:03:15Z</time>
      </trkpt>
      <trkpt lat="45.65112" lon="4.43646">
        <ele>725</ele>
        <time>2019-04-27T10:04:15Z</time>
      </trkpt>
      <trkpt lat="45.65084" lon="4.43579">
        <ele>725</ele>
        <time>2019-04-27T10:05:15Z</time>
      </trkpt>
      <trkpt lat="45.65071" lon="4.43508">
        <ele>722</ele>
        <time>2019-04-27T10:06:15Z</time>
      </trkpt>
      <trkpt lat="45.65045" lon="4.43436">
        <ele>714</ele>
        <time>2019-04-27T10:07:15Z</time>
      </trkpt>
      <trkpt lat="45.65052" lon="4.43404">
        <ele>712</ele>
        <time>2019-04-27T10:08:15Z</time>
      </trkpt>
      <trkpt lat="45.6505" lon="4.434">
        <ele>711</ele>
        <time>2019-04-27T10:09:15Z</time>
      </trkpt>
      <trkpt lat="45.65042" lon="4.43399">
        <ele>711</ele>
        <time>2019-04-27T10:10:15Z</time>
      </trkpt>
      <trkpt lat="45.65004" lon="4.43375">
        <ele>705</ele>
        <time>2019-04-27T10:11:15Z</time>
      </trkpt>
      <trkpt lat="45.64999" lon="4.43371">
        <ele>705</ele>
        <time>2019-04-27T10:12:15Z</time>
      </trkpt>
      <trkpt lat="45.64997" lon="4.43362">
        <ele>704</ele>
        <time>2019-04-27T10:13:15Z</time>
      </trkpt>
      <trkpt lat="45.6501" lon="4.43326">
        <ele>702</ele>
        <time>2019-04-27T10:14:15Z</time>
      </trkpt>
      <trkpt lat="45.65023" lon="4.43313">
        <ele>701</ele>
        <time>2019-04-27T10:15:15Z</time>
      </trkpt>
      <trkpt lat="45.6506" lon="4.43284">
        <ele>696</ele>
        <time>2019-04-27T10:16:15Z</time>
      </trkpt>
      <trkpt lat="45.65077" lon="4.43274">
        <ele>693</ele>
        <time>2019-04-27T10:17:15Z</time>
      </trkpt>
      <trkpt lat="45.65079" lon="4.4327">
        <ele>692</ele>
        <time>2019-04-27T10:18:15Z</time>
      </trkpt>
      <trkpt lat="45.65089" lon="4.4316">
        <ele>679</ele>
        <time>2019-04-27T10:19:15Z</time>
      </trkpt>
      <trkpt lat="45.65084" lon="4.43139">
        <ele>677</ele>
        <time>2019-04-27T10:20:15Z</time>
      </trkpt>
      <trkpt lat="45.65054" lon="4.431">
        <ele>678</ele>
        <time>2019-04-27T10:21:15Z</time>
      </trkpt>
      <trkpt lat="45.65019" lon="4.43065">
        <ele>679</ele>
        <time>2019-04-27T10:22:15Z</time>
      </trkpt>
      <trkpt lat="45.64883" lon="4.4299">
        <ele>678</ele>
        <time>2019-04-27T10:23:15Z</time>
      </trkpt>
      <trkpt lat="45.6485" lon="4.42979">
        <ele>678</ele>
        <time>2019-04-27T10:24:15Z</time>
      </trkpt>
      <trkpt lat="45.64848" lon="4.42975">
        <ele>678</ele>
        <time>2019-04-27T10:25:15Z</time>
      </trkpt>
      <trkpt lat="45.64849" lon="4.42957">
        <ele>677</ele>
        <time>2019-04-27T10:26:15Z</time>
      </trkpt>
      <trkpt lat="45.64854" lon="4.42937">
        <ele>676</ele>
        <time>2019-04-27T10:27:15Z</time>
      </trkpt>
      <trkpt lat="45.64871" lon="4.42903">
        <ele>673</ele>
        <time>2019-04-27T10:28:15Z</time>
      </trkpt>
      <trkpt lat="45.64871" lon="4.42867">
        <ele>671</ele>
        <time>2019-04-27T10:29:15Z</time>
      </trkpt>
      <trkpt lat="45.64858" lon="4.42798">
        <ele>670</ele>
        <time>2019-04-27T10:30:15Z</time>
      </trkpt>
      <trkpt lat="45.64861" lon="4.42666">
        <ele>665</ele>
        <time>2019-04-27T10:31:15Z</time>
      </trkpt>
      <trkpt lat="45.64883" lon="4.42616">
        <ele>657</ele>
        <time>2019-04-27T10:32:15Z</time>
      </trkpt>
      <trkpt lat="45.64904" lon="4.42521">
        <ele>643</ele>
        <time>2019-04-27T10:33:15Z</time>
      </trkpt>
      <trkpt lat="45.64904" lon="4.42511">
        <ele>642</ele>
        <time>2019-04-27T10:34:15Z</time>
      </trkpt>
      <trkpt lat="45.64903" lon="4.42497">
        <ele>641</ele>
        <time>2019-04-27T10:35:15Z</time>
      </trkpt>
      <trkpt lat="45.64897" lon="4.42482">
        <ele>641</ele>
        <time>2019-04-27T10:36:15Z</time>
      </trkpt>
      <trkpt lat="45.64869" lon="4.42449">
        <ele>641</ele>
        <time>2019-04-27T10:37:15Z</time>
      </trkpt>
      <trkpt lat="45.64842" lon="4.42427">
        <ele>641</ele>
        <time>2019-04-27T10:38:15Z</time>
      </trkpt>
      <trkpt lat="45.64838" lon="4.42388">
        <ele>639</ele>
        <time>2019-04-27T10:39:15Z</time>
      </trkpt>
      <trkpt lat="45.64842" lon="4.4235">
        <ele>638</ele>
        <time>2019-04-27T10:40:15Z</time>
      </trkpt>
      <trkpt lat="45.6486" lon="4.42302">
        <ele>632</ele>
        <time>2019-04-27T10:41:15Z</time>
      </trkpt>
      <trkpt lat="45.64864" lon="4.423">
        <ele>631</ele>
        <time>2019-04-27T10:42:15Z</time>
      </trkpt>
      <trkpt lat="45.64903" lon="4.42312">
        <ele>630</ele>
        <time>2019-04-27T10:43:15Z</time>
      </trkpt>
      <trkpt lat="45.64946" lon="4.42294">
        <ele>622</ele>
        <time>2019-04-27T10:44:15Z</time>
      </trkpt>
      <trkpt lat="45.64975" lon="4.42269">
        <ele>615</ele>
        <time>2019-04-27T10:45:15Z</time>
      </trkpt>
      <trkpt lat="45.6498" lon="4.4224">
        <ele>611</ele>
        <time>2019-04-27T10:46:15Z</time>
      </trkpt>
      <trkpt lat="45.64958" lon="4.42223">
        <ele>611</ele>
        <time>2019-04-27T10:47:15Z</time>
      </trkpt>
      <trkpt lat="45.64911" lon="4.42165">
        <ele>606</ele>
        <time>2019-04-27T10:48:15Z</time>
      </trkpt>
      <trkpt lat="45.64907" lon="4.42157">
        <ele>605</ele>
        <time>2019-04-27T10:49:15Z</time>
      </trkpt>
      <trkpt lat="45.64909" lon="4.42145">
        <ele>604</ele>
        <time>2019-04-27T10:50:15Z</time>
      </trkpt>
      <trkpt lat="45.64917" lon="4.42135">
        <ele>601</ele>
        <time>2019-04-27T10:51:15Z</time>
      </trkpt>
      <trkpt lat="45.64925" lon="4.42118">
        <ele>600</ele>
        <time>2019-04-27T10:52:15Z</time>
      </trkpt>
      <trkpt lat="45.64937" lon="4.42067">
        <ele>599</ele>
        <time>2019-04-27T10:53:15Z</time>
      </trkpt>
      <trkpt lat="45.64949" lon="4.42033">
        <ele>602</ele>
        <time>2019-04-27T10:54:15Z</time>
      </trkpt>
      <trkpt lat="45.64941" lon="4.41924">
        <ele>604</ele>
        <time>2019-04-27T10:55:15Z</time>
      </trkpt>
      <trkpt lat="45.64926" lon="4.41841">
        <ele>606</ele>
        <time>2019-04-27T10:56:15Z</time>
      </trkpt>
      <trkpt lat="45.64926" lon="4.41795">
        <ele>610</ele>
        <time>2019-04-27T10:57:15Z</time>
      </trkpt>
      <trkpt lat="45.64945" lon="4.41715">
        <ele>619</ele>
        <time>2019-04-27T10:58:15Z</time>
      </trkpt>
      <trkpt lat="45.64951" lon="4.41677">
        <ele>621</ele>
        <time>2019-04-27T10:59:15Z</time>
      </trkpt>
      <trkpt lat="45.64969" lon="4.41639">
        <ele>621</ele>
        <time>2019-04-27T11:00:15Z</time>
      </trkpt>
      <trkpt lat="45.64965" lon="4.41634">
        <ele>621</ele>
        <time>2019-04-27T11:01:15Z</time>
      </trkpt>
      <trkpt lat="45.64952" lon="4.41634">
        <ele>620</ele>
        <time>2019-04-27T11:02:15Z</time>
      </trkpt>
      <trkpt lat="45.64907" lon="4.41651">
        <ele>615</ele>
        <time>2019-04-27T11:03:15Z</time>
      </trkpt>
      <trkpt lat="45.64899" lon="4.41652">
        <ele>614</ele>
        <time>2019-04-27T11:04:15Z</time>
      </trkpt>
      <trkpt lat="45.64871" lon="4.41639">
        <ele>608</ele>
        <time>2019-04-27T11:05:15Z</time>
      </trkpt>
      <trkpt lat="45.64825" lon="4.41576">
        <ele>600</ele>
        <time>2019-04-27T11:06:15Z</time>
      </trkpt>
      <trkpt lat="45.64812" lon="4.41552">
        <ele>598</ele>
        <time>2019-04-27T11:07:15Z</time>
      </trkpt>
      <trkpt lat="45.64763" lon="4.41481">
        <ele>590</ele>
        <time>2019-04-27T11:08:15Z</time>
      </trkpt>
      <trkpt lat="45.64705" lon="4.4142">
        <ele>585</ele>
        <time>2019-04-27T11:09:15Z</time>
      </trkpt>
      <trkpt lat="45.64672" lon="4.41391">
        <ele>584</ele>
        <time>2019-04-27T11:10:15Z</time>
      </trkpt>
      <trkpt lat="45.64667" lon="4.41384">
        <ele>585</ele>
        <time>2019-04-27T11:11:15Z</time>
      </trkpt>
      <trkpt lat="45.64658" lon="4.41361">
        <ele>586</ele>
        <time>2019-04-27T11:12:15Z</time>
      </trkpt>
      <trkpt lat="45.6466" lon="4.41343">
        <ele>588</ele>
        <time>2019-04-27T11:13:15Z</time>
      </trkpt>
      <trkpt lat="45.64626" lon="4.41332">
        <ele>584</ele>
        <time>2019-04-27T11:14:15Z</time>
      </trkpt>
      <trkpt lat="45.64608" lon="4.41322">
        <ele>582</ele>
        <time>2019-04-27T11:15:15Z</time>
      </trkpt>
      <trkpt lat="45.64529" lon="4.41242">
        <ele>579</ele>
        <time>2019-04-27T11:16:15Z</time>
      </trkpt>
      <trkpt lat="45.64474" lon="4.41198">
        <ele>580</ele>
        <time>2019-04-27T11:17:15Z</time>
      </trkpt>
      <trkpt lat="45.64462" lon="4.41206">
        <ele>579</ele>
        <time>2019-04-27T11:18:15Z</time>
      </trkpt>
      <trkpt lat="45.64443" lon="4.41234">
        <ele>580</ele>
        <time>2019-04-27T11:19:15Z</time>
      </trkpt>
      <trkpt lat="45.64429" lon="4.41246">
        <ele>582</ele>
        <time>2019-04-27T11:20:15Z</time>
      </trkpt>
      <trkpt lat="45.64409" lon="4.41255">
        <ele>587</ele>
        <time>2019-04-27T11:21:15Z</time>
      </trkpt>
      <trkpt lat="45.64393" lon="4.41249">
        <ele>591</ele>
        <time>2019-04-27T11:22:15Z</time>
      </trkpt>
      <trkpt lat="45.64384" lon="4.41242">
        <ele>594</ele>
        <time>2019-04-27T11:23:15Z</time>
      </trkpt>
      <trkpt lat="45.64338" lon="4.41183">
        <ele>598</ele>
        <time>2019-04-27T11:24:15Z</time>
      </trkpt>
      <trkpt lat="45.64291" lon="4.41148">
        <ele>601</ele>
        <time>2019-04-27T11:25:15Z</time>
      </trkpt>
      <trkpt lat="45.64226" lon="4.4112">
        <ele>603</ele>
        <time>2019-04-27T11:26:15Z</time>
      </trkpt>
      <trkpt lat="45.64202" lon="4.41123">
        <ele>601</ele>
        <time>2019-04-27T11:27:15Z</time>
      </trkpt>
      <trkpt lat="45.6419" lon="4.41128">
        <ele>602</ele>
        <time>2019-04-27T11:28:15Z</time>
      </trkpt>
      <trkpt lat="45.64106" lon="4.41179">
        <ele>603</ele>
        <time>2019-04-27T11:29:15Z</time>
      </trkpt>
      <trkpt lat="45.6409" lon="4.41195">
        <ele>604</ele>
        <time>2019-04-27T11:30:15Z</time>
      </trkpt>
      <trkpt lat="45.64064" lon="4.41239">
        <ele>605</ele>
        <time>2019-04-27T11:31:15Z</time>
      </trkpt>
      <trkpt lat="45.6405" lon="4.41268">
        <ele>606</ele>
        <time>2019-04-27T11:32:15Z</time>
      </trkpt>
      <trkpt lat="45.64047" lon="4.4127">
        <ele>605</ele>
        <time>2019-04-27T11:33:15Z</time>
      </trkpt>
      <trkpt lat="45.64045" lon="4.41263">
        <ele>604</ele>
        <time>2019-04-27T11:34:15Z</time>
      </trkpt>
      <trkpt lat="45.64045" lon="4.41235">
        <ele>601</ele>
        <time>2019-04-27T11:35:15Z</time>
      </trkpt>
      <trkpt lat="45.64048" lon="4.41202">
        <ele>597</ele>
        <time>2019-04-27T11:36:15Z</time>
      </trkpt>
      <trkpt lat="45.64056" lon="4.41151">
        <ele>590</ele>
        <time>2019-04-27T11:37:15Z</time>
      </trkpt>
      <trkpt lat="45.64066" lon="4.41129">
        <ele>588</ele>
        <time>2019-04-27T11:38:15Z</time>
      </trkpt>
      <trkpt lat="45.64063" lon="4.41124">
        <ele>586</ele>
        <time>2019-04-27T11:39:15Z</time>
      </trkpt>
      <trkpt lat="45.64017" lon="4.41099">
        <ele>575</ele>
        <time>2019-04-27T11:40:15Z</time>
      </trkpt>
      <trkpt lat="45.63992" lon="4.41092">
        <ele>570</ele>
        <time>2019-04-27T11:41:15Z</time>
      </trkpt>
      <trkpt lat="45.63987" lon="4.41094">
        <ele>570</ele>
        <time>2019-04-27T11:42:15Z</time>
      </trkpt>
      <trkpt lat="45.63985" lon="4.41092">
        <ele>570</ele>
        <time>2019-04-27T11:43:15Z</time>
      </trkpt>
      <trkpt lat="45.63988" lon="4.41082">
        <ele>569</ele>
        <time>2019-04-27T11:44:15Z</time>
      </trkpt>
      <trkpt lat="45.64023" lon="4.41065">
        <ele>571</ele>
        <time>2019-04-27T11:45:15Z</time>
      </trkpt>
      <trkpt lat="45.64036" lon="4.41061">
        <ele>572</ele>
        <time>2019-04-27T11:46:15Z</time>
      </trkpt>
      <trkpt lat="45.64045" lon="4.41022">
        <ele>570</ele>
        <time>2019-04-27T11:47:15Z</time>
      </trkpt>
      <trkpt lat="45.64044" lon="4.41013">
        <ele>569</ele>
        <time>2019-04-27T11:48:15Z</time>
      </trkpt>
      <trkpt lat="45.64013" lon="4.40997">
        <ele>565</ele>
        <time>2019-04-27T11:49:15Z</time>
      </trkpt>
      <trkpt lat="45.63999" lon="4.40985">
        <ele>564</ele>
        <time>2019-04-27T11:50:15Z</time>
      </trkpt>
      <trkpt lat="45.63972" lon="4.40953">
        <ele>564</ele>
        <time>2019-04-27T11:51:15Z</time>
      </trkpt>
      <trkpt lat="45.63932" lon="4.40933">
        <ele>561</ele>
        <time>2019-04-27T11:52:15Z</time>
      </trkpt>
      <trkpt lat="45.63923" lon="4.40913">
        <ele>562</ele>
        <time>2019-04-27T11:53:15Z</time>
      </trkpt>
      <trkpt lat="45.63911" lon="4.40869">
        <ele>567</ele>
        <time>2019-04-27T11:54:15Z</time>
      </trkpt>
      <trkpt lat="45.63901" lon="4.4081">
        <ele>572</ele>
        <time>2019-04-27T11:55:15Z</time>
      </trkpt>
      <trkpt lat="45.63904" lon="4.40746">
        <ele>577</ele>
        <time>2019-04-27T11:56:15Z</time>
      </trkpt>
      <trkpt lat="45.639" lon="4.40717">
        <ele>578</ele>
        <time>2019-04-27T11:57:15Z</time>
      </trkpt>
      <trkpt lat="45.63874" lon="4.40685">
        <ele>578</ele>
        <time>2019-04-27T11:58:15Z</time>
      </trkpt>
      <trkpt lat="45.63865" lon="4.40662">
        <ele>579</ele>
        <time>2019-04-27T11:59:15Z</time>
      </trkpt>
      <trkpt lat="45.6386" lon="4.40659">
        <ele>579</ele>
        <time>2019-04-27T12:00:15Z</time>
      </trkpt>
      <trkpt lat="45.63815" lon="4.40727">
        <ele>572</ele>
        <time>2019-04-27T12:01:15Z</time>
      </trkpt>
      <trkpt lat="45.63791" lon="4.40803">
        <ele>567</ele>
        <time>2019-04-27T12:02:15Z</time>
      </trkpt>
      <trkpt lat="45.63772" lon="4.40853">
        <ele>562</ele>
        <time>2019-04-27T12:03:15Z</time>
      </trkpt>
      <trkpt lat="45.63743" lon="4.40896">
        <ele>557</ele>
        <time>2019-04-27T12:04:15Z</time>
      </trkpt>
      <trkpt lat="45.63712" lon="4.40904">
        <ele>555</ele>
        <time>2019-04-27T12:05:15Z</time>
      </trkpt>
      <trkpt lat="45.63709" lon="4.40909">
        <ele>555</ele>
        <time>2019-04-27T12:06:15Z</time>
      </trkpt>
      <trkpt lat="45.63709" lon="4.40916">
        <ele>554</ele>
        <time>2019-04-27T12:07:15Z</time>
      </trkpt>
      <trkpt lat="45.63713" lon="4.40922">
        <ele>554</ele>
        <time>2019-04-27T12:08:15Z</time>
      </trkpt>
      <trkpt lat="45.63713" lon="4.40965">
        <ele>555</ele>
        <time>2019-04-27T12:09:15Z</time>
      </trkpt>
      <trkpt lat="45.63706" lon="4.40976">
        <ele>555</ele>
        <time>2019-04-27T12:10:15Z</time>
      </trkpt>
      <trkpt lat="45.63675" lon="4.41011">
        <ele>554</ele>
        <time>2019-04-27T12:11:15Z</time>
      </trkpt>
      <trkpt lat="45.63613" lon="4.41101">
        <ele>559</ele>
        <time>2019-04-27T12:12:15Z</time>
      </trkpt>
      <trkpt lat="45.63566" lon="4.41176">
        <ele>563</ele>
        <time>2019-04-27T12:13:15Z</time>
      </trkpt>
      <trkpt lat="45.63525" lon="4.413">
        <ele>572</ele>
        <time>2019-04-27T12:14:15Z</time>
      </trkpt>
      <trkpt lat="45.63509" lon="4.41341">
        <ele>574</ele>
        <time>2019-04-27T12:15:15Z</time>
      </trkpt>
      <trkpt lat="45.63491" lon="4.41377">
        <ele>575</ele>
        <time>2019-04-27T12:16:15Z</time>
      </trkpt>
      <trkpt lat="45.63483" lon="4.41401">
        <ele>576</ele>
        <time>2019-04-27T12:17:15Z</time>
      </trkpt>
      <trkpt lat="45.63468" lon="4.41465">
        <ele>579</ele>
        <time>2019-04-27T12:18:15Z</time>
      </trkpt>
      <trkpt lat="45.63462" lon="4.41471">
        <ele>579</ele>
        <time>2019-04-27T12:19:15Z</time>
      </trkpt>
      <trkpt lat="45.63391" lon="4.41469">
        <ele>576</ele>
        <time>2019-04-27T12:20:15Z</time>
      </trkpt>
      <trkpt lat="45.63293" lon="4.41447">
        <ele>572</ele>
        <time>2019-04-27T12:21:15Z</time>
      </trkpt>
      <trkpt lat="45.63113" lon="4.41393">
        <ele>562</ele>
        <time>2019-04-27T12:22:15Z</time>
      </trkpt>
      <trkpt lat="45.63078" lon="4.4138">
        <ele>560</ele>
        <time>2019-04-27T12:23:15Z</time>
      </trkpt>
      <trkpt lat="45.63059" lon="4.41366">
        <ele>559</ele>
        <time>2019-04-27T12:24:15Z</time>
      </trkpt>
      <trkpt lat="45.63052" lon="4.41364">
        <ele>559</ele>
        <time>2019-04-27T12:25:15Z</time>
      </trkpt>
      <trkpt lat="45.63042" lon="4.4137">
        <ele>559</ele>
        <time>2019-04-27T12:26:15Z</time>
      </trkpt>
      <trkpt lat="45.63037" lon="4.41407">
        <ele>558</ele>
        <time>2019-04-27T12:27:15Z</time>
      </trkpt>
      <trkpt lat="45.6304" lon="4.41457">
        <ele>558</ele>
        <time>2019-04-27T12:28:15Z</time>
      </trkpt>
      <trkpt lat="45.63072" lon="4.41627">
        <ele>551</ele>
        <time>2019-04-27T12:29:15Z</time>
      </trkpt>
      <trkpt lat="45.63094" lon="4.4178">
        <ele>543</ele>
        <time>2019-04-27T12:30:15Z</time>
      </trkpt>
      <trkpt lat="45.6311" lon="4.41987">
        <ele>541</ele>
        <time>2019-04-27T12:31:15Z</time>
      </trkpt>
      <trkpt lat="45.63128" lon="4.4231">
        <ele>524</ele>
        <time>2019-04-27T12:32:15Z</time>
      </trkpt>
      <trkpt lat="45.63126" lon="4.42315">
        <ele>525</ele>
        <time>2019-04-27T12:33:15Z</time>
      </trkpt>
      <trkpt lat="45.63122" lon="4.42314">
        <ele>525</ele>
        <time>2019-04-27T12:34:15Z</time>
      </trkpt>
      <trkpt lat="45.63094" lon="4.42246">
        <ele>519</ele>
        <time>2019-04-27T12:35:15Z</time>
      </trkpt>
      <trkpt lat="45.63006" lon="4.42238">
        <ele>514</ele>
        <time>2019-04-27T12:36:15Z</time>
      </trkpt>
      <trkpt lat="45.62981" lon="4.42232">
        <ele>515</ele>
        <time>2019-04-27T12:37:15Z</time>
      </trkpt>
      <trkpt lat="45.6295" lon="4.42241">
        <ele>516</ele>
        <time>2019-04-27T12:38:15Z</time>
      </trkpt>
      <trkpt lat="45.62906" lon="4.42263">
        <ele>520</ele>
        <time>2019-04-27T12:39:15Z</time>
      </trkpt>
      <trkpt lat="45.6287" lon="4.42288">
        <ele>524</ele>
        <time>2019-04-27T12:40:15Z</time>
      </trkpt>
      <trkpt lat="45.62843" lon="4.42314">
        <ele>526</ele>
        <time>2019-04-27T12:41:15Z</time>
      </trkpt>
      <trkpt lat="45.6283" lon="4.42334">
        <ele>528</ele>
        <time>2019-04-27T12:42:15Z</time>
      </trkpt>
      <trkpt lat="45.62828" lon="4.42348">
        <ele>528</ele>
        <time>2019-04-27T12:43:15Z</time>
      </trkpt>
      <trkpt lat="45.62818" lon="4.42368">
        <ele>527</ele>
        <time>2019-04-27T12:44:15Z</time>
      </trkpt>
      <trkpt lat="45.62811" lon="4.4239">
        <ele>527</ele>
        <time>2019-04-27T12:45:15Z</time>
      </trkpt>
      <trkpt lat="45.62793" lon="4.42468">
        <ele>526</ele>
        <time>2019-04-27T12:46:15Z</time>
      </trkpt>
      <trkpt lat="45.62775" lon="4.42515">
        <ele>525</ele>
        <time>2019-04-27T12:47:15Z</time>
      </trkpt>
      <trkpt lat="45.62762" lon="4.42567">
        <ele>525</ele>
        <time>2019-04-27T12:48:15Z</time>
      </trkpt>
      <trkpt lat="45.62762" lon="4.42609">
        <ele>525</ele>
        <time>2019-04-27T12:49:15Z</time>
      </trkpt>
      <trkpt lat="45.62773" lon="4.42726">
        <ele>522</ele>
        <time>2019-04-27T12:50:15Z</time>
      </trkpt>
      <trkpt lat="45.62782" lon="4.42782">
        <ele>519</ele>
        <time>2019-04-27T12:51:15Z</time>
      </trkpt>
      <trkpt lat="45.62779" lon="4.42825">
        <ele>516</ele>
        <time>2019-04-27T12:52:15Z</time>
      </trkpt>
      <trkpt lat="45.62771" lon="4.42858">
        <ele>515</ele>
        <time>2019-04-27T12:53:15Z</time>
      </trkpt>
      <trkpt lat="45.62746" lon="4.42893">
        <ele>513</ele>
        <time>2019-04-27T12:54:15Z</time>
      </trkpt>
      <trkpt lat="45.62714" lon="4.42958">
        <ele>510</ele>
        <time>2019-04-27T12:55:15Z</time>
      </trkpt>
      <trkpt lat="45.62676" lon="4.43019">
        <ele>510</ele>
        <time>2019-04-27T12:56:15Z</time>
      </trkpt>
      <trkpt lat="45.62666" lon="4.43051">
        <ele>511</ele>
        <time>2019-04-27T12:57:15Z</time>
      </trkpt>
      <trkpt lat="45.62658" lon="4.43092">
        <ele>510</ele>
        <time>2019-04-27T12:58:15Z</time>
      </trkpt>
      <trkpt lat="45.62659" lon="4.43097">
        <ele>511</ele>
        <time>2019-04-27T12:59:15Z</time>
      </trkpt>
      <trkpt lat="45.62663" lon="4.43098">
        <ele>511</ele>
        <time>2019-04-27T13:00:15Z</time>
      </trkpt>
      <trkpt lat="45.62714" lon="4.43077">
        <ele>514</ele>
        <time>2019-04-27T13:01:15Z</time>
      </trkpt>
      <trkpt lat="45.6273" lon="4.43075">
        <ele>515</ele>
        <time>2019-04-27T13:02:15Z</time>
      </trkpt>
      <trkpt lat="45.62763" lon="4.43083">
        <ele>518</ele>
        <time>2019-04-27T13:03:15Z</time>
      </trkpt>
      <trkpt lat="45.62776" lon="4.43091">
        <ele>520</ele>
        <time>2019-04-27T13:04:15Z</time>
      </trkpt>
      <trkpt lat="45.62793" lon="4.4311">
        <ele>523</ele>
        <time>2019-04-27T13:05:15Z</time>
      </trkpt>
      <trkpt lat="45.62806" lon="4.4313">
        <ele>526</ele>
        <time>2019-04-27T13:06:15Z</time>
      </trkpt>
      <trkpt lat="45.62824" lon="4.43146">
        <ele>529</ele>
        <time>2019-04-27T13:07:15Z</time>
      </trkpt>
      <trkpt lat="45.62837" lon="4.43155">
        <ele>531</ele>
        <time>2019-04-27T13:08:15Z</time>
      </trkpt>
      <trkpt lat="45.62853" lon="4.43158">
        <ele>532</ele>
        <time>2019-04-27T13:09:15Z</time>
      </trkpt>
      <trkpt lat="45.62858" lon="4.43177">
        <ele>534</ele>
        <time>2019-04-27T13:10:15Z</time>
      </trkpt>
      <trkpt lat="45.6286" lon="4.43214">
        <ele>536</ele>
        <time>2019-04-27T13:11:15Z</time>
      </trkpt>
      <trkpt lat="45.62852" lon="4.43249">
        <ele>538</ele>
        <time>2019-04-27T13:12:15Z</time>
      </trkpt>
      <trkpt lat="45.6284" lon="4.43363">
        <ele>547</ele>
        <time>2019-04-27T13:13:15Z</time>
      </trkpt>
      <trkpt lat="45.62847" lon="4.43552">
        <ele>556</ele>
        <time>2019-04-27T13:14:15Z</time>
      </trkpt>
      <trkpt lat="45.62851" lon="4.43577">
        <ele>557</ele>
        <time>2019-04-27T13:15:15Z</time>
      </trkpt>
      <trkpt lat="45.62897" lon="4.43686">
        <ele>557</ele>
        <time>2019-04-27T13:16:15Z</time>
      </trkpt>
      <trkpt lat="45.62915" lon="4.43723">
        <ele>557</ele>
        <time>2019-04-27T13:17:15Z</time>
      </trkpt>
      <trkpt lat="45.62947" lon="4.4378">
        <ele>556</ele>
        <time>2019-04-27T13:18:15Z</time>
      </trkpt>
      <trkpt lat="45.62962" lon="4.43796">
        <ele>556</ele>
        <time>2019-04-27T13:19:15Z</time>
      </trkpt>
      <trkpt lat="45.62987" lon="4.43846">
        <ele>555</ele>
        <time>2019-04-27T13:20:15Z</time>
      </trkpt>
      <trkpt lat="45.62993" lon="4.43868">
        <ele>555</ele>
        <time>2019-04-27T13:21:15Z</time>
      </trkpt>
      <trkpt lat="45.62996" lon="4.43891">
        <ele>555</ele>
        <time>2019-04-27T13:22:15Z</time>
      </trkpt>
      <trkpt lat="45.62996" lon="4.43929">
        <ele>554</ele>
        <time>2019-04-27T13:23:15Z</time>
      </trkpt>
      <trkpt lat="45.63" lon="4.43942">
        <ele>554</ele>
        <time>2019-04-27T13:24:15Z</time>
      </trkpt>
      <trkpt lat="45.62999" lon="4.43959">
        <ele>553</ele>
        <time>2019-04-27T13:25:15Z</time>
      </trkpt>
      <trkpt lat="45.63002" lon="4.43973">
        <ele>553</ele>
        <time>2019-04-27T13:26:15Z</time>
      </trkpt>
      <trkpt lat="45.63008" lon="4.43987">
        <ele>554</ele>
        <time>2019-04-27T13:27:15Z</time>
      </trkpt>
      <trkpt lat="45.63046" lon="4.44032">
        <ele>559</ele>
        <time>2019-04-27T13:28:15Z</time>
      </trkpt>
      <trkpt lat="45.63053" lon="4.44045">
        <ele>560</ele>
        <time>2019-04-27T13:29:15Z</time>
      </trkpt>
      <trkpt lat="45.63056" lon="4.44059">
        <ele>560</ele>
        <time>2019-04-27T13:30:15Z</time>
      </trkpt>
      <trkpt lat="45.63052" lon="4.4415">
        <ele>564</ele>
        <time>2019-04-27T13:31:15Z</time>
      </trkpt>
      <trkpt lat="45.63046" lon="4.44155">
        <ele>564</ele>
        <time>2019-04-27T13:32:15Z</time>
      </trkpt>
      <trkpt lat="45.63019" lon="4.44156">
        <ele>562</ele>
        <time>2019-04-27T13:33:15Z</time>
      </trkpt>
      <trkpt lat="45.62985" lon="4.44166">
        <ele>561</ele>
        <time>2019-04-27T13:34:15Z</time>
      </trkpt>
      <trkpt lat="45.62976" lon="4.44166">
        <ele>560</ele>
        <time>2019-04-27T13:35:15Z</time>
      </trkpt>
      <trkpt lat="45.62951" lon="4.44154">
        <ele>556</ele>
        <time>2019-04-27T13:36:15Z</time>
      </trkpt>
      <trkpt lat="45.62917" lon="4.44151">
        <ele>553</ele>
        <time>2019-04-27T13:37:15Z</time>
      </trkpt>
      <trkpt lat="45.62869" lon="4.44157">
        <ele>550</ele>
        <time>2019-04-27T13:38:15Z</time>
      </trkpt>
      <trkpt lat="45.62836" lon="4.44144">
        <ele>546</ele>
        <time>2019-04-27T13:39:15Z</time>
      </trkpt>
      <trkpt lat="45.62813" lon="4.4414">
        <ele>545</ele>
        <time>2019-04-27T13:40:15Z</time>
      </trkpt>
      <trkpt lat="45.62787" lon="4.44149">
        <ele>545</ele>
        <time>2019-04-27T13:41:15Z</time>
      </trkpt>
      <trkpt lat="45.62727" lon="4.44182">
        <ele>543</ele>
        <time>2019-04-27T13:42:15Z</time>
      </trkpt>
      <trkpt lat="45.62699" lon="4.44191">
        <ele>542</ele>
        <time>2019-04-27T13:43:15Z</time>
      </trkpt>
      <trkpt lat="45.62633" lon="4.44237">
        <ele>541</ele>
        <time>2019-04-27T13:44:15Z</time>
      </trkpt>
      <trkpt lat="45.62596" lon="4.44245">
        <ele>539</ele>
        <time>2019-04-27T13:45:15Z</time>
      </trkpt>
      <trkpt lat="45.62555" lon="4.44272">
        <ele>534</ele>
        <time>2019-04-27T13:46:15Z</time>
      </trkpt>
      <trkpt lat="45.62514" lon="4.44305">
        <ele>529</ele>
        <time>2019-04-27T13:47:15Z</time>
      </trkpt>
      <trkpt lat="45.62505" lon="4.44316">
        <ele>528</ele>
        <time>2019-04-27T13:48:15Z</time>
      </trkpt>
      <trkpt lat="45.62467" lon="4.44389">
        <ele>521</ele>
        <time>2019-04-27T13:49:15Z</time>
      </trkpt>
      <trkpt lat="45.62429" lon="4.4439">
        <ele>514</ele>
        <time>2019-04-27T13:50:15Z</time>
      </trkpt>
      <trkpt lat="45.62414" lon="4.44384">
        <ele>511</ele>
        <time>2019-04-27T13:51:15Z</time>
      </trkpt>
      <trkpt lat="45.62416" lon="4.44342">
        <ele>511</ele>
        <time>2019-04-27T13:52:15Z</time>
      </trkpt>
      <trkpt lat="45.62411" lon="4.44331">
        <ele>510</ele>
        <time>2019-04-27T13:53:15Z</time>
      </trkpt>
      <trkpt lat="45.62406" lon="4.44327">
        <ele>508</ele>
        <time>2019-04-27T13:54:15Z</time>
      </trkpt>
      <trkpt lat="45.62396" lon="4.44325">
        <ele>506</ele>
        <time>2019-04-27T13:55:15Z</time>
      </trkpt>
      <trkpt lat="45.62385" lon="4.44331">
        <ele>504</ele>
        <time>2019-04-27T13:56:15Z</time>
      </trkpt>
      <trkpt lat="45.62365" lon="4.44359">
        <ele>501</ele>
        <time>2019-04-27T13:57:15Z</time>
      </trkpt>
      <trkpt lat="45.6235" lon="4.44389">
        <ele>499</ele>
        <time>2019-04-27T13:58:15Z</time>
      </trkpt>
      <trkpt lat="45.62339" lon="4.44422">
        <ele>498</ele>
        <time>2019-04-27T13:59:15Z</time>
      </trkpt>
      <trkpt lat="45.62334" lon="4.44431">
        <ele>497</ele>
        <time>2019-04-27T14:00:15Z</time>
      </trkpt>
      <trkpt lat="45.62325" lon="4.44439">
        <ele>497</ele>
        <time>2019-04-27T14:01:15Z</time>
      </trkpt>
      <trkpt lat="45.62312" lon="4.44464">
        <ele>496</ele>
        <time>2019-04-27T14:02:15Z</time>
      </trkpt>
      <trkpt lat="45.6231" lon="4.44474">
        <ele>495</ele>
        <time>2019-04-27T14:03:15Z</time>
      </trkpt>
      <trkpt lat="45.62314" lon="4.44484">
        <ele>496</ele>
        <time>2019-04-27T14:04:15Z</time>
      </trkpt>
      <trkpt lat="45.62342" lon="4.44519">
        <ele>498</ele>
        <time>2019-04-27T14:05:15Z</time>
      </trkpt>
      <trkpt lat="45.6239" lon="4.44591">
        <ele>501</ele>
        <time>2019-04-27T14:06:15Z</time>
      </trkpt>
      <trkpt lat="45.62397" lon="4.44618">
        <ele>504</ele>
        <time>2019-04-27T14:07:15Z</time>
      </trkpt>
      <trkpt lat="45.62397" lon="4.44637">
        <ele>506</ele>
        <time>2019-04-27T14:08:15Z</time>
      </trkpt>
      <trkpt lat="45.624" lon="4.44644">
        <ele>507</ele>
        <time>2019-04-27T14:09:15Z</time>
      </trkpt>
      <trkpt lat="45.62407" lon="4.44647">
        <ele>507</ele>
        <time>2019-04-27T14:10:15Z</time>
      </trkpt>
      <trkpt lat="45.62478" lon="4.44654">
        <ele>512</ele>
        <time>2019-04-27T14:11:15Z</time>
      </trkpt>
      <trkpt lat="45.6253" lon="4.44641">
        <ele>514</ele>
        <time>2019-04-27T14:12:15Z</time>
      </trkpt>
      <trkpt lat="45.62543" lon="4.44643">
        <ele>515</ele>
        <time>2019-04-27T14:13:15Z</time>
      </trkpt>
      <trkpt lat="45.62559" lon="4.44651">
        <ele>516</ele>
        <time>2019-04-27T14:14:15Z</time>
      </trkpt>
      <trkpt lat="45.62585" lon="4.44672">
        <ele>520</ele>
        <time>2019-04-27T14:15:15Z</time>
      </trkpt>
      <trkpt lat="45.62657" lon="4.44776">
        <ele>535</ele>
        <time>2019-04-27T14:16:15Z</time>
      </trkpt>
      <trkpt lat="45.62684" lon="4.44806">
        <ele>539</ele>
        <time>2019-04-27T14:17:15Z</time>
      </trkpt>
      <trkpt lat="45.62716" lon="4.44833">
        <ele>539</ele>
        <time>2019-04-27T14:18:15Z</time>
      </trkpt>
      <trkpt lat="45.62743" lon="4.44843">
        <ele>540</ele>
        <time>2019-04-27T14:19:15Z</time>
      </trkpt>
      <trkpt lat="45.62764" lon="4.44839">
        <ele>538</ele>
        <time>2019-04-27T14:20:15Z</time>
      </trkpt>
      <trkpt lat="45.62795" lon="4.44827">
        <ele>538</ele>
        <time>2019-04-27T14:21:15Z</time>
      </trkpt>
      <trkpt lat="45.62811" lon="4.44808">
        <ele>542</ele>
        <time>2019-04-27T14:22:15Z</time>
      </trkpt>
      <trkpt lat="45.62824" lon="4.44802">
        <ele>543</ele>
        <time>2019-04-27T14:23:15Z</time>
      </trkpt>
      <trkpt lat="45.62845" lon="4.44815">
        <ele>542</ele>
        <time>2019-04-27T14:24:15Z</time>
      </trkpt>
      <trkpt lat="45.62856" lon="4.44844">
        <ele>541</ele>
        <time>2019-04-27T14:25:15Z</time>
      </trkpt>
      <trkpt lat="45.62864" lon="4.44886">
        <ele>544</ele>
        <time>2019-04-27T14:26:15Z</time>
      </trkpt>
      <trkpt lat="45.62869" lon="4.44926">
        <ele>545</ele>
        <time>2019-04-27T14:27:15Z</time>
      </trkpt>
      <trkpt lat="45.62869" lon="4.4497">
        <ele>547</ele>
        <time>2019-04-27T14:28:15Z</time>
      </trkpt>
      <trkpt lat="45.6288" lon="4.45009">
        <ele>546</ele>
        <time>2019-04-27T14:29:15Z</time>
      </trkpt>
      <trkpt lat="45.62888" lon="4.45025">
        <ele>547</ele>
        <time>2019-04-27T14:30:15Z</time>
      </trkpt>
      <trkpt lat="45.62927" lon="4.45067">
        <ele>548</ele>
        <time>2019-04-27T14:31:15Z</time>
      </trkpt>
      <trkpt lat="45.62955" lon="4.45086">
        <ele>549</ele>
        <time>2019-04-27T14:32:15Z</time>
      </trkpt>
      <trkpt lat="45.62966" lon="4.45097">
        <ele>549</ele>
        <time>2019-04-27T14:33:15Z</time>
      </trkpt>
      <trkpt lat="45.62993" lon="4.45168">
        <ele>553</ele>
        <time>2019-04-27T14:34:15Z</time>
      </trkpt>
      <trkpt lat="45.63013" lon="4.45196">
        <ele>555</ele>
        <time>2019-04-27T14:35:15Z</time>
      </trkpt>
      <trkpt lat="45.63044" lon="4.45233">
        <ele>557</ele>
        <time>2019-04-27T14:36:15Z</time>
      </trkpt>
      <trkpt lat="45.63059" lon="4.45245">
        <ele>557</ele>
        <time>2019-04-27T14:37:15Z</time>
      </trkpt>
      <trkpt lat="45.63073" lon="4.4525">
        <ele>556</ele>
        <time>2019-04-27T14:38:15Z</time>
      </trkpt>
      <trkpt lat="45.63098" lon="4.45265">
        <ele>558</ele>
        <time>2019-04-27T14:39:15Z</time>
      </trkpt>
      <trkpt lat="45.63113" lon="4.45279">
        <ele>561</ele>
        <time>2019-04-27T14:40:15Z</time>
      </trkpt>
      <trkpt lat="45.63114" lon="4.45285">
        <ele>562</ele>
        <time>2019-04-27T14:41:15Z</time>
      </trkpt>
      <trkpt lat="45.63083" lon="4.45343">
        <ele>569</ele>
        <time>2019-04-27T14:42:15Z</time>
      </trkpt>
      <trkpt lat="45.63073" lon="4.45353">
        <ele>569</ele>
        <time>2019-04-27T14:43:15Z</time>
      </trkpt>
      <trkpt lat="45.63075" lon="4.45369">
        <ele>571</ele>
        <time>2019-04-27T14:44:15Z</time>
      </trkpt>
      <trkpt lat="45.63067" lon="4.45407">
        <ele>573</ele>
        <time>2019-04-27T14:45:15Z</time>
      </trkpt>
      <trkpt lat="45.63068" lon="4.45435">
        <ele>574</ele>
        <time>2019-04-27T14:46:15Z</time>
      </trkpt>
      <trkpt lat="45.62961" lon="4.45438">
        <ele>565</ele>
        <time>2019-04-27T14:47:15Z</time>
      </trkpt>
      <trkpt lat="45.62947" lon="4.45435">
        <ele>564</ele>
        <time>2019-04-27T14:48:15Z</time>
      </trkpt>
      <trkpt lat="45.62838" lon="4.45387">
        <ele>557</ele>
        <time>2019-04-27T14:49:15Z</time>
      </trkpt>
      <trkpt lat="45.6282" lon="4.45377">
        <ele>555</ele>
        <time>2019-04-27T14:50:15Z</time>
      </trkpt>
      <trkpt lat="45.62803" lon="4.45358">
        <ele>554</ele>
        <time>2019-04-27T14:51:15Z</time>
      </trkpt>
      <trkpt lat="45.62794" lon="4.45329">
        <ele>554</ele>
        <time>2019-04-27T14:52:15Z</time>
      </trkpt>
      <trkpt lat="45.62795" lon="4.45301">
        <ele>554</ele>
        <time>2019-04-27T14:53:15Z</time>
      </trkpt>
      <trkpt lat="45.62804" lon="4.45254">
        <ele>555</ele>
        <time>2019-04-27T14:54:15Z</time>
      </trkpt>
      <trkpt lat="45.62805" lon="4.45236">
        <ele>555</ele>
        <time>2019-04-27T14:55:15Z</time>
      </trkpt>
      <trkpt lat="45.62801" lon="4.45215">
        <ele>555</ele>
        <time>2019-04-27T14:56:15Z</time>
      </trkpt>
      <trkpt lat="45.62795" lon="4.45206">
        <ele>555</ele>
        <time>2019-04-27T14:57:15Z</time>
      </trkpt>
      <trkpt lat="45.62789" lon="4.45205">
        <ele>554</ele>
        <time>2019-04-27T14:58:15Z</time>
      </trkpt>
      <trkpt lat="45.6275" lon="4.45233">
        <ele>548</ele>
        <time>2019-04-27T14:59:15Z</time>
      </trkpt>
      <trkpt lat="45.62721" lon="4.45265">
        <ele>539</ele>
        <time>2019-04-27T15:00:15Z</time>
      </trkpt>
      <trkpt lat="45.62703" lon="4.45297">
        <ele>533</ele>
        <time>2019-04-27T15:01:15Z</time>
      </trkpt>
      <trkpt lat="45.62691" lon="4.45325">
        <ele>527</ele>
        <time>2019-04-27T15:02:15Z</time>
      </trkpt>
      <trkpt lat="45.62684" lon="4.45363">
        <ele>522</ele>
        <time>2019-04-27T15:03:15Z</time>
      </trkpt>
      <trkpt lat="45.62663" lon="4.45429">
        <ele>514</ele>
        <time>2019-04-27T15:04:15Z</time>
      </trkpt>
      <trkpt lat="45.6266" lon="4.45454">
        <ele>513</ele>
        <time>2019-04-27T15:05:15Z</time>
      </trkpt>
      <trkpt lat="45.62656" lon="4.45462">
        <ele>513</ele>
        <time>2019-04-27T15:06:15Z</time>
      </trkpt>
      <trkpt lat="45.62647" lon="4.45471">
        <ele>512</ele>
        <time>2019-04-27T15:07:15Z</time>
      </trkpt>
      <trkpt lat="45.6264" lon="4.45495">
        <ele>512</ele>
        <time>2019-04-27T15:08:15Z</time>
      </trkpt>
      <trkpt lat="45.62646" lon="4.45516">
        <ele>511</ele>
        <time>2019-04-27T15:09:15Z</time>
      </trkpt>
      <trkpt lat="45.62647" lon="4.4554">
        <ele>510</ele>
        <time>2019-04-27T15:10:15Z</time>
      </trkpt>
      <trkpt lat="45.62641" lon="4.45581">
        <ele>509</ele>
        <time>2019-04-27T15:11:15Z</time>
      </trkpt>
      <trkpt lat="45.62596" lon="4.45742">
        <ele>507</ele>
        <time>2019-04-27T15:12:15Z</time>
      </trkpt>
      <trkpt lat="45.6259" lon="4.45794">
        <ele>506</ele>
        <time>2019-04-27T15:13:15Z</time>
      </trkpt>
      <trkpt lat="45.62577" lon="4.45836">
        <ele>506</ele>
        <time>2019-04-27T15:14:15Z</time>
      </trkpt>
      <trkpt lat="45.62575" lon="4.45864">
        <ele>506</ele>
        <time>2019-04-27T15:15:15Z</time>
      </trkpt>
      <trkpt lat="45.62579" lon="4.45906">
        <ele>505</ele>
        <time>2019-04-27T15:16:15Z</time>
      </trkpt>
      <trkpt lat="45.62594" lon="4.45957">
        <ele>506</ele>
        <time>2019-04-27T15:17:15Z</time>
      </trkpt>
      <trkpt lat="45.62624" lon="4.46019">
        <ele>507</ele>
        <time>2019-04-27T15:18:15Z</time>
      </trkpt>
      <trkpt lat="45.62632" lon="4.46076">
        <ele>509</ele>
        <time>2019-04-27T15:19:15Z</time>
      </trkpt>
      <trkpt lat="45.62647" lon="4.46115">
        <ele>509</ele>
        <time>2019-04-27T15:20:15Z</time>
      </trkpt>
      <trkpt lat="45.62665" lon="4.46149">
        <ele>509</ele>
        <time>2019-04-27T15:21:15Z</time>
      </trkpt>
      <trkpt lat="45.62736" lon="4.46256">
        <ele>521</ele>
        <time>2019-04-27T15:22:15Z</time>
      </trkpt>
      <trkpt lat="45.6274" lon="4.46287">
        <ele>522</ele>
        <time>2019-04-27T15:23:15Z</time>
      </trkpt>
      <trkpt lat="45.62738" lon="4.46305">
        <ele>522</ele>
        <time>2019-04-27T15:24:15Z</time>
      </trkpt>
      <trkpt lat="45.6272" lon="4.46353">
        <ele>519</ele>
        <time>2019-04-27T15:25:15Z</time>
      </trkpt>
      <trkpt lat="45.62717" lon="4.46371">
        <ele>520</ele>
        <time>2019-04-27T15:26:15Z</time>
      </trkpt>
      <trkpt lat="45.62678" lon="4.46447">
        <ele>515</ele>
        <time>2019-04-27T15:27:15Z</time>
      </trkpt>
      <trkpt lat="45.62663" lon="4.46462">
        <ele>514</ele>
        <time>2019-04-27T15:28:15Z</time>
      </trkpt>
      <trkpt lat="45.62647" lon="4.46472">
        <ele>515</ele>
        <time>2019-04-27T15:29:15Z</time>
      </trkpt>
      <trkpt lat="45.62636" lon="4.46475">
        <ele>515</ele>
        <time>2019-04-27T15:30:15Z</time>
      </trkpt>
      <trkpt lat="45.62619" lon="4.46477">
        <ele>517</ele>
        <time>2019-04-27T15:31:15Z</time>
      </trkpt>
      <trkpt lat="45.626" lon="4.46475">
        <ele>518</ele>
        <time>2019-04-27T15:32:15Z</time>
      </trkpt>
      <trkpt lat="45.62548" lon="4.46484">
        <ele>526</ele>
        <time>2019-04-27T15:33:15Z</time>
      </trkpt>
      <trkpt lat="45.62538" lon="4.4649">
        <ele>528</ele>
        <time>2019-04-27T15:34:15Z</time>
      </trkpt>
      <trkpt lat="45.62517" lon="4.46512">
        <ele>535</ele>
        <time>2019-04-27T15:35:15Z</time>
      </trkpt>
      <trkpt lat="45.62494" lon="4.46525">
        <ele>540</ele>
        <time>2019-04-27T15:36:15Z</time>
      </trkpt>
      <trkpt lat="45.62486" lon="4.46523">
        <ele>542</ele>
        <time>2019-04-27T15:37:15Z</time>
      </trkpt>
      <trkpt lat="45.62484" lon="4.46578">
        <ele>546</ele>
        <time>2019-04-27T15:38:15Z</time>
      </trkpt>
      <trkpt lat="45.62446" lon="4.46749">
        <ele>561</ele>
        <time>2019-04-27T15:39:15Z</time>
      </trkpt>
      <trkpt lat="45.6236" lon="4.46895">
        <ele>563</ele>
        <time>2019-04-27T15:40:15Z</time>
      </trkpt>
      <trkpt lat="45.62336" lon="4.46922">
        <ele>564</ele>
        <time>2019-04-27T15:41:15Z</time>
      </trkpt>
      <trkpt lat="45.623" lon="4.46951">
        <ele>565</ele>
        <time>2019-04-27T15:42:15Z</time>
      </trkpt>
      <trkpt lat="45.62258" lon="4.4698">
        <ele>569</ele>
        <time>2019-04-27T15:43:15Z</time>
      </trkpt>
      <trkpt lat="45.6219" lon="4.47063">
        <ele>576</ele>
        <time>2019-04-27T15:44:15Z</time>
      </trkpt>
      <trkpt lat="45.62161" lon="4.47102">
        <ele>580</ele>
        <time>2019-04-27T15:45:15Z</time>
      </trkpt>
      <trkpt lat="45.6213" lon="4.4713">
        <ele>581</ele>
        <time>2019-04-27T15:46:15Z</time>
      </trkpt>
      <trkpt lat="45.62103" lon="4.47136">
        <ele>585</ele>
        <time>2019-04-27T15:47:15Z</time>
      </trkpt>
      <trkpt lat="45.62091" lon="4.47136">
        <ele>587</ele>
        <time>2019-04-27T15:48:15Z</time>
      </trkpt>
      <trkpt lat="45.62075" lon="4.47131">
        <ele>590</ele>
        <time>2019-04-27T15:49:15Z</time>
      </trkpt>
      <trkpt lat="45.62017" lon="4.47102">
        <ele>596</ele>
        <time>2019-04-27T15:50:15Z</time>
      </trkpt>
      <trkpt lat="45.62006" lon="4.47103">
        <ele>596</ele>
        <time>2019-04-27T15:51:15Z</time>
      </trkpt>
      <trkpt lat="45.61968" lon="4.47169">
        <ele>594</ele>
        <time>2019-04-27T15:52:15Z</time>
      </trkpt>
      <trkpt lat="45.61909" lon="4.47247">
        <ele>594</ele>
        <time>2019-04-27T15:53:15Z</time>
      </trkpt>
      <trkpt lat="45.61897" lon="4.47256">
        <ele>594</ele>
        <time>2019-04-27T15:54:15Z</time>
      </trkpt>
      <trkpt lat="45.61889" lon="4.47259">
        <ele>595</ele>
        <time>2019-04-27T15:55:15Z</time>
      </trkpt>
      <trkpt lat="45.61876" lon="4.4726">
        <ele>596</ele>
        <time>2019-04-27T15:56:15Z</time>
      </trkpt>
      <trkpt lat="45.61838" lon="4.4727">
        <ele>599</ele>
        <time>2019-04-27T15:57:15Z</time>
      </trkpt>
      <trkpt lat="45.61816" lon="4.47303">
        <ele>600</ele>
        <time>2019-04-27T15:58:15Z</time>
      </trkpt>
      <trkpt lat="45.61801" lon="4.47319">
        <ele>600</ele>
        <time>2019-04-27T15:59:15Z</time>
      </trkpt>
      <trkpt lat="45.61777" lon="4.47335">
        <ele>602</ele>
        <time>2019-04-27T16:00:15Z</time>
      </trkpt>
      <trkpt lat="45.61734" lon="4.47358">
        <ele>607</ele>
        <time>2019-04-27T16:01:15Z</time>
      </trkpt>
      <trkpt lat="45.61716" lon="4.47371">
        <ele>609</ele>
        <time>2019-04-27T16:02:15Z</time>
      </trkpt>
      <trkpt lat="45.61682" lon="4.4743">
        <ele>613</ele>
        <time>2019-04-27T16:03:15Z</time>
      </trkpt>
      <trkpt lat="45.61677" lon="4.47473">
        <ele>614</ele>
        <time>2019-04-27T16:04:15Z</time>
      </trkpt>
      <trkpt lat="45.61673" lon="4.47484">
        <ele>615</ele>
        <time>2019-04-27T16:05:15Z</time>
      </trkpt>
      <trkpt lat="45.61663" lon="4.47499">
        <ele>616</ele>
        <time>2019-04-27T16:06:15Z</time>
      </trkpt>
      <trkpt lat="45.61631" lon="4.47561">
        <ele>622</ele>
        <time>2019-04-27T16:07:15Z</time>
      </trkpt>
      <trkpt lat="45.61624" lon="4.47577">
        <ele>623</ele>
        <time>2019-04-27T16:08:15Z</time>
      </trkpt>
      <trkpt lat="45.61619" lon="4.47597">
        <ele>624</ele>
        <time>2019-04-27T16:09:15Z</time>
      </trkpt>
      <trkpt lat="45.61591" lon="4.47646">
        <ele>628</ele>
        <time>2019-04-27T16:10:15Z</time>
      </trkpt>
      <trkpt lat="45.61586" lon="4.47647">
        <ele>628</ele>
        <time>2019-04-27T16:11:15Z</time>
      </trkpt>
      <trkpt lat="45.61581" lon="4.47643">
        <ele>629</ele>
        <time>2019-04-27T16:12:15Z</time>
      </trkpt>
      <trkpt lat="45.61486" lon="4.47482">
        <ele>641</ele>
        <time>2019-04-27T16:13:15Z</time>
      </trkpt>
      <trkpt lat="45.61441" lon="4.47428">
        <ele>643</ele>
        <time>2019-04-27T16:14:15Z</time>
      </trkpt>
      <trkpt lat="45.61419" lon="4.47407">
        <ele>645</ele>
        <time>2019-04-27T16:15:15Z</time>
      </trkpt>
      <trkpt lat="45.61396" lon="4.47394">
        <ele>643</ele>
        <time>2019-04-27T16:16:15Z</time>
      </trkpt>
      <trkpt lat="45.61391" lon="4.47393">
        <ele>643</ele>
        <time>2019-04-27T16:17:15Z</time>
      </trkpt>
      <trkpt lat="45.61383" lon="4.47403">
        <ele>643</ele>
        <time>2019-04-27T16:18:15Z</time>
      </trkpt>
      <trkpt lat="45.61351" lon="4.47505">
        <ele>647</ele>
        <time>2019-04-27T16:19:15Z</time>
      </trkpt>
      <trkpt lat="45.61341" lon="4.4752">
        <ele>647</ele>
        <time>2019-04-27T16:20:15Z</time>
      </trkpt>
      <trkpt lat="45.6133" lon="4.47532">
        <ele>648</ele>
        <time>2019-04-27T16:21:15Z</time>
      </trkpt>
      <trkpt lat="45.61312" lon="4.47546">
        <ele>648</ele>
        <time>2019-04-27T16:22:15Z</time>
      </trkpt>
      <trkpt lat="45.61309" lon="4.47553">
        <ele>649</ele>
        <time>2019-04-27T16:23:15Z</time>
      </trkpt>
      <trkpt lat="45.6131" lon="4.47559">
        <ele>649</ele>
        <time>2019-04-27T16:24:15Z</time>
      </trkpt>
      <trkpt lat="45.61295" lon="4.47592">
        <ele>651</ele>
        <time>2019-04-27T16:25:15Z</time>
      </trkpt>
      <trkpt lat="45.61294" lon="4.476">
        <ele>652</ele>
        <time>2019-04-27T16:26:15Z</time>
      </trkpt>
      <trkpt lat="45.61324" lon="4.47626">
        <ele>651</ele>
        <time>2019-04-27T16:27:15Z</time>
      </trkpt>
      <trkpt lat="45.61338" lon="4.47649">
        <ele>651</ele>
        <time>2019-04-27T16:28:15Z</time>
      </trkpt>
      <trkpt lat="45.61347" lon="4.47672">
        <ele>650</ele>
        <time>2019-04-27T16:29:15Z</time>
      </trkpt>
      <trkpt lat="45.61354" lon="4.47754">
        <ele>648</ele>
        <time>2019-04-27T16:30:15Z</time>
      </trkpt>
      <trkpt lat="45.61352" lon="4.47776">
        <ele>648</ele>
        <time>2019-04-27T16:31:15Z</time>
      </trkpt>
      <trkpt lat="45.61344" lon="4.47796">
        <ele>649</ele>
        <time>2019-04-27T16:32:15Z</time>
      </trkpt>
      <trkpt lat="45.61335" lon="4.47809">
        <ele>650</ele>
        <time>2019-04-27T16:33:15Z</time>
      </trkpt>
      <trkpt lat="45.61324" lon="4.4782">
        <ele>651</ele>
        <time>2019-04-27T16:34:15Z</time>
      </trkpt>
      <trkpt lat="45.61315" lon="4.47825">
        <ele>651</ele>
        <time>2019-04-27T16:35:15Z</time>
      </trkpt>
      <trkpt lat="45.61297" lon="4.47845">
        <ele>652</ele>
        <time>2019-04-27T16:36:15Z</time>
      </trkpt>
      <trkpt lat="45.61291" lon="4.47867">
        <ele>651</ele>
        <time>2019-04-27T16:37:15Z</time>
      </trkpt>
      <trkpt lat="45.61297" lon="4.47891">
        <ele>649</ele>
        <time>2019-04-27T16:38:15Z</time>
      </trkpt>
      <trkpt lat="45.61292" lon="4.47923">
        <ele>648</ele>
        <time>2019-04-27T16:39:15Z</time>
      </trkpt>
      <trkpt lat="45.61293" lon="4.47936">
        <ele>647</ele>
        <time>2019-04-27T16:40:15Z</time>
      </trkpt>
      <trkpt lat="45.61311" lon="4.47971">
        <ele>644</ele>
        <time>2019-04-27T16:41:15Z</time>
      </trkpt>
      <trkpt lat="45.6133" lon="4.47991">
        <ele>642</ele>
        <time>2019-04-27T16:42:15Z</time>
      </trkpt>
      <trkpt lat="45.61335" lon="4.48002">
        <ele>641</ele>
        <time>2019-04-27T16:43:15Z</time>
      </trkpt>
      <trkpt lat="45.61337" lon="4.48033">
        <ele>637</ele>
        <time>2019-04-27T16:44:15Z</time>
      </trkpt>
      <trkpt lat="45.61333" lon="4.48056">
        <ele>635</ele>
        <time>2019-04-27T16:45:15Z</time>
      </trkpt>
      <trkpt lat="45.61328" lon="4.48065">
        <ele>634</ele>
        <time>2019-04-27T16:46:15Z</time>
      </trkpt>
      <trkpt lat="45.61284" lon="4.48068">
        <ele>635</ele>
        <time>2019-04-27T16:47:15Z</time>
      </trkpt>
      <trkpt lat="45.61267" lon="4.48076">
        <ele>634</ele>
        <time>2019-04-27T16:48:15Z</time>
      </trkpt>
      <trkpt lat="45.6126" lon="4.48083">
        <ele>634</ele>
        <time>2019-04-27T16:49:15Z</time>
      </trkpt>
      <trkpt lat="45.61237" lon="4.48124">
        <ele>631</ele>
        <time>2019-04-27T16:50:15Z</time>
      </trkpt>
      <trkpt lat="45.61219" lon="4.48139">
        <ele>631</ele>
        <time>2019-04-27T16:51:15Z</time>
      </trkpt>
      <trkpt lat="45.61184" lon="4.48182">
        <ele>631</ele>
        <time>2019-04-27T16:52:15Z</time>
      </trkpt>
      <trkpt lat="45.61133" lon="4.48237">
        <ele>629</ele>
        <time>2019-04-27T16:53:15Z</time>
      </trkpt>
      <trkpt lat="45.61123" lon="4.48246">
        <ele>629</ele>
        <time>2019-04-27T16:54:15Z</time>
      </trkpt>
      <trkpt lat="45.61094" lon="4.48252">
        <ele>632</ele>
        <time>2019-04-27T16:55:15Z</time>
      </trkpt>
      <trkpt lat="45.61088" lon="4.48257">
        <ele>632</ele>
        <time>2019-04-27T16:56:15Z</time>
      </trkpt>
      <trkpt lat="45.61088" lon="4.48296">
        <ele>629</ele>
        <time>2019-04-27T16:57:15Z</time>
      </trkpt>
      <trkpt lat="45.61084" lon="4.48321">
        <ele>628</ele>
        <time>2019-04-27T16:58:15Z</time>
      </trkpt>
      <trkpt lat="45.61084" lon="4.48353">
        <ele>627</ele>
        <time>2019-04-27T16:59:15Z</time>
      </trkpt>
      <trkpt lat="45.61111" lon="4.48409">
        <ele>624</ele>
        <time>2019-04-27T17:00:15Z</time>
      </trkpt>
      <trkpt lat="45.61126" lon="4.4848">
        <ele>626</ele>
        <time>2019-04-27T17:01:15Z</time>
      </trkpt>
      <trkpt lat="45.61149" lon="4.48548">
        <ele>627</ele>
        <time>2019-04-27T17:02:15Z</time>
      </trkpt>
      <trkpt lat="45.61154" lon="4.48586">
        <ele>628</ele>
        <time>2019-04-27T17:03:15Z</time>
      </trkpt>
      <trkpt lat="45.61149" lon="4.48646">
        <ele>627</ele>
        <time>2019-04-27T17:04:15Z</time>
      </trkpt>
      <trkpt lat="45.61125" lon="4.48694">
        <ele>623</ele>
        <time>2019-04-27T17:05:15Z</time>
      </trkpt>
      <trkpt lat="45.611" lon="4.48715">
        <ele>621</ele>
        <time>2019-04-27T17:06:15Z</time>
      </trkpt>
      <trkpt lat="45.6109" lon="4.48741">
        <ele>617</ele>
        <time>2019-04-27T17:07:15Z</time>
      </trkpt>
      <trkpt lat="45.61081" lon="4.48789">
        <ele>614</ele>
        <time>2019-04-27T17:08:15Z</time>
      </trkpt>
      <trkpt lat="45.61087" lon="4.48841">
        <ele>610</ele>
        <time>2019-04-27T17:09:15Z</time>
      </trkpt>
      <trkpt lat="45.6109" lon="4.48896">
        <ele>609</ele>
        <time>2019-04-27T17:10:15Z</time>
      </trkpt>
      <trkpt lat="45.61086" lon="4.48995">
        <ele>604</ele>
        <time>2019-04-27T17:11:15Z</time>
      </trkpt>
      <trkpt lat="45.61088" lon="4.4903">
        <ele>605</ele>
        <time>2019-04-27T17:12:15Z</time>
      </trkpt>
      <trkpt lat="45.61102" lon="4.49091">
        <ele>606</ele>
        <time>2019-04-27T17:13:15Z</time>
      </trkpt>
      <trkpt lat="45.611" lon="4.49125">
        <ele>608</ele>
        <time>2019-04-27T17:14:15Z</time>
      </trkpt>
      <trkpt lat="45.61087" lon="4.49158">
        <ele>610</ele>
        <time>2019-04-27T17:15:15Z</time>
      </trkpt>
      <trkpt lat="45.61085" lon="4.49192">
        <ele>611</ele>
        <time>2019-04-27T17:16:15Z</time>
      </trkpt>
      <trkpt lat="45.61111" lon="4.49242">
        <ele>615</ele>
        <time>2019-04-27T17:17:15Z</time>
      </trkpt>
      <trkpt lat="45.61113" lon="4.4925">
        <ele>616</ele>
        <time>2019-04-27T17:18:15Z</time>
      </trkpt>
      <trkpt lat="45.61096" lon="4.49301">
        <ele>621</ele>
        <time>2019-04-27T17:19:15Z</time>
      </trkpt>
      <trkpt lat="45.61088" lon="4.49369">
        <ele>629</ele>
        <time>2019-04-27T17:20:15Z</time>
      </trkpt>
      <trkpt lat="45.61093" lon="4.49437">
        <ele>639</ele>
        <time>2019-04-27T17:21:15Z</time>
      </trkpt>
      <trkpt lat="45.61118" lon="4.49552">
        <ele>654</ele>
        <time>2019-04-27T17:22:15Z</time>
      </trkpt>
      <trkpt lat="45.61117" lon="4.49574">
        <ele>657</ele>
        <time>2019-04-27T17:23:15Z</time>
      </trkpt>
      <trkpt lat="45.6114" lon="4.49691">
        <ele>666</ele>
        <time>2019-04-27T17:24:15Z</time>
      </trkpt>
      <trkpt lat="45.61158" lon="4.49803">
        <ele>676</ele>
        <time>2019-04-27T17:25:15Z</time>
      </trkpt>
      <trkpt lat="45.6116" lon="4.4985">
        <ele>679</ele>
        <time>2019-04-27T17:26:15Z</time>
      </trkpt>
      <trkpt lat="45.61157" lon="4.49893">
        <ele>683</ele>
        <time>2019-04-27T17:27:15Z</time>
      </trkpt>
      <trkpt lat="45.61153" lon="4.49898">
        <ele>683</ele>
        <time>2019-04-27T17:28:15Z</time>
      </trkpt>
      <trkpt lat="45.61098" lon="4.49854">
        <ele>680</ele>
        <time>2019-04-27T17:29:15Z</time>
      </trkpt>
      <trkpt lat="45.61018" lon="4.49813">
        <ele>674</ele>
        <time>2019-04-27T17:30:15Z</time>
      </trkpt>
      <trkpt lat="45.60997" lon="4.49794">
        <ele>673</ele>
        <time>2019-04-27T17:31:15Z</time>
      </trkpt>
      <trkpt lat="45.60953" lon="4.49746">
        <ele>666</ele>
        <time>2019-04-27T17:32:15Z</time>
      </trkpt>
      <trkpt lat="45.60926" lon="4.49732">
        <ele>663</ele>
        <time>2019-04-27T17:33:15Z</time>
      </trkpt>
      <trkpt lat="45.6089" lon="4.49705">
        <ele>657</ele>
        <time>2019-04-27T17:34:15Z</time>
      </trkpt>
      <trkpt lat="45.60877" lon="4.49692">
        <ele>655</ele>
        <time>2019-04-27T17:35:15Z</time>
      </trkpt>
      <trkpt lat="45.60813" lon="4.49609">
        <ele>640</ele>
        <time>2019-04-27T17:36:15Z</time>
      </trkpt>
      <trkpt lat="45.60804" lon="4.49605">
        <ele>640</ele>
        <time>2019-04-27T17:37:15Z</time>
      </trkpt>
      <trkpt lat="45.60758" lon="4.49604">
        <ele>641</ele>
        <time>2019-04-27T17:38:15Z</time>
      </trkpt>
      <trkpt lat="45.60754" lon="4.496">
        <ele>641</ele>
        <time>2019-04-27T17:39:15Z</time>
      </trkpt>
      <trkpt lat="45.60738" lon="4.49546">
        <ele>643</ele>
        <time>2019-04-27T17:40:15Z</time>
      </trkpt>
      <trkpt lat="45.60729" lon="4.49537">
        <ele>645</ele>
        <time>2019-04-27T17:41:15Z</time>
      </trkpt>
      <trkpt lat="45.60721" lon="4.49533">
        <ele>647</ele>
        <time>2019-04-27T17:42:15Z</time>
      </trkpt>
      <trkpt lat="45.60691" lon="4.4956">
        <ele>654</ele>
        <time>2019-04-27T17:43:15Z</time>
      </trkpt>
      <trkpt lat="45.60659" lon="4.49562">
        <ele>662</ele>
        <time>2019-04-27T17:44:15Z</time>
      </trkpt>
      <trkpt lat="45.60647" lon="4.49568">
        <ele>666</ele>
        <time>2019-04-27T17:45:15Z</time>
      </trkpt>
      <trkpt lat="45.60618" lon="4.49591">
        <ele>673</ele>
        <time>2019-04-27T17:46:15Z</time>
      </trkpt>
      <trkpt lat="45.60593" lon="4.49597">
        <ele>678</ele>
        <time>2019-04-27T17:47:15Z</time>
      </trkpt>
      <trkpt lat="45.60562" lon="4.49595">
        <ele>683</ele>
        <time>2019-04-27T17:48:15Z</time>
      </trkpt>
      <trkpt lat="45.605" lon="4.49515">
        <ele>703</ele>
        <time>2019-04-27T17:49:15Z</time>
      </trkpt>
      <trkpt lat="45.60448" lon="4.49488">
        <ele>705</ele>
        <time>2019-04-27T17:50:15Z</time>
      </trkpt>
      <trkpt lat="45.60383" lon="4.4945">
        <ele>706</ele>
        <time>2019-04-27T17:51:15Z</time>
      </trkpt>
      <trkpt lat="45.60331" lon="4.49415">
        <ele>712</ele>
        <time>2019-04-27T17:52:15Z</time>
      </trkpt>
      <trkpt lat="45.60248" lon="4.49346">
        <ele>725</ele>
        <time>2019-04-27T17:53:15Z</time>
      </trkpt>
      <trkpt lat="45.6017" lon="4.49301">
        <ele>732</ele>
        <time>2019-04-27T17:54:15Z</time>
      </trkpt>
      <trkpt lat="45.60148" lon="4.49277">
        <ele>736</ele>
        <time>2019-04-27T17:55:15Z</time>
      </trkpt>
      <trkpt lat="45.60137" lon="4.49257">
        <ele>739</ele>
        <time>2019-04-27T17:56:15Z</time>
      </trkpt>
      <trkpt lat="45.60085" lon="4.49199">
        <ele>750</ele>
        <time>2019-04-27T17:57:15Z</time>
      </trkpt>
      <trkpt lat="45.60007" lon="4.4913">
        <ele>767</ele>
        <time>2019-04-27T17:58:15Z</time>
      </trkpt>
      <trkpt lat="45.59929" lon="4.49071">
        <ele>777</ele>
        <time>2019-04-27T17:59:15Z</time>
      </trkpt>
      <trkpt lat="45.59867" lon="4.49032">
        <ele>783</ele>
        <time>2019-04-27T18:00:15Z</time>
      </trkpt>
      <trkpt lat="45.59833" lon="4.4902">
        <ele>787</ele>
        <time>2019-04-27T18:01:15Z</time>
      </trkpt>
      <trkpt lat="45.59792" lon="4.49031">
        <ele>787</ele>
        <time>2019-04-27T18:02:15Z</time>
      </trkpt>
      <trkpt lat="45.59774" lon="4.49131">
        <ele>794</ele>
        <time>2019-04-27T18:03:15Z</time>
      </trkpt>
      <trkpt lat="45.59762" lon="4.49171">
        <ele>798</ele>
        <time>2019-04-27T18:04:15Z</time>
      </trkpt>
      <trkpt lat="45.59746" lon="4.49213">
        <ele>803</ele>
        <time>2019-04-27T18:05:15Z</time>
      </trkpt>
      <trkpt lat="45.59729" lon="4.49238">
        <ele>806</ele>
        <time>2019-04-27T18:06:15Z</time>
      </trkpt>
      <trkpt lat="45.59708" lon="4.49259">
        <ele>809</ele>
        <time>2019-04-27T18:07:15Z</time>
      </trkpt>
      <trkpt lat="45.59681" lon="4.49301">
        <ele>814</ele>
        <time>2019-04-27T18:08:15Z</time>
      </trkpt>
      <trkpt lat="45.59643" lon="4.49345">
        <ele>821</ele>
        <time>2019-04-27T18:09:15Z</time>
      </trkpt>
      <trkpt lat="45.59614" lon="4.49389">
        <ele>828</ele>
        <time>2019-04-27T18:10:15Z</time>
      </trkpt>
      <trkpt lat="45.59581" lon="4.4946">
        <ele>835</ele>
        <time>2019-04-27T18:11:15Z</time>
      </trkpt>
      <trkpt lat="45.59569" lon="4.49498">
        <ele>837</ele>
        <time>2019-04-27T18:12:15Z</time>
      </trkpt>
      <trkpt lat="45.59567" lon="4.4952">
        <ele>836</ele>
        <time>2019-04-27T18:13:15Z</time>
      </trkpt>
      <trkpt lat="45.59566" lon="4.49652">
        <ele>829</ele>
        <time>2019-04-27T18:14:15Z</time>
      </trkpt>
      <trkpt lat="45.59555" lon="4.49763">
        <ele>825</ele>
        <time>2019-04-27T18:15:15Z</time>
      </trkpt>
      <trkpt lat="45.59548" lon="4.49805">
        <ele>822</ele>
        <time>2019-04-27T18:16:15Z</time>
      </trkpt>
      <trkpt lat="45.59527" lon="4.4985">
        <ele>822</ele>
        <time>2019-04-27T18:17:15Z</time>
      </trkpt>
      <trkpt lat="45.59505" lon="4.49853">
        <ele>824</ele>
        <time>2019-04-27T18:18:15Z</time>
      </trkpt>
      <trkpt lat="45.59462" lon="4.49851">
        <ele>827</ele>
        <time>2019-04-27T18:19:15Z</time>
      </trkpt>
      <trkpt lat="45.5942" lon="4.49859">
        <ele>831</ele>
        <time>2019-04-27T18:20:15Z</time>
      </trkpt>
      <trkpt lat="45.59391" lon="4.49884">
        <ele>835</ele>
        <time>2019-04-27T18:21:15Z</time>
      </trkpt>
      <trkpt lat="45.59366" lon="4.49912">
        <ele>840</ele>
        <time>2019-04-27T18:22:15Z</time>
      </trkpt>
      <trkpt lat="45.59308" lon="4.49951">
        <ele>849</ele>
        <time>2019-04-27T18:23:15Z</time>
      </trkpt>
      <trkpt lat="45.59285" lon="4.4997">
        <ele>852</ele>
        <time>2019-04-27T18:24:15Z</time>
      </trkpt>
      <trkpt lat="45.59213" lon="4.5001">
        <ele>860</ele>
        <time>2019-04-27T18:25:15Z</time>
      </trkpt>
      <trkpt lat="45.59158" lon="4.50033">
        <ele>864</ele>
        <time>2019-04-27T18:26:15Z</time>
      </trkpt>
      <trkpt lat="45.59149" lon="4.50047">
        <ele>866</ele>
        <time>2019-04-27T18:27:15Z</time>
      </trkpt>
      <trkpt lat="45.59133" lon="4.50061">
        <ele>869</ele>
        <time>2019-04-27T18:28:15Z</time>
      </trkpt>
      <trkpt lat="45.59113" lon="4.50069">
        <ele>871</ele>
        <time>2019-04-27T18:29:15Z</time>
      </trkpt>
      <trkpt lat="45.59099" lon="4.50078">
        <ele>873</ele>
        <time>2019-04-27T18:30:15Z</time>
      </trkpt>
      <trkpt lat="45.59064" lon="4.50112">
        <ele>876</ele>
        <time>2019-04-27T18:31:15Z</time>
      </trkpt>
      <trkpt lat="45.59017" lon="4.50192">
        <ele>883</ele>
        <time>2019-04-27T18:32:15Z</time>
      </trkpt>
      <trkpt lat="45.58981" lon="4.50228">
        <ele>887</ele>
        <time>2019-04-27T18:33:15Z</time>
      </trkpt>
      <trkpt lat="45.58887" lon="4.50332">
        <ele>895</ele>
        <time>2019-04-27T18:34:15Z</time>
      </trkpt>
      <trkpt lat="45.58858" lon="4.50384">
        <ele>897</ele>
        <time>2019-04-27T18:35:15Z</time>
      </trkpt>
      <trkpt lat="45.58838" lon="4.50428">
        <ele>899</ele>
        <time>2019-04-27T18:36:15Z</time>
      </trkpt>
      <trkpt lat="45.58822" lon="4.50452">
        <ele>900</ele>
        <time>2019-04-27T18:37:15Z</time>
      </trkpt>
      <trkpt lat="45.58798" lon="4.50466">
        <ele>900</ele>
        <time>2019-04-27T18:38:15Z</time>
      </trkpt>
      <trkpt lat="45.58744" lon="4.50487">
        <ele>901</ele>
        <time>2019-04-27T18:39:15Z</time>
      </trkpt>
      <trkpt lat="45.58739" lon="4.50492">
        <ele>901</ele>
        <time>2019-04-27T18:40:15Z</time>
      </trkpt>
      <trkpt lat="45.58738" lon="4.50498">
        <ele>901</ele>
        <time>2019-04-27T18:41:15Z</time>
      </trkpt>
      <trkpt lat="45.58757" lon="4.50522">
        <ele>902</ele>
        <time>2019-04-27T18:42:15Z</time>
      </trkpt>
      <trkpt lat="45.58787" lon="4.50574">
        <ele>904</ele>
        <time>2019-04-27T18:43:15Z</time>
      </trkpt>
      <trkpt lat="45.58803" lon="4.50609">
        <ele>904</ele>
        <time>2019-04-27T18:44:15Z</time>
      </trkpt>
      <trkpt lat="45.58813" lon="4.50649">
        <ele>904</ele>
        <time>2019-04-27T18:45:15Z</time>
      </trkpt>
      <trkpt lat="45.58865" lon="4.50791">
        <ele>906</ele>
        <time>2019-04-27T18:46:15Z</time>
      </trkpt>
      <trkpt lat="45.58879" lon="4.50852">
        <ele>907</ele>
        <time>2019-04-27T18:47:15Z</time>
      </trkpt>
      <trkpt lat="45.58887" lon="4.50861">
        <ele>908</ele>
        <time>2019-04-27T18:48:15Z</time>
      </trkpt>
      <trkpt lat="45.58895" lon="4.50864">
        <ele>909</ele>
        <time>2019-04-27T18:49:15Z</time>
      </trkpt>
      <trkpt lat="45.5897" lon="4.50972">
        <ele>911</ele>
        <time>2019-04-27T18:50:15Z</time>
      </trkpt>
      <trkpt lat="45.59034" lon="4.51017">
        <ele>913</ele>
        <time>2019-04-27T18:51:15Z</time>
      </trkpt>
      <trkpt lat="45.59071" lon="4.51038">
        <ele>913</ele>
        <time>2019-04-27T18:52:15Z</time>
      </trkpt>
      <trkpt lat="45.59099" lon="4.51047">
        <ele>914</ele>
        <time>2019-04-27T18:53:15Z</time>
      </trkpt>
      <trkpt lat="45.59136" lon="4.51067">
        <ele>912</ele>
        <time>2019-04-27T18:54:15Z</time>
      </trkpt>
      <trkpt lat="45.59155" lon="4.5109">
        <ele>910</ele>
        <time>2019-04-27T18:55:15Z</time>
      </trkpt>
      <trkpt lat="45.5917" lon="4.511">
        <ele>910</ele>
        <time>2019-04-27T18:56:15Z</time>
      </trkpt>
      <trkpt lat="45.59199" lon="4.51135">
        <ele>905</ele>
        <time>2019-04-27T18:57:15Z</time>
      </trkpt>
      <trkpt lat="45.59245" lon="4.51207">
        <ele>899</ele>
        <time>2019-04-27T18:58:15Z</time>
      </trkpt>
      <trkpt lat="45.59286" lon="4.51262">
        <ele>891</ele>
        <time>2019-04-27T18:59:15Z</time>
      </trkpt>
      <trkpt lat="45.59315" lon="4.51295">
        <ele>886</ele>
        <time>2019-04-27T19:00:15Z</time>
      </trkpt>
      <trkpt lat="45.5936" lon="4.51369">
        <ele>881</ele>
        <time>2019-04-27T19:01:15Z</time>
      </trkpt>
      <trkpt lat="45.59396" lon="4.5141">
        <ele>875</ele>
        <time>2019-04-27T19:02:15Z</time>
      </trkpt>
      <trkpt lat="45.59428" lon="4.51457">
        <ele>870</ele>
        <time>2019-04-27T19:03:15Z</time>
      </trkpt>
      <trkpt lat="45.59492" lon="4.51538">
        <ele>855</ele>
        <time>2019-04-27T19:04:15Z</time>
      </trkpt>
      <trkpt lat="45.59529" lon="4.51621">
        <ele>852</ele>
        <time>2019-04-27T19:05:15Z</time>
      </trkpt>
      <trkpt lat="45.5957" lon="4.51656">
        <ele>848</ele>
        <time>2019-04-27T19:06:15Z</time>
      </trkpt>
      <trkpt lat="45.5963" lon="4.51688">
        <ele>847</ele>
        <time>2019-04-27T19:07:15Z</time>
      </trkpt>
      <trkpt lat="45.59654" lon="4.51696">
        <ele>846</ele>
        <time>2019-04-27T19:08:15Z</time>
      </trkpt>
      <trkpt lat="45.597" lon="4.51703">
        <ele>844</ele>
        <time>2019-04-27T19:09:15Z</time>
      </trkpt>
      <trkpt lat="45.59726" lon="4.51711">
        <ele>844</ele>
        <time>2019-04-27T19:10:15Z</time>
      </trkpt>
      <trkpt lat="45.59729" lon="4.51716">
        <ele>844</ele>
        <time>2019-04-27T19:11:15Z</time>
      </trkpt>
      <trkpt lat="45.5971" lon="4.51726">
        <ele>847</ele>
        <time>2019-04-27T19:12:15Z</time>
      </trkpt>
      <trkpt lat="45.59676" lon="4.5178">
        <ele>857</ele>
        <time>2019-04-27T19:13:15Z</time>
      </trkpt>
      <trkpt lat="45.59658" lon="4.51798">
        <ele>860</ele>
        <time>2019-04-27T19:14:15Z</time>
      </trkpt>
      <trkpt lat="45.59659" lon="4.51803">
        <ele>861</ele>
        <time>2019-04-27T19:15:15Z</time>
      </trkpt>
      <trkpt lat="45.59663" lon="4.51805">
        <ele>861</ele>
        <time>2019-04-27T19:16:15Z</time>
      </trkpt>
      <trkpt lat="45.5967" lon="4.51802">
        <ele>860</ele>
        <time>2019-04-27T19:17:15Z</time>
      </trkpt>
      <trkpt lat="45.59674" lon="4.51803">
        <ele>860</ele>
        <time>2019-04-27T19:18:15Z</time>
      </trkpt>
      <trkpt lat="45.59675" lon="4.5181">
        <ele>861</ele>
        <time>2019-04-27T19:19:15Z</time>
      </trkpt>
      <trkpt lat="45.59673" lon="4.51831">
        <ele>864</ele>
        <time>2019-04-27T19:20:15Z</time>
      </trkpt>
      <trkpt lat="45.59663" lon="4.51868">
        <ele>869</ele>
        <time>2019-04-27T19:21:15Z</time>
      </trkpt>
      <trkpt lat="45.59653" lon="4.51929">
        <ele>876</ele>
        <time>2019-04-27T19:22:15Z</time>
      </trkpt>
      <trkpt lat="45.59657" lon="4.51936">
        <ele>876</ele>
        <time>2019-04-27T19:23:15Z</time>
      </trkpt>
      <trkpt lat="45.59704" lon="4.51949">
        <ele>873</ele>
        <time>2019-04-27T19:24:15Z</time>
      </trkpt>
      <trkpt lat="45.59789" lon="4.51995">
        <ele>867</ele>
        <time>2019-04-27T19:25:15Z</time>
      </trkpt>
      <trkpt lat="45.59839" lon="4.52013">
        <ele>863</ele>
        <time>2019-04-27T19:26:15Z</time>
      </trkpt>
      <trkpt lat="45.59878" lon="4.52023">
        <ele>859</ele>
        <time>2019-04-27T19:27:15Z</time>
      </trkpt>
      <trkpt lat="45.59903" lon="4.52034">
        <ele>857</ele>
        <time>2019-04-27T19:28:15Z</time>
      </trkpt>
      <trkpt lat="45.59988" lon="4.52048">
        <ele>848</ele>
        <time>2019-04-27T19:29:15Z</time>
      </trkpt>
      <trkpt lat="45.60089" lon="4.52085">
        <ele>838</ele>
        <time>2019-04-27T19:30:15Z</time>
      </trkpt>
      <trkpt lat="45.60157" lon="4.52096">
        <ele>833</ele>
        <time>2019-04-27T19:31:15Z</time>
      </trkpt>
      <trkpt lat="45.60194" lon="4.52106">
        <ele>830</ele>
        <time>2019-04-27T19:32:15Z</time>
      </trkpt>
      <trkpt lat="45.60203" lon="4.5211">
        <ele>830</ele>
        <time>2019-04-27T19:33:15Z</time>
      </trkpt>
      <trkpt lat="45.60225" lon="4.52129">
        <ele>829</ele>
        <time>2019-04-27T19:34:15Z</time>
      </trkpt>
      <trkpt lat="45.60246" lon="4.52156">
        <ele>828</ele>
        <time>2019-04-27T19:35:15Z</time>
      </trkpt>
      <trkpt lat="45.60245" lon="4.52171">
        <ele>828</ele>
        <time>2019-04-27T19:36:15Z</time>
      </trkpt>
      <trkpt lat="45.60234" lon="4.5219">
        <ele>829</ele>
        <time>2019-04-27T19:37:15Z</time>
      </trkpt>
      <trkpt lat="45.60204" lon="4.52217">
        <ele>832</ele>
        <time>2019-04-27T19:38:15Z</time>
      </trkpt>
      <trkpt lat="45.60152" lon="4.52258">
        <ele>838</ele>
        <time>2019-04-27T19:39:15Z</time>
      </trkpt>
      <trkpt lat="45.60105" lon="4.52317">
        <ele>844</ele>
        <time>2019-04-27T19:40:15Z</time>
      </trkpt>
      <trkpt lat="45.60068" lon="4.52358">
        <ele>847</ele>
        <time>2019-04-27T19:41:15Z</time>
      </trkpt>
      <trkpt lat="45.59986" lon="4.5241">
        <ele>857</ele>
        <time>2019-04-27T19:42:15Z</time>
      </trkpt>
      <trkpt lat="45.59944" lon="4.52461">
        <ele>865</ele>
        <time>2019-04-27T19:43:15Z</time>
      </trkpt>
      <trkpt lat="45.59922" lon="4.52495">
        <ele>871</ele>
        <time>2019-04-27T19:44:15Z</time>
      </trkpt>
      <trkpt lat="45.59886" lon="4.52532">
        <ele>875</ele>
        <time>2019-04-27T19:45:15Z</time>
      </trkpt>
      <trkpt lat="45.59811" lon="4.52604">
        <ele>878</ele>
        <time>2019-04-27T19:46:15Z</time>
      </trkpt>
      <trkpt lat="45.5976" lon="4.52633">
        <ele>876</ele>
        <time>2019-04-27T19:47:15Z</time>
      </trkpt>
      <trkpt lat="45.59719" lon="4.52633">
        <ele>872</ele>
        <time>2019-04-27T19:48:15Z</time>
      </trkpt>
      <trkpt lat="45.59664" lon="4.52629">
        <ele>865</ele>
        <time>2019-04-27T19:49:15Z</time>
      </trkpt>
      <trkpt lat="45.59621" lon="4.52623">
        <ele>861</ele>
        <time>2019-04-27T19:50:15Z</time>
      </trkpt>
      <trkpt lat="45.59509" lon="4.52629">
        <ele>845</ele>
        <time>2019-04-27T19:51:15Z</time>
      </trkpt>
      <trkpt lat="45.59427" lon="4.5265">
        <ele>835</ele>
        <time>2019-04-27T19:52:15Z</time>
      </trkpt>
      <trkpt lat="45.59372" lon="4.52638">
        <ele>825</ele>
        <time>2019-04-27T19:53:15Z</time>
      </trkpt>
      <trkpt lat="45.59332" lon="4.5262">
        <ele>819</ele>
        <time>2019-04-27T19:54:15Z</time>
      </trkpt>
      <trkpt lat="45.59292" lon="4.5261">
        <ele>814</ele>
        <time>2019-04-27T19:55:15Z</time>
      </trkpt>
      <trkpt lat="45.59259" lon="4.52607">
        <ele>808</ele>
        <time>2019-04-27T19:56:15Z</time>
      </trkpt>
      <trkpt lat="45.59203" lon="4.52619">
        <ele>800</ele>
        <time>2019-04-27T19:57:15Z</time>
      </trkpt>
      <trkpt lat="45.59146" lon="4.52614">
        <ele>795</ele>
        <time>2019-04-27T19:58:15Z</time>
      </trkpt>
      <trkpt lat="45.59142" lon="4.52617">
        <ele>794</ele>
        <time>2019-04-27T19:59:15Z</time>
      </trkpt>
      <trkpt lat="45.5914" lon="4.52623">
        <ele>793</ele>
        <time>2019-04-27T20:00:15Z</time>
      </trkpt>
      <trkpt lat="45.59143" lon="4.52635">
        <ele>793</ele>
        <time>2019-04-27T20:01:15Z</time>
      </trkpt>
      <trkpt lat="45.59154" lon="4.52657">
        <ele>791</ele>
        <time>2019-04-27T20:02:15Z</time>
      </trkpt>
      <trkpt lat="45.59157" lon="4.52666">
        <ele>791</ele>
        <time>2019-04-27T20:03:15Z</time>
      </trkpt>
      <trkpt lat="45.59156" lon="4.5267">
        <ele>790</ele>
        <time>2019-04-27T20:04:15Z</time>
      </trkpt>
      <trkpt lat="45.59128" lon="4.52696">
        <ele>786</ele>
        <time>2019-04-27T20:05:15Z</time>
      </trkpt>
      <trkpt lat="45.59106" lon="4.52707">
        <ele>784</ele>
        <time>2019-04-27T20:06:15Z</time>
      </trkpt>
      <trkpt lat="45.59082" lon="4.52707">
        <ele>783</ele>
        <time>2019-04-27T20:07:15Z</time>
      </trkpt>
      <trkpt lat="45.59063" lon="4.52729">
        <ele>780</ele>
        <time>2019-04-27T20:08:15Z</time>
      </trkpt>
      <trkpt lat="45.59015" lon="4.52763">
        <ele>772</ele>
        <time>2019-04-27T20:09:15Z</time>
      </trkpt>
      <trkpt lat="45.58987" lon="4.52779">
        <ele>767</ele>
        <time>2019-04-27T20:10:15Z</time>
      </trkpt>
      <trkpt lat="45.58967" lon="4.52796">
        <ele>763</ele>
        <time>2019-04-27T20:11:15Z</time>
      </trkpt>
      <trkpt lat="45.58942" lon="4.52808">
        <ele>759</ele>
        <time>2019-04-27T20:12:15Z</time>
      </trkpt>
      <trkpt lat="45.58912" lon="4.52814">
        <ele>755</ele>
        <time>2019-04-27T20:13:15Z</time>
      </trkpt>
      <trkpt lat="45.58858" lon="4.5283">
        <ele>749</ele>
        <time>2019-04-27T20:14:15Z</time>
      </trkpt>
      <trkpt lat="45.58848" lon="4.52827">
        <ele>749</ele>
        <time>2019-04-27T20:15:15Z</time>
      </trkpt>
      <trkpt lat="45.58837" lon="4.52815">
        <ele>748</ele>
        <time>2019-04-27T20:16:15Z</time>
      </trkpt>
      <trkpt lat="45.5883" lon="4.52802">
        <ele>748</ele>
        <time>2019-04-27T20:17:15Z</time>
      </trkpt>
      <trkpt lat="45.58822" lon="4.52797">
        <ele>749</ele>
        <time>2019-04-27T20:18:15Z</time>
      </trkpt>
      <trkpt lat="45.58816" lon="4.52795">
        <ele>749</ele>
        <time>2019-04-27T20:19:15Z</time>
      </trkpt>
      <trkpt lat="45.58803" lon="4.52798">
        <ele>750</ele>
        <time>2019-04-27T20:20:15Z</time>
      </trkpt>
      <trkpt lat="45.58793" lon="4.52811">
        <ele>751</ele>
        <time>2019-04-27T20:21:15Z</time>
      </trkpt>
      <trkpt lat="45.58788" lon="4.52833">
        <ele>750</ele>
        <time>2019-04-27T20:22:15Z</time>
      </trkpt>
      <trkpt lat="45.58783" lon="4.52844">
        <ele>750</ele>
        <time>2019-04-27T20:23:15Z</time>
      </trkpt>
      <trkpt lat="45.58766" lon="4.52856">
        <ele>752</ele>
        <time>2019-04-27T20:24:15Z</time>
      </trkpt>
      <trkpt lat="45.58761" lon="4.52866">
        <ele>752</ele>
        <time>2019-04-27T20:25:15Z</time>
      </trkpt>
      <trkpt lat="45.58745" lon="4.5293">
        <ele>754</ele>
        <time>2019-04-27T20:26:15Z</time>
      </trkpt>
      <trkpt lat="45.58733" lon="4.52949">
        <ele>754</ele>
        <time>2019-04-27T20:27:15Z</time>
      </trkpt>
      <trkpt lat="45.58724" lon="4.52949">
        <ele>756</ele>
        <time>2019-04-27T20:28:15Z</time>
      </trkpt>
      <trkpt lat="45.58696" lon="4.5294">
        <ele>761</ele>
        <time>2019-04-27T20:29:15Z</time>
      </trkpt>
      <trkpt lat="45.5869" lon="4.52944">
        <ele>762</ele>
        <time>2019-04-27T20:30:15Z</time>
      </trkpt>
      <trkpt lat="45.58687" lon="4.52966">
        <ele>760</ele>
        <time>2019-04-27T20:31:15Z</time>
      </trkpt>
      <trkpt lat="45.58683" lon="4.52977">
        <ele>759</ele>
        <time>2019-04-27T20:32:15Z</time>
      </trkpt>
      <trkpt lat="45.5866" lon="4.53001">
        <ele>759</ele>
        <time>2019-04-27T20:33:15Z</time>
      </trkpt>
      <trkpt lat="45.58642" lon="4.53012">
        <ele>760</ele>
        <time>2019-04-27T20:34:15Z</time>
      </trkpt>
      <trkpt lat="45.58637" lon="4.53022">
        <ele>760</ele>
        <time>2019-04-27T20:35:15Z</time>
      </trkpt>
      <trkpt lat="45.58644" lon="4.53116">
        <ele>759</ele>
        <time>2019-04-27T20:36:15Z</time>
      </trkpt>
      <trkpt lat="45.58674" lon="4.53194">
        <ele>757</ele>
        <time>2019-04-27T20:37:15Z</time>
      </trkpt>
      <trkpt lat="45.58681" lon="4.53236">
        <ele>760</ele>
        <time>2019-04-27T20:38:15Z</time>
      </trkpt>
      <trkpt lat="45.58677" lon="4.53263">
        <ele>763</ele>
        <time>2019-04-27T20:39:15Z</time>
      </trkpt>
      <trkpt lat="45.5867" lon="4.53272">
        <ele>765</ele>
        <time>2019-04-27T20:40:15Z</time>
      </trkpt>
      <trkpt lat="45.58662" lon="4.53276">
        <ele>767</ele>
        <time>2019-04-27T20:41:15Z</time>
      </trkpt>
      <trkpt lat="45.58637" lon="4.53277">
        <ele>772</ele>
        <time>2019-04-27T20:42:15Z</time>
      </trkpt>
      <trkpt lat="45.58634" lon="4.53286">
        <ele>774</ele>
        <time>2019-04-27T20:43:15Z</time>
      </trkpt>
      <trkpt lat="45.58632" lon="4.53319">
        <ele>777</ele>
        <time>2019-04-27T20:44:15Z</time>
      </trkpt>
      <trkpt lat="45.58639" lon="4.53377">
        <ele>783</ele>
        <time>2019-04-27T20:45:15Z</time>
      </trkpt>
      <trkpt lat="45.58646" lon="4.53467">
        <ele>795</ele>
        <time>2019-04-27T20:46:15Z</time>
      </trkpt>
      <trkpt lat="45.58644" lon="4.53506">
        <ele>801</ele>
        <time>2019-04-27T20:47:15Z</time>
      </trkpt>
      <trkpt lat="45.58677" lon="4.53577">
        <ele>805</ele>
        <time>2019-04-27T20:48:15Z</time>
      </trkpt>
      <trkpt lat="45.58696" lon="4.53601">
        <ele>805</ele>
        <time>2019-04-27T20:49:15Z</time>
      </trkpt>
      <trkpt lat="45.58702" lon="4.53615">
        <ele>805</ele>
        <time>2019-04-27T20:50:15Z</time>
      </trkpt>
      <trkpt lat="45.58719" lon="4.53639">
        <ele>803</ele>
        <time>2019-04-27T20:51:15Z</time>
      </trkpt>
      <trkpt lat="45.58738" lon="4.53674">
        <ele>802</ele>
        <time>2019-04-27T20:52:15Z</time>
      </trkpt>
      <trkpt lat="45.58761" lon="4.53706">
        <ele>801</ele>
        <time>2019-04-27T20:53:15Z</time>
      </trkpt>
      <trkpt lat="45.58777" lon="4.53723">
        <ele>801</ele>
        <time>2019-04-27T20:54:15Z</time>
      </trkpt>
      <trkpt lat="45.58774" lon="4.53731">
        <ele>802</ele>
        <time>2019-04-27T20:55:15Z</time>
      </trkpt>
      <trkpt lat="45.58731" lon="4.53756">
        <ele>810</ele>
        <time>2019-04-27T20:56:15Z</time>
      </trkpt>
      <trkpt lat="45.58718" lon="4.53761">
        <ele>813</ele>
        <time>2019-04-27T20:57:15Z</time>
      </trkpt>
      <trkpt lat="45.58696" lon="4.53761">
        <ele>816</ele>
        <time>2019-04-27T20:58:15Z</time>
      </trkpt>
      <trkpt lat="45.58691" lon="4.53764">
        <ele>817</ele>
        <time>2019-04-27T20:59:15Z</time>
      </trkpt>
      <trkpt lat="45.58692" lon="4.53771">
        <ele>817</ele>
        <time>2019-04-27T21:00:15Z</time>
      </trkpt>
      <trkpt lat="45.58704" lon="4.53794">
        <ele>818</ele>
        <time>2019-04-27T21:01:15Z</time>
      </trkpt>
      <trkpt lat="45.58753" lon="4.53854">
        <ele>819</ele>
        <time>2019-04-27T21:02:15Z</time>
      </trkpt>
      <trkpt lat="45.5881" lon="4.53897">
        <ele>818</ele>
        <time>2019-04-27T21:03:15Z</time>
      </trkpt>
      <trkpt lat="45.58831" lon="4.53924">
        <ele>819</ele>
        <time>2019-04-27T21:04:15Z</time>
      </trkpt>
      <trkpt lat="45.58841" lon="4.53944">
        <ele>819</ele>
        <time>2019-04-27T21:05:15Z</time>
      </trkpt>
      <trkpt lat="45.58856" lon="4.53999">
        <ele>822</ele>
        <time>2019-04-27T21:06:15Z</time>
      </trkpt>
      <trkpt lat="45.58867" lon="4.54025">
        <ele>822</ele>
        <time>2019-04-27T21:07:15Z</time>
      </trkpt>
      <trkpt lat="45.58896" lon="4.54146">
        <ele>823</ele>
        <time>2019-04-27T21:08:15Z</time>
      </trkpt>
      <trkpt lat="45.58908" lon="4.54208">
        <ele>825</ele>
        <time>2019-04-27T21:09:15Z</time>
      </trkpt>
      <trkpt lat="45.5893" lon="4.54275">
        <ele>824</ele>
        <time>2019-04-27T21:10:15Z</time>
      </trkpt>
      <trkpt lat="45.58937" lon="4.54306">
        <ele>825</ele>
        <time>2019-04-27T21:11:15Z</time>
      </trkpt>
      <trkpt lat="45.58942" lon="4.54339">
        <ele>826</ele>
        <time>2019-04-27T21:12:15Z</time>
      </trkpt>
      <trkpt lat="45.58941" lon="4.54387">
        <ele>830</ele>
        <time>2019-04-27T21:13:15Z</time>
      </trkpt>
      <trkpt lat="45.58973" lon="4.54483">
        <ele>826</ele>
        <time>2019-04-27T21:14:15Z</time>
      </trkpt>
      <trkpt lat="45.59019" lon="4.54547">
        <ele>820</ele>
        <time>2019-04-27T21:15:15Z</time>
      </trkpt>
      <trkpt lat="45.59035" lon="4.54589">
        <ele>819</ele>
        <time>2019-04-27T21:16:15Z</time>
      </trkpt>
      <trkpt lat="45.59044" lon="4.54641">
        <ele>819</ele>
        <time>2019-04-27T21:17:15Z</time>
      </trkpt>
      <trkpt lat="45.59047" lon="4.54648">
        <ele>819</ele>
        <time>2019-04-27T21:18:15Z</time>
      </trkpt>
      <trkpt lat="45.59063" lon="4.54669">
        <ele>817</ele>
        <time>2019-04-27T21:19:15Z</time>
      </trkpt>
      <trkpt lat="45.59137" lon="4.54752">
        <ele>816</ele>
        <time>2019-04-27T21:20:15Z</time>
      </trkpt>
      <trkpt lat="45.59159" lon="4.54762">
        <ele>816</ele>
        <time>2019-04-27T21:21:15Z</time>
      </trkpt>
      <trkpt lat="45.59196" lon="4.54765">
        <ele>817</ele>
        <time>2019-04-27T21:22:15Z</time>
      </trkpt>
      <trkpt lat="45.59219" lon="4.54763">
        <ele>816</ele>
        <time>2019-04-27T21:23:15Z</time>
      </trkpt>
      <trkpt lat="45.5924" lon="4.54767">
        <ele>818</ele>
        <time>2019-04-27T21:24:15Z</time>
      </trkpt>
      <trkpt lat="45.59278" lon="4.54793">
        <ele>819</ele>
        <time>2019-04-27T21:25:15Z</time>
      </trkpt>
      <trkpt lat="45.59309" lon="4.54824">
        <ele>820</ele>
        <time>2019-04-27T21:26:15Z</time>
      </trkpt>
      <trkpt lat="45.59349" lon="4.54875">
        <ele>821</ele>
        <time>2019-04-27T21:27:15Z</time>
      </trkpt>
      <trkpt lat="45.59395" lon="4.54945">
        <ele>819</ele>
        <time>2019-04-27T21:28:15Z</time>
      </trkpt>
      <trkpt lat="45.59435" lon="4.55025">
        <ele>813</ele>
        <time>2019-04-27T21:29:15Z</time>
      </trkpt>
      <trkpt lat="45.59441" lon="4.55055">
        <ele>812</ele>
        <time>2019-04-27T21:30:15Z</time>
      </trkpt>
      <trkpt lat="45.59442" lon="4.55104">
        <ele>811</ele>
        <time>2019-04-27T21:31:15Z</time>
      </trkpt>
      <trkpt lat="45.59459" lon="4.55174">
        <ele>804</ele>
        <time>2019-04-27T21:32:15Z</time>
      </trkpt>
      <trkpt lat="45.59462" lon="4.55214">
        <ele>801</ele>
        <time>2019-04-27T21:33:15Z</time>
      </trkpt>
      <trkpt lat="45.5946" lon="4.55248">
        <ele>800</ele>
        <time>2019-04-27T21:34:15Z</time>
      </trkpt>
      <trkpt lat="45.59473" lon="4.55343">
        <ele>796</ele>
        <time>2019-04-27T21:35:15Z</time>
      </trkpt>
      <trkpt lat="45.59505" lon="4.55468">
        <ele>795</ele>
        <time>2019-04-27T21:36:15Z</time>
      </trkpt>
      <trkpt lat="45.59528" lon="4.55508">
        <ele>791</ele>
        <time>2019-04-27T21:37:15Z</time>
      </trkpt>
      <trkpt lat="45.59532" lon="4.55521">
        <ele>790</ele>
        <time>2019-04-27T21:38:15Z</time>
      </trkpt>
      <trkpt lat="45.59538" lon="4.55613">
        <ele>786</ele>
        <time>2019-04-27T21:39:15Z</time>
      </trkpt>
      <trkpt lat="45.59537" lon="4.55633">
        <ele>785</ele>
        <time>2019-04-27T21:40:15Z</time>
      </trkpt>
      <trkpt lat="45.59547" lon="4.55676">
        <ele>779</ele>
        <time>2019-04-27T21:41:15Z</time>
      </trkpt>
      <trkpt lat="45.59566" lon="4.55736">
        <ele>768</ele>
        <time>2019-04-27T21:42:15Z</time>
      </trkpt>
      <trkpt lat="45.59585" lon="4.55783">
        <ele>759</ele>
        <time>2019-04-27T21:43:15Z</time>
      </trkpt>
      <trkpt lat="45.59603" lon="4.55814">
        <ele>753</ele>
        <time>2019-04-27T21:44:15Z</time>
      </trkpt>
      <trkpt lat="45.59612" lon="4.55836">
        <ele>750</ele>
        <time>2019-04-27T21:45:15Z</time>
      </trkpt>
      <trkpt lat="45.59622" lon="4.55897">
        <ele>743</ele>
        <time>2019-04-27T21:46:15Z</time>
      </trkpt>
      <trkpt lat="45.59653" lon="4.5599">
        <ele>732</ele>
        <time>2019-04-27T21:47:15Z</time>
      </trkpt>
      <trkpt lat="45.59671" lon="4.56015">
        <ele>728</ele>
        <time>2019-04-27T21:48:15Z</time>
      </trkpt>
      <trkpt lat="45.59695" lon="4.56036">
        <ele>725</ele>
        <time>2019-04-27T21:49:15Z</time>
      </trkpt>
      <trkpt lat="45.59716" lon="4.56051">
        <ele>722</ele>
        <time>2019-04-27T21:50:15Z</time>
      </trkpt>
      <trkpt lat="45.59749" lon="4.56068">
        <ele>719</ele>
        <time>2019-04-27T21:51:15Z</time>
      </trkpt>
      <trkpt lat="45.59787" lon="4.56115">
        <ele>718</ele>
        <time>2019-04-27T21:52:15Z</time>
      </trkpt>
      <trkpt lat="45.59855" lon="4.56262">
        <ele>718</ele>
        <time>2019-04-27T21:53:15Z</time>
      </trkpt>
      <trkpt lat="45.5987" lon="4.56306">
        <ele>715</ele>
        <time>2019-04-27T21:54:15Z</time>
      </trkpt>
      <trkpt lat="45.59874" lon="4.56355">
        <ele>710</ele>
        <time>2019-04-27T21:55:15Z</time>
      </trkpt>
      <trkpt lat="45.59872" lon="4.56464">
        <ele>697</ele>
        <time>2019-04-27T21:56:15Z</time>
      </trkpt>
      <trkpt lat="45.59879" lon="4.56565">
        <ele>688</ele>
        <time>2019-04-27T21:57:15Z</time>
      </trkpt>
      <trkpt lat="45.5988" lon="4.56636">
        <ele>684</ele>
        <time>2019-04-27T21:58:15Z</time>
      </trkpt>
      <trkpt lat="45.59877" lon="4.56683">
        <ele>683</ele>
        <time>2019-04-27T21:59:15Z</time>
      </trkpt>
      <trkpt lat="45.59883" lon="4.567">
        <ele>683</ele>
        <time>2019-04-27T22:00:15Z</time>
      </trkpt>
      <trkpt lat="45.5991" lon="4.56747">
        <ele>683</ele>
        <time>2019-04-27T22:01:15Z</time>
      </trkpt>
      <trkpt lat="45.59923" lon="4.56783">
        <ele>686</ele>
        <time>2019-04-27T22:02:15Z</time>
      </trkpt>
      <trkpt lat="45.59936" lon="4.56829">
        <ele>690</ele>
        <time>2019-04-27T22:03:15Z</time>
      </trkpt>
      <trkpt lat="45.59941" lon="4.56958">
        <ele>699</ele>
        <time>2019-04-27T22:04:15Z</time>
      </trkpt>
      <trkpt lat="45.5995" lon="4.56963">
        <ele>700</ele>
        <time>2019-04-27T22:05:15Z</time>
      </trkpt>
      <trkpt lat="45.5995" lon="4.57021">
        <ele>701</ele>
        <time>2019-04-27T22:06:15Z</time>
      </trkpt>
      <trkpt lat="45.59955" lon="4.5704">
        <ele>701</ele>
        <time>2019-04-27T22:07:15Z</time>
      </trkpt>
      <trkpt lat="45.59964" lon="4.57053">
        <ele>702</ele>
        <time>2019-04-27T22:08:15Z</time>
      </trkpt>
      <trkpt lat="45.59979" lon="4.57054">
        <ele>703</ele>
        <time>2019-04-27T22:09:15Z</time>
      </trkpt>
      <trkpt lat="45.5999" lon="4.57061">
        <ele>704</ele>
        <time>2019-04-27T22:10:15Z</time>
      </trkpt>
      <trkpt lat="45.60006" lon="4.57092">
        <ele>706</ele>
        <time>2019-04-27T22:11:15Z</time>
      </trkpt>
      <trkpt lat="45.60055" lon="4.57227">
        <ele>719</ele>
        <time>2019-04-27T22:12:15Z</time>
      </trkpt>
      <trkpt lat="45.60064" lon="4.57293">
        <ele>720</ele>
        <time>2019-04-27T22:13:15Z</time>
      </trkpt>
      <trkpt lat="45.60083" lon="4.57346">
        <ele>725</ele>
        <time>2019-04-27T22:14:15Z</time>
      </trkpt>
      <trkpt lat="45.60123" lon="4.57437">
        <ele>739</ele>
        <time>2019-04-27T22:15:15Z</time>
      </trkpt>
      <trkpt lat="45.60129" lon="4.57469">
        <ele>739</ele>
        <time>2019-04-27T22:16:15Z</time>
      </trkpt>
      <trkpt lat="45.60155" lon="4.57527">
        <ele>743</ele>
        <time>2019-04-27T22:17:15Z</time>
      </trkpt>
      <trkpt lat="45.60187" lon="4.57579">
        <ele>745</ele>
        <time>2019-04-27T22:18:15Z</time>
      </trkpt>
      <trkpt lat="45.60218" lon="4.5761">
        <ele>750</ele>
        <time>2019-04-27T22:19:15Z</time>
      </trkpt>
      <trkpt lat="45.60246" lon="4.57634">
        <ele>756</ele>
        <time>2019-04-27T22:20:15Z</time>
      </trkpt>
      <trkpt lat="45.60245" lon="4.5762">
        <ele>757</ele>
        <time>2019-04-27T22:21:15Z</time>
      </trkpt>
      <trkpt lat="45.60232" lon="4.57581">
        <ele>756</ele>
        <time>2019-04-27T22:22:15Z</time>
      </trkpt>
      <trkpt lat="45.602" lon="4.57461">
        <ele>763</ele>
        <time>2019-04-27T22:23:15Z</time>
      </trkpt>
      <trkpt lat="45.602" lon="4.57352">
        <ele>767</ele>
        <time>2019-04-27T22:24:15Z</time>
      </trkpt>
      <trkpt lat="45.60206" lon="4.57261">
        <ele>767</ele>
        <time>2019-04-27T22:25:15Z</time>
      </trkpt>
      <trkpt lat="45.60226" lon="4.57202">
        <ele>767</ele>
        <time>2019-04-27T22:26:15Z</time>
      </trkpt>
      <trkpt lat="45.60265" lon="4.57127">
        <ele>766</ele>
        <time>2019-04-27T22:27:15Z</time>
      </trkpt>
      <trkpt lat="45.60299" lon="4.5708">
        <ele>769</ele>
        <time>2019-04-27T22:28:15Z</time>
      </trkpt>
      <trkpt lat="45.60313" lon="4.57025">
        <ele>769</ele>
        <time>2019-04-27T22:29:15Z</time>
      </trkpt>
      <trkpt lat="45.6033" lon="4.57002">
        <ele>772</ele>
        <time>2019-04-27T22:30:15Z</time>
      </trkpt>
      <trkpt lat="45.60349" lon="4.56982">
        <ele>775</ele>
        <time>2019-04-27T22:31:15Z</time>
      </trkpt>
      <trkpt lat="45.60347" lon="4.56991">
        <ele>775</ele>
        <time>2019-04-27T22:32:15Z</time>
      </trkpt>
      <trkpt lat="45.60349" lon="4.57">
        <ele>777</ele>
        <time>2019-04-27T22:33:15Z</time>
      </trkpt>
      <trkpt lat="45.60351" lon="4.57004">
        <ele>777</ele>
        <time>2019-04-27T22:34:15Z</time>
      </trkpt>
      <trkpt lat="45.60356" lon="4.57004">
        <ele>778</ele>
        <time>2019-04-27T22:35:15Z</time>
      </trkpt>
      <trkpt lat="45.6037" lon="4.56992">
        <ele>780</ele>
        <time>2019-04-27T22:36:15Z</time>
      </trkpt>
      <trkpt lat="45.60414" lon="4.56939">
        <ele>783</ele>
        <time>2019-04-27T22:37:15Z</time>
      </trkpt>
      <trkpt lat="45.60427" lon="4.56934">
        <ele>784</ele>
        <time>2019-04-27T22:38:15Z</time>
      </trkpt>
      <trkpt lat="45.60457" lon="4.56928">
        <ele>787</ele>
        <time>2019-04-27T22:39:15Z</time>
      </trkpt>
      <trkpt lat="45.6052" lon="4.5697">
        <ele>796</ele>
        <time>2019-04-27T22:40:15Z</time>
      </trkpt>
      <trkpt lat="45.60558" lon="4.57023">
        <ele>799</ele>
        <time>2019-04-27T22:41:15Z</time>
      </trkpt>
      <trkpt lat="45.60571" lon="4.57075">
        <ele>800</ele>
        <time>2019-04-27T22:42:15Z</time>
      </trkpt>
      <trkpt lat="45.60569" lon="4.57164">
        <ele>804</ele>
        <time>2019-04-27T22:43:15Z</time>
      </trkpt>
      <trkpt lat="45.6055" lon="4.57255">
        <ele>805</ele>
        <time>2019-04-27T22:44:15Z</time>
      </trkpt>
      <trkpt lat="45.60547" lon="4.57329">
        <ele>803</ele>
        <time>2019-04-27T22:45:15Z</time>
      </trkpt>
      <trkpt lat="45.60547" lon="4.57372">
        <ele>803</ele>
        <time>2019-04-27T22:46:15Z</time>
      </trkpt>
      <trkpt lat="45.60555" lon="4.5749">
        <ele>806</ele>
        <time>2019-04-27T22:47:15Z</time>
      </trkpt>
      <trkpt lat="45.60624" lon="4.57673">
        <ele>813</ele>
        <time>2019-04-27T22:48:15Z</time>
      </trkpt>
      <trkpt lat="45.60637" lon="4.57719">
        <ele>815</ele>
        <time>2019-04-27T22:49:15Z</time>
      </trkpt>
      <trkpt lat="45.60702" lon="4.57791">
        <ele>819</ele>
        <time>2019-04-27T22:50:15Z</time>
      </trkpt>
      <trkpt lat="45.60707" lon="4.578">
        <ele>820</ele>
        <time>2019-04-27T22:51:15Z</time>
      </trkpt>
      <trkpt lat="45.60711" lon="4.578">
        <ele>820</ele>
        <time>2019-04-27T22:52:15Z</time>
      </trkpt>
      <trkpt lat="45.60733" lon="4.57739">
        <ele>816</ele>
        <time>2019-04-27T22:53:15Z</time>
      </trkpt>
      <trkpt lat="45.60767" lon="4.57664">
        <ele>806</ele>
        <time>2019-04-27T22:54:15Z</time>
      </trkpt>
      <trkpt lat="45.6078" lon="4.57646">
        <ele>802</ele>
        <time>2019-04-27T22:55:15Z</time>
      </trkpt>
      <trkpt lat="45.60796" lon="4.5763">
        <ele>798</ele>
        <time>2019-04-27T22:56:15Z</time>
      </trkpt>
      <trkpt lat="45.60844" lon="4.5761">
        <ele>790</ele>
        <time>2019-04-27T22:57:15Z</time>
      </trkpt>
      <trkpt lat="45.60929" lon="4.57607">
        <ele>779</ele>
        <time>2019-04-27T22:58:15Z</time>
      </trkpt>
      <trkpt lat="45.60985" lon="4.57616">
        <ele>771</ele>
        <time>2019-04-27T22:59:15Z</time>
      </trkpt>
      <trkpt lat="45.61005" lon="4.57613">
        <ele>767</ele>
        <time>2019-04-27T23:00:15Z</time>
      </trkpt>
      <trkpt lat="45.61055" lon="4.57598">
        <ele>759</ele>
        <time>2019-04-27T23:01:15Z</time>
      </trkpt>
      <trkpt lat="45.61142" lon="4.57533">
        <ele>746</ele>
        <time>2019-04-27T23:02:15Z</time>
      </trkpt>
      <trkpt lat="45.61162" lon="4.57523">
        <ele>745</ele>
        <time>2019-04-27T23:03:15Z</time>
      </trkpt>
      <trkpt lat="45.61179" lon="4.57497">
        <ele>746</ele>
        <time>2019-04-27T23:04:15Z</time>
      </trkpt>
      <trkpt lat="45.61196" lon="4.57497">
        <ele>748</ele>
        <time>2019-04-27T23:05:15Z</time>
      </trkpt>
      <trkpt lat="45.61221" lon="4.57485">
        <ele>750</ele>
        <time>2019-04-27T23:06:15Z</time>
      </trkpt>
      <trkpt lat="45.61245" lon="4.57449">
        <ele>753</ele>
        <time>2019-04-27T23:07:15Z</time>
      </trkpt>
      <trkpt lat="45.61266" lon="4.57427">
        <ele>757</ele>
        <time>2019-04-27T23:08:15Z</time>
      </trkpt>
      <trkpt lat="45.61338" lon="4.57415">
        <ele>766</ele>
        <time>2019-04-27T23:09:15Z</time>
      </trkpt>
      <trkpt lat="45.61387" lon="4.57413">
        <ele>773</ele>
        <time>2019-04-27T23:10:15Z</time>
      </trkpt>
      <trkpt lat="45.61438" lon="4.57524">
        <ele>782</ele>
        <time>2019-04-27T23:11:15Z</time>
      </trkpt>
      <trkpt lat="45.61464" lon="4.57606">
        <ele>786</ele>
        <time>2019-04-27T23:12:15Z</time>
      </trkpt>
      <trkpt lat="45.61499" lon="4.57759">
        <ele>787</ele>
        <time>2019-04-27T23:13:15Z</time>
      </trkpt>
      <trkpt lat="45.61514" lon="4.57796">
        <ele>787</ele>
        <time>2019-04-27T23:14:15Z</time>
      </trkpt>
      <trkpt lat="45.6153" lon="4.57826">
        <ele>787</ele>
        <time>2019-04-27T23:15:15Z</time>
      </trkpt>
      <trkpt lat="45.61551" lon="4.5785">
        <ele>788</ele>
        <time>2019-04-27T23:16:15Z</time>
      </trkpt>
      <trkpt lat="45.61594" lon="4.5787">
        <ele>793</ele>
        <time>2019-04-27T23:17:15Z</time>
      </trkpt>
      <trkpt lat="45.61595" lon="4.57862">
        <ele>794</ele>
        <time>2019-04-27T23:18:15Z</time>
      </trkpt>
      <trkpt lat="45.61589" lon="4.57855">
        <ele>794</ele>
        <time>2019-04-27T23:19:15Z</time>
      </trkpt>
      <trkpt lat="45.61569" lon="4.57844">
        <ele>792</ele>
        <time>2019-04-27T23:20:15Z</time>
      </trkpt>
      <trkpt lat="45.61566" lon="4.5784">
        <ele>792</ele>
        <time>2019-04-27T23:21:15Z</time>
      </trkpt>
      <trkpt lat="45.61569" lon="4.57828">
        <ele>794</ele>
        <time>2019-04-27T23:22:15Z</time>
      </trkpt>
      <trkpt lat="45.61572" lon="4.57825">
        <ele>795</ele>
        <time>2019-04-27T23:23:15Z</time>
      </trkpt>
      <trkpt lat="45.61639" lon="4.57832">
        <ele>804</ele>
        <time>2019-04-27T23:24:15Z</time>
      </trkpt>
      <trkpt lat="45.61657" lon="4.57841">
        <ele>806</ele>
        <time>2019-04-27T23:25:15Z</time>
      </trkpt>
      <trkpt lat="45.61687" lon="4.57862">
        <ele>810</ele>
        <time>2019-04-27T23:26:15Z</time>
      </trkpt>
      <trkpt lat="45.61782" lon="4.5801">
        <ele>823</ele>
        <time>2019-04-27T23:27:15Z</time>
      </trkpt>
      <trkpt lat="45.61797" lon="4.5803">
        <ele>824</ele>
        <time>2019-04-27T23:28:15Z</time>
      </trkpt>
      <trkpt lat="45.61813" lon="4.58036">
        <ele>826</ele>
        <time>2019-04-27T23:29:15Z</time>
      </trkpt>
      <trkpt lat="45.61839" lon="4.58066">
        <ele>828</ele>
        <time>2019-04-27T23:30:15Z</time>
      </trkpt>
      <trkpt lat="45.61855" lon="4.58079">
        <ele>829</ele>
        <time>2019-04-27T23:31:15Z</time>
      </trkpt>
      <trkpt lat="45.61883" lon="4.58094">
        <ele>831</ele>
        <time>2019-04-27T23:32:15Z</time>
      </trkpt>
      <trkpt lat="45.61896" lon="4.58086">
        <ele>833</ele>
        <time>2019-04-27T23:33:15Z</time>
      </trkpt>
      <trkpt lat="45.61917" lon="4.5805">
        <ele>839</ele>
        <time>2019-04-27T23:34:15Z</time>
      </trkpt>
      <trkpt lat="45.61947" lon="4.58011">
        <ele>844</ele>
        <time>2019-04-27T23:35:15Z</time>
      </trkpt>
      <trkpt lat="45.61997" lon="4.57979">
        <ele>847</ele>
        <time>2019-04-27T23:36:15Z</time>
      </trkpt>
      <trkpt lat="45.62031" lon="4.57947">
        <ele>847</ele>
        <time>2019-04-27T23:37:15Z</time>
      </trkpt>
      <trkpt lat="45.62061" lon="4.57887">
        <ele>843</ele>
        <time>2019-04-27T23:38:15Z</time>
      </trkpt>
      <trkpt lat="45.6208" lon="4.57859">
        <ele>840</ele>
        <time>2019-04-27T23:39:15Z</time>
      </trkpt>
      <trkpt lat="45.62118" lon="4.57877">
        <ele>837</ele>
        <time>2019-04-27T23:40:15Z</time>
      </trkpt>
      <trkpt lat="45.62125" lon="4.57879">
        <ele>836</ele>
        <time>2019-04-27T23:41:15Z</time>
      </trkpt>
      <trkpt lat="45.6213" lon="4.57877">
        <ele>835</ele>
        <time>2019-04-27T23:42:15Z</time>
      </trkpt>
      <trkpt lat="45.62195" lon="4.57802">
        <ele>819</ele>
        <time>2019-04-27T23:43:15Z</time>
      </trkpt>
      <trkpt lat="45.62221" lon="4.57778">
        <ele>813</ele>
        <time>2019-04-27T23:44:15Z</time>
      </trkpt>
      <trkpt lat="45.6226" lon="4.57745">
        <ele>804</ele>
        <time>2019-04-27T23:45:15Z</time>
      </trkpt>
      <trkpt lat="45.62322" lon="4.577">
        <ele>792</ele>
        <time>2019-04-27T23:46:15Z</time>
      </trkpt>
      <trkpt lat="45.62435" lon="4.57608">
        <ele>770</ele>
        <time>2019-04-27T23:47:15Z</time>
      </trkpt>
      <trkpt lat="45.62441" lon="4.57607">
        <ele>770</ele>
        <time>2019-04-27T23:48:15Z</time>
      </trkpt>
      <trkpt lat="45.62455" lon="4.57616">
        <ele>769</ele>
        <time>2019-04-27T23:49:15Z</time>
      </trkpt>
      <trkpt lat="45.62465" lon="4.57618">
        <ele>768</ele>
        <time>2019-04-27T23:50:15Z</time>
      </trkpt>
      <trkpt lat="45.62516" lon="4.5759">
        <ele>763</ele>
        <time>2019-04-27T23:51:15Z</time>
      </trkpt>
      <trkpt lat="45.62558" lon="4.57582">
        <ele>761</ele>
        <time>2019-04-27T23:52:15Z</time>
      </trkpt>
      <trkpt lat="45.6257" lon="4.57572">
        <ele>761</ele>
        <time>2019-04-27T23:53:15Z</time>
      </trkpt>
      <trkpt lat="45.62575" lon="4.57571">
        <ele>761</ele>
        <time>2019-04-27T23:54:15Z</time>
      </trkpt>
      <trkpt lat="45.62576" lon="4.57583">
        <ele>760</ele>
        <time>2019-04-27T23:55:15Z</time>
      </trkpt>
      <trkpt lat="45.62572" lon="4.57592">
        <ele>760</ele>
        <time>2019-04-27T23:56:15Z</time>
      </trkpt>
      <trkpt lat="45.62561" lon="4.57604">
        <ele>760</ele>
        <time>2019-04-27T23:57:15Z</time>
      </trkpt>
      <trkpt lat="45.62541" lon="4.57644">
        <ele>761</ele>
        <time>2019-04-27T23:58:15Z</time>
      </trkpt>
      <trkpt lat="45.62541" lon="4.57664">
        <ele>760</ele>
        <time>2019-04-27T23:59:15Z</time>
      </trkpt>
      <trkpt lat="45.6255" lon="4.57687">
        <ele>759</ele>
        <time>2019-04-28T00:00:15Z</time>
      </trkpt>
      <trkpt lat="45.62596" lon="4.57763">
        <ele>751</ele>
        <time>2019-04-28T00:01:15Z</time>
      </trkpt>
      <trkpt lat="45.62602" lon="4.57783">
        <ele>751</ele>
        <time>2019-04-28T00:02:15Z</time>
      </trkpt>
      <trkpt lat="45.62607" lon="4.57829">
        <ele>751</ele>
        <time>2019-04-28T00:03:15Z</time>
      </trkpt>
      <trkpt lat="45.62626" lon="4.57866">
        <ele>750</ele>
        <time>2019-04-28T00:04:15Z</time>
      </trkpt>
      <trkpt lat="45.6264" lon="4.57919">
        <ele>751</ele>
        <time>2019-04-28T00:05:15Z</time>
      </trkpt>
      <trkpt lat="45.62673" lon="4.57986">
        <ele>752</ele>
        <time>2019-04-28T00:06:15Z</time>
      </trkpt>
      <trkpt lat="45.62697" lon="4.58071">
        <ele>756</ele>
        <time>2019-04-28T00:07:15Z</time>
      </trkpt>
      <trkpt lat="45.62754" lon="4.58252">
        <ele>757</ele>
        <time>2019-04-28T00:08:15Z</time>
      </trkpt>
      <trkpt lat="45.62763" lon="4.58256">
        <ele>756</ele>
        <time>2019-04-28T00:09:15Z</time>
      </trkpt>
      <trkpt lat="45.628" lon="4.58263">
        <ele>751</ele>
        <time>2019-04-28T00:10:15Z</time>
      </trkpt>
      <trkpt lat="45.62819" lon="4.58261">
        <ele>749</ele>
        <time>2019-04-28T00:11:15Z</time>
      </trkpt>
      <trkpt lat="45.62861" lon="4.58286">
        <ele>748</ele>
        <time>2019-04-28T00:12:15Z</time>
      </trkpt>
      <trkpt lat="45.62869" lon="4.58287">
        <ele>749</ele>
        <time>2019-04-28T00:13:15Z</time>
      </trkpt>
      <trkpt lat="45.62882" lon="4.58283">
        <ele>749</ele>
        <time>2019-04-28T00:14:15Z</time>
      </trkpt>
      <trkpt lat="45.62901" lon="4.58262">
        <ele>750</ele>
        <time>2019-04-28T00:15:15Z</time>
      </trkpt>
      <trkpt lat="45.62912" lon="4.5823">
        <ele>750</ele>
        <time>2019-04-28T00:16:15Z</time>
      </trkpt>
      <trkpt lat="45.62916" lon="4.58209">
        <ele>751</ele>
        <time>2019-04-28T00:17:15Z</time>
      </trkpt>
      <trkpt lat="45.62904" lon="4.58103">
        <ele>752</ele>
        <time>2019-04-28T00:18:15Z</time>
      </trkpt>
      <trkpt lat="45.62896" lon="4.57958">
        <ele>757</ele>
        <time>2019-04-28T00:19:15Z</time>
      </trkpt>
      <trkpt lat="45.62899" lon="4.57901">
        <ele>759</ele>
        <time>2019-04-28T00:20:15Z</time>
      </trkpt>
      <trkpt lat="45.62914" lon="4.57789">
        <ele>762</ele>
        <time>2019-04-28T00:21:15Z</time>
      </trkpt>
      <trkpt lat="45.62959" lon="4.57715">
        <ele>764</ele>
        <time>2019-04-28T00:22:15Z</time>
      </trkpt>
      <trkpt lat="45.63023" lon="4.5765">
        <ele>763</ele>
        <time>2019-04-28T00:23:15Z</time>
      </trkpt>
      <trkpt lat="45.63055" lon="4.57601">
        <ele>762</ele>
        <time>2019-04-28T00:24:15Z</time>
      </trkpt>
      <trkpt lat="45.63076" lon="4.57577">
        <ele>763</ele>
        <time>2019-04-28T00:25:15Z</time>
      </trkpt>
      <trkpt lat="45.63097" lon="4.57556">
        <ele>763</ele>
        <time>2019-04-28T00:26:15Z</time>
      </trkpt>
      <trkpt lat="45.63115" lon="4.57566">
        <ele>764</ele>
        <time>2019-04-28T00:27:15Z</time>
      </trkpt>
      <trkpt lat="45.63134" lon="4.57568">
        <ele>765</ele>
        <time>2019-04-28T00:28:15Z</time>
      </trkpt>
      <trkpt lat="45.63139" lon="4.57572">
        <ele>765</ele>
        <time>2019-04-28T00:29:15Z</time>
      </trkpt>
      <trkpt lat="45.6315" lon="4.57616">
        <ele>768</ele>
        <time>2019-04-28T00:30:15Z</time>
      </trkpt>
      <trkpt lat="45.63153" lon="4.57682">
        <ele>772</ele>
        <time>2019-04-28T00:31:15Z</time>
      </trkpt>
      <trkpt lat="45.63162" lon="4.57724">
        <ele>776</ele>
        <time>2019-04-28T00:32:15Z</time>
      </trkpt>
      <trkpt lat="45.63178" lon="4.5778">
        <ele>781</ele>
        <time>2019-04-28T00:33:15Z</time>
      </trkpt>
      <trkpt lat="45.63201" lon="4.57876">
        <ele>793</ele>
        <time>2019-04-28T00:34:15Z</time>
      </trkpt>
      <trkpt lat="45.63247" lon="4.58007">
        <ele>807</ele>
        <time>2019-04-28T00:35:15Z</time>
      </trkpt>
      <trkpt lat="45.63257" lon="4.58045">
        <ele>811</ele>
        <time>2019-04-28T00:36:15Z</time>
      </trkpt>
      <trkpt lat="45.6329" lon="4.58076">
        <ele>818</ele>
        <time>2019-04-28T00:37:15Z</time>
      </trkpt>
      <trkpt lat="45.63325" lon="4.5814">
        <ele>827</ele>
        <time>2019-04-28T00:38:15Z</time>
      </trkpt>
      <trkpt lat="45.63358" lon="4.58162">
        <ele>831</ele>
        <time>2019-04-28T00:39:15Z</time>
      </trkpt>
      <trkpt lat="45.63385" lon="4.58221">
        <ele>835</ele>
        <time>2019-04-28T00:40:15Z</time>
      </trkpt>
      <trkpt lat="45.63387" lon="4.58281">
        <ele>835</ele>
        <time>2019-04-28T00:41:15Z</time>
      </trkpt>
      <trkpt lat="45.63462" lon="4.5872">
        <ele>845</ele>
        <time>2019-04-28T00:42:15Z</time>
      </trkpt>
      <trkpt lat="45.63495" lon="4.58826">
        <ele>849</ele>
        <time>2019-04-28T00:43:15Z</time>
      </trkpt>
      <trkpt lat="45.63495" lon="4.58849">
        <ele>848</ele>
        <time>2019-04-28T00:44:15Z</time>
      </trkpt>
      <trkpt lat="45.63482" lon="4.58924">
        <ele>845</ele>
        <time>2019-04-28T00:45:15Z</time>
      </trkpt>
      <trkpt lat="45.63461" lon="4.58925">
        <ele>840</ele>
        <time>2019-04-28T00:46:15Z</time>
      </trkpt>
      <trkpt lat="45.63423" lon="4.58939">
        <ele>832</ele>
        <time>2019-04-28T00:47:15Z</time>
      </trkpt>
      <trkpt lat="45.63388" lon="4.58953">
        <ele>825</ele>
        <time>2019-04-28T00:48:15Z</time>
      </trkpt>
      <trkpt lat="45.63382" lon="4.58961">
        <ele>824</ele>
        <time>2019-04-28T00:49:15Z</time>
      </trkpt>
      <trkpt lat="45.63369" lon="4.59045">
        <ele>824</ele>
        <time>2019-04-28T00:50:15Z</time>
      </trkpt>
      <trkpt lat="45.63371" lon="4.59134">
        <ele>826</ele>
        <time>2019-04-28T00:51:15Z</time>
      </trkpt>
      <trkpt lat="45.63365" lon="4.59164">
        <ele>825</ele>
        <time>2019-04-28T00:52:15Z</time>
      </trkpt>
      <trkpt lat="45.63353" lon="4.59195">
        <ele>823</ele>
        <time>2019-04-28T00:53:15Z</time>
      </trkpt>
      <trkpt lat="45.63335" lon="4.59229">
        <ele>821</ele>
        <time>2019-04-28T00:54:15Z</time>
      </trkpt>
      <trkpt lat="45.6325" lon="4.59265">
        <ele>826</ele>
        <time>2019-04-28T00:55:15Z</time>
      </trkpt>
      <trkpt lat="45.6321" lon="4.59295">
        <ele>832</ele>
        <time>2019-04-28T00:56:15Z</time>
      </trkpt>
      <trkpt lat="45.6319" lon="4.59318">
        <ele>835</ele>
        <time>2019-04-28T00:57:15Z</time>
      </trkpt>
      <trkpt lat="45.63179" lon="4.59358">
        <ele>841</ele>
        <time>2019-04-28T00:58:15Z</time>
      </trkpt>
      <trkpt lat="45.63183" lon="4.59363">
        <ele>841</ele>
        <time>2019-04-28T00:59:15Z</time>
      </trkpt>
      <trkpt lat="45.63228" lon="4.59389">
        <ele>842</ele>
        <time>2019-04-28T01:00:15Z</time>
      </trkpt>
      <trkpt lat="45.63386" lon="4.59493">
        <ele>848</ele>
        <time>2019-04-28T01:01:15Z</time>
      </trkpt>
      <trkpt lat="45.63438" lon="4.59522">
        <ele>852</ele>
        <time>2019-04-28T01:02:15Z</time>
      </trkpt>
      <trkpt lat="45.63451" lon="4.59537">
        <ele>854</ele>
        <time>2019-04-28T01:03:15Z</time>
      </trkpt>
      <trkpt lat="45.63458" lon="4.59536">
        <ele>855</ele>
        <time>2019-04-28T01:04:15Z</time>
      </trkpt>
      <trkpt lat="45.63473" lon="4.59527">
        <ele>855</ele>
        <time>2019-04-28T01:05:15Z</time>
      </trkpt>
      <trkpt lat="45.63491" lon="4.59503">
        <ele>854</ele>
        <time>2019-04-28T01:06:15Z</time>
      </trkpt>
      <trkpt lat="45.63504" lon="4.59472">
        <ele>855</ele>
        <time>2019-04-28T01:07:15Z</time>
      </trkpt>
      <trkpt lat="45.63508" lon="4.59469">
        <ele>856</ele>
        <time>2019-04-28T01:08:15Z</time>
      </trkpt>
      <trkpt lat="45.63511" lon="4.59473">
        <ele>857</ele>
        <time>2019-04-28T01:09:15Z</time>
      </trkpt>
      <trkpt lat="45.63515" lon="4.59489">
        <ele>857</ele>
        <time>2019-04-28T01:10:15Z</time>
      </trkpt>
      <trkpt lat="45.63525" lon="4.5957">
        <ele>859</ele>
        <time>2019-04-28T01:11:15Z</time>
      </trkpt>
      <trkpt lat="45.63529" lon="4.59581">
        <ele>860</ele>
        <time>2019-04-28T01:12:15Z</time>
      </trkpt>
      <trkpt lat="45.63553" lon="4.59612">
        <ele>861</ele>
        <time>2019-04-28T01:13:15Z</time>
      </trkpt>
      <trkpt lat="45.63565" lon="4.5964">
        <ele>862</ele>
        <time>2019-04-28T01:14:15Z</time>
      </trkpt>
      <trkpt lat="45.63576" lon="4.59675">
        <ele>861</ele>
        <time>2019-04-28T01:15:15Z</time>
      </trkpt>
      <trkpt lat="45.63598" lon="4.59698">
        <ele>860</ele>
        <time>2019-04-28T01:16:15Z</time>
      </trkpt>
      <trkpt lat="45.63609" lon="4.59732">
        <ele>857</ele>
        <time>2019-04-28T01:17:15Z</time>
      </trkpt>
      <trkpt lat="45.63617" lon="4.59807">
        <ele>853</ele>
        <time>2019-04-28T01:18:15Z</time>
      </trkpt>
      <trkpt lat="45.6363" lon="4.59872">
        <ele>851</ele>
        <time>2019-04-28T01:19:15Z</time>
      </trkpt>
      <trkpt lat="45.63637" lon="4.59893">
        <ele>851</ele>
        <time>2019-04-28T01:20:15Z</time>
      </trkpt>
      <trkpt lat="45.63653" lon="4.59922">
        <ele>848</ele>
        <time>2019-04-28T01:21:15Z</time>
      </trkpt>
      <trkpt lat="45.6369" lon="4.59966">
        <ele>843</ele>
        <time>2019-04-28T01:22:15Z</time>
      </trkpt>
      <trkpt lat="45.63712" lon="4.6001">
        <ele>841</ele>
        <time>2019-04-28T01:23:15Z</time>
      </trkpt>
      <trkpt lat="45.63737" lon="4.60038">
        <ele>838</ele>
        <time>2019-04-28T01:24:15Z</time>
      </trkpt>
      <trkpt lat="45.63769" lon="4.60104">
        <ele>832</ele>
        <time>2019-04-28T01:25:15Z</time>
      </trkpt>
      <trkpt lat="45.63797" lon="4.60147">
        <ele>823</ele>
        <time>2019-04-28T01:26:15Z</time>
      </trkpt>
      <trkpt lat="45.63834" lon="4.60212">
        <ele>812</ele>
        <time>2019-04-28T01:27:15Z</time>
      </trkpt>
      <trkpt lat="45.63849" lon="4.60252">
        <ele>806</ele>
        <time>2019-04-28T01:28:15Z</time>
      </trkpt>
      <trkpt lat="45.63933" lon="4.60344">
        <ele>794</ele>
        <time>2019-04-28T01:29:15Z</time>
      </trkpt>
      <trkpt lat="45.63945" lon="4.60366">
        <ele>792</ele>
        <time>2019-04-28T01:30:15Z</time>
      </trkpt>
      <trkpt lat="45.63953" lon="4.60372">
        <ele>792</ele>
        <time>2019-04-28T01:31:15Z</time>
      </trkpt>
      <trkpt lat="45.63975" lon="4.60378">
        <ele>791</ele>
        <time>2019-04-28T01:32:15Z</time>
      </trkpt>
      <trkpt lat="45.63989" lon="4.60388">
        <ele>791</ele>
        <time>2019-04-28T01:33:15Z</time>
      </trkpt>
      <trkpt lat="45.64004" lon="4.60404">
        <ele>790</ele>
        <time>2019-04-28T01:34:15Z</time>
      </trkpt>
      <trkpt lat="45.64025" lon="4.60413">
        <ele>788</ele>
        <time>2019-04-28T01:35:15Z</time>
      </trkpt>
      <trkpt lat="45.64034" lon="4.60421">
        <ele>787</ele>
        <time>2019-04-28T01:36:15Z</time>
      </trkpt>
      <trkpt lat="45.64067" lon="4.60484">
        <ele>779</ele>
        <time>2019-04-28T01:37:15Z</time>
      </trkpt>
      <trkpt lat="45.64068" lon="4.60496">
        <ele>777</ele>
        <time>2019-04-28T01:38:15Z</time>
      </trkpt>
      <trkpt lat="45.64066" lon="4.60503">
        <ele>776</ele>
        <time>2019-04-28T01:39:15Z</time>
      </trkpt>
      <trkpt lat="45.6406" lon="4.6051">
        <ele>774</ele>
        <time>2019-04-28T01:40:15Z</time>
      </trkpt>
      <trkpt lat="45.64047" lon="4.60512">
        <ele>773</ele>
        <time>2019-04-28T01:41:15Z</time>
      </trkpt>
      <trkpt lat="45.64032" lon="4.6052">
        <ele>770</ele>
        <time>2019-04-28T01:42:15Z</time>
      </trkpt>
      <trkpt lat="45.63996" lon="4.6052">
        <ele>768</ele>
        <time>2019-04-28T01:43:15Z</time>
      </trkpt>
      <trkpt lat="45.63965" lon="4.60542">
        <ele>759</ele>
        <time>2019-04-28T01:44:15Z</time>
      </trkpt>
      <trkpt lat="45.63933" lon="4.60556">
        <ele>752</ele>
        <time>2019-04-28T01:45:15Z</time>
      </trkpt>
      <trkpt lat="45.63816" lon="4.60592">
        <ele>738</ele>
        <time>2019-04-28T01:46:15Z</time>
      </trkpt>
      <trkpt lat="45.638" lon="4.60604">
        <ele>737</ele>
        <time>2019-04-28T01:47:15Z</time>
      </trkpt>
      <trkpt lat="45.6377" lon="4.60637">
        <ele>734</ele>
        <time>2019-04-28T01:48:15Z</time>
      </trkpt>
      <trkpt lat="45.63765" lon="4.60657">
        <ele>733</ele>
        <time>2019-04-28T01:49:15Z</time>
      </trkpt>
      <trkpt lat="45.63766" lon="4.60696">
        <ele>728</ele>
        <time>2019-04-28T01:50:15Z</time>
      </trkpt>
      <trkpt lat="45.6377" lon="4.60711">
        <ele>726</ele>
        <time>2019-04-28T01:51:15Z</time>
      </trkpt>
      <trkpt lat="45.63774" lon="4.60776">
        <ele>716</ele>
        <time>2019-04-28T01:52:15Z</time>
      </trkpt>
      <trkpt lat="45.63781" lon="4.60809">
        <ele>709</ele>
        <time>2019-04-28T01:53:15Z</time>
      </trkpt>
      <trkpt lat="45.63785" lon="4.60843">
        <ele>702</ele>
        <time>2019-04-28T01:54:15Z</time>
      </trkpt>
      <trkpt lat="45.63783" lon="4.60858">
        <ele>701</ele>
        <time>2019-04-28T01:55:15Z</time>
      </trkpt>
      <trkpt lat="45.63789" lon="4.60905">
        <ele>695</ele>
        <time>2019-04-28T01:56:15Z</time>
      </trkpt>
      <trkpt lat="45.63796" lon="4.60939">
        <ele>689</ele>
        <time>2019-04-28T01:57:15Z</time>
      </trkpt>
      <trkpt lat="45.63828" lon="4.61062">
        <ele>671</ele>
        <time>2019-04-28T01:58:15Z</time>
      </trkpt>
      <trkpt lat="45.63847" lon="4.61102">
        <ele>664</ele>
        <time>2019-04-28T01:59:15Z</time>
      </trkpt>
      <trkpt lat="45.6386" lon="4.61122">
        <ele>660</ele>
        <time>2019-04-28T02:00:15Z</time>
      </trkpt>
      <trkpt lat="45.63876" lon="4.6114">
        <ele>656</ele>
        <time>2019-04-28T02:01:15Z</time>
      </trkpt>
      <trkpt lat="45.63877" lon="4.61155">
        <ele>656</ele>
        <time>2019-04-28T02:02:15Z</time>
      </trkpt>
      <trkpt lat="45.63873" lon="4.6118">
        <ele>656</ele>
        <time>2019-04-28T02:03:15Z</time>
      </trkpt>
      <trkpt lat="45.63861" lon="4.612">
        <ele>658</ele>
        <time>2019-04-28T02:04:15Z</time>
      </trkpt>
      <trkpt lat="45.63819" lon="4.61242">
        <ele>664</ele>
        <time>2019-04-28T02:05:15Z</time>
      </trkpt>
      <trkpt lat="45.6381" lon="4.61245">
        <ele>664</ele>
        <time>2019-04-28T02:06:15Z</time>
      </trkpt>
      <trkpt lat="45.63784" lon="4.61245">
        <ele>668</ele>
        <time>2019-04-28T02:07:15Z</time>
      </trkpt>
      <trkpt lat="45.63768" lon="4.61238">
        <ele>670</ele>
        <time>2019-04-28T02:08:15Z</time>
      </trkpt>
      <trkpt lat="45.63718" lon="4.61223">
        <ele>674</ele>
        <time>2019-04-28T02:09:15Z</time>
      </trkpt>
      <trkpt lat="45.63716" lon="4.6122">
        <ele>675</ele>
        <time>2019-04-28T02:10:15Z</time>
      </trkpt>
      <trkpt lat="45.6373" lon="4.61202">
        <ele>678</ele>
        <time>2019-04-28T02:11:15Z</time>
      </trkpt>
      <trkpt lat="45.63735" lon="4.61173">
        <ele>683</ele>
        <time>2019-04-28T02:12:15Z</time>
      </trkpt>
      <trkpt lat="45.63733" lon="4.61157">
        <ele>685</ele>
        <time>2019-04-28T02:13:15Z</time>
      </trkpt>
      <trkpt lat="45.63729" lon="4.61146">
        <ele>686</ele>
        <time>2019-04-28T02:14:15Z</time>
      </trkpt>
      <trkpt lat="45.63719" lon="4.6113">
        <ele>689</ele>
        <time>2019-04-28T02:15:15Z</time>
      </trkpt>
      <trkpt lat="45.63709" lon="4.61122">
        <ele>691</ele>
        <time>2019-04-28T02:16:15Z</time>
      </trkpt>
      <trkpt lat="45.63684" lon="4.61091">
        <ele>699</ele>
        <time>2019-04-28T02:17:15Z</time>
      </trkpt>
      <trkpt lat="45.63665" lon="4.61076">
        <ele>705</ele>
        <time>2019-04-28T02:18:15Z</time>
      </trkpt>
      <trkpt lat="45.63639" lon="4.61061">
        <ele>711</ele>
        <time>2019-04-28T02:19:15Z</time>
      </trkpt>
      <trkpt lat="45.63618" lon="4.61026">
        <ele>719</ele>
        <time>2019-04-28T02:20:15Z</time>
      </trkpt>
      <trkpt lat="45.63582" lon="4.61056">
        <ele>720</ele>
        <time>2019-04-28T02:21:15Z</time>
      </trkpt>
      <trkpt lat="45.63557" lon="4.61063">
        <ele>719</ele>
        <time>2019-04-28T02:22:15Z</time>
      </trkpt>
      <trkpt lat="45.6354" lon="4.6106">
        <ele>719</ele>
        <time>2019-04-28T02:23:15Z</time>
      </trkpt>
      <trkpt lat="45.63522" lon="4.61053">
        <ele>720</ele>
        <time>2019-04-28T02:24:15Z</time>
      </trkpt>
      <trkpt lat="45.6349" lon="4.61051">
        <ele>720</ele>
        <time>2019-04-28T02:25:15Z</time>
      </trkpt>
      <trkpt lat="45.63453" lon="4.61038">
        <ele>723</ele>
        <time>2019-04-28T02:26:15Z</time>
      </trkpt>
      <trkpt lat="45.63433" lon="4.61038">
        <ele>723</ele>
        <time>2019-04-28T02:27:15Z</time>
      </trkpt>
      <trkpt lat="45.63421" lon="4.61044">
        <ele>721</ele>
        <time>2019-04-28T02:28:15Z</time>
      </trkpt>
      <trkpt lat="45.63394" lon="4.61046">
        <ele>719</ele>
        <time>2019-04-28T02:29:15Z</time>
      </trkpt>
      <trkpt lat="45.63369" lon="4.61057">
        <ele>715</ele>
        <time>2019-04-28T02:30:15Z</time>
      </trkpt>
      <trkpt lat="45.63319" lon="4.61063">
        <ele>708</ele>
        <time>2019-04-28T02:31:15Z</time>
      </trkpt>
      <trkpt lat="45.633" lon="4.61048">
        <ele>705</ele>
        <time>2019-04-28T02:32:15Z</time>
      </trkpt>
      <trkpt lat="45.63243" lon="4.60965">
        <ele>705</ele>
        <time>2019-04-28T02:33:15Z</time>
      </trkpt>
      <trkpt lat="45.63193" lon="4.60904">
        <ele>699</ele>
        <time>2019-04-28T02:34:15Z</time>
      </trkpt>
      <trkpt lat="45.63177" lon="4.60874">
        <ele>700</ele>
        <time>2019-04-28T02:35:15Z</time>
      </trkpt>
      <trkpt lat="45.63131" lon="4.60836">
        <ele>694</ele>
        <time>2019-04-28T02:36:15Z</time>
      </trkpt>
      <trkpt lat="45.6311" lon="4.60814">
        <ele>692</ele>
        <time>2019-04-28T02:37:15Z</time>
      </trkpt>
      <trkpt lat="45.63079" lon="4.60773">
        <ele>691</ele>
        <time>2019-04-28T02:38:15Z</time>
      </trkpt>
      <trkpt lat="45.63069" lon="4.6077">
        <ele>692</ele>
        <time>2019-04-28T02:39:15Z</time>
      </trkpt>
      <trkpt lat="45.6302" lon="4.60777">
        <ele>691</ele>
        <time>2019-04-28T02:40:15Z</time>
      </trkpt>
      <trkpt lat="45.63007" lon="4.60783">
        <ele>690</ele>
        <time>2019-04-28T02:41:15Z</time>
      </trkpt>
      <trkpt lat="45.62975" lon="4.60831">
        <ele>688</ele>
        <time>2019-04-28T02:42:15Z</time>
      </trkpt>
      <trkpt lat="45.62964" lon="4.60913">
        <ele>686</ele>
        <time>2019-04-28T02:43:15Z</time>
      </trkpt>
      <trkpt lat="45.62935" lon="4.61084">
        <ele>679</ele>
        <time>2019-04-28T02:44:15Z</time>
      </trkpt>
      <trkpt lat="45.62904" lon="4.61164">
        <ele>680</ele>
        <time>2019-04-28T02:45:15Z</time>
      </trkpt>
      <trkpt lat="45.62899" lon="4.61193">
        <ele>677</ele>
        <time>2019-04-28T02:46:15Z</time>
      </trkpt>
      <trkpt lat="45.62873" lon="4.61255">
        <ele>677</ele>
        <time>2019-04-28T02:47:15Z</time>
      </trkpt>
      <trkpt lat="45.62856" lon="4.61315">
        <ele>672</ele>
        <time>2019-04-28T02:48:15Z</time>
      </trkpt>
      <trkpt lat="45.62853" lon="4.61343">
        <ele>668</ele>
        <time>2019-04-28T02:49:15Z</time>
      </trkpt>
      <trkpt lat="45.62831" lon="4.61408">
        <ele>663</ele>
        <time>2019-04-28T02:50:15Z</time>
      </trkpt>
      <trkpt lat="45.62807" lon="4.61469">
        <ele>653</ele>
        <time>2019-04-28T02:51:15Z</time>
      </trkpt>
      <trkpt lat="45.62786" lon="4.61562">
        <ele>637</ele>
        <time>2019-04-28T02:52:15Z</time>
      </trkpt>
      <trkpt lat="45.62771" lon="4.61581">
        <ele>635</ele>
        <time>2019-04-28T02:53:15Z</time>
      </trkpt>
      <trkpt lat="45.62747" lon="4.61598">
        <ele>634</ele>
        <time>2019-04-28T02:54:15Z</time>
      </trkpt>
      <trkpt lat="45.62729" lon="4.61603">
        <ele>631</ele>
        <time>2019-04-28T02:55:15Z</time>
      </trkpt>
      <trkpt lat="45.62686" lon="4.61588">
        <ele>629</ele>
        <time>2019-04-28T02:56:15Z</time>
      </trkpt>
      <trkpt lat="45.62632" lon="4.61561">
        <ele>626</ele>
        <time>2019-04-28T02:57:15Z</time>
      </trkpt>
      <trkpt lat="45.62624" lon="4.6158">
        <ele>620</ele>
        <time>2019-04-28T02:58:15Z</time>
      </trkpt>
      <trkpt lat="45.62639" lon="4.61608">
        <ele>618</ele>
        <time>2019-04-28T02:59:15Z</time>
      </trkpt>
      <trkpt lat="45.62633" lon="4.6165">
        <ele>611</ele>
        <time>2019-04-28T03:00:15Z</time>
      </trkpt>
      <trkpt lat="45.62674" lon="4.6174">
        <ele>608</ele>
        <time>2019-04-28T03:01:15Z</time>
      </trkpt>
      <trkpt lat="45.62721" lon="4.61888">
        <ele>596</ele>
        <time>2019-04-28T03:02:15Z</time>
      </trkpt>
      <trkpt lat="45.62719" lon="4.61898">
        <ele>595</ele>
        <time>2019-04-28T03:03:15Z</time>
      </trkpt>
      <trkpt lat="45.62706" lon="4.6192">
        <ele>592</ele>
        <time>2019-04-28T03:04:15Z</time>
      </trkpt>
      <trkpt lat="45.62666" lon="4.61961">
        <ele>584</ele>
        <time>2019-04-28T03:05:15Z</time>
      </trkpt>
      <trkpt lat="45.62699" lon="4.62011">
        <ele>577</ele>
        <time>2019-04-28T03:06:15Z</time>
      </trkpt>
      <trkpt lat="45.62749" lon="4.62026">
        <ele>573</ele>
        <time>2019-04-28T03:07:15Z</time>
      </trkpt>
      <trkpt lat="45.62788" lon="4.62064">
        <ele>564</ele>
        <time>2019-04-28T03:08:15Z</time>
      </trkpt>
      <trkpt lat="45.62844" lon="4.62128">
        <ele>553</ele>
        <time>2019-04-28T03:09:15Z</time>
      </trkpt>
      <trkpt lat="45.6287" lon="4.62131">
        <ele>551</ele>
        <time>2019-04-28T03:10:15Z</time>
      </trkpt>
      <trkpt lat="45.62899" lon="4.62128">
        <ele>549</ele>
        <time>2019-04-28T03:11:15Z</time>
      </trkpt>
      <trkpt lat="45.62922" lon="4.62117">
        <ele>547</ele>
        <time>2019-04-28T03:12:15Z</time>
      </trkpt>
      <trkpt lat="45.62941" lon="4.62102">
        <ele>544</ele>
        <time>2019-04-28T03:13:15Z</time>
      </trkpt>
      <trkpt lat="45.62954" lon="4.62085">
        <ele>543</ele>
        <time>2019-04-28T03:14:15Z</time>
      </trkpt>
      <trkpt lat="45.62967" lon="4.62048">
        <ele>542</ele>
        <time>2019-04-28T03:15:15Z</time>
      </trkpt>
      <trkpt lat="45.62986" lon="4.62008">
        <ele>541</ele>
        <time>2019-04-28T03:16:15Z</time>
      </trkpt>
      <trkpt lat="45.63" lon="4.61993">
        <ele>540</ele>
        <time>2019-04-28T03:17:15Z</time>
      </trkpt>
      <trkpt lat="45.63012" lon="4.61995">
        <ele>540</ele>
        <time>2019-04-28T03:18:15Z</time>
      </trkpt>
      <trkpt lat="45.63016" lon="4.61997">
        <ele>539</ele>
        <time>2019-04-28T03:19:15Z</time>
      </trkpt>
      <trkpt lat="45.63047" lon="4.62039">
        <ele>536</ele>
        <time>2019-04-28T03:20:15Z</time>
      </trkpt>
      <trkpt lat="45.63067" lon="4.62079">
        <ele>533</ele>
        <time>2019-04-28T03:21:15Z</time>
      </trkpt>
      <trkpt lat="45.63078" lon="4.62126">
        <ele>530</ele>
        <time>2019-04-28T03:22:15Z</time>
      </trkpt>
      <trkpt lat="45.6308" lon="4.62165">
        <ele>527</ele>
        <time>2019-04-28T03:23:15Z</time>
      </trkpt>
      <trkpt lat="45.63071" lon="4.62201">
        <ele>524</ele>
        <time>2019-04-28T03:24:15Z</time>
      </trkpt>
      <trkpt lat="45.63053" lon="4.62252">
        <ele>519</ele>
        <time>2019-04-28T03:25:15Z</time>
      </trkpt>
      <trkpt lat="45.63052" lon="4.62267">
        <ele>518</ele>
        <time>2019-04-28T03:26:15Z</time>
      </trkpt>
      <trkpt lat="45.6309" lon="4.6241">
        <ele>508</ele>
        <time>2019-04-28T03:27:15Z</time>
      </trkpt>
      <trkpt lat="45.63104" lon="4.62489">
        <ele>504</ele>
        <time>2019-04-28T03:28:15Z</time>
      </trkpt>
      <trkpt lat="45.63103" lon="4.62542">
        <ele>500</ele>
        <time>2019-04-28T03:29:15Z</time>
      </trkpt>
      <trkpt lat="45.63085" lon="4.62585">
        <ele>496</ele>
        <time>2019-04-28T03:30:15Z</time>
      </trkpt>
      <trkpt lat="45.6308" lon="4.62608">
        <ele>495</ele>
        <time>2019-04-28T03:31:15Z</time>
      </trkpt>
      <trkpt lat="45.63077" lon="4.62635">
        <ele>494</ele>
        <time>2019-04-28T03:32:15Z</time>
      </trkpt>
      <trkpt lat="45.63077" lon="4.62693">
        <ele>491</ele>
        <time>2019-04-28T03:33:15Z</time>
      </trkpt>
      <trkpt lat="45.63079" lon="4.62716">
        <ele>490</ele>
        <time>2019-04-28T03:34:15Z</time>
      </trkpt>
      <trkpt lat="45.63083" lon="4.62729">
        <ele>489</ele>
        <time>2019-04-28T03:35:15Z</time>
      </trkpt>
      <trkpt lat="45.63094" lon="4.62746">
        <ele>490</ele>
        <time>2019-04-28T03:36:15Z</time>
      </trkpt>
      <trkpt lat="45.63094" lon="4.62759">
        <ele>489</ele>
        <time>2019-04-28T03:37:15Z</time>
      </trkpt>
      <trkpt lat="45.63084" lon="4.62812">
        <ele>482</ele>
        <time>2019-04-28T03:38:15Z</time>
      </trkpt>
      <trkpt lat="45.63088" lon="4.62893">
        <ele>477</ele>
        <time>2019-04-28T03:39:15Z</time>
      </trkpt>
      <trkpt lat="45.6309" lon="4.62909">
        <ele>477</ele>
        <time>2019-04-28T03:40:15Z</time>
      </trkpt>
      <trkpt lat="45.63103" lon="4.62953">
        <ele>479</ele>
        <time>2019-04-28T03:41:15Z</time>
      </trkpt>
      <trkpt lat="45.63106" lon="4.62995">
        <ele>479</ele>
        <time>2019-04-28T03:42:15Z</time>
      </trkpt>
      <trkpt lat="45.63102" lon="4.63031">
        <ele>480</ele>
        <time>2019-04-28T03:43:15Z</time>
      </trkpt>
      <trkpt lat="45.63091" lon="4.63055">
        <ele>478</ele>
        <time>2019-04-28T03:44:15Z</time>
      </trkpt>
      <trkpt lat="45.63067" lon="4.63121">
        <ele>480</ele>
        <time>2019-04-28T03:45:15Z</time>
      </trkpt>
      <trkpt lat="45.6306" lon="4.6315">
        <ele>481</ele>
        <time>2019-04-28T03:46:15Z</time>
      </trkpt>
      <trkpt lat="45.63059" lon="4.63173">
        <ele>483</ele>
        <time>2019-04-28T03:47:15Z</time>
      </trkpt>
      <trkpt lat="45.63062" lon="4.63203">
        <ele>483</ele>
        <time>2019-04-28T03:48:15Z</time>
      </trkpt>
      <trkpt lat="45.63071" lon="4.63226">
        <ele>484</ele>
        <time>2019-04-28T03:49:15Z</time>
      </trkpt>
      <trkpt lat="45.63117" lon="4.63307">
        <ele>485</ele>
        <time>2019-04-28T03:50:15Z</time>
      </trkpt>
      <trkpt lat="45.63146" lon="4.63426">
        <ele>477</ele>
        <time>2019-04-28T03:51:15Z</time>
      </trkpt>
      <trkpt lat="45.63154" lon="4.63507">
        <ele>473</ele>
        <time>2019-04-28T03:52:15Z</time>
      </trkpt>
      <trkpt lat="45.63169" lon="4.63581">
        <ele>471</ele>
        <time>2019-04-28T03:53:15Z</time>
      </trkpt>
      <trkpt lat="45.63203" lon="4.63715">
        <ele>463</ele>
        <time>2019-04-28T03:54:15Z</time>
      </trkpt>
      <trkpt lat="45.63188" lon="4.63735">
        <ele>461</ele>
        <time>2019-04-28T03:55:15Z</time>
      </trkpt>
      <trkpt lat="45.63164" lon="4.63754">
        <ele>458</ele>
        <time>2019-04-28T03:56:15Z</time>
      </trkpt>
      <trkpt lat="45.63152" lon="4.6378">
        <ele>455</ele>
        <time>2019-04-28T03:57:15Z</time>
      </trkpt>
      <trkpt lat="45.63137" lon="4.63804">
        <ele>452</ele>
        <time>2019-04-28T03:58:15Z</time>
      </trkpt>
      <trkpt lat="45.63092" lon="4.63856">
        <ele>445</ele>
        <time>2019-04-28T03:59:15Z</time>
      </trkpt>
      <trkpt lat="45.63087" lon="4.63867">
        <ele>444</ele>
        <time>2019-04-28T04:00:15Z</time>
      </trkpt>
      <trkpt lat="45.63085" lon="4.63875">
        <ele>443</ele>
        <time>2019-04-28T04:01:15Z</time>
      </trkpt>
      <trkpt lat="45.63094" lon="4.63928">
        <ele>441</ele>
        <time>2019-04-28T04:02:15Z</time>
      </trkpt>
      <trkpt lat="45.63092" lon="4.63947">
        <ele>440</ele>
        <time>2019-04-28T04:03:15Z</time>
      </trkpt>
      <trkpt lat="45.63079" lon="4.64008">
        <ele>437</ele>
        <time>2019-04-28T04:04:15Z</time>
      </trkpt>
      <trkpt lat="45.63073" lon="4.64012">
        <ele>437</ele>
        <time>2019-04-28T04:05:15Z</time>
      </trkpt>
      <trkpt lat="45.63066" lon="4.64013">
        <ele>436</ele>
        <time>2019-04-28T04:06:15Z</time>
      </trkpt>
      <trkpt lat="45.63042" lon="4.64006">
        <ele>433</ele>
        <time>2019-04-28T04:07:15Z</time>
      </trkpt>
      <trkpt lat="45.63007" lon="4.6399">
        <ele>430</ele>
        <time>2019-04-28T04:08:15Z</time>
      </trkpt>
      <trkpt lat="45.62994" lon="4.63991">
        <ele>429</ele>
        <time>2019-04-28T04:09:15Z</time>
      </trkpt>
      <trkpt lat="45.62979" lon="4.63998">
        <ele>428</ele>
        <time>2019-04-28T04:10:15Z</time>
      </trkpt>
      <trkpt lat="45.6294" lon="4.64029">
        <ele>428</ele>
        <time>2019-04-28T04:11:15Z</time>
      </trkpt>
      <trkpt lat="45.62935" lon="4.64029">
        <ele>428</ele>
        <time>2019-04-28T04:12:15Z</time>
      </trkpt>
      <trkpt lat="45.62925" lon="4.64022">
        <ele>428</ele>
        <time>2019-04-28T04:13:15Z</time>
      </trkpt>
      <trkpt lat="45.62915" lon="4.64">
        <ele>428</ele>
        <time>2019-04-28T04:14:15Z</time>
      </trkpt>
      <trkpt lat="45.62904" lon="4.63996">
        <ele>430</ele>
        <time>2019-04-28T04:15:15Z</time>
      </trkpt>
      <trkpt lat="45.62891" lon="4.63961">
        <ele>432</ele>
        <time>2019-04-28T04:16:15Z</time>
      </trkpt>
      <trkpt lat="45.62876" lon="4.63942">
        <ele>434</ele>
        <time>2019-04-28T04:17:15Z</time>
      </trkpt>
      <trkpt lat="45.62867" lon="4.63935">
        <ele>435</ele>
        <time>2019-04-28T04:18:15Z</time>
      </trkpt>
      <trkpt lat="45.62855" lon="4.63933">
        <ele>437</ele>
        <time>2019-04-28T04:19:15Z</time>
      </trkpt>
      <trkpt lat="45.62789" lon="4.63876">
        <ele>448</ele>
        <time>2019-04-28T04:20:15Z</time>
      </trkpt>
      <trkpt lat="45.62768" lon="4.63869">
        <ele>453</ele>
        <time>2019-04-28T04:21:15Z</time>
      </trkpt>
      <trkpt lat="45.62759" lon="4.63854">
        <ele>456</ele>
        <time>2019-04-28T04:22:15Z</time>
      </trkpt>
      <trkpt lat="45.62704" lon="4.63806">
        <ele>465</ele>
        <time>2019-04-28T04:23:15Z</time>
      </trkpt>
      <trkpt lat="45.6267" lon="4.63761">
        <ele>476</ele>
        <time>2019-04-28T04:24:15Z</time>
      </trkpt>
      <trkpt lat="45.62666" lon="4.63749">
        <ele>478</ele>
        <time>2019-04-28T04:25:15Z</time>
      </trkpt>
      <trkpt lat="45.62668" lon="4.63731">
        <ele>479</ele>
        <time>2019-04-28T04:26:15Z</time>
      </trkpt>
      <trkpt lat="45.62665" lon="4.63716">
        <ele>481</ele>
        <time>2019-04-28T04:27:15Z</time>
      </trkpt>
      <trkpt lat="45.62626" lon="4.63626">
        <ele>491</ele>
        <time>2019-04-28T04:28:15Z</time>
      </trkpt>
      <trkpt lat="45.626" lon="4.63548">
        <ele>502</ele>
        <time>2019-04-28T04:29:15Z</time>
      </trkpt>
      <trkpt lat="45.62569" lon="4.63489">
        <ele>514</ele>
        <time>2019-04-28T04:30:15Z</time>
      </trkpt>
      <trkpt lat="45.62513" lon="4.63448">
        <ele>517</ele>
        <time>2019-04-28T04:31:15Z</time>
      </trkpt>
      <trkpt lat="45.62497" lon="4.63442">
        <ele>519</ele>
        <time>2019-04-28T04:32:15Z</time>
      </trkpt>
      <trkpt lat="45.62485" lon="4.63447">
        <ele>520</ele>
        <time>2019-04-28T04:33:15Z</time>
      </trkpt>
      <trkpt lat="45.62472" lon="4.63462">
        <ele>521</ele>
        <time>2019-04-28T04:34:15Z</time>
      </trkpt>
      <trkpt lat="45.62455" lon="4.63489">
        <ele>523</ele>
        <time>2019-04-28T04:35:15Z</time>
      </trkpt>
      <trkpt lat="45.62445" lon="4.63523">
        <ele>522</ele>
        <time>2019-04-28T04:36:15Z</time>
      </trkpt>
      <trkpt lat="45.62426" lon="4.63633">
        <ele>516</ele>
        <time>2019-04-28T04:37:15Z</time>
      </trkpt>
      <trkpt lat="45.62411" lon="4.63662">
        <ele>515</ele>
        <time>2019-04-28T04:38:15Z</time>
      </trkpt>
      <trkpt lat="45.62376" lon="4.63703">
        <ele>514</ele>
        <time>2019-04-28T04:39:15Z</time>
      </trkpt>
      <trkpt lat="45.62365" lon="4.63725">
        <ele>512</ele>
        <time>2019-04-28T04:40:15Z</time>
      </trkpt>
      <trkpt lat="45.62349" lon="4.63817">
        <ele>507</ele>
        <time>2019-04-28T04:41:15Z</time>
      </trkpt>
      <trkpt lat="45.62324" lon="4.63878">
        <ele>508</ele>
        <time>2019-04-28T04:42:15Z</time>
      </trkpt>
      <trkpt lat="45.62296" lon="4.63924">
        <ele>506</ele>
        <time>2019-04-28T04:43:15Z</time>
      </trkpt>
      <trkpt lat="45.62284" lon="4.63926">
        <ele>506</ele>
        <time>2019-04-28T04:44:15Z</time>
      </trkpt>
      <trkpt lat="45.62266" lon="4.63922">
        <ele>506</ele>
        <time>2019-04-28T04:45:15Z</time>
      </trkpt>
      <trkpt lat="45.62232" lon="4.63919">
        <ele>506</ele>
        <time>2019-04-28T04:46:15Z</time>
      </trkpt>
      <trkpt lat="45.62193" lon="4.63918">
        <ele>506</ele>
        <time>2019-04-28T04:47:15Z</time>
      </trkpt>
      <trkpt lat="45.62145" lon="4.63926">
        <ele>504</ele>
        <time>2019-04-28T04:48:15Z</time>
      </trkpt>
      <trkpt lat="45.62121" lon="4.63925">
        <ele>504</ele>
        <time>2019-04-28T04:49:15Z</time>
      </trkpt>
      <trkpt lat="45.62087" lon="4.63918">
        <ele>504</ele>
        <time>2019-04-28T04:50:15Z</time>
      </trkpt>
      <trkpt lat="45.62085" lon="4.63923">
        <ele>503</ele>
        <time>2019-04-28T04:51:15Z</time>
      </trkpt>
      <trkpt lat="45.62089" lon="4.63949">
        <ele>501</ele>
        <time>2019-04-28T04:52:15Z</time>
      </trkpt>
      <trkpt lat="45.62086" lon="4.63969">
        <ele>498</ele>
        <time>2019-04-28T04:53:15Z</time>
      </trkpt>
      <trkpt lat="45.62049" lon="4.63966">
        <ele>495</ele>
        <time>2019-04-28T04:54:15Z</time>
      </trkpt>
      <trkpt lat="45.62008" lon="4.63921">
        <ele>495</ele>
        <time>2019-04-28T04:55:15Z</time>
      </trkpt>
      <trkpt lat="45.61984" lon="4.63901">
        <ele>494</ele>
        <time>2019-04-28T04:56:15Z</time>
      </trkpt>
      <trkpt lat="45.61959" lon="4.63889">
        <ele>491</ele>
        <time>2019-04-28T04:57:15Z</time>
      </trkpt>
      <trkpt lat="45.61942" lon="4.63884">
        <ele>489</ele>
        <time>2019-04-28T04:58:15Z</time>
      </trkpt>
      <trkpt lat="45.61872" lon="4.63913">
        <ele>479</ele>
        <time>2019-04-28T04:59:15Z</time>
      </trkpt>
      <trkpt lat="45.61841" lon="4.63935">
        <ele>475</ele>
        <time>2019-04-28T05:00:15Z</time>
      </trkpt>
      <trkpt lat="45.61805" lon="4.63985">
        <ele>467</ele>
        <time>2019-04-28T05:01:15Z</time>
      </trkpt>
      <trkpt lat="45.61761" lon="4.64037">
        <ele>462</ele>
        <time>2019-04-28T05:02:15Z</time>
      </trkpt>
      <trkpt lat="45.61769" lon="4.6412">
        <ele>458</ele>
        <time>2019-04-28T05:03:15Z</time>
      </trkpt>
      <trkpt lat="45.6179" lon="4.64213">
        <ele>452</ele>
        <time>2019-04-28T05:04:15Z</time>
      </trkpt>
      <trkpt lat="45.6179" lon="4.64369">
        <ele>441</ele>
        <time>2019-04-28T05:05:15Z</time>
      </trkpt>
      <trkpt lat="45.61799" lon="4.64422">
        <ele>438</ele>
        <time>2019-04-28T05:06:15Z</time>
      </trkpt>
      <trkpt lat="45.61819" lon="4.64495">
        <ele>432</ele>
        <time>2019-04-28T05:07:15Z</time>
      </trkpt>
      <trkpt lat="45.61824" lon="4.6451">
        <ele>430</ele>
        <time>2019-04-28T05:08:15Z</time>
      </trkpt>
      <trkpt lat="45.61834" lon="4.64527">
        <ele>429</ele>
        <time>2019-04-28T05:09:15Z</time>
      </trkpt>
      <trkpt lat="45.61863" lon="4.64518">
        <ele>429</ele>
        <time>2019-04-28T05:10:15Z</time>
      </trkpt>
      <trkpt lat="45.61871" lon="4.64523">
        <ele>429</ele>
        <time>2019-04-28T05:11:15Z</time>
      </trkpt>
      <trkpt lat="45.61882" lon="4.64534">
        <ele>428</ele>
        <time>2019-04-28T05:12:15Z</time>
      </trkpt>
      <trkpt lat="45.61899" lon="4.64559">
        <ele>427</ele>
        <time>2019-04-28T05:13:15Z</time>
      </trkpt>
      <trkpt lat="45.61911" lon="4.64582">
        <ele>425</ele>
        <time>2019-04-28T05:14:15Z</time>
      </trkpt>
      <trkpt lat="45.61934" lon="4.6466">
        <ele>424</ele>
        <time>2019-04-28T05:15:15Z</time>
      </trkpt>
      <trkpt lat="45.61944" lon="4.64707">
        <ele>422</ele>
        <time>2019-04-28T05:16:15Z</time>
      </trkpt>
      <trkpt lat="45.61961" lon="4.64862">
        <ele>418</ele>
        <time>2019-04-28T05:17:15Z</time>
      </trkpt>
      <trkpt lat="45.62007" lon="4.65004">
        <ele>413</ele>
        <time>2019-04-28T05:18:15Z</time>
      </trkpt>
      <trkpt lat="45.62019" lon="4.6506">
        <ele>411</ele>
        <time>2019-04-28T05:19:15Z</time>
      </trkpt>
      <trkpt lat="45.62036" lon="4.65192">
        <ele>409</ele>
        <time>2019-04-28T05:20:15Z</time>
      </trkpt>
      <trkpt lat="45.62036" lon="4.65212">
        <ele>408</ele>
        <time>2019-04-28T05:21:15Z</time>
      </trkpt>
      <trkpt lat="45.62004" lon="4.65192">
        <ele>406</ele>
        <time>2019-04-28T05:22:15Z</time>
      </trkpt>
      <trkpt lat="45.61969" lon="4.6518">
        <ele>404</ele>
        <time>2019-04-28T05:23:15Z</time>
      </trkpt>
      <trkpt lat="45.61943" lon="4.65179">
        <ele>402</ele>
        <time>2019-04-28T05:24:15Z</time>
      </trkpt>
      <trkpt lat="45.6193" lon="4.65182">
        <ele>401</ele>
        <time>2019-04-28T05:25:15Z</time>
      </trkpt>
      <trkpt lat="45.61899" lon="4.6518">
        <ele>402</ele>
        <time>2019-04-28T05:26:15Z</time>
      </trkpt>
      <trkpt lat="45.61823" lon="4.65166">
        <ele>406</ele>
        <time>2019-04-28T05:27:15Z</time>
      </trkpt>
      <trkpt lat="45.61756" lon="4.65177">
        <ele>408</ele>
        <time>2019-04-28T05:28:15Z</time>
      </trkpt>
      <trkpt lat="45.61607" lon="4.6523">
        <ele>407</ele>
        <time>2019-04-28T05:29:15Z</time>
      </trkpt>
      <trkpt lat="45.61578" lon="4.65244">
        <ele>405</ele>
        <time>2019-04-28T05:30:15Z</time>
      </trkpt>
      <trkpt lat="45.61544" lon="4.65256">
        <ele>405</ele>
        <time>2019-04-28T05:31:15Z</time>
      </trkpt>
      <trkpt lat="45.61484" lon="4.65261">
        <ele>404</ele>
        <time>2019-04-28T05:32:15Z</time>
      </trkpt>
      <trkpt lat="45.61446" lon="4.65261">
        <ele>404</ele>
        <time>2019-04-28T05:33:15Z</time>
      </trkpt>
      <trkpt lat="45.61441" lon="4.65265">
        <ele>403</ele>
        <time>2019-04-28T05:34:15Z</time>
      </trkpt>
      <trkpt lat="45.61433" lon="4.65262">
        <ele>403</ele>
        <time>2019-04-28T05:35:15Z</time>
      </trkpt>
      <trkpt lat="45.61426" lon="4.65263">
        <ele>403</ele>
        <time>2019-04-28T05:36:15Z</time>
      </trkpt>
      <trkpt lat="45.61419" lon="4.65266">
        <ele>403</ele>
        <time>2019-04-28T05:37:15Z</time>
      </trkpt>
      <trkpt lat="45.61402" lon="4.65293">
        <ele>400</ele>
        <time>2019-04-28T05:38:15Z</time>
      </trkpt>
      <trkpt lat="45.61352" lon="4.6536">
        <ele>397</ele>
        <time>2019-04-28T05:39:15Z</time>
      </trkpt>
      <trkpt lat="45.61326" lon="4.65399">
        <ele>397</ele>
        <time>2019-04-28T05:40:15Z</time>
      </trkpt>
      <trkpt lat="45.6129" lon="4.65437">
        <ele>397</ele>
        <time>2019-04-28T05:41:15Z</time>
      </trkpt>
      <trkpt lat="45.61272" lon="4.65444">
        <ele>397</ele>
        <time>2019-04-28T05:42:15Z</time>
      </trkpt>
      <trkpt lat="45.61261" lon="4.65443">
        <ele>397</ele>
        <time>2019-04-28T05:43:15Z</time>
      </trkpt>
      <trkpt lat="45.61236" lon="4.65434">
        <ele>398</ele>
        <time>2019-04-28T05:44:15Z</time>
      </trkpt>
      <trkpt lat="45.61215" lon="4.6543">
        <ele>398</ele>
        <time>2019-04-28T05:45:15Z</time>
      </trkpt>
      <trkpt lat="45.61168" lon="4.65414">
        <ele>399</ele>
        <time>2019-04-28T05:46:15Z</time>
      </trkpt>
      <trkpt lat="45.61097" lon="4.65379">
        <ele>402</ele>
        <time>2019-04-28T05:47:15Z</time>
      </trkpt>
      <trkpt lat="45.61056" lon="4.65363">
        <ele>403</ele>
        <time>2019-04-28T05:48:15Z</time>
      </trkpt>
      <trkpt lat="45.6103" lon="4.6535">
        <ele>403</ele>
        <time>2019-04-28T05:49:15Z</time>
      </trkpt>
      <trkpt lat="45.60891" lon="4.65314">
        <ele>400</ele>
        <time>2019-04-28T05:50:15Z</time>
      </trkpt>
      <trkpt lat="45.6079" lon="4.653">
        <ele>395</ele>
        <time>2019-04-28T05:51:15Z</time>
      </trkpt>
      <trkpt lat="45.60757" lon="4.65288">
        <ele>392</ele>
        <time>2019-04-28T05:52:15Z</time>
      </trkpt>
      <trkpt lat="45.60729" lon="4.65282">
        <ele>391</ele>
        <time>2019-04-28T05:53:15Z</time>
      </trkpt>
      <trkpt lat="45.60674" lon="4.65253">
        <ele>387</ele>
        <time>2019-04-28T05:54:15Z</time>
      </trkpt>
      <trkpt lat="45.60641" lon="4.65247">
        <ele>384</ele>
        <time>2019-04-28T05:55:15Z</time>
      </trkpt>
      <trkpt lat="45.60578" lon="4.65224">
        <ele>377</ele>
        <time>2019-04-28T05:56:15Z</time>
      </trkpt>
      <trkpt lat="45.60545" lon="4.65199">
        <ele>374</ele>
        <time>2019-04-28T05:57:15Z</time>
      </trkpt>
      <trkpt lat="45.60488" lon="4.65249">
        <ele>373</ele>
        <time>2019-04-28T05:58:15Z</time>
      </trkpt>
      <trkpt lat="45.60477" lon="4.65255">
        <ele>373</ele>
        <time>2019-04-28T05:59:15Z</time>
      </trkpt>
      <trkpt lat="45.60456" lon="4.65248">
        <ele>372</ele>
        <time>2019-04-28T06:00:15Z</time>
      </trkpt>
      <trkpt lat="45.6045" lon="4.65242">
        <ele>372</ele>
        <time>2019-04-28T06:01:15Z</time>
      </trkpt>
      <trkpt lat="45.6041" lon="4.65236">
        <ele>371</ele>
        <time>2019-04-28T06:02:15Z</time>
      </trkpt>
      <trkpt lat="45.60403" lon="4.65232">
        <ele>371</ele>
        <time>2019-04-28T06:03:15Z</time>
      </trkpt>
      <trkpt lat="45.60357" lon="4.65133">
        <ele>376</ele>
        <time>2019-04-28T06:04:15Z</time>
      </trkpt>
      <trkpt lat="45.60352" lon="4.65134">
        <ele>376</ele>
        <time>2019-04-28T06:05:15Z</time>
      </trkpt>
      <trkpt lat="45.60246" lon="4.65203">
        <ele>377</ele>
        <time>2019-04-28T06:06:15Z</time>
      </trkpt>
      <trkpt lat="45.60139" lon="4.6526">
        <ele>373</ele>
        <time>2019-04-28T06:07:15Z</time>
      </trkpt>
      <trkpt lat="45.60096" lon="4.65328">
        <ele>369</ele>
        <time>2019-04-28T06:08:15Z</time>
      </trkpt>
      <trkpt lat="45.60088" lon="4.65339">
        <ele>369</ele>
        <time>2019-04-28T06:09:15Z</time>
      </trkpt>
      <trkpt lat="45.60075" lon="4.65348">
        <ele>369</ele>
        <time>2019-04-28T06:10:15Z</time>
      </trkpt>
      <trkpt lat="45.60001" lon="4.65393">
        <ele>366</ele>
        <time>2019-04-28T06:11:15Z</time>
      </trkpt>
      <trkpt lat="45.59948" lon="4.65415">
        <ele>363</ele>
        <time>2019-04-28T06:12:15Z</time>
      </trkpt>
      <trkpt lat="45.59901" lon="4.65444">
        <ele>361</ele>
        <time>2019-04-28T06:13:15Z</time>
      </trkpt>
      <trkpt lat="45.59874" lon="4.65486">
        <ele>358</ele>
        <time>2019-04-28T06:14:15Z</time>
      </trkpt>
      <trkpt lat="45.59835" lon="4.65565">
        <ele>355</ele>
        <time>2019-04-28T06:15:15Z</time>
      </trkpt>
      <trkpt lat="45.59846" lon="4.65568">
        <ele>356</ele>
        <time>2019-04-28T06:16:15Z</time>
      </trkpt>
      <trkpt lat="45.59897" lon="4.65596">
        <ele>358</ele>
        <time>2019-04-28T06:17:15Z</time>
      </trkpt>
      <trkpt lat="45.59943" lon="4.65626">
        <ele>358</ele>
        <time>2019-04-28T06:18:15Z</time>
      </trkpt>
      <trkpt lat="45.60018" lon="4.65682">
        <ele>357</ele>
        <time>2019-04-28T06:19:15Z</time>
      </trkpt>
      <trkpt lat="45.60096" lon="4.65745">
        <ele>354</ele>
        <time>2019-04-28T06:20:15Z</time>
      </trkpt>
      <trkpt lat="45.60148" lon="4.65801">
        <ele>350</ele>
        <time>2019-04-28T06:21:15Z</time>
      </trkpt>
      <trkpt lat="45.60165" lon="4.6586">
        <ele>350</ele>
        <time>2019-04-28T06:22:15Z</time>
      </trkpt>
      <trkpt lat="45.60168" lon="4.65884">
        <ele>350</ele>
        <time>2019-04-28T06:23:15Z</time>
      </trkpt>
      <trkpt lat="45.60158" lon="4.65981">
        <ele>354</ele>
        <time>2019-04-28T06:24:15Z</time>
      </trkpt>
      <trkpt lat="45.60196" lon="4.66155">
        <ele>362</ele>
        <time>2019-04-28T06:25:15Z</time>
      </trkpt>
      <trkpt lat="45.60215" lon="4.6621">
        <ele>366</ele>
        <time>2019-04-28T06:26:15Z</time>
      </trkpt>
      <trkpt lat="45.6028" lon="4.66275">
        <ele>371</ele>
        <time>2019-04-28T06:27:15Z</time>
      </trkpt>
      <trkpt lat="45.60291" lon="4.66278">
        <ele>371</ele>
        <time>2019-04-28T06:28:15Z</time>
      </trkpt>
      <trkpt lat="45.60325" lon="4.66259">
        <ele>373</ele>
        <time>2019-04-28T06:29:15Z</time>
      </trkpt>
      <trkpt lat="45.60343" lon="4.66264">
        <ele>373</ele>
        <time>2019-04-28T06:30:15Z</time>
      </trkpt>
      <trkpt lat="45.60455" lon="4.66327">
        <ele>374</ele>
        <time>2019-04-28T06:31:15Z</time>
      </trkpt>
      <trkpt lat="45.60485" lon="4.66363">
        <ele>374</ele>
        <time>2019-04-28T06:32:15Z</time>
      </trkpt>
      <trkpt lat="45.60508" lon="4.66378">
        <ele>374</ele>
        <time>2019-04-28T06:33:15Z</time>
      </trkpt>
      <trkpt lat="45.60542" lon="4.66393">
        <ele>375</ele>
        <time>2019-04-28T06:34:15Z</time>
      </trkpt>
      <trkpt lat="45.60675" lon="4.66489">
        <ele>376</ele>
        <time>2019-04-28T06:35:15Z</time>
      </trkpt>
      <trkpt lat="45.60726" lon="4.66508">
        <ele>376</ele>
        <time>2019-04-28T06:36:15Z</time>
      </trkpt>
      <trkpt lat="45.60733" lon="4.66523">
        <ele>376</ele>
        <time>2019-04-28T06:37:15Z</time>
      </trkpt>
      <trkpt lat="45.60734" lon="4.66547">
        <ele>374</ele>
        <time>2019-04-28T06:38:15Z</time>
      </trkpt>
      <trkpt lat="45.6073" lon="4.66589">
        <ele>372</ele>
        <time>2019-04-28T06:39:15Z</time>
      </trkpt>
      <trkpt lat="45.60692" lon="4.6675">
        <ele>365</ele>
        <time>2019-04-28T06:40:15Z</time>
      </trkpt>
      <trkpt lat="45.60689" lon="4.6684">
        <ele>362</ele>
        <time>2019-04-28T06:41:15Z</time>
      </trkpt>
      <trkpt lat="45.60682" lon="4.6692">
        <ele>360</ele>
        <time>2019-04-28T06:42:15Z</time>
      </trkpt>
      <trkpt lat="45.60681" lon="4.67008">
        <ele>358</ele>
        <time>2019-04-28T06:43:15Z</time>
      </trkpt>
      <trkpt lat="45.60675" lon="4.67097">
        <ele>356</ele>
        <time>2019-04-28T06:44:15Z</time>
      </trkpt>
      <trkpt lat="45.60667" lon="4.67162">
        <ele>355</ele>
        <time>2019-04-28T06:45:15Z</time>
      </trkpt>
      <trkpt lat="45.6065" lon="4.67264">
        <ele>353</ele>
        <time>2019-04-28T06:46:15Z</time>
      </trkpt>
      <trkpt lat="45.60645" lon="4.67316">
        <ele>353</ele>
        <time>2019-04-28T06:47:15Z</time>
      </trkpt>
      <trkpt lat="45.60646" lon="4.6735">
        <ele>353</ele>
        <time>2019-04-28T06:48:15Z</time>
      </trkpt>
      <trkpt lat="45.6065" lon="4.67365">
        <ele>352</ele>
        <time>2019-04-28T06:49:15Z</time>
      </trkpt>
      <trkpt lat="45.60671" lon="4.67378">
        <ele>352</ele>
        <time>2019-04-28T06:50:15Z</time>
      </trkpt>
      <trkpt lat="45.60685" lon="4.67382">
        <ele>352</ele>
        <time>2019-04-28T06:51:15Z</time>
      </trkpt>
      <trkpt lat="45.60727" lon="4.67401">
        <ele>351</ele>
        <time>2019-04-28T06:52:15Z</time>
      </trkpt>
      <trkpt lat="45.60745" lon="4.67414">
        <ele>351</ele>
        <time>2019-04-28T06:53:15Z</time>
      </trkpt>
      <trkpt lat="45.60813" lon="4.67482">
        <ele>349</ele>
        <time>2019-04-28T06:54:15Z</time>
      </trkpt>
      <trkpt lat="45.60815" lon="4.67487">
        <ele>349</ele>
        <time>2019-04-28T06:55:15Z</time>
      </trkpt>
      <trkpt lat="45.60756" lon="4.67546">
        <ele>351</ele>
        <time>2019-04-28T06:56:15Z</time>
      </trkpt>
      <trkpt lat="45.60747" lon="4.67552">
        <ele>351</ele>
        <time>2019-04-28T06:57:15Z</time>
      </trkpt>
      <trkpt lat="45.60728" lon="4.67585">
        <ele>351</ele>
        <time>2019-04-28T06:58:15Z</time>
      </trkpt>
      <trkpt lat="45.60721" lon="4.67589">
        <ele>351</ele>
        <time>2019-04-28T06:59:15Z</time>
      </trkpt>
      <trkpt lat="45.60707" lon="4.67588">
        <ele>350</ele>
        <time>2019-04-28T07:00:15Z</time>
      </trkpt>
      <trkpt lat="45.60687" lon="4.67606">
        <ele>350</ele>
        <time>2019-04-28T07:01:15Z</time>
      </trkpt>
      <trkpt lat="45.60653" lon="4.67619">
        <ele>350</ele>
        <time>2019-04-28T07:02:15Z</time>
      </trkpt>
      <trkpt lat="45.60634" lon="4.67632">
        <ele>349</ele>
        <time>2019-04-28T07:03:15Z</time>
      </trkpt>
      <trkpt lat="45.60605" lon="4.67729">
        <ele>346</ele>
        <time>2019-04-28T07:04:15Z</time>
      </trkpt>
      <trkpt lat="45.60576" lon="4.6778">
        <ele>343</ele>
        <time>2019-04-28T07:05:15Z</time>
      </trkpt>
      <trkpt lat="45.6057" lon="4.67781">
        <ele>343</ele>
        <time>2019-04-28T07:06:15Z</time>
      </trkpt>
      <trkpt lat="45.60557" lon="4.67776">
        <ele>343</ele>
        <time>2019-04-28T07:07:15Z</time>
      </trkpt>
      <trkpt lat="45.6052" lon="4.67769">
        <ele>341</ele>
        <time>2019-04-28T07:08:15Z</time>
      </trkpt>
      <trkpt lat="45.60499" lon="4.67774">
        <ele>339</ele>
        <time>2019-04-28T07:09:15Z</time>
      </trkpt>
      <trkpt lat="45.6048" lon="4.67771">
        <ele>338</ele>
        <time>2019-04-28T07:10:15Z</time>
      </trkpt>
      <trkpt lat="45.60461" lon="4.67762">
        <ele>338</ele>
        <time>2019-04-28T07:11:15Z</time>
      </trkpt>
      <trkpt lat="45.60434" lon="4.67742">
        <ele>338</ele>
        <time>2019-04-28T07:12:15Z</time>
      </trkpt>
      <trkpt lat="45.60413" lon="4.67741">
        <ele>337</ele>
        <time>2019-04-28T07:13:15Z</time>
      </trkpt>
      <trkpt lat="45.60388" lon="4.67749">
        <ele>337</ele>
        <time>2019-04-28T07:14:15Z</time>
      </trkpt>
      <trkpt lat="45.60368" lon="4.67749">
        <ele>336</ele>
        <time>2019-04-28T07:15:15Z</time>
      </trkpt>
      <trkpt lat="45.60314" lon="4.6773">
        <ele>337</ele>
        <time>2019-04-28T07:16:15Z</time>
      </trkpt>
      <trkpt lat="45.60234" lon="4.67739">
        <ele>334</ele>
        <time>2019-04-28T07:17:15Z</time>
      </trkpt>
      <trkpt lat="45.60218" lon="4.67743">
        <ele>333</ele>
        <time>2019-04-28T07:18:15Z</time>
      </trkpt>
      <trkpt lat="45.6015" lon="4.67785">
        <ele>326</ele>
        <time>2019-04-28T07:19:15Z</time>
      </trkpt>
      <trkpt lat="45.60097" lon="4.67826">
        <ele>318</ele>
        <time>2019-04-28T07:20:15Z</time>
      </trkpt>
      <trkpt lat="45.60082" lon="4.67825">
        <ele>317</ele>
        <time>2019-04-28T07:21:15Z</time>
      </trkpt>
      <trkpt lat="45.60066" lon="4.67814">
        <ele>318</ele>
        <time>2019-04-28T07:22:15Z</time>
      </trkpt>
      <trkpt lat="45.60041" lon="4.67787">
        <ele>319</ele>
        <time>2019-04-28T07:23:15Z</time>
      </trkpt>
      <trkpt lat="45.60031" lon="4.67783">
        <ele>319</ele>
        <time>2019-04-28T07:24:15Z</time>
      </trkpt>
      <trkpt lat="45.59983" lon="4.67727">
        <ele>320</ele>
        <time>2019-04-28T07:25:15Z</time>
      </trkpt>
      <trkpt lat="45.59961" lon="4.67707">
        <ele>320</ele>
        <time>2019-04-28T07:26:15Z</time>
      </trkpt>
      <trkpt lat="45.5994" lon="4.67677">
        <ele>321</ele>
        <time>2019-04-28T07:27:15Z</time>
      </trkpt>
      <trkpt lat="45.59925" lon="4.67638">
        <ele>322</ele>
        <time>2019-04-28T07:28:15Z</time>
      </trkpt>
      <trkpt lat="45.59919" lon="4.67629">
        <ele>322</ele>
        <time>2019-04-28T07:29:15Z</time>
      </trkpt>
      <trkpt lat="45.59912" lon="4.67629">
        <ele>322</ele>
        <time>2019-04-28T07:30:15Z</time>
      </trkpt>
      <trkpt lat="45.59889" lon="4.67638">
        <ele>323</ele>
        <time>2019-04-28T07:31:15Z</time>
      </trkpt>
      <trkpt lat="45.59875" lon="4.67638">
        <ele>324</ele>
        <time>2019-04-28T07:32:15Z</time>
      </trkpt>
      <trkpt lat="45.59844" lon="4.67614">
        <ele>327</ele>
        <time>2019-04-28T07:33:15Z</time>
      </trkpt>
      <trkpt lat="45.59806" lon="4.67558">
        <ele>331</ele>
        <time>2019-04-28T07:34:15Z</time>
      </trkpt>
      <trkpt lat="45.59734" lon="4.67481">
        <ele>336</ele>
        <time>2019-04-28T07:35:15Z</time>
      </trkpt>
      <trkpt lat="45.59726" lon="4.67479">
        <ele>336</ele>
        <time>2019-04-28T07:36:15Z</time>
      </trkpt>
      <trkpt lat="45.59673" lon="4.67485">
        <ele>339</ele>
        <time>2019-04-28T07:37:15Z</time>
      </trkpt>
      <trkpt lat="45.59668" lon="4.6749">
        <ele>340</ele>
        <time>2019-04-28T07:38:15Z</time>
      </trkpt>
      <trkpt lat="45.59669" lon="4.67569">
        <ele>339</ele>
        <time>2019-04-28T07:39:15Z</time>
      </trkpt>
      <trkpt lat="45.59684" lon="4.67652">
        <ele>336</ele>
        <time>2019-04-28T07:40:15Z</time>
      </trkpt>
      <trkpt lat="45.59682" lon="4.67705">
        <ele>335</ele>
        <time>2019-04-28T07:41:15Z</time>
      </trkpt>
      <trkpt lat="45.59676" lon="4.67724">
        <ele>335</ele>
        <time>2019-04-28T07:42:15Z</time>
      </trkpt>
      <trkpt lat="45.59665" lon="4.67736">
        <ele>335</ele>
        <time>2019-04-28T07:43:15Z</time>
      </trkpt>
      <trkpt lat="45.59661" lon="4.6775">
        <ele>335</ele>
        <time>2019-04-28T07:44:15Z</time>
      </trkpt>
      <trkpt lat="45.59637" lon="4.6779">
        <ele>335</ele>
        <time>2019-04-28T07:45:15Z</time>
      </trkpt>
      <trkpt lat="45.59627" lon="4.67813">
        <ele>334</ele>
        <time>2019-04-28T07:46:15Z</time>
      </trkpt>
      <trkpt lat="45.59612" lon="4.67825">
        <ele>335</ele>
        <time>2019-04-28T07:47:15Z</time>
      </trkpt>
      <trkpt lat="45.59603" lon="4.67838">
        <ele>335</ele>
        <time>2019-04-28T07:48:15Z</time>
      </trkpt>
      <trkpt lat="45.5959" lon="4.67895">
        <ele>334</ele>
        <time>2019-04-28T07:49:15Z</time>
      </trkpt>
      <trkpt lat="45.59583" lon="4.67945">
        <ele>334</ele>
        <time>2019-04-28T07:50:15Z</time>
      </trkpt>
      <trkpt lat="45.59561" lon="4.68007">
        <ele>336</ele>
        <time>2019-04-28T07:51:15Z</time>
      </trkpt>
      <trkpt lat="45.59548" lon="4.68028">
        <ele>336</ele>
        <time>2019-04-28T07:52:15Z</time>
      </trkpt>
      <trkpt lat="45.59542" lon="4.68043">
        <ele>337</ele>
        <time>2019-04-28T07:53:15Z</time>
      </trkpt>
      <trkpt lat="45.59533" lon="4.68089">
        <ele>337</ele>
        <time>2019-04-28T07:54:15Z</time>
      </trkpt>
      <trkpt lat="45.5952" lon="4.68219">
        <ele>337</ele>
        <time>2019-04-28T07:55:15Z</time>
      </trkpt>
      <trkpt lat="45.5949" lon="4.68297">
        <ele>338</ele>
        <time>2019-04-28T07:56:15Z</time>
      </trkpt>
      <trkpt lat="45.59489" lon="4.68308">
        <ele>338</ele>
        <time>2019-04-28T07:57:15Z</time>
      </trkpt>
      <trkpt lat="45.59529" lon="4.6835">
        <ele>338</ele>
        <time>2019-04-28T07:58:15Z</time>
      </trkpt>
      <trkpt lat="45.59545" lon="4.68376">
        <ele>339</ele>
        <time>2019-04-28T07:59:15Z</time>
      </trkpt>
      <trkpt lat="45.59619" lon="4.68471">
        <ele>338</ele>
        <time>2019-04-28T08:00:15Z</time>
      </trkpt>
      <trkpt lat="45.59626" lon="4.68489">
        <ele>338</ele>
        <time>2019-04-28T08:01:15Z</time>
      </trkpt>
      <trkpt lat="45.59678" lon="4.68574">
        <ele>336</ele>
        <time>2019-04-28T08:02:15Z</time>
      </trkpt>
      <trkpt lat="45.59688" lon="4.68605">
        <ele>336</ele>
        <time>2019-04-28T08:03:15Z</time>
      </trkpt>
      <trkpt lat="45.59688" lon="4.68621">
        <ele>336</ele>
        <time>2019-04-28T08:04:15Z</time>
      </trkpt>
      <trkpt lat="45.59699" lon="4.68629">
        <ele>335</ele>
        <time>2019-04-28T08:05:15Z</time>
      </trkpt>
      <trkpt lat="45.59724" lon="4.68635">
        <ele>333</ele>
        <time>2019-04-28T08:06:15Z</time>
      </trkpt>
      <trkpt lat="45.59745" lon="4.68647">
        <ele>332</ele>
        <time>2019-04-28T08:07:15Z</time>
      </trkpt>
      <trkpt lat="45.59774" lon="4.68673">
        <ele>330</ele>
        <time>2019-04-28T08:08:15Z</time>
      </trkpt>
      <trkpt lat="45.5977" lon="4.68701">
        <ele>330</ele>
        <time>2019-04-28T08:09:15Z</time>
      </trkpt>
      <trkpt lat="45.59752" lon="4.68749">
        <ele>331</ele>
        <time>2019-04-28T08:10:15Z</time>
      </trkpt>
      <trkpt lat="45.59714" lon="4.68809">
        <ele>332</ele>
        <time>2019-04-28T08:11:15Z</time>
      </trkpt>
      <trkpt lat="45.59709" lon="4.68839">
        <ele>332</ele>
        <time>2019-04-28T08:12:15Z</time>
      </trkpt>
      <trkpt lat="45.59726" lon="4.68939">
        <ele>331</ele>
        <time>2019-04-28T08:13:15Z</time>
      </trkpt>
      <trkpt lat="45.59737" lon="4.6899">
        <ele>330</ele>
        <time>2019-04-28T08:14:15Z</time>
      </trkpt>
      <trkpt lat="45.5975" lon="4.69031">
        <ele>329</ele>
        <time>2019-04-28T08:15:15Z</time>
      </trkpt>
      <trkpt lat="45.59761" lon="4.69045">
        <ele>328</ele>
        <time>2019-04-28T08:16:15Z</time>
      </trkpt>
      <trkpt lat="45.59763" lon="4.69094">
        <ele>328</ele>
        <time>2019-04-28T08:17:15Z</time>
      </trkpt>
      <trkpt lat="45.59781" lon="4.69241">
        <ele>329</ele>
        <time>2019-04-28T08:18:15Z</time>
      </trkpt>
      <trkpt lat="45.59797" lon="4.69342">
        <ele>330</ele>
        <time>2019-04-28T08:19:15Z</time>
      </trkpt>
      <trkpt lat="45.59795" lon="4.69355">
        <ele>330</ele>
        <time>2019-04-28T08:20:15Z</time>
      </trkpt>
      <trkpt lat="45.59796" lon="4.69378">
        <ele>330</ele>
        <time>2019-04-28T08:21:15Z</time>
      </trkpt>
      <trkpt lat="45.59808" lon="4.69516">
        <ele>329</ele>
        <time>2019-04-28T08:22:15Z</time>
      </trkpt>
      <trkpt lat="45.59812" lon="4.69539">
        <ele>329</ele>
        <time>2019-04-28T08:23:15Z</time>
      </trkpt>
      <trkpt lat="45.59814" lon="4.69617">
        <ele>328</ele>
        <time>2019-04-28T08:24:15Z</time>
      </trkpt>
      <trkpt lat="45.5982" lon="4.69643">
        <ele>328</ele>
        <time>2019-04-28T08:25:15Z</time>
      </trkpt>
      <trkpt lat="45.59828" lon="4.69732">
        <ele>330</ele>
        <time>2019-04-28T08:26:15Z</time>
      </trkpt>
      <trkpt lat="45.59828" lon="4.69756">
        <ele>331</ele>
        <time>2019-04-28T08:27:15Z</time>
      </trkpt>
      <trkpt lat="45.59832" lon="4.69773">
        <ele>331</ele>
        <time>2019-04-28T08:28:15Z</time>
      </trkpt>
      <trkpt lat="45.59841" lon="4.69848">
        <ele>330</ele>
        <time>2019-04-28T08:29:15Z</time>
      </trkpt>
      <trkpt lat="45.5987" lon="4.69923">
        <ele>326</ele>
        <time>2019-04-28T08:30:15Z</time>
      </trkpt>
      <trkpt lat="45.59869" lon="4.69963">
        <ele>326</ele>
        <time>2019-04-28T08:31:15Z</time>
      </trkpt>
      <trkpt lat="45.59883" lon="4.7001">
        <ele>323</ele>
        <time>2019-04-28T08:32:15Z</time>
      </trkpt>
      <trkpt lat="45.599" lon="4.7009">
        <ele>318</ele>
        <time>2019-04-28T08:33:15Z</time>
      </trkpt>
      <trkpt lat="45.599" lon="4.70119">
        <ele>318</ele>
        <time>2019-04-28T08:34:15Z</time>
      </trkpt>
      <trkpt lat="45.59892" lon="4.70135">
        <ele>318</ele>
        <time>2019-04-28T08:35:15Z</time>
      </trkpt>
      <trkpt lat="45.59779" lon="4.70493">
        <ele>322</ele>
        <time>2019-04-28T08:36:15Z</time>
      </trkpt>
      <trkpt lat="45.59759" lon="4.70545">
        <ele>321</ele>
        <time>2019-04-28T08:37:15Z</time>
      </trkpt>
      <trkpt lat="45.59746" lon="4.70598">
        <ele>320</ele>
        <time>2019-04-28T08:38:15Z</time>
      </trkpt>
      <trkpt lat="45.59727" lon="4.70624">
        <ele>319</ele>
        <time>2019-04-28T08:39:15Z</time>
      </trkpt>
      <trkpt lat="45.59725" lon="4.70633">
        <ele>319</ele>
        <time>2019-04-28T08:40:15Z</time>
      </trkpt>
      <trkpt lat="45.59727" lon="4.70642">
        <ele>318</ele>
        <time>2019-04-28T08:41:15Z</time>
      </trkpt>
      <trkpt lat="45.59839" lon="4.70838">
        <ele>314</ele>
        <time>2019-04-28T08:42:15Z</time>
      </trkpt>
      <trkpt lat="45.59856" lon="4.70849">
        <ele>312</ele>
        <time>2019-04-28T08:43:15Z</time>
      </trkpt>
      <trkpt lat="45.59885" lon="4.70847">
        <ele>310</ele>
        <time>2019-04-28T08:44:15Z</time>
      </trkpt>
      <trkpt lat="45.5992" lon="4.7085">
        <ele>307</ele>
        <time>2019-04-28T08:45:15Z</time>
      </trkpt>
      <trkpt lat="45.5995" lon="4.70803">
        <ele>305</ele>
        <time>2019-04-28T08:46:15Z</time>
      </trkpt>
      <trkpt lat="45.59968" lon="4.70784">
        <ele>304</ele>
        <time>2019-04-28T08:47:15Z</time>
      </trkpt>
      <trkpt lat="45.59977" lon="4.7078">
        <ele>303</ele>
        <time>2019-04-28T08:48:15Z</time>
      </trkpt>
      <trkpt lat="45.60002" lon="4.70776">
        <ele>301</ele>
        <time>2019-04-28T08:49:15Z</time>
      </trkpt>
      <trkpt lat="45.60121" lon="4.70818">
        <ele>293</ele>
        <time>2019-04-28T08:50:15Z</time>
      </trkpt>
      <trkpt lat="45.60266" lon="4.70805">
        <ele>289</ele>
        <time>2019-04-28T08:51:15Z</time>
      </trkpt>
      <trkpt lat="45.60362" lon="4.7081">
        <ele>286</ele>
        <time>2019-04-28T08:52:15Z</time>
      </trkpt>
      <trkpt lat="45.60422" lon="4.70822">
        <ele>284</ele>
        <time>2019-04-28T08:53:15Z</time>
      </trkpt>
      <trkpt lat="45.60507" lon="4.70855">
        <ele>284</ele>
        <time>2019-04-28T08:54:15Z</time>
      </trkpt>
      <trkpt lat="45.60598" lon="4.709">
        <ele>285</ele>
        <time>2019-04-28T08:55:15Z</time>
      </trkpt>
      <trkpt lat="45.6063" lon="4.70903">
        <ele>287</ele>
        <time>2019-04-28T08:56:15Z</time>
      </trkpt>
      <trkpt lat="45.60653" lon="4.70909">
        <ele>289</ele>
        <time>2019-04-28T08:57:15Z</time>
      </trkpt>
      <trkpt lat="45.60646" lon="4.70958">
        <ele>289</ele>
        <time>2019-04-28T08:58:15Z</time>
      </trkpt>
      <trkpt lat="45.60647" lon="4.70964">
        <ele>289</ele>
        <time>2019-04-28T08:59:15Z</time>
      </trkpt>
      <trkpt lat="45.60667" lon="4.70969">
        <ele>291</ele>
        <time>2019-04-28T09:00:15Z</time>
      </trkpt>
      <trkpt lat="45.60698" lon="4.70995">
        <ele>291</ele>
        <time>2019-04-28T09:01:15Z</time>
      </trkpt>
      <trkpt lat="45.60743" lon="4.71054">
        <ele>294</ele>
        <time>2019-04-28T09:02:15Z</time>
      </trkpt>
      <trkpt lat="45.60754" lon="4.71072">
        <ele>295</ele>
        <time>2019-04-28T09:03:15Z</time>
      </trkpt>
      <trkpt lat="45.6084" lon="4.71177">
        <ele>303</ele>
        <time>2019-04-28T09:04:15Z</time>
      </trkpt>
      <trkpt lat="45.60894" lon="4.71223">
        <ele>309</ele>
        <time>2019-04-28T09:05:15Z</time>
      </trkpt>
      <trkpt lat="45.60928" lon="4.71246">
        <ele>313</ele>
        <time>2019-04-28T09:06:15Z</time>
      </trkpt>
      <trkpt lat="45.60908" lon="4.71367">
        <ele>319</ele>
        <time>2019-04-28T09:07:15Z</time>
      </trkpt>
      <trkpt lat="45.60907" lon="4.71467">
        <ele>319</ele>
        <time>2019-04-28T09:08:15Z</time>
      </trkpt>
      <trkpt lat="45.60901" lon="4.71539">
        <ele>318</ele>
        <time>2019-04-28T09:09:15Z</time>
      </trkpt>
      <trkpt lat="45.60877" lon="4.71652">
        <ele>314</ele>
        <time>2019-04-28T09:10:15Z</time>
      </trkpt>
      <trkpt lat="45.60872" lon="4.71685">
        <ele>313</ele>
        <time>2019-04-28T09:11:15Z</time>
      </trkpt>
      <trkpt lat="45.60872" lon="4.71779">
        <ele>313</ele>
        <time>2019-04-28T09:12:15Z</time>
      </trkpt>
      <trkpt lat="45.60864" lon="4.71801">
        <ele>313</ele>
        <time>2019-04-28T09:13:15Z</time>
      </trkpt>
      <trkpt lat="45.60843" lon="4.7183">
        <ele>312</ele>
        <time>2019-04-28T09:14:15Z</time>
      </trkpt>
      <trkpt lat="45.60834" lon="4.71864">
        <ele>314</ele>
        <time>2019-04-28T09:15:15Z</time>
      </trkpt>
      <trkpt lat="45.60835" lon="4.71872">
        <ele>315</ele>
        <time>2019-04-28T09:16:15Z</time>
      </trkpt>
      <trkpt lat="45.60848" lon="4.71879">
        <ele>316</ele>
        <time>2019-04-28T09:17:15Z</time>
      </trkpt>
      <trkpt lat="45.60896" lon="4.71928">
        <ele>323</ele>
        <time>2019-04-28T09:18:15Z</time>
      </trkpt>
      <trkpt lat="45.60924" lon="4.71961">
        <ele>328</ele>
        <time>2019-04-28T09:19:15Z</time>
      </trkpt>
      <trkpt lat="45.60963" lon="4.72014">
        <ele>330</ele>
        <time>2019-04-28T09:20:15Z</time>
      </trkpt>
      <trkpt lat="45.60995" lon="4.72069">
        <ele>328</ele>
        <time>2019-04-28T09:21:15Z</time>
      </trkpt>
      <trkpt lat="45.61015" lon="4.72112">
        <ele>329</ele>
        <time>2019-04-28T09:22:15Z</time>
      </trkpt>
      <trkpt lat="45.61075" lon="4.72223">
        <ele>329</ele>
        <time>2019-04-28T09:23:15Z</time>
      </trkpt>
      <trkpt lat="45.6108" lon="4.72222">
        <ele>329</ele>
        <time>2019-04-28T09:24:15Z</time>
      </trkpt>
      <trkpt lat="45.61083" lon="4.72216">
        <ele>328</ele>
        <time>2019-04-28T09:25:15Z</time>
      </trkpt>
      <trkpt lat="45.61103" lon="4.7212">
        <ele>326</ele>
        <time>2019-04-28T09:26:15Z</time>
      </trkpt>
      <trkpt lat="45.61119" lon="4.72059">
        <ele>326</ele>
        <time>2019-04-28T09:27:15Z</time>
      </trkpt>
      <trkpt lat="45.61126" lon="4.72042">
        <ele>325</ele>
        <time>2019-04-28T09:28:15Z</time>
      </trkpt>
      <trkpt lat="45.61272" lon="4.7203">
        <ele>317</ele>
        <time>2019-04-28T09:29:15Z</time>
      </trkpt>
      <trkpt lat="45.61285" lon="4.72031">
        <ele>316</ele>
        <time>2019-04-28T09:30:15Z</time>
      </trkpt>
      <trkpt lat="45.61383" lon="4.72066">
        <ele>309</ele>
        <time>2019-04-28T09:31:15Z</time>
      </trkpt>
      <trkpt lat="45.61505" lon="4.72122">
        <ele>302</ele>
        <time>2019-04-28T09:32:15Z</time>
      </trkpt>
      <trkpt lat="45.61542" lon="4.72142">
        <ele>300</ele>
        <time>2019-04-28T09:33:15Z</time>
      </trkpt>
      <trkpt lat="45.61545" lon="4.72147">
        <ele>300</ele>
        <time>2019-04-28T09:34:15Z</time>
      </trkpt>
      <trkpt lat="45.61544" lon="4.72156">
        <ele>300</ele>
        <time>2019-04-28T09:35:15Z</time>
      </trkpt>
      <trkpt lat="45.61522" lon="4.72228">
        <ele>299</ele>
        <time>2019-04-28T09:36:15Z</time>
      </trkpt>
      <trkpt lat="45.61521" lon="4.72239">
        <ele>299</ele>
        <time>2019-04-28T09:37:15Z</time>
      </trkpt>
      <trkpt lat="45.61524" lon="4.72251">
        <ele>299</ele>
        <time>2019-04-28T09:38:15Z</time>
      </trkpt>
      <trkpt lat="45.61596" lon="4.72281">
        <ele>297</ele>
        <time>2019-04-28T09:39:15Z</time>
      </trkpt>
      <trkpt lat="45.61621" lon="4.72279">
        <ele>297</ele>
        <time>2019-04-28T09:40:15Z</time>
      </trkpt>
      <trkpt lat="45.61686" lon="4.72288">
        <ele>297</ele>
        <time>2019-04-28T09:41:15Z</time>
      </trkpt>
      <trkpt lat="45.6171" lon="4.72274">
        <ele>297</ele>
        <time>2019-04-28T09:42:15Z</time>
      </trkpt>
      <trkpt lat="45.61717" lon="4.72275">
        <ele>297</ele>
        <time>2019-04-28T09:43:15Z</time>
      </trkpt>
      <trkpt lat="45.61738" lon="4.72292">
        <ele>296</ele>
        <time>2019-04-28T09:44:15Z</time>
      </trkpt>
      <trkpt lat="45.61757" lon="4.72315">
        <ele>295</ele>
        <time>2019-04-28T09:45:15Z</time>
      </trkpt>
      <trkpt lat="45.61764" lon="4.7231">
        <ele>295</ele>
        <time>2019-04-28T09:46:15Z</time>
      </trkpt>
      <trkpt lat="45.61864" lon="4.72303">
        <ele>294</ele>
        <time>2019-04-28T09:47:15Z</time>
      </trkpt>
      <trkpt lat="45.61912" lon="4.72286">
        <ele>294</ele>
        <time>2019-04-28T09:48:15Z</time>
      </trkpt>
      <trkpt lat="45.61957" lon="4.72264">
        <ele>295</ele>
        <time>2019-04-28T09:49:15Z</time>
      </trkpt>
      <trkpt lat="45.61971" lon="4.7226">
        <ele>295</ele>
        <time>2019-04-28T09:50:15Z</time>
      </trkpt>
      <trkpt lat="45.61979" lon="4.72251">
        <ele>295</ele>
        <time>2019-04-28T09:51:15Z</time>
      </trkpt>
      <trkpt lat="45.6202" lon="4.72239">
        <ele>296</ele>
        <time>2019-04-28T09:52:15Z</time>
      </trkpt>
      <trkpt lat="45.62092" lon="4.72199">
        <ele>298</ele>
        <time>2019-04-28T09:53:15Z</time>
      </trkpt>
      <trkpt lat="45.62116" lon="4.72192">
        <ele>298</ele>
        <time>2019-04-28T09:54:15Z</time>
      </trkpt>
      <trkpt lat="45.62177" lon="4.72153">
        <ele>299</ele>
        <time>2019-04-28T09:55:15Z</time>
      </trkpt>
      <trkpt lat="45.62181" lon="4.72147">
        <ele>299</ele>
        <time>2019-04-28T09:56:15Z</time>
      </trkpt>
      <trkpt lat="45.62184" lon="4.72134">
        <ele>300</ele>
        <time>2019-04-28T09:57:15Z</time>
      </trkpt>
      <trkpt lat="45.62208" lon="4.72123">
        <ele>300</ele>
        <time>2019-04-28T09:58:15Z</time>
      </trkpt>
      <trkpt lat="45.62232" lon="4.72118">
        <ele>300</ele>
        <time>2019-04-28T09:59:15Z</time>
      </trkpt>
      <trkpt lat="45.62316" lon="4.72106">
        <ele>302</ele>
        <time>2019-04-28T10:00:15Z</time>
      </trkpt>
      <trkpt lat="45.62373" lon="4.72144">
        <ele>302</ele>
        <time>2019-04-28T10:01:15Z</time>
      </trkpt>
      <trkpt lat="45.62422" lon="4.72172">
        <ele>303</ele>
        <time>2019-04-28T10:02:15Z</time>
      </trkpt>
      <trkpt lat="45.62477" lon="4.72178">
        <ele>304</ele>
        <time>2019-04-28T10:03:15Z</time>
      </trkpt>
      <trkpt lat="45.62496" lon="4.72183">
        <ele>305</ele>
        <time>2019-04-28T10:04:15Z</time>
      </trkpt>
      <trkpt lat="45.62504" lon="4.72188">
        <ele>305</ele>
        <time>2019-04-28T10:05:15Z</time>
      </trkpt>
      <trkpt lat="45.62507" lon="4.72192">
        <ele>305</ele>
        <time>2019-04-28T10:06:15Z</time>
      </trkpt>
      <trkpt lat="45.62503" lon="4.72194">
        <ele>305</ele>
        <time>2019-04-28T10:07:15Z</time>
      </trkpt>
      <trkpt lat="45.62494" lon="4.72215">
        <ele>304</ele>
        <time>2019-04-28T10:08:15Z</time>
      </trkpt>
      <trkpt lat="45.62488" lon="4.7224">
        <ele>304</ele>
        <time>2019-04-28T10:09:15Z</time>
      </trkpt>
      <trkpt lat="45.62486" lon="4.7226">
        <ele>303</ele>
        <time>2019-04-28T10:10:15Z</time>
      </trkpt>
      <trkpt lat="45.6249" lon="4.7232">
        <ele>301</ele>
        <time>2019-04-28T10:11:15Z</time>
      </trkpt>
      <trkpt lat="45.62507" lon="4.72378">
        <ele>300</ele>
        <time>2019-04-28T10:12:15Z</time>
      </trkpt>
      <trkpt lat="45.62502" lon="4.72403">
        <ele>299</ele>
        <time>2019-04-28T10:13:15Z</time>
      </trkpt>
      <trkpt lat="45.62464" lon="4.72441">
        <ele>298</ele>
        <time>2019-04-28T10:14:15Z</time>
      </trkpt>
      <trkpt lat="45.62436" lon="4.72477">
        <ele>297</ele>
        <time>2019-04-28T10:15:15Z</time>
      </trkpt>
      <trkpt lat="45.62399" lon="4.72504">
        <ele>296</ele>
        <time>2019-04-28T10:16:15Z</time>
      </trkpt>
      <trkpt lat="45.62379" lon="4.72529">
        <ele>294</ele>
        <time>2019-04-28T10:17:15Z</time>
      </trkpt>
      <trkpt lat="45.62347" lon="4.72561">
        <ele>292</ele>
        <time>2019-04-28T10:18:15Z</time>
      </trkpt>
      <trkpt lat="45.62223" lon="4.72651">
        <ele>294</ele>
        <time>2019-04-28T10:19:15Z</time>
      </trkpt>
      <trkpt lat="45.62201" lon="4.72671">
        <ele>294</ele>
        <time>2019-04-28T10:20:15Z</time>
      </trkpt>
      <trkpt lat="45.62172" lon="4.72712">
        <ele>293</ele>
        <time>2019-04-28T10:21:15Z</time>
      </trkpt>
      <trkpt lat="45.62158" lon="4.72722">
        <ele>292</ele>
        <time>2019-04-28T10:22:15Z</time>
      </trkpt>
      <trkpt lat="45.62156" lon="4.72728">
        <ele>292</ele>
        <time>2019-04-28T10:23:15Z</time>
      </trkpt>
      <trkpt lat="45.62157" lon="4.72817">
        <ele>292</ele>
        <time>2019-04-28T10:24:15Z</time>
      </trkpt>
      <trkpt lat="45.62161" lon="4.72875">
        <ele>293</ele>
        <time>2019-04-28T10:25:15Z</time>
      </trkpt>
      <trkpt lat="45.62175" lon="4.72933">
        <ele>293</ele>
        <time>2019-04-28T10:26:15Z</time>
      </trkpt>
      <trkpt lat="45.62172" lon="4.72948">
        <ele>293</ele>
        <time>2019-04-28T10:27:15Z</time>
      </trkpt>
      <trkpt lat="45.62165" lon="4.72951">
        <ele>293</ele>
        <time>2019-04-28T10:28:15Z</time>
      </trkpt>
      <trkpt lat="45.62129" lon="4.7295">
        <ele>293</ele>
        <time>2019-04-28T10:29:15Z</time>
      </trkpt>
      <trkpt lat="45.62096" lon="4.72976">
        <ele>293</ele>
        <time>2019-04-28T10:30:15Z</time>
      </trkpt>
      <trkpt lat="45.62079" lon="4.72982">
        <ele>293</ele>
        <time>2019-04-28T10:31:15Z</time>
      </trkpt>
      <trkpt lat="45.61988" lon="4.73078">
        <ele>289</ele>
        <time>2019-04-28T10:32:15Z</time>
      </trkpt>
      <trkpt lat="45.61972" lon="4.73086">
        <ele>290</ele>
        <time>2019-04-28T10:33:15Z</time>
      </trkpt>
      <trkpt lat="45.61944" lon="4.73092">
        <ele>291</ele>
        <time>2019-04-28T10:34:15Z</time>
      </trkpt>
      <trkpt lat="45.61918" lon="4.7319">
        <ele>291</ele>
        <time>2019-04-28T10:35:15Z</time>
      </trkpt>
      <trkpt lat="45.619" lon="4.73233">
        <ele>291</ele>
        <time>2019-04-28T10:36:15Z</time>
      </trkpt>
      <trkpt lat="45.61874" lon="4.73369">
        <ele>291</ele>
        <time>2019-04-28T10:37:15Z</time>
      </trkpt>
      <trkpt lat="45.61817" lon="4.73579">
        <ele>292</ele>
        <time>2019-04-28T10:38:15Z</time>
      </trkpt>
      <trkpt lat="45.6181" lon="4.73584">
        <ele>292</ele>
        <time>2019-04-28T10:39:15Z</time>
      </trkpt>
      <trkpt lat="45.6176" lon="4.73588">
        <ele>292</ele>
        <time>2019-04-28T10:40:15Z</time>
      </trkpt>
      <trkpt lat="45.61754" lon="4.73594">
        <ele>292</ele>
        <time>2019-04-28T10:41:15Z</time>
      </trkpt>
      <trkpt lat="45.61727" lon="4.73726">
        <ele>292</ele>
        <time>2019-04-28T10:42:15Z</time>
      </trkpt>
      <trkpt lat="45.61741" lon="4.73729">
        <ele>293</ele>
        <time>2019-04-28T10:43:15Z</time>
      </trkpt>
      <trkpt lat="45.61795" lon="4.73755">
        <ele>294</ele>
        <time>2019-04-28T10:44:15Z</time>
      </trkpt>
      <trkpt lat="45.61828" lon="4.73777">
        <ele>296</ele>
        <time>2019-04-28T10:45:15Z</time>
      </trkpt>
      <trkpt lat="45.6184" lon="4.7378">
        <ele>296</ele>
        <time>2019-04-28T10:46:15Z</time>
      </trkpt>
      <trkpt lat="45.61872" lon="4.73773">
        <ele>295</ele>
        <time>2019-04-28T10:47:15Z</time>
      </trkpt>
      <trkpt lat="45.61939" lon="4.73768">
        <ele>294</ele>
        <time>2019-04-28T10:48:15Z</time>
      </trkpt>
      <trkpt lat="45.61966" lon="4.7377">
        <ele>292</ele>
        <time>2019-04-28T10:49:15Z</time>
      </trkpt>
      <trkpt lat="45.61984" lon="4.73775">
        <ele>292</ele>
        <time>2019-04-28T10:50:15Z</time>
      </trkpt>
      <trkpt lat="45.62032" lon="4.73812">
        <ele>291</ele>
        <time>2019-04-28T10:51:15Z</time>
      </trkpt>
      <trkpt lat="45.62057" lon="4.73841">
        <ele>290</ele>
        <time>2019-04-28T10:52:15Z</time>
      </trkpt>
      <trkpt lat="45.62067" lon="4.73848">
        <ele>290</ele>
        <time>2019-04-28T10:53:15Z</time>
      </trkpt>
      <trkpt lat="45.62083" lon="4.73858">
        <ele>290</ele>
        <time>2019-04-28T10:54:15Z</time>
      </trkpt>
      <trkpt lat="45.62114" lon="4.73866">
        <ele>289</ele>
        <time>2019-04-28T10:55:15Z</time>
      </trkpt>
      <trkpt lat="45.62158" lon="4.73867">
        <ele>289</ele>
        <time>2019-04-28T10:56:15Z</time>
      </trkpt>
      <trkpt lat="45.62212" lon="4.73889">
        <ele>288</ele>
        <time>2019-04-28T10:57:15Z</time>
      </trkpt>
      <trkpt lat="45.62238" lon="4.73894">
        <ele>287</ele>
        <time>2019-04-28T10:58:15Z</time>
      </trkpt>
      <trkpt lat="45.62264" lon="4.73896">
        <ele>287</ele>
        <time>2019-04-28T10:59:15Z</time>
      </trkpt>
      <trkpt lat="45.62395" lon="4.73882">
        <ele>285</ele>
        <time>2019-04-28T11:00:15Z</time>
      </trkpt>
      <trkpt lat="45.62402" lon="4.73883">
        <ele>285</ele>
        <time>2019-04-28T11:01:15Z</time>
      </trkpt>
      <trkpt lat="45.62414" lon="4.73891">
        <ele>285</ele>
        <time>2019-04-28T11:02:15Z</time>
      </trkpt>
      <trkpt lat="45.62471" lon="4.73948">
        <ele>286</ele>
        <time>2019-04-28T11:03:15Z</time>
      </trkpt>
      <trkpt lat="45.62579" lon="4.74142">
        <ele>292</ele>
        <time>2019-04-28T11:04:15Z</time>
      </trkpt>
      <trkpt lat="45.62604" lon="4.7421">
        <ele>293</ele>
        <time>2019-04-28T11:05:15Z</time>
      </trkpt>
      <trkpt lat="45.62622" lon="4.74282">
        <ele>294</ele>
        <time>2019-04-28T11:06:15Z</time>
      </trkpt>
      <trkpt lat="45.62657" lon="4.74389">
        <ele>299</ele>
        <time>2019-04-28T11:07:15Z</time>
      </trkpt>
      <trkpt lat="45.62665" lon="4.744">
        <ele>300</ele>
        <time>2019-04-28T11:08:15Z</time>
      </trkpt>
      <trkpt lat="45.62692" lon="4.74463">
        <ele>307</ele>
        <time>2019-04-28T11:09:15Z</time>
      </trkpt>
      <trkpt lat="45.62701" lon="4.74476">
        <ele>309</ele>
        <time>2019-04-28T11:10:15Z</time>
      </trkpt>
      <trkpt lat="45.62734" lon="4.74493">
        <ele>314</ele>
        <time>2019-04-28T11:11:15Z</time>
      </trkpt>
      <trkpt lat="45.62818" lon="4.74444">
        <ele>314</ele>
        <time>2019-04-28T11:12:15Z</time>
      </trkpt>
      <trkpt lat="45.62827" lon="4.74442">
        <ele>314</ele>
        <time>2019-04-28T11:13:15Z</time>
      </trkpt>
      <trkpt lat="45.62871" lon="4.74502">
        <ele>317</ele>
        <time>2019-04-28T11:14:15Z</time>
      </trkpt>
      <trkpt lat="45.62887" lon="4.74519">
        <ele>318</ele>
        <time>2019-04-28T11:15:15Z</time>
      </trkpt>
      <trkpt lat="45.62896" lon="4.74546">
        <ele>319</ele>
        <time>2019-04-28T11:16:15Z</time>
      </trkpt>
      <trkpt lat="45.62899" lon="4.74548">
        <ele>319</ele>
        <time>2019-04-28T11:17:15Z</time>
      </trkpt>
      <trkpt lat="45.62903" lon="4.74545">
        <ele>318</ele>
        <time>2019-04-28T11:18:15Z</time>
      </trkpt>
      <trkpt lat="45.62926" lon="4.74502">
        <ele>313</ele>
        <time>2019-04-28T11:19:15Z</time>
      </trkpt>
      <trkpt lat="45.62974" lon="4.74437">
        <ele>304</ele>
        <time>2019-04-28T11:20:15Z</time>
      </trkpt>
      <trkpt lat="45.63009" lon="4.74374">
        <ele>299</ele>
        <time>2019-04-28T11:21:15Z</time>
      </trkpt>
      <trkpt lat="45.63009" lon="4.74365">
        <ele>298</ele>
        <time>2019-04-28T11:22:15Z</time>
      </trkpt>
      <trkpt lat="45.62988" lon="4.74318">
        <ele>298</ele>
        <time>2019-04-28T11:23:15Z</time>
      </trkpt>
      <trkpt lat="45.62986" lon="4.74305">
        <ele>298</ele>
        <time>2019-04-28T11:24:15Z</time>
      </trkpt>
      <trkpt lat="45.62999" lon="4.74242">
        <ele>295</ele>
        <time>2019-04-28T11:25:15Z</time>
      </trkpt>
      <trkpt lat="45.63037" lon="4.74106">
        <ele>294</ele>
        <time>2019-04-28T11:26:15Z</time>
      </trkpt>
      <trkpt lat="45.63056" lon="4.74025">
        <ele>293</ele>
        <time>2019-04-28T11:27:15Z</time>
      </trkpt>
      <trkpt lat="45.63068" lon="4.73987">
        <ele>293</ele>
        <time>2019-04-28T11:28:15Z</time>
      </trkpt>
      <trkpt lat="45.63102" lon="4.73949">
        <ele>292</ele>
        <time>2019-04-28T11:29:15Z</time>
      </trkpt>
      <trkpt lat="45.63114" lon="4.73941">
        <ele>292</ele>
        <time>2019-04-28T11:30:15Z</time>
      </trkpt>
      <trkpt lat="45.63183" lon="4.73932">
        <ele>291</ele>
        <time>2019-04-28T11:31:15Z</time>
      </trkpt>
      <trkpt lat="45.63204" lon="4.73932">
        <ele>291</ele>
        <time>2019-04-28T11:32:15Z</time>
      </trkpt>
      <trkpt lat="45.63253" lon="4.73919">
        <ele>290</ele>
        <time>2019-04-28T11:33:15Z</time>
      </trkpt>
      <trkpt lat="45.63285" lon="4.73919">
        <ele>291</ele>
        <time>2019-04-28T11:34:15Z</time>
      </trkpt>
      <trkpt lat="45.63322" lon="4.73895">
        <ele>292</ele>
        <time>2019-04-28T11:35:15Z</time>
      </trkpt>
      <trkpt lat="45.63336" lon="4.73898">
        <ele>293</ele>
        <time>2019-04-28T11:36:15Z</time>
      </trkpt>
      <trkpt lat="45.63377" lon="4.73922">
        <ele>290</ele>
        <time>2019-04-28T11:37:15Z</time>
      </trkpt>
      <trkpt lat="45.63398" lon="4.73931">
        <ele>288</ele>
        <time>2019-04-28T11:38:15Z</time>
      </trkpt>
      <trkpt lat="45.63458" lon="4.73951">
        <ele>285</ele>
        <time>2019-04-28T11:39:15Z</time>
      </trkpt>
      <trkpt lat="45.63493" lon="4.73955">
        <ele>283</ele>
        <time>2019-04-28T11:40:15Z</time>
      </trkpt>
      <trkpt lat="45.63525" lon="4.73953">
        <ele>284</ele>
        <time>2019-04-28T11:41:15Z</time>
      </trkpt>
      <trkpt lat="45.63558" lon="4.73939">
        <ele>284</ele>
        <time>2019-04-28T11:42:15Z</time>
      </trkpt>
      <trkpt lat="45.63569" lon="4.73939">
        <ele>284</ele>
        <time>2019-04-28T11:43:15Z</time>
      </trkpt>
      <trkpt lat="45.63592" lon="4.73945">
        <ele>285</ele>
        <time>2019-04-28T11:44:15Z</time>
      </trkpt>
      <trkpt lat="45.63615" lon="4.73947">
        <ele>287</ele>
        <time>2019-04-28T11:45:15Z</time>
      </trkpt>
      <trkpt lat="45.63675" lon="4.73935">
        <ele>291</ele>
        <time>2019-04-28T11:46:15Z</time>
      </trkpt>
      <trkpt lat="45.63694" lon="4.73934">
        <ele>291</ele>
        <time>2019-04-28T11:47:15Z</time>
      </trkpt>
      <trkpt lat="45.63716" lon="4.73941">
        <ele>293</ele>
        <time>2019-04-28T11:48:15Z</time>
      </trkpt>
      <trkpt lat="45.63777" lon="4.7397">
        <ele>294</ele>
        <time>2019-04-28T11:49:15Z</time>
      </trkpt>
      <trkpt lat="45.63805" lon="4.73994">
        <ele>293</ele>
        <time>2019-04-28T11:50:15Z</time>
      </trkpt>
      <trkpt lat="45.63856" lon="4.74047">
        <ele>290</ele>
        <time>2019-04-28T11:51:15Z</time>
      </trkpt>
      <trkpt lat="45.63864" lon="4.73979">
        <ele>290</ele>
        <time>2019-04-28T11:52:15Z</time>
      </trkpt>
      <trkpt lat="45.6386" lon="4.73889">
        <ele>291</ele>
        <time>2019-04-28T11:53:15Z</time>
      </trkpt>
      <trkpt lat="45.63863" lon="4.73806">
        <ele>292</ele>
        <time>2019-04-28T11:54:15Z</time>
      </trkpt>
      <trkpt lat="45.63869" lon="4.73784">
        <ele>292</ele>
        <time>2019-04-28T11:55:15Z</time>
      </trkpt>
      <trkpt lat="45.63893" lon="4.73729">
        <ele>292</ele>
        <time>2019-04-28T11:56:15Z</time>
      </trkpt>
      <trkpt lat="45.63912" lon="4.73693">
        <ele>293</ele>
        <time>2019-04-28T11:57:15Z</time>
      </trkpt>
      <trkpt lat="45.63918" lon="4.73673">
        <ele>294</ele>
        <time>2019-04-28T11:58:15Z</time>
      </trkpt>
      <trkpt lat="45.6392" lon="4.73632">
        <ele>296</ele>
        <time>2019-04-28T11:59:15Z</time>
      </trkpt>
      <trkpt lat="45.6391" lon="4.73601">
        <ele>297</ele>
        <time>2019-04-28T12:00:15Z</time>
      </trkpt>
      <trkpt lat="45.63904" lon="4.73595">
        <ele>297</ele>
        <time>2019-04-28T12:01:15Z</time>
      </trkpt>
      <trkpt lat="45.639" lon="4.73586">
        <ele>297</ele>
        <time>2019-04-28T12:02:15Z</time>
      </trkpt>
      <trkpt lat="45.63896" lon="4.73566">
        <ele>298</ele>
        <time>2019-04-28T12:03:15Z</time>
      </trkpt>
      <trkpt lat="45.63898" lon="4.73552">
        <ele>299</ele>
        <time>2019-04-28T12:04:15Z</time>
      </trkpt>
      <trkpt lat="45.63911" lon="4.73507">
        <ele>301</ele>
        <time>2019-04-28T12:05:15Z</time>
      </trkpt>
      <trkpt lat="45.63908" lon="4.7346">
        <ele>303</ele>
        <time>2019-04-28T12:06:15Z</time>
      </trkpt>
      <trkpt lat="45.6391" lon="4.73437">
        <ele>304</ele>
        <time>2019-04-28T12:07:15Z</time>
      </trkpt>
      <trkpt lat="45.63923" lon="4.73407">
        <ele>306</ele>
        <time>2019-04-28T12:08:15Z</time>
      </trkpt>
      <trkpt lat="45.63948" lon="4.73307">
        <ele>312</ele>
        <time>2019-04-28T12:09:15Z</time>
      </trkpt>
      <trkpt lat="45.63955" lon="4.73288">
        <ele>314</ele>
        <time>2019-04-28T12:10:15Z</time>
      </trkpt>
      <trkpt lat="45.63967" lon="4.73272">
        <ele>315</ele>
        <time>2019-04-28T12:11:15Z</time>
      </trkpt>
      <trkpt lat="45.63985" lon="4.73168">
        <ele>317</ele>
        <time>2019-04-28T12:12:15Z</time>
      </trkpt>
      <trkpt lat="45.64016" lon="4.7309">
        <ele>322</ele>
        <time>2019-04-28T12:13:15Z</time>
      </trkpt>
      <trkpt lat="45.64066" lon="4.72978">
        <ele>330</ele>
        <time>2019-04-28T12:14:15Z</time>
      </trkpt>
      <trkpt lat="45.64082" lon="4.72998">
        <ele>330</ele>
        <time>2019-04-28T12:15:15Z</time>
      </trkpt>
      <trkpt lat="45.64109" lon="4.7306">
        <ele>327</ele>
        <time>2019-04-28T12:16:15Z</time>
      </trkpt>
      <trkpt lat="45.64124" lon="4.73079">
        <ele>326</ele>
        <time>2019-04-28T12:17:15Z</time>
      </trkpt>
      <trkpt lat="45.6416" lon="4.73103">
        <ele>325</ele>
        <time>2019-04-28T12:18:15Z</time>
      </trkpt>
      <trkpt lat="45.64164" lon="4.73103">
        <ele>325</ele>
        <time>2019-04-28T12:19:15Z</time>
      </trkpt>
      <trkpt lat="45.64169" lon="4.73067">
        <ele>327</ele>
        <time>2019-04-28T12:20:15Z</time>
      </trkpt>
      <trkpt lat="45.64168" lon="4.72998">
        <ele>333</ele>
        <time>2019-04-28T12:21:15Z</time>
      </trkpt>
      <trkpt lat="45.64165" lon="4.72959">
        <ele>336</ele>
        <time>2019-04-28T12:22:15Z</time>
      </trkpt>
      <trkpt lat="45.64166" lon="4.7289">
        <ele>341</ele>
        <time>2019-04-28T12:23:15Z</time>
      </trkpt>
      <trkpt lat="45.64175" lon="4.72835">
        <ele>343</ele>
        <time>2019-04-28T12:24:15Z</time>
      </trkpt>
      <trkpt lat="45.64139" lon="4.7255">
        <ele>344</ele>
        <time>2019-04-28T12:25:15Z</time>
      </trkpt>
      <trkpt lat="45.64146" lon="4.72506">
        <ele>343</ele>
        <time>2019-04-28T12:26:15Z</time>
      </trkpt>
      <trkpt lat="45.64147" lon="4.72469">
        <ele>342</ele>
        <time>2019-04-28T12:27:15Z</time>
      </trkpt>
      <trkpt lat="45.64143" lon="4.72399">
        <ele>342</ele>
        <time>2019-04-28T12:28:15Z</time>
      </trkpt>
      <trkpt lat="45.64148" lon="4.72393">
        <ele>342</ele>
        <time>2019-04-28T12:29:15Z</time>
      </trkpt>
      <trkpt lat="45.6427" lon="4.72394">
        <ele>336</ele>
        <time>2019-04-28T12:30:15Z</time>
      </trkpt>
      <trkpt lat="45.64288" lon="4.7241">
        <ele>333</ele>
        <time>2019-04-28T12:31:15Z</time>
      </trkpt>
      <trkpt lat="45.64305" lon="4.7244">
        <ele>329</ele>
        <time>2019-04-28T12:32:15Z</time>
      </trkpt>
      <trkpt lat="45.64304" lon="4.72449">
        <ele>329</ele>
        <time>2019-04-28T12:33:15Z</time>
      </trkpt>
      <trkpt lat="45.64311" lon="4.72527">
        <ele>325</ele>
        <time>2019-04-28T12:34:15Z</time>
      </trkpt>
      <trkpt lat="45.64314" lon="4.72534">
        <ele>325</ele>
        <time>2019-04-28T12:35:15Z</time>
      </trkpt>
      <trkpt lat="45.64399" lon="4.72577">
        <ele>314</ele>
        <time>2019-04-28T12:36:15Z</time>
      </trkpt>
      <trkpt lat="45.64424" lon="4.72603">
        <ele>311</ele>
        <time>2019-04-28T12:37:15Z</time>
      </trkpt>
      <trkpt lat="45.64435" lon="4.72648">
        <ele>313</ele>
        <time>2019-04-28T12:38:15Z</time>
      </trkpt>
      <trkpt lat="45.64542" lon="4.72655">
        <ele>300</ele>
        <time>2019-04-28T12:39:15Z</time>
      </trkpt>
      <trkpt lat="45.64666" lon="4.726">
        <ele>287</ele>
        <time>2019-04-28T12:40:15Z</time>
      </trkpt>
      <trkpt lat="45.64665" lon="4.72557">
        <ele>286</ele>
        <time>2019-04-28T12:41:15Z</time>
      </trkpt>
      <trkpt lat="45.64671" lon="4.72515">
        <ele>286</ele>
        <time>2019-04-28T12:42:15Z</time>
      </trkpt>
      <trkpt lat="45.64692" lon="4.72466">
        <ele>287</ele>
        <time>2019-04-28T12:43:15Z</time>
      </trkpt>
      <trkpt lat="45.64718" lon="4.72415">
        <ele>288</ele>
        <time>2019-04-28T12:44:15Z</time>
      </trkpt>
      <trkpt lat="45.64723" lon="4.72394">
        <ele>288</ele>
        <time>2019-04-28T12:45:15Z</time>
      </trkpt>
      <trkpt lat="45.64709" lon="4.72339">
        <ele>289</ele>
        <time>2019-04-28T12:46:15Z</time>
      </trkpt>
      <trkpt lat="45.64718" lon="4.72315">
        <ele>288</ele>
        <time>2019-04-28T12:47:15Z</time>
      </trkpt>
      <trkpt lat="45.64738" lon="4.72234">
        <ele>289</ele>
        <time>2019-04-28T12:48:15Z</time>
      </trkpt>
      <trkpt lat="45.64846" lon="4.72311">
        <ele>288</ele>
        <time>2019-04-28T12:49:15Z</time>
      </trkpt>
      <trkpt lat="45.64889" lon="4.72357">
        <ele>286</ele>
        <time>2019-04-28T12:50:15Z</time>
      </trkpt>
      <trkpt lat="45.64918" lon="4.724">
        <ele>285</ele>
        <time>2019-04-28T12:51:15Z</time>
      </trkpt>
      <trkpt lat="45.64944" lon="4.72428">
        <ele>285</ele>
        <time>2019-04-28T12:52:15Z</time>
      </trkpt>
      <trkpt lat="45.64973" lon="4.72448">
        <ele>284</ele>
        <time>2019-04-28T12:53:15Z</time>
      </trkpt>
      <trkpt lat="45.64979" lon="4.72465">
        <ele>284</ele>
        <time>2019-04-28T12:54:15Z</time>
      </trkpt>
      <trkpt lat="45.64975" lon="4.72556">
        <ele>278</ele>
        <time>2019-04-28T12:55:15Z</time>
      </trkpt>
      <trkpt lat="45.65006" lon="4.72617">
        <ele>272</ele>
        <time>2019-04-28T12:56:15Z</time>
      </trkpt>
      <trkpt lat="45.65014" lon="4.7269">
        <ele>264</ele>
        <time>2019-04-28T12:57:15Z</time>
      </trkpt>
      <trkpt lat="45.65042" lon="4.72721">
        <ele>261</ele>
        <time>2019-04-28T12:58:15Z</time>
      </trkpt>
      <trkpt lat="45.65073" lon="4.72738">
        <ele>259</ele>
        <time>2019-04-28T12:59:15Z</time>
      </trkpt>
      <trkpt lat="45.65094" lon="4.72759">
        <ele>256</ele>
        <time>2019-04-28T13:00:15Z</time>
      </trkpt>
      <trkpt lat="45.6515" lon="4.72795">
        <ele>248</ele>
        <time>2019-04-28T13:01:15Z</time>
      </trkpt>
      <trkpt lat="45.65167" lon="4.72819">
        <ele>244</ele>
        <time>2019-04-28T13:02:15Z</time>
      </trkpt>
      <trkpt lat="45.65169" lon="4.7285">
        <ele>242</ele>
        <time>2019-04-28T13:03:15Z</time>
      </trkpt>
      <trkpt lat="45.65172" lon="4.72858">
        <ele>243</ele>
        <time>2019-04-28T13:04:15Z</time>
      </trkpt>
      <trkpt lat="45.65179" lon="4.72866">
        <ele>243</ele>
        <time>2019-04-28T13:05:15Z</time>
      </trkpt>
      <trkpt lat="45.65201" lon="4.72877">
        <ele>246</ele>
        <time>2019-04-28T13:06:15Z</time>
      </trkpt>
      <trkpt lat="45.65191" lon="4.72903">
        <ele>245</ele>
        <time>2019-04-28T13:07:15Z</time>
      </trkpt>
      <trkpt lat="45.65185" lon="4.7293">
        <ele>245</ele>
        <time>2019-04-28T13:08:15Z</time>
      </trkpt>
      <trkpt lat="45.65183" lon="4.73031">
        <ele>245</ele>
        <time>2019-04-28T13:09:15Z</time>
      </trkpt>
      <trkpt lat="45.65209" lon="4.7311">
        <ele>244</ele>
        <time>2019-04-28T13:10:15Z</time>
      </trkpt>
      <trkpt lat="45.65202" lon="4.73168">
        <ele>242</ele>
        <time>2019-04-28T13:11:15Z</time>
      </trkpt>
      <trkpt lat="45.65188" lon="4.73181">
        <ele>240</ele>
        <time>2019-04-28T13:12:15Z</time>
      </trkpt>
      <trkpt lat="45.65161" lon="4.73245">
        <ele>238</ele>
        <time>2019-04-28T13:13:15Z</time>
      </trkpt>
      <trkpt lat="45.65144" lon="4.73321">
        <ele>241</ele>
        <time>2019-04-28T13:14:15Z</time>
      </trkpt>
      <trkpt lat="45.65142" lon="4.73349">
        <ele>241</ele>
        <time>2019-04-28T13:15:15Z</time>
      </trkpt>
      <trkpt lat="45.65142" lon="4.73379">
        <ele>241</ele>
        <time>2019-04-28T13:16:15Z</time>
      </trkpt>
      <trkpt lat="45.65145" lon="4.734">
        <ele>240</ele>
        <time>2019-04-28T13:17:15Z</time>
      </trkpt>
      <trkpt lat="45.65164" lon="4.73498">
        <ele>238</ele>
        <time>2019-04-28T13:18:15Z</time>
      </trkpt>
      <trkpt lat="45.65157" lon="4.73568">
        <ele>236</ele>
        <time>2019-04-28T13:19:15Z</time>
      </trkpt>
      <trkpt lat="45.65157" lon="4.73695">
        <ele>231</ele>
        <time>2019-04-28T13:20:15Z</time>
      </trkpt>
      <trkpt lat="45.65169" lon="4.73737">
        <ele>229</ele>
        <time>2019-04-28T13:21:15Z</time>
      </trkpt>
      <trkpt lat="45.65201" lon="4.73812">
        <ele>231</ele>
        <time>2019-04-28T13:22:15Z</time>
      </trkpt>
      <trkpt lat="45.65202" lon="4.73847">
        <ele>229</ele>
        <time>2019-04-28T13:23:15Z</time>
      </trkpt>
      <trkpt lat="45.65188" lon="4.7394">
        <ele>225</ele>
        <time>2019-04-28T13:24:15Z</time>
      </trkpt>
      <trkpt lat="45.65191" lon="4.7397">
        <ele>224</ele>
        <time>2019-04-28T13:25:15Z</time>
      </trkpt>
      <trkpt lat="45.6524" lon="4.74059">
        <ele>221</ele>
        <time>2019-04-28T13:26:15Z</time>
      </trkpt>
      <trkpt lat="45.65243" lon="4.74123">
        <ele>218</ele>
        <time>2019-04-28T13:27:15Z</time>
      </trkpt>
      <trkpt lat="45.6524" lon="4.74155">
        <ele>216</ele>
        <time>2019-04-28T13:28:15Z</time>
      </trkpt>
      <trkpt lat="45.65261" lon="4.74199">
        <ele>215</ele>
        <time>2019-04-28T13:29:15Z</time>
      </trkpt>
      <trkpt lat="45.65271" lon="4.74237">
        <ele>214</ele>
        <time>2019-04-28T13:30:15Z</time>
      </trkpt>
      <trkpt lat="45.65278" lon="4.74237">
        <ele>214</ele>
        <time>2019-04-28T13:31:15Z</time>
      </trkpt>
      <trkpt lat="45.65301" lon="4.74253">
        <ele>214</ele>
        <time>2019-04-28T13:32:15Z</time>
      </trkpt>
      <trkpt lat="45.65344" lon="4.74316">
        <ele>212</ele>
        <time>2019-04-28T13:33:15Z</time>
      </trkpt>
      <trkpt lat="45.65352" lon="4.74318">
        <ele>212</ele>
        <time>2019-04-28T13:34:15Z</time>
      </trkpt>
      <trkpt lat="45.65355" lon="4.74314">
        <ele>212</ele>
        <time>2019-04-28T13:35:15Z</time>
      </trkpt>
      <trkpt lat="45.65366" lon="4.7427">
        <ele>216</ele>
        <time>2019-04-28T13:36:15Z</time>
      </trkpt>
      <trkpt lat="45.65366" lon="4.74259">
        <ele>217</ele>
        <time>2019-04-28T13:37:15Z</time>
      </trkpt>
      <trkpt lat="45.65359" lon="4.7423">
        <ele>220</ele>
        <time>2019-04-28T13:38:15Z</time>
      </trkpt>
      <trkpt lat="45.6533" lon="4.74155">
        <ele>227</ele>
        <time>2019-04-28T13:39:15Z</time>
      </trkpt>
      <trkpt lat="45.65331" lon="4.74146">
        <ele>228</ele>
        <time>2019-04-28T13:40:15Z</time>
      </trkpt>
      <trkpt lat="45.65338" lon="4.7415">
        <ele>229</ele>
        <time>2019-04-28T13:41:15Z</time>
      </trkpt>
      <trkpt lat="45.6535" lon="4.74173">
        <ele>228</ele>
        <time>2019-04-28T13:42:15Z</time>
      </trkpt>
      <trkpt lat="45.65372" lon="4.74199">
        <ele>228</ele>
        <time>2019-04-28T13:43:15Z</time>
      </trkpt>
      <trkpt lat="45.65395" lon="4.74212">
        <ele>228</ele>
        <time>2019-04-28T13:44:15Z</time>
      </trkpt>
      <trkpt lat="45.65403" lon="4.74208">
        <ele>231</ele>
        <time>2019-04-28T13:45:15Z</time>
      </trkpt>
      <trkpt lat="45.65403" lon="4.74203">
        <ele>232</ele>
        <time>2019-04-28T13:46:15Z</time>
      </trkpt>
      <trkpt lat="45.65392" lon="4.74192">
        <ele>232</ele>
        <time>2019-04-28T13:47:15Z</time>
      </trkpt>
      <trkpt lat="45.65353" lon="4.74133">
        <ele>233</ele>
        <time>2019-04-28T13:48:15Z</time>
      </trkpt>
      <trkpt lat="45.65352" lon="4.74126">
        <ele>234</ele>
        <time>2019-04-28T13:49:15Z</time>
      </trkpt>
      <trkpt lat="45.65359" lon="4.74124">
        <ele>235</ele>
        <time>2019-04-28T13:50:15Z</time>
      </trkpt>
      <trkpt lat="45.65375" lon="4.74145">
        <ele>236</ele>
        <time>2019-04-28T13:51:15Z</time>
      </trkpt>
      <trkpt lat="45.65386" lon="4.74153">
        <ele>238</ele>
        <time>2019-04-28T13:52:15Z</time>
      </trkpt>
      <trkpt lat="45.65403" lon="4.74158">
        <ele>240</ele>
        <time>2019-04-28T13:53:15Z</time>
      </trkpt>
      <trkpt lat="45.65421" lon="4.7416">
        <ele>242</ele>
        <time>2019-04-28T13:54:15Z</time>
      </trkpt>
      <trkpt lat="45.6544" lon="4.74158">
        <ele>241</ele>
        <time>2019-04-28T13:55:15Z</time>
      </trkpt>
      <trkpt lat="45.6544" lon="4.74149">
        <ele>242</ele>
        <time>2019-04-28T13:56:15Z</time>
      </trkpt>
      <trkpt lat="45.65416" lon="4.74138">
        <ele>245</ele>
        <time>2019-04-28T13:57:15Z</time>
      </trkpt>
      <trkpt lat="45.65392" lon="4.74112">
        <ele>243</ele>
        <time>2019-04-28T13:58:15Z</time>
      </trkpt>
      <trkpt lat="45.6539" lon="4.74107">
        <ele>244</ele>
        <time>2019-04-28T13:59:15Z</time>
      </trkpt>
      <trkpt lat="45.65393" lon="4.74086">
        <ele>247</ele>
        <time>2019-04-28T14:00:15Z</time>
      </trkpt>
      <trkpt lat="45.65408" lon="4.74064">
        <ele>251</ele>
        <time>2019-04-28T14:01:15Z</time>
      </trkpt>
      <trkpt lat="45.65472" lon="4.73987">
        <ele>260</ele>
        <time>2019-04-28T14:02:15Z</time>
      </trkpt>
      <trkpt lat="45.65478" lon="4.73974">
        <ele>261</ele>
        <time>2019-04-28T14:03:15Z</time>
      </trkpt>
      <trkpt lat="45.6548" lon="4.73963">
        <ele>262</ele>
        <time>2019-04-28T14:04:15Z</time>
      </trkpt>
      <trkpt lat="45.65477" lon="4.73938">
        <ele>264</ele>
        <time>2019-04-28T14:05:15Z</time>
      </trkpt>
      <trkpt lat="45.65485" lon="4.73939">
        <ele>264</ele>
        <time>2019-04-28T14:06:15Z</time>
      </trkpt>
      <trkpt lat="45.65493" lon="4.73947">
        <ele>264</ele>
        <time>2019-04-28T14:07:15Z</time>
      </trkpt>
      <trkpt lat="45.65502" lon="4.73948">
        <ele>264</ele>
        <time>2019-04-28T14:08:15Z</time>
      </trkpt>
      <trkpt lat="45.65503" lon="4.7394">
        <ele>265</ele>
        <time>2019-04-28T14:09:15Z</time>
      </trkpt>
      <trkpt lat="45.65496" lon="4.7393">
        <ele>266</ele>
        <time>2019-04-28T14:10:15Z</time>
      </trkpt>
      <trkpt lat="45.65499" lon="4.73889">
        <ele>269</ele>
        <time>2019-04-28T14:11:15Z</time>
      </trkpt>
      <trkpt lat="45.65503" lon="4.73869">
        <ele>270</ele>
        <time>2019-04-28T14:12:15Z</time>
      </trkpt>
      <trkpt lat="45.65504" lon="4.73815">
        <ele>274</ele>
        <time>2019-04-28T14:13:15Z</time>
      </trkpt>
      <trkpt lat="45.65516" lon="4.73748">
        <ele>277</ele>
        <time>2019-04-28T14:14:15Z</time>
      </trkpt>
      <trkpt lat="45.65518" lon="4.73703">
        <ele>278</ele>
        <time>2019-04-28T14:15:15Z</time>
      </trkpt>
      <trkpt lat="45.65516" lon="4.73676">
        <ele>279</ele>
        <time>2019-04-28T14:16:15Z</time>
      </trkpt>
      <trkpt lat="45.65527" lon="4.73544">
        <ele>280</ele>
        <time>2019-04-28T14:17:15Z</time>
      </trkpt>
      <trkpt lat="45.65533" lon="4.73337">
        <ele>278</ele>
        <time>2019-04-28T14:18:15Z</time>
      </trkpt>
      <trkpt lat="45.65538" lon="4.73302">
        <ele>279</ele>
        <time>2019-04-28T14:19:15Z</time>
      </trkpt>
      <trkpt lat="45.65581" lon="4.73186">
        <ele>283</ele>
        <time>2019-04-28T14:20:15Z</time>
      </trkpt>
      <trkpt lat="45.65584" lon="4.73165">
        <ele>284</ele>
        <time>2019-04-28T14:21:15Z</time>
      </trkpt>
      <trkpt lat="45.65584" lon="4.73053">
        <ele>290</ele>
        <time>2019-04-28T14:22:15Z</time>
      </trkpt>
      <trkpt lat="45.65595" lon="4.73006">
        <ele>291</ele>
        <time>2019-04-28T14:23:15Z</time>
      </trkpt>
      <trkpt lat="45.65602" lon="4.72988">
        <ele>291</ele>
        <time>2019-04-28T14:24:15Z</time>
      </trkpt>
      <trkpt lat="45.65619" lon="4.72959">
        <ele>290</ele>
        <time>2019-04-28T14:25:15Z</time>
      </trkpt>
      <trkpt lat="45.65663" lon="4.72895">
        <ele>287</ele>
        <time>2019-04-28T14:26:15Z</time>
      </trkpt>
      <trkpt lat="45.6569" lon="4.72841">
        <ele>286</ele>
        <time>2019-04-28T14:27:15Z</time>
      </trkpt>
      <trkpt lat="45.65731" lon="4.72691">
        <ele>289</ele>
        <time>2019-04-28T14:28:15Z</time>
      </trkpt>
      <trkpt lat="45.65736" lon="4.72669">
        <ele>289</ele>
        <time>2019-04-28T14:29:15Z</time>
      </trkpt>
      <trkpt lat="45.65741" lon="4.7262">
        <ele>291</ele>
        <time>2019-04-28T14:30:15Z</time>
      </trkpt>
      <trkpt lat="45.65746" lon="4.726">
        <ele>291</ele>
        <time>2019-04-28T14:31:15Z</time>
      </trkpt>
      <trkpt lat="45.6577" lon="4.72548">
        <ele>289</ele>
        <time>2019-04-28T14:32:15Z</time>
      </trkpt>
      <trkpt lat="45.6578" lon="4.72516">
        <ele>288</ele>
        <time>2019-04-28T14:33:15Z</time>
      </trkpt>
      <trkpt lat="45.65819" lon="4.72273">
        <ele>294</ele>
        <time>2019-04-28T14:34:15Z</time>
      </trkpt>
      <trkpt lat="45.65827" lon="4.72202">
        <ele>295</ele>
        <time>2019-04-28T14:35:15Z</time>
      </trkpt>
      <trkpt lat="45.65829" lon="4.72145">
        <ele>295</ele>
        <time>2019-04-28T14:36:15Z</time>
      </trkpt>
      <trkpt lat="45.65843" lon="4.72122">
        <ele>294</ele>
        <time>2019-04-28T14:37:15Z</time>
      </trkpt>
      <trkpt lat="45.65839" lon="4.72085">
        <ele>295</ele>
        <time>2019-04-28T14:38:15Z</time>
      </trkpt>
      <trkpt lat="45.65841" lon="4.72076">
        <ele>295</ele>
        <time>2019-04-28T14:39:15Z</time>
      </trkpt>
      <trkpt lat="45.65844" lon="4.72072">
        <ele>295</ele>
        <time>2019-04-28T14:40:15Z</time>
      </trkpt>
      <trkpt lat="45.65886" lon="4.72085">
        <ele>292</ele>
        <time>2019-04-28T14:41:15Z</time>
      </trkpt>
      <trkpt lat="45.65908" lon="4.72103">
        <ele>290</ele>
        <time>2019-04-28T14:42:15Z</time>
      </trkpt>
      <trkpt lat="45.65953" lon="4.72119">
        <ele>289</ele>
        <time>2019-04-28T14:43:15Z</time>
      </trkpt>
      <trkpt lat="45.66057" lon="4.72127">
        <ele>281</ele>
        <time>2019-04-28T14:44:15Z</time>
      </trkpt>
      <trkpt lat="45.66095" lon="4.72134">
        <ele>280</ele>
        <time>2019-04-28T14:45:15Z</time>
      </trkpt>
      <trkpt lat="45.66106" lon="4.72141">
        <ele>281</ele>
        <time>2019-04-28T14:46:15Z</time>
      </trkpt>
      <trkpt lat="45.66121" lon="4.72162">
        <ele>283</ele>
        <time>2019-04-28T14:47:15Z</time>
      </trkpt>
      <trkpt lat="45.6613" lon="4.72251">
        <ele>280</ele>
        <time>2019-04-28T14:48:15Z</time>
      </trkpt>
      <trkpt lat="45.66137" lon="4.72287">
        <ele>279</ele>
        <time>2019-04-28T14:49:15Z</time>
      </trkpt>
      <trkpt lat="45.66131" lon="4.72326">
        <ele>276</ele>
        <time>2019-04-28T14:50:15Z</time>
      </trkpt>
      <trkpt lat="45.6612" lon="4.72375">
        <ele>275</ele>
        <time>2019-04-28T14:51:15Z</time>
      </trkpt>
      <trkpt lat="45.66119" lon="4.72394">
        <ele>276</ele>
        <time>2019-04-28T14:52:15Z</time>
      </trkpt>
      <trkpt lat="45.6613" lon="4.72428">
        <ele>281</ele>
        <time>2019-04-28T14:53:15Z</time>
      </trkpt>
      <trkpt lat="45.6612" lon="4.72505">
        <ele>283</ele>
        <time>2019-04-28T14:54:15Z</time>
      </trkpt>
      <trkpt lat="45.66125" lon="4.72523">
        <ele>286</ele>
        <time>2019-04-28T14:55:15Z</time>
      </trkpt>
      <trkpt lat="45.66129" lon="4.72526">
        <ele>287</ele>
        <time>2019-04-28T14:56:15Z</time>
      </trkpt>
      <trkpt lat="45.66131" lon="4.72533">
        <ele>288</ele>
        <time>2019-04-28T14:57:15Z</time>
      </trkpt>
      <trkpt lat="45.6615" lon="4.72544">
        <ele>294</ele>
        <time>2019-04-28T14:58:15Z</time>
      </trkpt>
      <trkpt lat="45.66153" lon="4.72551">
        <ele>295</ele>
        <time>2019-04-28T14:59:15Z</time>
      </trkpt>
      <trkpt lat="45.6615" lon="4.72574">
        <ele>295</ele>
        <time>2019-04-28T15:00:15Z</time>
      </trkpt>
      <trkpt lat="45.66123" lon="4.72625">
        <ele>294</ele>
        <time>2019-04-28T15:01:15Z</time>
      </trkpt>
      <trkpt lat="45.66111" lon="4.72676">
        <ele>296</ele>
        <time>2019-04-28T15:02:15Z</time>
      </trkpt>
      <trkpt lat="45.66111" lon="4.72699">
        <ele>297</ele>
        <time>2019-04-28T15:03:15Z</time>
      </trkpt>
      <trkpt lat="45.66115" lon="4.72722">
        <ele>299</ele>
        <time>2019-04-28T15:04:15Z</time>
      </trkpt>
      <trkpt lat="45.66119" lon="4.7273">
        <ele>300</ele>
        <time>2019-04-28T15:05:15Z</time>
      </trkpt>
      <trkpt lat="45.66119" lon="4.7274">
        <ele>300</ele>
        <time>2019-04-28T15:06:15Z</time>
      </trkpt>
      <trkpt lat="45.66114" lon="4.7275">
        <ele>300</ele>
        <time>2019-04-28T15:07:15Z</time>
      </trkpt>
      <trkpt lat="45.66112" lon="4.72764">
        <ele>298</ele>
        <time>2019-04-28T15:08:15Z</time>
      </trkpt>
      <trkpt lat="45.66116" lon="4.7278">
        <ele>298</ele>
        <time>2019-04-28T15:09:15Z</time>
      </trkpt>
      <trkpt lat="45.66143" lon="4.72852">
        <ele>298</ele>
        <time>2019-04-28T15:10:15Z</time>
      </trkpt>
      <trkpt lat="45.66156" lon="4.72873">
        <ele>299</ele>
        <time>2019-04-28T15:11:15Z</time>
      </trkpt>
      <trkpt lat="45.66191" lon="4.72946">
        <ele>297</ele>
        <time>2019-04-28T15:12:15Z</time>
      </trkpt>
      <trkpt lat="45.66203" lon="4.72985">
        <ele>295</ele>
        <time>2019-04-28T15:13:15Z</time>
      </trkpt>
      <trkpt lat="45.6623" lon="4.73">
        <ele>297</ele>
        <time>2019-04-28T15:14:15Z</time>
      </trkpt>
      <trkpt lat="45.6624" lon="4.7301">
        <ele>298</ele>
        <time>2019-04-28T15:15:15Z</time>
      </trkpt>
      <trkpt lat="45.66248" lon="4.73021">
        <ele>299</ele>
        <time>2019-04-28T15:16:15Z</time>
      </trkpt>
      <trkpt lat="45.66252" lon="4.73044">
        <ele>299</ele>
        <time>2019-04-28T15:17:15Z</time>
      </trkpt>
      <trkpt lat="45.66246" lon="4.73084">
        <ele>298</ele>
        <time>2019-04-28T15:18:15Z</time>
      </trkpt>
      <trkpt lat="45.66238" lon="4.73097">
        <ele>298</ele>
        <time>2019-04-28T15:19:15Z</time>
      </trkpt>
      <trkpt lat="45.66232" lon="4.73148">
        <ele>299</ele>
        <time>2019-04-28T15:20:15Z</time>
      </trkpt>
      <trkpt lat="45.66221" lon="4.73325">
        <ele>296</ele>
        <time>2019-04-28T15:21:15Z</time>
      </trkpt>
      <trkpt lat="45.66222" lon="4.73384">
        <ele>294</ele>
        <time>2019-04-28T15:22:15Z</time>
      </trkpt>
      <trkpt lat="45.66247" lon="4.73372">
        <ele>296</ele>
        <time>2019-04-28T15:23:15Z</time>
      </trkpt>
      <trkpt lat="45.66292" lon="4.73339">
        <ele>300</ele>
        <time>2019-04-28T15:24:15Z</time>
      </trkpt>
      <trkpt lat="45.66308" lon="4.73337">
        <ele>301</ele>
        <time>2019-04-28T15:25:15Z</time>
      </trkpt>
      <trkpt lat="45.66398" lon="4.73339">
        <ele>303</ele>
        <time>2019-04-28T15:26:15Z</time>
      </trkpt>
      <trkpt lat="45.66408" lon="4.73334">
        <ele>303</ele>
        <time>2019-04-28T15:27:15Z</time>
      </trkpt>
      <trkpt lat="45.66414" lon="4.73326">
        <ele>303</ele>
        <time>2019-04-28T15:28:15Z</time>
      </trkpt>
      <trkpt lat="45.66417" lon="4.73285">
        <ele>304</ele>
        <time>2019-04-28T15:29:15Z</time>
      </trkpt>
      <trkpt lat="45.6642" lon="4.73273">
        <ele>304</ele>
        <time>2019-04-28T15:30:15Z</time>
      </trkpt>
      <trkpt lat="45.66426" lon="4.73269">
        <ele>304</ele>
        <time>2019-04-28T15:31:15Z</time>
      </trkpt>
      <trkpt lat="45.66461" lon="4.73335">
        <ele>302</ele>
        <time>2019-04-28T15:32:15Z</time>
      </trkpt>
      <trkpt lat="45.66515" lon="4.73405">
        <ele>299</ele>
        <time>2019-04-28T15:33:15Z</time>
      </trkpt>
      <trkpt lat="45.66569" lon="4.73484">
        <ele>299</ele>
        <time>2019-04-28T15:34:15Z</time>
      </trkpt>
      <trkpt lat="45.6662" lon="4.73566">
        <ele>300</ele>
        <time>2019-04-28T15:35:15Z</time>
      </trkpt>
      <trkpt lat="45.66634" lon="4.73596">
        <ele>300</ele>
        <time>2019-04-28T15:36:15Z</time>
      </trkpt>
      <trkpt lat="45.66687" lon="4.73657">
        <ele>301</ele>
        <time>2019-04-28T15:37:15Z</time>
      </trkpt>
      <trkpt lat="45.66737" lon="4.73728">
        <ele>300</ele>
        <time>2019-04-28T15:38:15Z</time>
      </trkpt>
      <trkpt lat="45.66788" lon="4.73809">
        <ele>299</ele>
        <time>2019-04-28T15:39:15Z</time>
      </trkpt>
      <trkpt lat="45.66804" lon="4.73843">
        <ele>300</ele>
        <time>2019-04-28T15:40:15Z</time>
      </trkpt>
      <trkpt lat="45.66804" lon="4.73871">
        <ele>299</ele>
        <time>2019-04-28T15:41:15Z</time>
      </trkpt>
      <trkpt lat="45.66786" lon="4.73951">
        <ele>295</ele>
        <time>2019-04-28T15:42:15Z</time>
      </trkpt>
      <trkpt lat="45.66791" lon="4.73972">
        <ele>294</ele>
        <time>2019-04-28T15:43:15Z</time>
      </trkpt>
      <trkpt lat="45.66828" lon="4.74012">
        <ele>291</ele>
        <time>2019-04-28T15:44:15Z</time>
      </trkpt>
      <trkpt lat="45.66839" lon="4.74031">
        <ele>288</ele>
        <time>2019-04-28T15:45:15Z</time>
      </trkpt>
      <trkpt lat="45.6684" lon="4.74084">
        <ele>283</ele>
        <time>2019-04-28T15:46:15Z</time>
      </trkpt>
      <trkpt lat="45.66832" lon="4.74194">
        <ele>272</ele>
        <time>2019-04-28T15:47:15Z</time>
      </trkpt>
      <trkpt lat="45.66842" lon="4.74258">
        <ele>269</ele>
        <time>2019-04-28T15:48:15Z</time>
      </trkpt>
      <trkpt lat="45.66826" lon="4.74391">
        <ele>268</ele>
        <time>2019-04-28T15:49:15Z</time>
      </trkpt>
      <trkpt lat="45.66807" lon="4.74469">
        <ele>264</ele>
        <time>2019-04-28T15:50:15Z</time>
      </trkpt>
      <trkpt lat="45.66813" lon="4.74528">
        <ele>261</ele>
        <time>2019-04-28T15:51:15Z</time>
      </trkpt>
      <trkpt lat="45.66793" lon="4.7468">
        <ele>242</ele>
        <time>2019-04-28T15:52:15Z</time>
      </trkpt>
      <trkpt lat="45.66788" lon="4.74698">
        <ele>239</ele>
        <time>2019-04-28T15:53:15Z</time>
      </trkpt>
      <trkpt lat="45.66773" lon="4.74713">
        <ele>237</ele>
        <time>2019-04-28T15:54:15Z</time>
      </trkpt>
      <trkpt lat="45.66776" lon="4.74719">
        <ele>236</ele>
        <time>2019-04-28T15:55:15Z</time>
      </trkpt>
      <trkpt lat="45.66782" lon="4.74719">
        <ele>236</ele>
        <time>2019-04-28T15:56:15Z</time>
      </trkpt>
      <trkpt lat="45.66809" lon="4.74701">
        <ele>239</ele>
        <time>2019-04-28T15:57:15Z</time>
      </trkpt>
      <trkpt lat="45.66817" lon="4.74705">
        <ele>238</ele>
        <time>2019-04-28T15:58:15Z</time>
      </trkpt>
      <trkpt lat="45.66812" lon="4.74781">
        <ele>227</ele>
        <time>2019-04-28T15:59:15Z</time>
      </trkpt>
      <trkpt lat="45.66799" lon="4.74855">
        <ele>220</ele>
        <time>2019-04-28T16:00:15Z</time>
      </trkpt>
      <trkpt lat="45.66794" lon="4.74866">
        <ele>219</ele>
        <time>2019-04-28T16:01:15Z</time>
      </trkpt>
      <trkpt lat="45.66773" lon="4.74883">
        <ele>218</ele>
        <time>2019-04-28T16:02:15Z</time>
      </trkpt>
      <trkpt lat="45.6676" lon="4.74897">
        <ele>216</ele>
        <time>2019-04-28T16:03:15Z</time>
      </trkpt>
      <trkpt lat="45.66758" lon="4.74907">
        <ele>215</ele>
        <time>2019-04-28T16:04:15Z</time>
      </trkpt>
      <trkpt lat="45.66773" lon="4.74989">
        <ele>212</ele>
        <time>2019-04-28T16:05:15Z</time>
      </trkpt>
      <trkpt lat="45.66774" lon="4.75017">
        <ele>211</ele>
        <time>2019-04-28T16:06:15Z</time>
      </trkpt>
      <trkpt lat="45.66776" lon="4.75022">
        <ele>211</ele>
        <time>2019-04-28T16:07:15Z</time>
      </trkpt>
      <trkpt lat="45.668" lon="4.75046">
        <ele>211</ele>
        <time>2019-04-28T16:08:15Z</time>
      </trkpt>
      <trkpt lat="45.66831" lon="4.75085">
        <ele>210</ele>
        <time>2019-04-28T16:09:15Z</time>
      </trkpt>
      <trkpt lat="45.66863" lon="4.75143">
        <ele>209</ele>
        <time>2019-04-28T16:10:15Z</time>
      </trkpt>
      <trkpt lat="45.6692" lon="4.75228">
        <ele>209</ele>
        <time>2019-04-28T16:11:15Z</time>
      </trkpt>
      <trkpt lat="45.66938" lon="4.75251">
        <ele>209</ele>
        <time>2019-04-28T16:12:15Z</time>
      </trkpt>
      <trkpt lat="45.66943" lon="4.75299">
        <ele>209</ele>
        <time>2019-04-28T16:13:15Z</time>
      </trkpt>
      <trkpt lat="45.66947" lon="4.75303">
        <ele>208</ele>
        <time>2019-04-28T16:14:15Z</time>
      </trkpt>
      <trkpt lat="45.67118" lon="4.75326">
        <ele>207</ele>
        <time>2019-04-28T16:15:15Z</time>
      </trkpt>
      <trkpt lat="45.67171" lon="4.75336">
        <ele>208</ele>
        <time>2019-04-28T16:16:15Z</time>
      </trkpt>
      <trkpt lat="45.67176" lon="4.75341">
        <ele>208</ele>
        <time>2019-04-28T16:17:15Z</time>
      </trkpt>
      <trkpt lat="45.67178" lon="4.75346">
        <ele>208</ele>
        <time>2019-04-28T16:18:15Z</time>
      </trkpt>
      <trkpt lat="45.67146" lon="4.75519">
        <ele>206</ele>
        <time>2019-04-28T16:19:15Z</time>
      </trkpt>
      <trkpt lat="45.67147" lon="4.75526">
        <ele>206</ele>
        <time>2019-04-28T16:20:15Z</time>
      </trkpt>
      <trkpt lat="45.67153" lon="4.75531">
        <ele>206</ele>
        <time>2019-04-28T16:21:15Z</time>
      </trkpt>
    </trkseg>
  </trk>
</gpx>